<?xml version="1.0" encoding="UTF-8" standalone="no" ?>
<gpx xmlns="http://www.topografix.com/GPX/1/1" xmlns:xsi="http://www.w3.org/2001/XMLSchema-instance" xsi:schemaLocation="http://www.topografix.com/GPX/1/1 http://www.topografix.com/GPX/1/1/gpx.xsd" version="1.1" creator="VisuGPX - https://www.visugpx.com">
  <metadata>
    <name>2017-08-03 Bike ride VTT-Amberieux-Saone O Quincieux O</name>
    <desc><![CDATA[2017-08-03 Bike ride VTT-Amberieux-Saone O Quincieux O]]></desc>
  </metadata>
  <wpt lat="45.92442" lon="4.7372">
    <ele>174</ele>
    <name><![CDATA[2017-08-03 15:03 (Start)]]></name>
  </wpt>
  <wpt lat="45.92463" lon="4.73709">
    <ele>174</ele>
    <name><![CDATA[2017-08-03 15:03 (End)]]></name>
    <desc><![CDATA[Created by Google My Tracks on Android  Name: 2017-08-03 15:03 Activity type: biking Description: - Total distance: 21.77 km (13.5 mi) Total time: 1:46:29 Moving time: 1:17:45 Average speed: 12.27 km/h (7.6 mi/h) Average moving speed: 16.80 km/h (10.4 mi/h) Max speed: 26.31 km/h (16.3 mi/h) Average pace: 4:53 min/km (7:52 min/mi) Average moving pace: 3:34 min/km (5:45 min/mi) Fastest pace: 2:17 min/km (3:40 min/mi) Max elevation: 264 m (867 ft) Min elevation: 154 m (506 ft) Elevation gain: 474 m (1554 ft) Max grade: 13 % Min grade: -316 % Recorded: 03/08/2017 15:03]]></desc>
  </wpt>
  <trk>
    <name><![CDATA[2017-08-03 15:03]]></name>
    <trkseg>
      <trkpt lat="45.92442" lon="4.7372">
        <ele>174</ele>
        <time>2017-08-03T13:03:56.266Z</time>
      </trkpt>
      <trkpt lat="45.92442" lon="4.7373">
        <ele>174</ele>
        <time>2017-08-03T13:04:24Z</time>
      </trkpt>
      <trkpt lat="45.9246" lon="4.73686">
        <ele>174</ele>
        <time>2017-08-03T13:04:25Z</time>
      </trkpt>
      <trkpt lat="45.92461" lon="4.73698">
        <ele>174</ele>
        <time>2017-08-03T13:04:56Z</time>
      </trkpt>
      <trkpt lat="45.92461" lon="4.73699">
        <ele>174</ele>
        <time>2017-08-03T13:04:57Z</time>
      </trkpt>
      <trkpt lat="45.92461" lon="4.73712">
        <ele>174</ele>
        <time>2017-08-03T13:05:02Z</time>
      </trkpt>
      <trkpt lat="45.92461" lon="4.73714">
        <ele>174</ele>
        <time>2017-08-03T13:05:03Z</time>
      </trkpt>
      <trkpt lat="45.9246" lon="4.73725">
        <ele>174</ele>
        <time>2017-08-03T13:05:07Z</time>
      </trkpt>
      <trkpt lat="45.9246" lon="4.73729">
        <ele>174</ele>
        <time>2017-08-03T13:05:08Z</time>
      </trkpt>
      <trkpt lat="45.92459" lon="4.73739">
        <ele>174</ele>
        <time>2017-08-03T13:05:11Z</time>
      </trkpt>
      <trkpt lat="45.92459" lon="4.73743">
        <ele>174</ele>
        <time>2017-08-03T13:05:12Z</time>
      </trkpt>
      <trkpt lat="45.92458" lon="4.73755">
        <ele>173</ele>
        <time>2017-08-03T13:05:14Z</time>
      </trkpt>
      <trkpt lat="45.92457" lon="4.7376">
        <ele>173</ele>
        <time>2017-08-03T13:05:15Z</time>
      </trkpt>
      <trkpt lat="45.92457" lon="4.73771">
        <ele>173</ele>
        <time>2017-08-03T13:05:17Z</time>
      </trkpt>
      <trkpt lat="45.92458" lon="4.73775">
        <ele>173</ele>
        <time>2017-08-03T13:05:18Z</time>
      </trkpt>
      <trkpt lat="45.92459" lon="4.73786">
        <ele>172</ele>
        <time>2017-08-03T13:05:20Z</time>
      </trkpt>
      <trkpt lat="45.92459" lon="4.73792">
        <ele>172</ele>
        <time>2017-08-03T13:05:21Z</time>
      </trkpt>
      <trkpt lat="45.92458" lon="4.73802">
        <ele>172</ele>
        <time>2017-08-03T13:05:23Z</time>
      </trkpt>
      <trkpt lat="45.92458" lon="4.73805">
        <ele>172</ele>
        <time>2017-08-03T13:05:24Z</time>
      </trkpt>
      <trkpt lat="45.92459" lon="4.73813">
        <ele>172</ele>
        <time>2017-08-03T13:05:26Z</time>
      </trkpt>
      <trkpt lat="45.92458" lon="4.73819">
        <ele>172</ele>
        <time>2017-08-03T13:05:27Z</time>
      </trkpt>
      <trkpt lat="45.92457" lon="4.73831">
        <ele>172</ele>
        <time>2017-08-03T13:05:29Z</time>
      </trkpt>
      <trkpt lat="45.92457" lon="4.73836">
        <ele>171</ele>
        <time>2017-08-03T13:05:30Z</time>
      </trkpt>
      <trkpt lat="45.92458" lon="4.73848">
        <ele>171</ele>
        <time>2017-08-03T13:05:32Z</time>
      </trkpt>
      <trkpt lat="45.92458" lon="4.73854">
        <ele>171</ele>
        <time>2017-08-03T13:05:33Z</time>
      </trkpt>
      <trkpt lat="45.92458" lon="4.73861">
        <ele>171</ele>
        <time>2017-08-03T13:05:34Z</time>
      </trkpt>
      <trkpt lat="45.92459" lon="4.73868">
        <ele>171</ele>
        <time>2017-08-03T13:05:35Z</time>
      </trkpt>
      <trkpt lat="45.92459" lon="4.73874">
        <ele>171</ele>
        <time>2017-08-03T13:05:36Z</time>
      </trkpt>
      <trkpt lat="45.92459" lon="4.73881">
        <ele>171</ele>
        <time>2017-08-03T13:05:37Z</time>
      </trkpt>
      <trkpt lat="45.92459" lon="4.73893">
        <ele>171</ele>
        <time>2017-08-03T13:05:39Z</time>
      </trkpt>
      <trkpt lat="45.92458" lon="4.739">
        <ele>171</ele>
        <time>2017-08-03T13:05:40Z</time>
      </trkpt>
      <trkpt lat="45.92458" lon="4.73913">
        <ele>172</ele>
        <time>2017-08-03T13:05:42Z</time>
      </trkpt>
      <trkpt lat="45.92457" lon="4.73919">
        <ele>172</ele>
        <time>2017-08-03T13:05:43Z</time>
      </trkpt>
      <trkpt lat="45.92458" lon="4.73929">
        <ele>172</ele>
        <time>2017-08-03T13:05:45Z</time>
      </trkpt>
      <trkpt lat="45.92459" lon="4.73934">
        <ele>172</ele>
        <time>2017-08-03T13:05:46Z</time>
      </trkpt>
      <trkpt lat="45.92464" lon="4.73944">
        <ele>172</ele>
        <time>2017-08-03T13:05:48Z</time>
      </trkpt>
      <trkpt lat="45.92468" lon="4.73947">
        <ele>172</ele>
        <time>2017-08-03T13:05:49Z</time>
      </trkpt>
      <trkpt lat="45.92472" lon="4.73951">
        <ele>172</ele>
        <time>2017-08-03T13:05:50Z</time>
      </trkpt>
      <trkpt lat="45.92477" lon="4.73954">
        <ele>172</ele>
        <time>2017-08-03T13:05:51Z</time>
      </trkpt>
      <trkpt lat="45.92482" lon="4.73956">
        <ele>172</ele>
        <time>2017-08-03T13:05:52Z</time>
      </trkpt>
      <trkpt lat="45.92487" lon="4.73958">
        <ele>172</ele>
        <time>2017-08-03T13:05:53Z</time>
      </trkpt>
      <trkpt lat="45.92492" lon="4.7396">
        <ele>172</ele>
        <time>2017-08-03T13:05:54Z</time>
      </trkpt>
      <trkpt lat="45.92497" lon="4.73963">
        <ele>172</ele>
        <time>2017-08-03T13:05:55Z</time>
      </trkpt>
      <trkpt lat="45.92502" lon="4.73966">
        <ele>172</ele>
        <time>2017-08-03T13:05:56Z</time>
      </trkpt>
      <trkpt lat="45.92508" lon="4.73968">
        <ele>172</ele>
        <time>2017-08-03T13:05:57Z</time>
      </trkpt>
      <trkpt lat="45.92512" lon="4.73971">
        <ele>172</ele>
        <time>2017-08-03T13:05:58Z</time>
      </trkpt>
      <trkpt lat="45.92517" lon="4.73972">
        <ele>172</ele>
        <time>2017-08-03T13:05:59Z</time>
      </trkpt>
      <trkpt lat="45.92522" lon="4.73975">
        <ele>172</ele>
        <time>2017-08-03T13:06:00Z</time>
      </trkpt>
      <trkpt lat="45.92526" lon="4.73977">
        <ele>172</ele>
        <time>2017-08-03T13:06:01Z</time>
      </trkpt>
      <trkpt lat="45.9253" lon="4.73979">
        <ele>172</ele>
        <time>2017-08-03T13:06:02Z</time>
      </trkpt>
      <trkpt lat="45.92534" lon="4.73982">
        <ele>172</ele>
        <time>2017-08-03T13:06:03Z</time>
      </trkpt>
      <trkpt lat="45.92541" lon="4.73987">
        <ele>172</ele>
        <time>2017-08-03T13:06:05Z</time>
      </trkpt>
      <trkpt lat="45.92543" lon="4.7399">
        <ele>172</ele>
        <time>2017-08-03T13:06:06Z</time>
      </trkpt>
      <trkpt lat="45.92546" lon="4.74002">
        <ele>172</ele>
        <time>2017-08-03T13:06:08Z</time>
      </trkpt>
      <trkpt lat="45.92547" lon="4.74006">
        <ele>172</ele>
        <time>2017-08-03T13:06:09Z</time>
      </trkpt>
      <trkpt lat="45.92548" lon="4.74018">
        <ele>172</ele>
        <time>2017-08-03T13:06:11Z</time>
      </trkpt>
      <trkpt lat="45.92546" lon="4.74025">
        <ele>172</ele>
        <time>2017-08-03T13:06:12Z</time>
      </trkpt>
      <trkpt lat="45.92542" lon="4.74031">
        <ele>172</ele>
        <time>2017-08-03T13:06:13Z</time>
      </trkpt>
      <trkpt lat="45.92539" lon="4.74036">
        <ele>172</ele>
        <time>2017-08-03T13:06:14Z</time>
      </trkpt>
      <trkpt lat="45.92534" lon="4.74044">
        <ele>172</ele>
        <time>2017-08-03T13:06:16Z</time>
      </trkpt>
      <trkpt lat="45.92531" lon="4.74048">
        <ele>172</ele>
        <time>2017-08-03T13:06:17Z</time>
      </trkpt>
      <trkpt lat="45.92525" lon="4.74056">
        <ele>172</ele>
        <time>2017-08-03T13:06:19Z</time>
      </trkpt>
      <trkpt lat="45.92522" lon="4.7406">
        <ele>172</ele>
        <time>2017-08-03T13:06:20Z</time>
      </trkpt>
      <trkpt lat="45.92519" lon="4.74064">
        <ele>172</ele>
        <time>2017-08-03T13:06:21Z</time>
      </trkpt>
      <trkpt lat="45.92516" lon="4.74074">
        <ele>172</ele>
        <time>2017-08-03T13:06:22Z</time>
      </trkpt>
      <trkpt lat="45.92513" lon="4.74083">
        <ele>172</ele>
        <time>2017-08-03T13:06:23Z</time>
      </trkpt>
      <trkpt lat="45.92509" lon="4.74092">
        <ele>172</ele>
        <time>2017-08-03T13:06:24Z</time>
      </trkpt>
      <trkpt lat="45.92505" lon="4.74099">
        <ele>172</ele>
        <time>2017-08-03T13:06:25Z</time>
      </trkpt>
      <trkpt lat="45.92502" lon="4.74105">
        <ele>172</ele>
        <time>2017-08-03T13:06:26Z</time>
      </trkpt>
      <trkpt lat="45.92498" lon="4.7411">
        <ele>172</ele>
        <time>2017-08-03T13:06:27Z</time>
      </trkpt>
      <trkpt lat="45.92494" lon="4.74116">
        <ele>172</ele>
        <time>2017-08-03T13:06:28Z</time>
      </trkpt>
      <trkpt lat="45.9249" lon="4.74122">
        <ele>172</ele>
        <time>2017-08-03T13:06:29Z</time>
      </trkpt>
      <trkpt lat="45.92486" lon="4.74128">
        <ele>171</ele>
        <time>2017-08-03T13:06:30Z</time>
      </trkpt>
      <trkpt lat="45.92481" lon="4.74135">
        <ele>171</ele>
        <time>2017-08-03T13:06:32Z</time>
      </trkpt>
      <trkpt lat="45.92479" lon="4.7414">
        <ele>171</ele>
        <time>2017-08-03T13:06:33Z</time>
      </trkpt>
      <trkpt lat="45.92476" lon="4.74149">
        <ele>171</ele>
        <time>2017-08-03T13:06:35Z</time>
      </trkpt>
      <trkpt lat="45.92474" lon="4.74153">
        <ele>171</ele>
        <time>2017-08-03T13:06:36Z</time>
      </trkpt>
      <trkpt lat="45.9247" lon="4.74162">
        <ele>171</ele>
        <time>2017-08-03T13:06:38Z</time>
      </trkpt>
      <trkpt lat="45.92468" lon="4.74168">
        <ele>171</ele>
        <time>2017-08-03T13:06:39Z</time>
      </trkpt>
      <trkpt lat="45.92465" lon="4.74174">
        <ele>171</ele>
        <time>2017-08-03T13:06:40Z</time>
      </trkpt>
      <trkpt lat="45.92463" lon="4.74181">
        <ele>171</ele>
        <time>2017-08-03T13:06:41Z</time>
      </trkpt>
      <trkpt lat="45.92461" lon="4.74187">
        <ele>171</ele>
        <time>2017-08-03T13:06:42Z</time>
      </trkpt>
      <trkpt lat="45.92458" lon="4.74194">
        <ele>171</ele>
        <time>2017-08-03T13:06:43Z</time>
      </trkpt>
      <trkpt lat="45.92456" lon="4.742">
        <ele>171</ele>
        <time>2017-08-03T13:06:44Z</time>
      </trkpt>
      <trkpt lat="45.92453" lon="4.74206">
        <ele>171</ele>
        <time>2017-08-03T13:06:45Z</time>
      </trkpt>
      <trkpt lat="45.9245" lon="4.74211">
        <ele>171</ele>
        <time>2017-08-03T13:06:46Z</time>
      </trkpt>
      <trkpt lat="45.92447" lon="4.74216">
        <ele>171</ele>
        <time>2017-08-03T13:06:47Z</time>
      </trkpt>
      <trkpt lat="45.92443" lon="4.74221">
        <ele>171</ele>
        <time>2017-08-03T13:06:48Z</time>
      </trkpt>
      <trkpt lat="45.92441" lon="4.74226">
        <ele>171</ele>
        <time>2017-08-03T13:06:49Z</time>
      </trkpt>
      <trkpt lat="45.92436" lon="4.74236">
        <ele>171</ele>
        <time>2017-08-03T13:06:51Z</time>
      </trkpt>
      <trkpt lat="45.92434" lon="4.74241">
        <ele>171</ele>
        <time>2017-08-03T13:06:52Z</time>
      </trkpt>
      <trkpt lat="45.92429" lon="4.74249">
        <ele>171</ele>
        <time>2017-08-03T13:06:54Z</time>
      </trkpt>
      <trkpt lat="45.92426" lon="4.74254">
        <ele>171</ele>
        <time>2017-08-03T13:06:55Z</time>
      </trkpt>
      <trkpt lat="45.92423" lon="4.74259">
        <ele>171</ele>
        <time>2017-08-03T13:06:56Z</time>
      </trkpt>
      <trkpt lat="45.9242" lon="4.74264">
        <ele>171</ele>
        <time>2017-08-03T13:06:57Z</time>
      </trkpt>
      <trkpt lat="45.92415" lon="4.74273">
        <ele>171</ele>
        <time>2017-08-03T13:06:59Z</time>
      </trkpt>
      <trkpt lat="45.92412" lon="4.74277">
        <ele>170</ele>
        <time>2017-08-03T13:07:00Z</time>
      </trkpt>
      <trkpt lat="45.92407" lon="4.74286">
        <ele>170</ele>
        <time>2017-08-03T13:07:02Z</time>
      </trkpt>
      <trkpt lat="45.92404" lon="4.74291">
        <ele>170</ele>
        <time>2017-08-03T13:07:03Z</time>
      </trkpt>
      <trkpt lat="45.92401" lon="4.74296">
        <ele>170</ele>
        <time>2017-08-03T13:07:04Z</time>
      </trkpt>
      <trkpt lat="45.92397" lon="4.74301">
        <ele>170</ele>
        <time>2017-08-03T13:07:05Z</time>
      </trkpt>
      <trkpt lat="45.9239" lon="4.74308">
        <ele>170</ele>
        <time>2017-08-03T13:07:07Z</time>
      </trkpt>
      <trkpt lat="45.92386" lon="4.74309">
        <ele>170</ele>
        <time>2017-08-03T13:07:08Z</time>
      </trkpt>
      <trkpt lat="45.92379" lon="4.74312">
        <ele>170</ele>
        <time>2017-08-03T13:07:10Z</time>
      </trkpt>
      <trkpt lat="45.92376" lon="4.74312">
        <ele>170</ele>
        <time>2017-08-03T13:07:11Z</time>
      </trkpt>
      <trkpt lat="45.92367" lon="4.74309">
        <ele>170</ele>
        <time>2017-08-03T13:07:13Z</time>
      </trkpt>
      <trkpt lat="45.92363" lon="4.74307">
        <ele>170</ele>
        <time>2017-08-03T13:07:14Z</time>
      </trkpt>
      <trkpt lat="45.92358" lon="4.74305">
        <ele>170</ele>
        <time>2017-08-03T13:07:15Z</time>
      </trkpt>
      <trkpt lat="45.92353" lon="4.74303">
        <ele>170</ele>
        <time>2017-08-03T13:07:16Z</time>
      </trkpt>
      <trkpt lat="45.92349" lon="4.74301">
        <ele>170</ele>
        <time>2017-08-03T13:07:17Z</time>
      </trkpt>
      <trkpt lat="45.92344" lon="4.743">
        <ele>170</ele>
        <time>2017-08-03T13:07:18Z</time>
      </trkpt>
      <trkpt lat="45.9234" lon="4.74299">
        <ele>170</ele>
        <time>2017-08-03T13:07:19Z</time>
      </trkpt>
      <trkpt lat="45.92335" lon="4.74299">
        <ele>170</ele>
        <time>2017-08-03T13:07:20Z</time>
      </trkpt>
      <trkpt lat="45.9233" lon="4.743">
        <ele>170</ele>
        <time>2017-08-03T13:07:21Z</time>
      </trkpt>
      <trkpt lat="45.92326" lon="4.74302">
        <ele>170</ele>
        <time>2017-08-03T13:07:22Z</time>
      </trkpt>
      <trkpt lat="45.92321" lon="4.74305">
        <ele>170</ele>
        <time>2017-08-03T13:07:23Z</time>
      </trkpt>
      <trkpt lat="45.92317" lon="4.74307">
        <ele>170</ele>
        <time>2017-08-03T13:07:24Z</time>
      </trkpt>
      <trkpt lat="45.92312" lon="4.7431">
        <ele>170</ele>
        <time>2017-08-03T13:07:25Z</time>
      </trkpt>
      <trkpt lat="45.92308" lon="4.74314">
        <ele>170</ele>
        <time>2017-08-03T13:07:26Z</time>
      </trkpt>
      <trkpt lat="45.92304" lon="4.74318">
        <ele>170</ele>
        <time>2017-08-03T13:07:27Z</time>
      </trkpt>
      <trkpt lat="45.92299" lon="4.74321">
        <ele>170</ele>
        <time>2017-08-03T13:07:28Z</time>
      </trkpt>
      <trkpt lat="45.92295" lon="4.74325">
        <ele>170</ele>
        <time>2017-08-03T13:07:29Z</time>
      </trkpt>
      <trkpt lat="45.92291" lon="4.7433">
        <ele>170</ele>
        <time>2017-08-03T13:07:30Z</time>
      </trkpt>
      <trkpt lat="45.92287" lon="4.74333">
        <ele>170</ele>
        <time>2017-08-03T13:07:31Z</time>
      </trkpt>
      <trkpt lat="45.92284" lon="4.74338">
        <ele>171</ele>
        <time>2017-08-03T13:07:32Z</time>
      </trkpt>
      <trkpt lat="45.92277" lon="4.74345">
        <ele>171</ele>
        <time>2017-08-03T13:07:34Z</time>
      </trkpt>
      <trkpt lat="45.92273" lon="4.74349">
        <ele>171</ele>
        <time>2017-08-03T13:07:35Z</time>
      </trkpt>
      <trkpt lat="45.92269" lon="4.74353">
        <ele>171</ele>
        <time>2017-08-03T13:07:36Z</time>
      </trkpt>
      <trkpt lat="45.92266" lon="4.74358">
        <ele>171</ele>
        <time>2017-08-03T13:07:37Z</time>
      </trkpt>
      <trkpt lat="45.92262" lon="4.74363">
        <ele>171</ele>
        <time>2017-08-03T13:07:38Z</time>
      </trkpt>
      <trkpt lat="45.92259" lon="4.7437">
        <ele>171</ele>
        <time>2017-08-03T13:07:39Z</time>
      </trkpt>
      <trkpt lat="45.92256" lon="4.74376">
        <ele>171</ele>
        <time>2017-08-03T13:07:40Z</time>
      </trkpt>
      <trkpt lat="45.92254" lon="4.74382">
        <ele>171</ele>
        <time>2017-08-03T13:07:41Z</time>
      </trkpt>
      <trkpt lat="45.92251" lon="4.74388">
        <ele>171</ele>
        <time>2017-08-03T13:07:42Z</time>
      </trkpt>
      <trkpt lat="45.92249" lon="4.74394">
        <ele>171</ele>
        <time>2017-08-03T13:07:43Z</time>
      </trkpt>
      <trkpt lat="45.92245" lon="4.74406">
        <ele>171</ele>
        <time>2017-08-03T13:07:45Z</time>
      </trkpt>
      <trkpt lat="45.92244" lon="4.74412">
        <ele>171</ele>
        <time>2017-08-03T13:07:46Z</time>
      </trkpt>
      <trkpt lat="45.92242" lon="4.74418">
        <ele>171</ele>
        <time>2017-08-03T13:07:47Z</time>
      </trkpt>
      <trkpt lat="45.92241" lon="4.74424">
        <ele>171</ele>
        <time>2017-08-03T13:07:48Z</time>
      </trkpt>
      <trkpt lat="45.92237" lon="4.7443">
        <ele>171</ele>
        <time>2017-08-03T13:07:50Z</time>
      </trkpt>
      <trkpt lat="45.92236" lon="4.74436">
        <ele>171</ele>
        <time>2017-08-03T13:07:51Z</time>
      </trkpt>
      <trkpt lat="45.92235" lon="4.74445">
        <ele>171</ele>
        <time>2017-08-03T13:07:52Z</time>
      </trkpt>
      <trkpt lat="45.92237" lon="4.74455">
        <ele>171</ele>
        <time>2017-08-03T13:07:53Z</time>
      </trkpt>
      <trkpt lat="45.92238" lon="4.74463">
        <ele>171</ele>
        <time>2017-08-03T13:07:54Z</time>
      </trkpt>
      <trkpt lat="45.92241" lon="4.74468">
        <ele>171</ele>
        <time>2017-08-03T13:07:55Z</time>
      </trkpt>
      <trkpt lat="45.92247" lon="4.74475">
        <ele>171</ele>
        <time>2017-08-03T13:07:57Z</time>
      </trkpt>
      <trkpt lat="45.92251" lon="4.74477">
        <ele>171</ele>
        <time>2017-08-03T13:07:58Z</time>
      </trkpt>
      <trkpt lat="45.92258" lon="4.74481">
        <ele>171</ele>
        <time>2017-08-03T13:08:00Z</time>
      </trkpt>
      <trkpt lat="45.92262" lon="4.74483">
        <ele>171</ele>
        <time>2017-08-03T13:08:01Z</time>
      </trkpt>
      <trkpt lat="45.92266" lon="4.74486">
        <ele>171</ele>
        <time>2017-08-03T13:08:02Z</time>
      </trkpt>
      <trkpt lat="45.9227" lon="4.74489">
        <ele>171</ele>
        <time>2017-08-03T13:08:03Z</time>
      </trkpt>
      <trkpt lat="45.92275" lon="4.74492">
        <ele>171</ele>
        <time>2017-08-03T13:08:04Z</time>
      </trkpt>
      <trkpt lat="45.92279" lon="4.74494">
        <ele>171</ele>
        <time>2017-08-03T13:08:05Z</time>
      </trkpt>
      <trkpt lat="45.92284" lon="4.74496">
        <ele>171</ele>
        <time>2017-08-03T13:08:06Z</time>
      </trkpt>
      <trkpt lat="45.92289" lon="4.74498">
        <ele>171</ele>
        <time>2017-08-03T13:08:07Z</time>
      </trkpt>
      <trkpt lat="45.92293" lon="4.74501">
        <ele>171</ele>
        <time>2017-08-03T13:08:08Z</time>
      </trkpt>
      <trkpt lat="45.92298" lon="4.74504">
        <ele>171</ele>
        <time>2017-08-03T13:08:09Z</time>
      </trkpt>
      <trkpt lat="45.92303" lon="4.74507">
        <ele>171</ele>
        <time>2017-08-03T13:08:10Z</time>
      </trkpt>
      <trkpt lat="45.92307" lon="4.7451">
        <ele>171</ele>
        <time>2017-08-03T13:08:11Z</time>
      </trkpt>
      <trkpt lat="45.92312" lon="4.74512">
        <ele>171</ele>
        <time>2017-08-03T13:08:12Z</time>
      </trkpt>
      <trkpt lat="45.92316" lon="4.74515">
        <ele>171</ele>
        <time>2017-08-03T13:08:13Z</time>
      </trkpt>
      <trkpt lat="45.92324" lon="4.7452">
        <ele>171</ele>
        <time>2017-08-03T13:08:15Z</time>
      </trkpt>
      <trkpt lat="45.92328" lon="4.74523">
        <ele>171</ele>
        <time>2017-08-03T13:08:16Z</time>
      </trkpt>
      <trkpt lat="45.92332" lon="4.74525">
        <ele>171</ele>
        <time>2017-08-03T13:08:17Z</time>
      </trkpt>
      <trkpt lat="45.92336" lon="4.74528">
        <ele>171</ele>
        <time>2017-08-03T13:08:18Z</time>
      </trkpt>
      <trkpt lat="45.92341" lon="4.74531">
        <ele>171</ele>
        <time>2017-08-03T13:08:19Z</time>
      </trkpt>
      <trkpt lat="45.92345" lon="4.74533">
        <ele>171</ele>
        <time>2017-08-03T13:08:20Z</time>
      </trkpt>
      <trkpt lat="45.92349" lon="4.74536">
        <ele>171</ele>
        <time>2017-08-03T13:08:21Z</time>
      </trkpt>
      <trkpt lat="45.92354" lon="4.74539">
        <ele>171</ele>
        <time>2017-08-03T13:08:22Z</time>
      </trkpt>
      <trkpt lat="45.92358" lon="4.74542">
        <ele>170</ele>
        <time>2017-08-03T13:08:23Z</time>
      </trkpt>
      <trkpt lat="45.92363" lon="4.74546">
        <ele>170</ele>
        <time>2017-08-03T13:08:24Z</time>
      </trkpt>
      <trkpt lat="45.92367" lon="4.74549">
        <ele>170</ele>
        <time>2017-08-03T13:08:25Z</time>
      </trkpt>
      <trkpt lat="45.92372" lon="4.74552">
        <ele>170</ele>
        <time>2017-08-03T13:08:26Z</time>
      </trkpt>
      <trkpt lat="45.92376" lon="4.74555">
        <ele>171</ele>
        <time>2017-08-03T13:08:27Z</time>
      </trkpt>
      <trkpt lat="45.9238" lon="4.74558">
        <ele>171</ele>
        <time>2017-08-03T13:08:28Z</time>
      </trkpt>
      <trkpt lat="45.92384" lon="4.74561">
        <ele>171</ele>
        <time>2017-08-03T13:08:29Z</time>
      </trkpt>
      <trkpt lat="45.92388" lon="4.74564">
        <ele>171</ele>
        <time>2017-08-03T13:08:30Z</time>
      </trkpt>
      <trkpt lat="45.92395" lon="4.74568">
        <ele>171</ele>
        <time>2017-08-03T13:08:32Z</time>
      </trkpt>
      <trkpt lat="45.92398" lon="4.74571">
        <ele>171</ele>
        <time>2017-08-03T13:08:33Z</time>
      </trkpt>
      <trkpt lat="45.92406" lon="4.74575">
        <ele>171</ele>
        <time>2017-08-03T13:08:35Z</time>
      </trkpt>
      <trkpt lat="45.9241" lon="4.74578">
        <ele>171</ele>
        <time>2017-08-03T13:08:36Z</time>
      </trkpt>
      <trkpt lat="45.92414" lon="4.74581">
        <ele>171</ele>
        <time>2017-08-03T13:08:37Z</time>
      </trkpt>
      <trkpt lat="45.92419" lon="4.74584">
        <ele>171</ele>
        <time>2017-08-03T13:08:38Z</time>
      </trkpt>
      <trkpt lat="45.92426" lon="4.74592">
        <ele>171</ele>
        <time>2017-08-03T13:08:40Z</time>
      </trkpt>
      <trkpt lat="45.92428" lon="4.74596">
        <ele>171</ele>
        <time>2017-08-03T13:08:41Z</time>
      </trkpt>
      <trkpt lat="45.92431" lon="4.74605">
        <ele>171</ele>
        <time>2017-08-03T13:08:43Z</time>
      </trkpt>
      <trkpt lat="45.9243" lon="4.74611">
        <ele>171</ele>
        <time>2017-08-03T13:08:44Z</time>
      </trkpt>
      <trkpt lat="45.92428" lon="4.74623">
        <ele>171</ele>
        <time>2017-08-03T13:08:46Z</time>
      </trkpt>
      <trkpt lat="45.92427" lon="4.74629">
        <ele>171</ele>
        <time>2017-08-03T13:08:47Z</time>
      </trkpt>
      <trkpt lat="45.92425" lon="4.74635">
        <ele>171</ele>
        <time>2017-08-03T13:08:48Z</time>
      </trkpt>
      <trkpt lat="45.92423" lon="4.7464">
        <ele>171</ele>
        <time>2017-08-03T13:08:49Z</time>
      </trkpt>
      <trkpt lat="45.92418" lon="4.74645">
        <ele>171</ele>
        <time>2017-08-03T13:08:50Z</time>
      </trkpt>
      <trkpt lat="45.92415" lon="4.74648">
        <ele>171</ele>
        <time>2017-08-03T13:08:51Z</time>
      </trkpt>
      <trkpt lat="45.92408" lon="4.74654">
        <ele>171</ele>
        <time>2017-08-03T13:08:53Z</time>
      </trkpt>
      <trkpt lat="45.92405" lon="4.7466">
        <ele>171</ele>
        <time>2017-08-03T13:08:54Z</time>
      </trkpt>
      <trkpt lat="45.92402" lon="4.74665">
        <ele>171</ele>
        <time>2017-08-03T13:08:55Z</time>
      </trkpt>
      <trkpt lat="45.92399" lon="4.7467">
        <ele>171</ele>
        <time>2017-08-03T13:08:56Z</time>
      </trkpt>
      <trkpt lat="45.92396" lon="4.74676">
        <ele>171</ele>
        <time>2017-08-03T13:08:57Z</time>
      </trkpt>
      <trkpt lat="45.92393" lon="4.74681">
        <ele>171</ele>
        <time>2017-08-03T13:08:58Z</time>
      </trkpt>
      <trkpt lat="45.92389" lon="4.74686">
        <ele>171</ele>
        <time>2017-08-03T13:08:59Z</time>
      </trkpt>
      <trkpt lat="45.92386" lon="4.74691">
        <ele>171</ele>
        <time>2017-08-03T13:09:00Z</time>
      </trkpt>
      <trkpt lat="45.92383" lon="4.74697">
        <ele>171</ele>
        <time>2017-08-03T13:09:01Z</time>
      </trkpt>
      <trkpt lat="45.9238" lon="4.74703">
        <ele>171</ele>
        <time>2017-08-03T13:09:02Z</time>
      </trkpt>
      <trkpt lat="45.92377" lon="4.74708">
        <ele>171</ele>
        <time>2017-08-03T13:09:03Z</time>
      </trkpt>
      <trkpt lat="45.92374" lon="4.74714">
        <ele>171</ele>
        <time>2017-08-03T13:09:04Z</time>
      </trkpt>
      <trkpt lat="45.92371" lon="4.74719">
        <ele>171</ele>
        <time>2017-08-03T13:09:05Z</time>
      </trkpt>
      <trkpt lat="45.92369" lon="4.74724">
        <ele>171</ele>
        <time>2017-08-03T13:09:06Z</time>
      </trkpt>
      <trkpt lat="45.92364" lon="4.74734">
        <ele>171</ele>
        <time>2017-08-03T13:09:08Z</time>
      </trkpt>
      <trkpt lat="45.92362" lon="4.74738">
        <ele>171</ele>
        <time>2017-08-03T13:09:09Z</time>
      </trkpt>
      <trkpt lat="45.92356" lon="4.74747">
        <ele>170</ele>
        <time>2017-08-03T13:09:11Z</time>
      </trkpt>
      <trkpt lat="45.92353" lon="4.74752">
        <ele>171</ele>
        <time>2017-08-03T13:09:12Z</time>
      </trkpt>
      <trkpt lat="45.9235" lon="4.74758">
        <ele>171</ele>
        <time>2017-08-03T13:09:13Z</time>
      </trkpt>
      <trkpt lat="45.92348" lon="4.74763">
        <ele>171</ele>
        <time>2017-08-03T13:09:14Z</time>
      </trkpt>
      <trkpt lat="45.92343" lon="4.74772">
        <ele>171</ele>
        <time>2017-08-03T13:09:16Z</time>
      </trkpt>
      <trkpt lat="45.92341" lon="4.74776">
        <ele>171</ele>
        <time>2017-08-03T13:09:17Z</time>
      </trkpt>
      <trkpt lat="45.92336" lon="4.74785">
        <ele>171</ele>
        <time>2017-08-03T13:09:19Z</time>
      </trkpt>
      <trkpt lat="45.92333" lon="4.7479">
        <ele>171</ele>
        <time>2017-08-03T13:09:20Z</time>
      </trkpt>
      <trkpt lat="45.9233" lon="4.74796">
        <ele>171</ele>
        <time>2017-08-03T13:09:21Z</time>
      </trkpt>
      <trkpt lat="45.92327" lon="4.74801">
        <ele>171</ele>
        <time>2017-08-03T13:09:22Z</time>
      </trkpt>
      <trkpt lat="45.92324" lon="4.74807">
        <ele>171</ele>
        <time>2017-08-03T13:09:23Z</time>
      </trkpt>
      <trkpt lat="45.92321" lon="4.74813">
        <ele>171</ele>
        <time>2017-08-03T13:09:24Z</time>
      </trkpt>
      <trkpt lat="45.92319" lon="4.74818">
        <ele>171</ele>
        <time>2017-08-03T13:09:25Z</time>
      </trkpt>
      <trkpt lat="45.92316" lon="4.74824">
        <ele>171</ele>
        <time>2017-08-03T13:09:26Z</time>
      </trkpt>
      <trkpt lat="45.92311" lon="4.74832">
        <ele>171</ele>
        <time>2017-08-03T13:09:28Z</time>
      </trkpt>
      <trkpt lat="45.92308" lon="4.74837">
        <ele>172</ele>
        <time>2017-08-03T13:09:29Z</time>
      </trkpt>
      <trkpt lat="45.92303" lon="4.74845">
        <ele>172</ele>
        <time>2017-08-03T13:09:31Z</time>
      </trkpt>
      <trkpt lat="45.923" lon="4.74849">
        <ele>172</ele>
        <time>2017-08-03T13:09:32Z</time>
      </trkpt>
      <trkpt lat="45.92295" lon="4.74858">
        <ele>172</ele>
        <time>2017-08-03T13:09:34Z</time>
      </trkpt>
      <trkpt lat="45.92292" lon="4.74863">
        <ele>172</ele>
        <time>2017-08-03T13:09:35Z</time>
      </trkpt>
      <trkpt lat="45.92287" lon="4.74873">
        <ele>171</ele>
        <time>2017-08-03T13:09:37Z</time>
      </trkpt>
      <trkpt lat="45.92285" lon="4.74876">
        <ele>172</ele>
        <time>2017-08-03T13:09:38Z</time>
      </trkpt>
      <trkpt lat="45.92279" lon="4.74885">
        <ele>172</ele>
        <time>2017-08-03T13:09:40Z</time>
      </trkpt>
      <trkpt lat="45.92276" lon="4.74889">
        <ele>172</ele>
        <time>2017-08-03T13:09:41Z</time>
      </trkpt>
      <trkpt lat="45.92271" lon="4.74898">
        <ele>172</ele>
        <time>2017-08-03T13:09:43Z</time>
      </trkpt>
      <trkpt lat="45.92267" lon="4.74901">
        <ele>172</ele>
        <time>2017-08-03T13:09:44Z</time>
      </trkpt>
      <trkpt lat="45.9226" lon="4.74905">
        <ele>172</ele>
        <time>2017-08-03T13:09:46Z</time>
      </trkpt>
      <trkpt lat="45.92258" lon="4.74908">
        <ele>172</ele>
        <time>2017-08-03T13:09:47Z</time>
      </trkpt>
      <trkpt lat="45.92254" lon="4.74917">
        <ele>172</ele>
        <time>2017-08-03T13:09:49Z</time>
      </trkpt>
      <trkpt lat="45.92252" lon="4.74923">
        <ele>172</ele>
        <time>2017-08-03T13:09:50Z</time>
      </trkpt>
      <trkpt lat="45.92251" lon="4.7493">
        <ele>172</ele>
        <time>2017-08-03T13:09:51Z</time>
      </trkpt>
      <trkpt lat="45.92249" lon="4.74936">
        <ele>172</ele>
        <time>2017-08-03T13:09:52Z</time>
      </trkpt>
      <trkpt lat="45.92246" lon="4.74947">
        <ele>172</ele>
        <time>2017-08-03T13:09:54Z</time>
      </trkpt>
      <trkpt lat="45.92244" lon="4.74953">
        <ele>172</ele>
        <time>2017-08-03T13:09:55Z</time>
      </trkpt>
      <trkpt lat="45.9224" lon="4.7496">
        <ele>171</ele>
        <time>2017-08-03T13:09:57Z</time>
      </trkpt>
      <trkpt lat="45.92237" lon="4.74962">
        <ele>171</ele>
        <time>2017-08-03T13:09:58Z</time>
      </trkpt>
      <trkpt lat="45.92231" lon="4.74958">
        <ele>171</ele>
        <time>2017-08-03T13:10:00Z</time>
      </trkpt>
      <trkpt lat="45.92227" lon="4.74956">
        <ele>171</ele>
        <time>2017-08-03T13:10:01Z</time>
      </trkpt>
      <trkpt lat="45.9222" lon="4.74953">
        <ele>171</ele>
        <time>2017-08-03T13:10:03Z</time>
      </trkpt>
      <trkpt lat="45.92215" lon="4.7495">
        <ele>171</ele>
        <time>2017-08-03T13:10:04Z</time>
      </trkpt>
      <trkpt lat="45.92211" lon="4.74947">
        <ele>171</ele>
        <time>2017-08-03T13:10:05Z</time>
      </trkpt>
      <trkpt lat="45.92206" lon="4.74945">
        <ele>171</ele>
        <time>2017-08-03T13:10:06Z</time>
      </trkpt>
      <trkpt lat="45.922" lon="4.7494">
        <ele>171</ele>
        <time>2017-08-03T13:10:07Z</time>
      </trkpt>
      <trkpt lat="45.92195" lon="4.74938">
        <ele>171</ele>
        <time>2017-08-03T13:10:08Z</time>
      </trkpt>
      <trkpt lat="45.9219" lon="4.74934">
        <ele>171</ele>
        <time>2017-08-03T13:10:09Z</time>
      </trkpt>
      <trkpt lat="45.92185" lon="4.74931">
        <ele>171</ele>
        <time>2017-08-03T13:10:10Z</time>
      </trkpt>
      <trkpt lat="45.9218" lon="4.74928">
        <ele>171</ele>
        <time>2017-08-03T13:10:11Z</time>
      </trkpt>
      <trkpt lat="45.92175" lon="4.74926">
        <ele>171</ele>
        <time>2017-08-03T13:10:12Z</time>
      </trkpt>
      <trkpt lat="45.92171" lon="4.74923">
        <ele>170</ele>
        <time>2017-08-03T13:10:13Z</time>
      </trkpt>
      <trkpt lat="45.92167" lon="4.7492">
        <ele>170</ele>
        <time>2017-08-03T13:10:14Z</time>
      </trkpt>
      <trkpt lat="45.92159" lon="4.74916">
        <ele>170</ele>
        <time>2017-08-03T13:10:16Z</time>
      </trkpt>
      <trkpt lat="45.92155" lon="4.74914">
        <ele>170</ele>
        <time>2017-08-03T13:10:17Z</time>
      </trkpt>
      <trkpt lat="45.92147" lon="4.7491">
        <ele>170</ele>
        <time>2017-08-03T13:10:19Z</time>
      </trkpt>
      <trkpt lat="45.92142" lon="4.74907">
        <ele>170</ele>
        <time>2017-08-03T13:10:20Z</time>
      </trkpt>
      <trkpt lat="45.92138" lon="4.74905">
        <ele>170</ele>
        <time>2017-08-03T13:10:21Z</time>
      </trkpt>
      <trkpt lat="45.92132" lon="4.74902">
        <ele>170</ele>
        <time>2017-08-03T13:10:22Z</time>
      </trkpt>
      <trkpt lat="45.92127" lon="4.74899">
        <ele>170</ele>
        <time>2017-08-03T13:10:23Z</time>
      </trkpt>
      <trkpt lat="45.92122" lon="4.74896">
        <ele>170</ele>
        <time>2017-08-03T13:10:24Z</time>
      </trkpt>
      <trkpt lat="45.92117" lon="4.74894">
        <ele>170</ele>
        <time>2017-08-03T13:10:25Z</time>
      </trkpt>
      <trkpt lat="45.92112" lon="4.74892">
        <ele>170</ele>
        <time>2017-08-03T13:10:26Z</time>
      </trkpt>
      <trkpt lat="45.92107" lon="4.74889">
        <ele>170</ele>
        <time>2017-08-03T13:10:27Z</time>
      </trkpt>
      <trkpt lat="45.92103" lon="4.74886">
        <ele>170</ele>
        <time>2017-08-03T13:10:28Z</time>
      </trkpt>
      <trkpt lat="45.92098" lon="4.74884">
        <ele>170</ele>
        <time>2017-08-03T13:10:29Z</time>
      </trkpt>
      <trkpt lat="45.92094" lon="4.74881">
        <ele>170</ele>
        <time>2017-08-03T13:10:30Z</time>
      </trkpt>
      <trkpt lat="45.92089" lon="4.74878">
        <ele>170</ele>
        <time>2017-08-03T13:10:31Z</time>
      </trkpt>
      <trkpt lat="45.92085" lon="4.74876">
        <ele>170</ele>
        <time>2017-08-03T13:10:32Z</time>
      </trkpt>
      <trkpt lat="45.9208" lon="4.74873">
        <ele>169</ele>
        <time>2017-08-03T13:10:33Z</time>
      </trkpt>
      <trkpt lat="45.92075" lon="4.74871">
        <ele>169</ele>
        <time>2017-08-03T13:10:34Z</time>
      </trkpt>
      <trkpt lat="45.9207" lon="4.74868">
        <ele>169</ele>
        <time>2017-08-03T13:10:35Z</time>
      </trkpt>
      <trkpt lat="45.92065" lon="4.74865">
        <ele>169</ele>
        <time>2017-08-03T13:10:36Z</time>
      </trkpt>
      <trkpt lat="45.9206" lon="4.74863">
        <ele>169</ele>
        <time>2017-08-03T13:10:37Z</time>
      </trkpt>
      <trkpt lat="45.92056" lon="4.7486">
        <ele>169</ele>
        <time>2017-08-03T13:10:38Z</time>
      </trkpt>
      <trkpt lat="45.92051" lon="4.74857">
        <ele>169</ele>
        <time>2017-08-03T13:10:39Z</time>
      </trkpt>
      <trkpt lat="45.92047" lon="4.74855">
        <ele>169</ele>
        <time>2017-08-03T13:10:40Z</time>
      </trkpt>
      <trkpt lat="45.92039" lon="4.74851">
        <ele>169</ele>
        <time>2017-08-03T13:10:42Z</time>
      </trkpt>
      <trkpt lat="45.92035" lon="4.74848">
        <ele>169</ele>
        <time>2017-08-03T13:10:43Z</time>
      </trkpt>
      <trkpt lat="45.9203" lon="4.74846">
        <ele>169</ele>
        <time>2017-08-03T13:10:44Z</time>
      </trkpt>
      <trkpt lat="45.92026" lon="4.74843">
        <ele>169</ele>
        <time>2017-08-03T13:10:45Z</time>
      </trkpt>
      <trkpt lat="45.92021" lon="4.74841">
        <ele>169</ele>
        <time>2017-08-03T13:10:46Z</time>
      </trkpt>
      <trkpt lat="45.92016" lon="4.74838">
        <ele>168</ele>
        <time>2017-08-03T13:10:47Z</time>
      </trkpt>
      <trkpt lat="45.92011" lon="4.74835">
        <ele>168</ele>
        <time>2017-08-03T13:10:48Z</time>
      </trkpt>
      <trkpt lat="45.92006" lon="4.74833">
        <ele>168</ele>
        <time>2017-08-03T13:10:49Z</time>
      </trkpt>
      <trkpt lat="45.92" lon="4.7483">
        <ele>168</ele>
        <time>2017-08-03T13:10:50Z</time>
      </trkpt>
      <trkpt lat="45.91995" lon="4.74827">
        <ele>169</ele>
        <time>2017-08-03T13:10:51Z</time>
      </trkpt>
      <trkpt lat="45.91989" lon="4.74824">
        <ele>169</ele>
        <time>2017-08-03T13:10:52Z</time>
      </trkpt>
      <trkpt lat="45.91984" lon="4.7482">
        <ele>169</ele>
        <time>2017-08-03T13:10:53Z</time>
      </trkpt>
      <trkpt lat="45.91978" lon="4.74817">
        <ele>169</ele>
        <time>2017-08-03T13:10:54Z</time>
      </trkpt>
      <trkpt lat="45.91972" lon="4.74814">
        <ele>170</ele>
        <time>2017-08-03T13:10:55Z</time>
      </trkpt>
      <trkpt lat="45.91967" lon="4.74811">
        <ele>170</ele>
        <time>2017-08-03T13:10:56Z</time>
      </trkpt>
      <trkpt lat="45.91962" lon="4.74808">
        <ele>170</ele>
        <time>2017-08-03T13:10:57Z</time>
      </trkpt>
      <trkpt lat="45.91957" lon="4.74805">
        <ele>170</ele>
        <time>2017-08-03T13:10:58Z</time>
      </trkpt>
      <trkpt lat="45.91952" lon="4.74802">
        <ele>170</ele>
        <time>2017-08-03T13:10:59Z</time>
      </trkpt>
      <trkpt lat="45.91947" lon="4.74799">
        <ele>170</ele>
        <time>2017-08-03T13:11:00Z</time>
      </trkpt>
      <trkpt lat="45.91943" lon="4.74797">
        <ele>170</ele>
        <time>2017-08-03T13:11:01Z</time>
      </trkpt>
      <trkpt lat="45.91935" lon="4.74793">
        <ele>170</ele>
        <time>2017-08-03T13:11:03Z</time>
      </trkpt>
      <trkpt lat="45.9193" lon="4.74791">
        <ele>170</ele>
        <time>2017-08-03T13:11:04Z</time>
      </trkpt>
      <trkpt lat="45.91926" lon="4.74788">
        <ele>171</ele>
        <time>2017-08-03T13:11:05Z</time>
      </trkpt>
      <trkpt lat="45.9192" lon="4.74786">
        <ele>171</ele>
        <time>2017-08-03T13:11:06Z</time>
      </trkpt>
      <trkpt lat="45.91915" lon="4.74784">
        <ele>172</ele>
        <time>2017-08-03T13:11:07Z</time>
      </trkpt>
      <trkpt lat="45.9191" lon="4.74781">
        <ele>172</ele>
        <time>2017-08-03T13:11:08Z</time>
      </trkpt>
      <trkpt lat="45.91905" lon="4.74779">
        <ele>172</ele>
        <time>2017-08-03T13:11:09Z</time>
      </trkpt>
      <trkpt lat="45.919" lon="4.74776">
        <ele>172</ele>
        <time>2017-08-03T13:11:10Z</time>
      </trkpt>
      <trkpt lat="45.91895" lon="4.74774">
        <ele>172</ele>
        <time>2017-08-03T13:11:11Z</time>
      </trkpt>
      <trkpt lat="45.91891" lon="4.74771">
        <ele>172</ele>
        <time>2017-08-03T13:11:12Z</time>
      </trkpt>
      <trkpt lat="45.91886" lon="4.74768">
        <ele>172</ele>
        <time>2017-08-03T13:11:13Z</time>
      </trkpt>
      <trkpt lat="45.91882" lon="4.74765">
        <ele>172</ele>
        <time>2017-08-03T13:11:14Z</time>
      </trkpt>
      <trkpt lat="45.91877" lon="4.74763">
        <ele>172</ele>
        <time>2017-08-03T13:11:15Z</time>
      </trkpt>
      <trkpt lat="45.91872" lon="4.74762">
        <ele>171</ele>
        <time>2017-08-03T13:11:16Z</time>
      </trkpt>
      <trkpt lat="45.91867" lon="4.74762">
        <ele>171</ele>
        <time>2017-08-03T13:11:17Z</time>
      </trkpt>
      <trkpt lat="45.91862" lon="4.74763">
        <ele>171</ele>
        <time>2017-08-03T13:11:18Z</time>
      </trkpt>
      <trkpt lat="45.91857" lon="4.74766">
        <ele>171</ele>
        <time>2017-08-03T13:11:19Z</time>
      </trkpt>
      <trkpt lat="45.91853" lon="4.74771">
        <ele>171</ele>
        <time>2017-08-03T13:11:20Z</time>
      </trkpt>
      <trkpt lat="45.91849" lon="4.74776">
        <ele>171</ele>
        <time>2017-08-03T13:11:21Z</time>
      </trkpt>
      <trkpt lat="45.91844" lon="4.74782">
        <ele>171</ele>
        <time>2017-08-03T13:11:22Z</time>
      </trkpt>
      <trkpt lat="45.9184" lon="4.74788">
        <ele>171</ele>
        <time>2017-08-03T13:11:23Z</time>
      </trkpt>
      <trkpt lat="45.91836" lon="4.74795">
        <ele>172</ele>
        <time>2017-08-03T13:11:24Z</time>
      </trkpt>
      <trkpt lat="45.91832" lon="4.748">
        <ele>172</ele>
        <time>2017-08-03T13:11:25Z</time>
      </trkpt>
      <trkpt lat="45.91828" lon="4.74806">
        <ele>172</ele>
        <time>2017-08-03T13:11:26Z</time>
      </trkpt>
      <trkpt lat="45.91824" lon="4.74811">
        <ele>172</ele>
        <time>2017-08-03T13:11:27Z</time>
      </trkpt>
      <trkpt lat="45.91821" lon="4.74816">
        <ele>172</ele>
        <time>2017-08-03T13:11:28Z</time>
      </trkpt>
      <trkpt lat="45.91817" lon="4.74821">
        <ele>172</ele>
        <time>2017-08-03T13:11:29Z</time>
      </trkpt>
      <trkpt lat="45.91813" lon="4.74827">
        <ele>172</ele>
        <time>2017-08-03T13:11:30Z</time>
      </trkpt>
      <trkpt lat="45.9181" lon="4.74832">
        <ele>172</ele>
        <time>2017-08-03T13:11:31Z</time>
      </trkpt>
      <trkpt lat="45.91807" lon="4.74838">
        <ele>172</ele>
        <time>2017-08-03T13:11:32Z</time>
      </trkpt>
      <trkpt lat="45.91803" lon="4.74844">
        <ele>172</ele>
        <time>2017-08-03T13:11:33Z</time>
      </trkpt>
      <trkpt lat="45.918" lon="4.7485">
        <ele>173</ele>
        <time>2017-08-03T13:11:34Z</time>
      </trkpt>
      <trkpt lat="45.91797" lon="4.74856">
        <ele>173</ele>
        <time>2017-08-03T13:11:35Z</time>
      </trkpt>
      <trkpt lat="45.91794" lon="4.74862">
        <ele>173</ele>
        <time>2017-08-03T13:11:36Z</time>
      </trkpt>
      <trkpt lat="45.91791" lon="4.74868">
        <ele>173</ele>
        <time>2017-08-03T13:11:37Z</time>
      </trkpt>
      <trkpt lat="45.91788" lon="4.74874">
        <ele>173</ele>
        <time>2017-08-03T13:11:38Z</time>
      </trkpt>
      <trkpt lat="45.91785" lon="4.7488">
        <ele>173</ele>
        <time>2017-08-03T13:11:39Z</time>
      </trkpt>
      <trkpt lat="45.91782" lon="4.74887">
        <ele>173</ele>
        <time>2017-08-03T13:11:40Z</time>
      </trkpt>
      <trkpt lat="45.91779" lon="4.74894">
        <ele>173</ele>
        <time>2017-08-03T13:11:41Z</time>
      </trkpt>
      <trkpt lat="45.91776" lon="4.749">
        <ele>173</ele>
        <time>2017-08-03T13:11:42Z</time>
      </trkpt>
      <trkpt lat="45.91773" lon="4.74906">
        <ele>173</ele>
        <time>2017-08-03T13:11:43Z</time>
      </trkpt>
      <trkpt lat="45.9177" lon="4.74911">
        <ele>173</ele>
        <time>2017-08-03T13:11:44Z</time>
      </trkpt>
      <trkpt lat="45.91766" lon="4.74916">
        <ele>173</ele>
        <time>2017-08-03T13:11:45Z</time>
      </trkpt>
      <trkpt lat="45.91763" lon="4.74921">
        <ele>174</ele>
        <time>2017-08-03T13:11:46Z</time>
      </trkpt>
      <trkpt lat="45.91757" lon="4.74929">
        <ele>174</ele>
        <time>2017-08-03T13:11:48Z</time>
      </trkpt>
      <trkpt lat="45.91754" lon="4.74933">
        <ele>174</ele>
        <time>2017-08-03T13:11:49Z</time>
      </trkpt>
      <trkpt lat="45.91747" lon="4.74941">
        <ele>174</ele>
        <time>2017-08-03T13:11:51Z</time>
      </trkpt>
      <trkpt lat="45.91744" lon="4.74944">
        <ele>174</ele>
        <time>2017-08-03T13:11:52Z</time>
      </trkpt>
      <trkpt lat="45.91737" lon="4.74952">
        <ele>175</ele>
        <time>2017-08-03T13:11:54Z</time>
      </trkpt>
      <trkpt lat="45.91733" lon="4.74955">
        <ele>175</ele>
        <time>2017-08-03T13:11:55Z</time>
      </trkpt>
      <trkpt lat="45.91725" lon="4.74961">
        <ele>175</ele>
        <time>2017-08-03T13:11:57Z</time>
      </trkpt>
      <trkpt lat="45.91722" lon="4.74962">
        <ele>175</ele>
        <time>2017-08-03T13:11:58Z</time>
      </trkpt>
      <trkpt lat="45.91716" lon="4.74968">
        <ele>175</ele>
        <time>2017-08-03T13:12:00Z</time>
      </trkpt>
      <trkpt lat="45.91712" lon="4.74971">
        <ele>175</ele>
        <time>2017-08-03T13:12:01Z</time>
      </trkpt>
      <trkpt lat="45.91704" lon="4.74978">
        <ele>175</ele>
        <time>2017-08-03T13:12:03Z</time>
      </trkpt>
      <trkpt lat="45.917" lon="4.7498">
        <ele>175</ele>
        <time>2017-08-03T13:12:04Z</time>
      </trkpt>
      <trkpt lat="45.91692" lon="4.74982">
        <ele>175</ele>
        <time>2017-08-03T13:12:06Z</time>
      </trkpt>
      <trkpt lat="45.91689" lon="4.74981">
        <ele>175</ele>
        <time>2017-08-03T13:12:07Z</time>
      </trkpt>
      <trkpt lat="45.91682" lon="4.7498">
        <ele>175</ele>
        <time>2017-08-03T13:12:09Z</time>
      </trkpt>
      <trkpt lat="45.91679" lon="4.74979">
        <ele>175</ele>
        <time>2017-08-03T13:12:10Z</time>
      </trkpt>
      <trkpt lat="45.91672" lon="4.74976">
        <ele>175</ele>
        <time>2017-08-03T13:12:12Z</time>
      </trkpt>
      <trkpt lat="45.91668" lon="4.74974">
        <ele>175</ele>
        <time>2017-08-03T13:12:13Z</time>
      </trkpt>
      <trkpt lat="45.91664" lon="4.74972">
        <ele>176</ele>
        <time>2017-08-03T13:12:14Z</time>
      </trkpt>
      <trkpt lat="45.91659" lon="4.7497">
        <ele>176</ele>
        <time>2017-08-03T13:12:15Z</time>
      </trkpt>
      <trkpt lat="45.91654" lon="4.74968">
        <ele>176</ele>
        <time>2017-08-03T13:12:16Z</time>
      </trkpt>
      <trkpt lat="45.9165" lon="4.74966">
        <ele>176</ele>
        <time>2017-08-03T13:12:17Z</time>
      </trkpt>
      <trkpt lat="45.91646" lon="4.74964">
        <ele>176</ele>
        <time>2017-08-03T13:12:18Z</time>
      </trkpt>
      <trkpt lat="45.91641" lon="4.74962">
        <ele>176</ele>
        <time>2017-08-03T13:12:19Z</time>
      </trkpt>
      <trkpt lat="45.91633" lon="4.74958">
        <ele>176</ele>
        <time>2017-08-03T13:12:21Z</time>
      </trkpt>
      <trkpt lat="45.91629" lon="4.74957">
        <ele>176</ele>
        <time>2017-08-03T13:12:22Z</time>
      </trkpt>
      <trkpt lat="45.91625" lon="4.74955">
        <ele>176</ele>
        <time>2017-08-03T13:12:23Z</time>
      </trkpt>
      <trkpt lat="45.9162" lon="4.74953">
        <ele>177</ele>
        <time>2017-08-03T13:12:24Z</time>
      </trkpt>
      <trkpt lat="45.91612" lon="4.7495">
        <ele>177</ele>
        <time>2017-08-03T13:12:26Z</time>
      </trkpt>
      <trkpt lat="45.91608" lon="4.74948">
        <ele>177</ele>
        <time>2017-08-03T13:12:27Z</time>
      </trkpt>
      <trkpt lat="45.916" lon="4.74945">
        <ele>177</ele>
        <time>2017-08-03T13:12:29Z</time>
      </trkpt>
      <trkpt lat="45.91596" lon="4.74943">
        <ele>177</ele>
        <time>2017-08-03T13:12:30Z</time>
      </trkpt>
      <trkpt lat="45.91588" lon="4.7494">
        <ele>177</ele>
        <time>2017-08-03T13:12:32Z</time>
      </trkpt>
      <trkpt lat="45.91584" lon="4.74939">
        <ele>177</ele>
        <time>2017-08-03T13:12:33Z</time>
      </trkpt>
      <trkpt lat="45.91579" lon="4.74938">
        <ele>177</ele>
        <time>2017-08-03T13:12:34Z</time>
      </trkpt>
      <trkpt lat="45.91574" lon="4.74937">
        <ele>177</ele>
        <time>2017-08-03T13:12:35Z</time>
      </trkpt>
      <trkpt lat="45.91569" lon="4.74936">
        <ele>178</ele>
        <time>2017-08-03T13:12:36Z</time>
      </trkpt>
      <trkpt lat="45.91564" lon="4.74936">
        <ele>178</ele>
        <time>2017-08-03T13:12:37Z</time>
      </trkpt>
      <trkpt lat="45.91559" lon="4.74936">
        <ele>178</ele>
        <time>2017-08-03T13:12:38Z</time>
      </trkpt>
      <trkpt lat="45.91554" lon="4.74935">
        <ele>178</ele>
        <time>2017-08-03T13:12:39Z</time>
      </trkpt>
      <trkpt lat="45.91548" lon="4.74934">
        <ele>178</ele>
        <time>2017-08-03T13:12:40Z</time>
      </trkpt>
      <trkpt lat="45.91543" lon="4.74933">
        <ele>178</ele>
        <time>2017-08-03T13:12:41Z</time>
      </trkpt>
      <trkpt lat="45.91538" lon="4.74933">
        <ele>178</ele>
        <time>2017-08-03T13:12:42Z</time>
      </trkpt>
      <trkpt lat="45.91533" lon="4.74933">
        <ele>178</ele>
        <time>2017-08-03T13:12:43Z</time>
      </trkpt>
      <trkpt lat="45.91527" lon="4.74932">
        <ele>177</ele>
        <time>2017-08-03T13:12:44Z</time>
      </trkpt>
      <trkpt lat="45.91522" lon="4.74931">
        <ele>177</ele>
        <time>2017-08-03T13:12:45Z</time>
      </trkpt>
      <trkpt lat="45.91518" lon="4.7493">
        <ele>177</ele>
        <time>2017-08-03T13:12:46Z</time>
      </trkpt>
      <trkpt lat="45.91512" lon="4.74929">
        <ele>177</ele>
        <time>2017-08-03T13:12:47Z</time>
      </trkpt>
      <trkpt lat="45.91507" lon="4.74927">
        <ele>177</ele>
        <time>2017-08-03T13:12:48Z</time>
      </trkpt>
      <trkpt lat="45.91501" lon="4.74925">
        <ele>177</ele>
        <time>2017-08-03T13:12:49Z</time>
      </trkpt>
      <trkpt lat="45.91496" lon="4.74925">
        <ele>177</ele>
        <time>2017-08-03T13:12:50Z</time>
      </trkpt>
      <trkpt lat="45.91491" lon="4.74925">
        <ele>177</ele>
        <time>2017-08-03T13:12:51Z</time>
      </trkpt>
      <trkpt lat="45.91487" lon="4.74924">
        <ele>178</ele>
        <time>2017-08-03T13:12:52Z</time>
      </trkpt>
      <trkpt lat="45.91482" lon="4.74924">
        <ele>178</ele>
        <time>2017-08-03T13:12:53Z</time>
      </trkpt>
      <trkpt lat="45.91473" lon="4.74922">
        <ele>178</ele>
        <time>2017-08-03T13:12:55Z</time>
      </trkpt>
      <trkpt lat="45.91468" lon="4.74922">
        <ele>178</ele>
        <time>2017-08-03T13:12:56Z</time>
      </trkpt>
      <trkpt lat="45.91463" lon="4.74921">
        <ele>178</ele>
        <time>2017-08-03T13:12:57Z</time>
      </trkpt>
      <trkpt lat="45.91458" lon="4.7492">
        <ele>178</ele>
        <time>2017-08-03T13:12:58Z</time>
      </trkpt>
      <trkpt lat="45.91453" lon="4.74919">
        <ele>178</ele>
        <time>2017-08-03T13:12:59Z</time>
      </trkpt>
      <trkpt lat="45.91447" lon="4.74918">
        <ele>178</ele>
        <time>2017-08-03T13:13:00Z</time>
      </trkpt>
      <trkpt lat="45.9144" lon="4.74918">
        <ele>178</ele>
        <time>2017-08-03T13:13:01Z</time>
      </trkpt>
      <trkpt lat="45.91433" lon="4.74918">
        <ele>178</ele>
        <time>2017-08-03T13:13:02Z</time>
      </trkpt>
      <trkpt lat="45.91427" lon="4.74917">
        <ele>178</ele>
        <time>2017-08-03T13:13:03Z</time>
      </trkpt>
      <trkpt lat="45.91421" lon="4.74916">
        <ele>178</ele>
        <time>2017-08-03T13:13:04Z</time>
      </trkpt>
      <trkpt lat="45.91416" lon="4.74915">
        <ele>178</ele>
        <time>2017-08-03T13:13:05Z</time>
      </trkpt>
      <trkpt lat="45.91412" lon="4.74913">
        <ele>178</ele>
        <time>2017-08-03T13:13:06Z</time>
      </trkpt>
      <trkpt lat="45.91408" lon="4.74911">
        <ele>177</ele>
        <time>2017-08-03T13:13:07Z</time>
      </trkpt>
      <trkpt lat="45.91403" lon="4.7491">
        <ele>177</ele>
        <time>2017-08-03T13:13:08Z</time>
      </trkpt>
      <trkpt lat="45.91399" lon="4.7491">
        <ele>177</ele>
        <time>2017-08-03T13:13:09Z</time>
      </trkpt>
      <trkpt lat="45.91394" lon="4.74907">
        <ele>177</ele>
        <time>2017-08-03T13:13:10Z</time>
      </trkpt>
      <trkpt lat="45.9139" lon="4.74905">
        <ele>177</ele>
        <time>2017-08-03T13:13:11Z</time>
      </trkpt>
      <trkpt lat="45.91385" lon="4.74903">
        <ele>177</ele>
        <time>2017-08-03T13:13:12Z</time>
      </trkpt>
      <trkpt lat="45.91381" lon="4.74902">
        <ele>177</ele>
        <time>2017-08-03T13:13:13Z</time>
      </trkpt>
      <trkpt lat="45.91376" lon="4.749">
        <ele>177</ele>
        <time>2017-08-03T13:13:14Z</time>
      </trkpt>
      <trkpt lat="45.91368" lon="4.74897">
        <ele>177</ele>
        <time>2017-08-03T13:13:16Z</time>
      </trkpt>
      <trkpt lat="45.91363" lon="4.74896">
        <ele>177</ele>
        <time>2017-08-03T13:13:17Z</time>
      </trkpt>
      <trkpt lat="45.91358" lon="4.74895">
        <ele>176</ele>
        <time>2017-08-03T13:13:18Z</time>
      </trkpt>
      <trkpt lat="45.91354" lon="4.74893">
        <ele>176</ele>
        <time>2017-08-03T13:13:19Z</time>
      </trkpt>
      <trkpt lat="45.91347" lon="4.74888">
        <ele>176</ele>
        <time>2017-08-03T13:13:21Z</time>
      </trkpt>
      <trkpt lat="45.91343" lon="4.74886">
        <ele>176</ele>
        <time>2017-08-03T13:13:22Z</time>
      </trkpt>
      <trkpt lat="45.91335" lon="4.74883">
        <ele>176</ele>
        <time>2017-08-03T13:13:24Z</time>
      </trkpt>
      <trkpt lat="45.91331" lon="4.74882">
        <ele>176</ele>
        <time>2017-08-03T13:13:25Z</time>
      </trkpt>
      <trkpt lat="45.91323" lon="4.74879">
        <ele>176</ele>
        <time>2017-08-03T13:13:27Z</time>
      </trkpt>
      <trkpt lat="45.9132" lon="4.74879">
        <ele>176</ele>
        <time>2017-08-03T13:13:28Z</time>
      </trkpt>
      <trkpt lat="45.91312" lon="4.74882">
        <ele>176</ele>
        <time>2017-08-03T13:13:31Z</time>
      </trkpt>
      <trkpt lat="45.91311" lon="4.74886">
        <ele>176</ele>
        <time>2017-08-03T13:13:32Z</time>
      </trkpt>
      <trkpt lat="45.9131" lon="4.74898">
        <ele>176</ele>
        <time>2017-08-03T13:13:34Z</time>
      </trkpt>
      <trkpt lat="45.91309" lon="4.74904">
        <ele>176</ele>
        <time>2017-08-03T13:13:35Z</time>
      </trkpt>
      <trkpt lat="45.91308" lon="4.74912">
        <ele>176</ele>
        <time>2017-08-03T13:13:36Z</time>
      </trkpt>
      <trkpt lat="45.91307" lon="4.74919">
        <ele>177</ele>
        <time>2017-08-03T13:13:37Z</time>
      </trkpt>
      <trkpt lat="45.91306" lon="4.74926">
        <ele>177</ele>
        <time>2017-08-03T13:13:38Z</time>
      </trkpt>
      <trkpt lat="45.91305" lon="4.74934">
        <ele>177</ele>
        <time>2017-08-03T13:13:39Z</time>
      </trkpt>
      <trkpt lat="45.91304" lon="4.74943">
        <ele>177</ele>
        <time>2017-08-03T13:13:40Z</time>
      </trkpt>
      <trkpt lat="45.91303" lon="4.74951">
        <ele>177</ele>
        <time>2017-08-03T13:13:41Z</time>
      </trkpt>
      <trkpt lat="45.91303" lon="4.74958">
        <ele>177</ele>
        <time>2017-08-03T13:13:42Z</time>
      </trkpt>
      <trkpt lat="45.91302" lon="4.74966">
        <ele>177</ele>
        <time>2017-08-03T13:13:43Z</time>
      </trkpt>
      <trkpt lat="45.91302" lon="4.74973">
        <ele>177</ele>
        <time>2017-08-03T13:13:44Z</time>
      </trkpt>
      <trkpt lat="45.913" lon="4.7498">
        <ele>177</ele>
        <time>2017-08-03T13:13:45Z</time>
      </trkpt>
      <trkpt lat="45.91299" lon="4.74987">
        <ele>177</ele>
        <time>2017-08-03T13:13:46Z</time>
      </trkpt>
      <trkpt lat="45.91298" lon="4.74993">
        <ele>177</ele>
        <time>2017-08-03T13:13:47Z</time>
      </trkpt>
      <trkpt lat="45.91297" lon="4.75">
        <ele>177</ele>
        <time>2017-08-03T13:13:48Z</time>
      </trkpt>
      <trkpt lat="45.91296" lon="4.75007">
        <ele>177</ele>
        <time>2017-08-03T13:13:49Z</time>
      </trkpt>
      <trkpt lat="45.91295" lon="4.75014">
        <ele>177</ele>
        <time>2017-08-03T13:13:50Z</time>
      </trkpt>
      <trkpt lat="45.91295" lon="4.75023">
        <ele>177</ele>
        <time>2017-08-03T13:13:51Z</time>
      </trkpt>
      <trkpt lat="45.91295" lon="4.75031">
        <ele>177</ele>
        <time>2017-08-03T13:13:52Z</time>
      </trkpt>
      <trkpt lat="45.91295" lon="4.7504">
        <ele>177</ele>
        <time>2017-08-03T13:13:53Z</time>
      </trkpt>
      <trkpt lat="45.91296" lon="4.75049">
        <ele>177</ele>
        <time>2017-08-03T13:13:54Z</time>
      </trkpt>
      <trkpt lat="45.91296" lon="4.75057">
        <ele>177</ele>
        <time>2017-08-03T13:13:55Z</time>
      </trkpt>
      <trkpt lat="45.91297" lon="4.75065">
        <ele>177</ele>
        <time>2017-08-03T13:13:56Z</time>
      </trkpt>
      <trkpt lat="45.91297" lon="4.75073">
        <ele>177</ele>
        <time>2017-08-03T13:13:57Z</time>
      </trkpt>
      <trkpt lat="45.91298" lon="4.75081">
        <ele>177</ele>
        <time>2017-08-03T13:13:58Z</time>
      </trkpt>
      <trkpt lat="45.91298" lon="4.75089">
        <ele>177</ele>
        <time>2017-08-03T13:13:59Z</time>
      </trkpt>
      <trkpt lat="45.91299" lon="4.75096">
        <ele>177</ele>
        <time>2017-08-03T13:14:00Z</time>
      </trkpt>
      <trkpt lat="45.91299" lon="4.75102">
        <ele>177</ele>
        <time>2017-08-03T13:14:01Z</time>
      </trkpt>
      <trkpt lat="45.91301" lon="4.75114">
        <ele>177</ele>
        <time>2017-08-03T13:14:03Z</time>
      </trkpt>
      <trkpt lat="45.91302" lon="4.75121">
        <ele>177</ele>
        <time>2017-08-03T13:14:04Z</time>
      </trkpt>
      <trkpt lat="45.91303" lon="4.75129">
        <ele>177</ele>
        <time>2017-08-03T13:14:05Z</time>
      </trkpt>
      <trkpt lat="45.91304" lon="4.75136">
        <ele>177</ele>
        <time>2017-08-03T13:14:06Z</time>
      </trkpt>
      <trkpt lat="45.91305" lon="4.75144">
        <ele>177</ele>
        <time>2017-08-03T13:14:07Z</time>
      </trkpt>
      <trkpt lat="45.91305" lon="4.75151">
        <ele>177</ele>
        <time>2017-08-03T13:14:08Z</time>
      </trkpt>
      <trkpt lat="45.91304" lon="4.75161">
        <ele>177</ele>
        <time>2017-08-03T13:14:10Z</time>
      </trkpt>
      <trkpt lat="45.91301" lon="4.75164">
        <ele>177</ele>
        <time>2017-08-03T13:14:11Z</time>
      </trkpt>
      <trkpt lat="45.91295" lon="4.7516">
        <ele>177</ele>
        <time>2017-08-03T13:14:13Z</time>
      </trkpt>
      <trkpt lat="45.9129" lon="4.75158">
        <ele>177</ele>
        <time>2017-08-03T13:14:14Z</time>
      </trkpt>
      <trkpt lat="45.91286" lon="4.75155">
        <ele>177</ele>
        <time>2017-08-03T13:14:15Z</time>
      </trkpt>
      <trkpt lat="45.91281" lon="4.75153">
        <ele>177</ele>
        <time>2017-08-03T13:14:16Z</time>
      </trkpt>
      <trkpt lat="45.91276" lon="4.7515">
        <ele>177</ele>
        <time>2017-08-03T13:14:17Z</time>
      </trkpt>
      <trkpt lat="45.91271" lon="4.75146">
        <ele>177</ele>
        <time>2017-08-03T13:14:18Z</time>
      </trkpt>
      <trkpt lat="45.91267" lon="4.75143">
        <ele>177</ele>
        <time>2017-08-03T13:14:19Z</time>
      </trkpt>
      <trkpt lat="45.91262" lon="4.7514">
        <ele>177</ele>
        <time>2017-08-03T13:14:20Z</time>
      </trkpt>
      <trkpt lat="45.91258" lon="4.75136">
        <ele>177</ele>
        <time>2017-08-03T13:14:21Z</time>
      </trkpt>
      <trkpt lat="45.91253" lon="4.75133">
        <ele>177</ele>
        <time>2017-08-03T13:14:22Z</time>
      </trkpt>
      <trkpt lat="45.91249" lon="4.75131">
        <ele>177</ele>
        <time>2017-08-03T13:14:23Z</time>
      </trkpt>
      <trkpt lat="45.91244" lon="4.75129">
        <ele>177</ele>
        <time>2017-08-03T13:14:24Z</time>
      </trkpt>
      <trkpt lat="45.91239" lon="4.75128">
        <ele>177</ele>
        <time>2017-08-03T13:14:25Z</time>
      </trkpt>
      <trkpt lat="45.91235" lon="4.75126">
        <ele>177</ele>
        <time>2017-08-03T13:14:26Z</time>
      </trkpt>
      <trkpt lat="45.91231" lon="4.75124">
        <ele>177</ele>
        <time>2017-08-03T13:14:27Z</time>
      </trkpt>
      <trkpt lat="45.91226" lon="4.75122">
        <ele>177</ele>
        <time>2017-08-03T13:14:28Z</time>
      </trkpt>
      <trkpt lat="45.91221" lon="4.7512">
        <ele>177</ele>
        <time>2017-08-03T13:14:29Z</time>
      </trkpt>
      <trkpt lat="45.91216" lon="4.75118">
        <ele>177</ele>
        <time>2017-08-03T13:14:30Z</time>
      </trkpt>
      <trkpt lat="45.91211" lon="4.75116">
        <ele>177</ele>
        <time>2017-08-03T13:14:31Z</time>
      </trkpt>
      <trkpt lat="45.91205" lon="4.75115">
        <ele>178</ele>
        <time>2017-08-03T13:14:32Z</time>
      </trkpt>
      <trkpt lat="45.91199" lon="4.75114">
        <ele>178</ele>
        <time>2017-08-03T13:14:33Z</time>
      </trkpt>
      <trkpt lat="45.91193" lon="4.75112">
        <ele>178</ele>
        <time>2017-08-03T13:14:34Z</time>
      </trkpt>
      <trkpt lat="45.91188" lon="4.75111">
        <ele>178</ele>
        <time>2017-08-03T13:14:35Z</time>
      </trkpt>
      <trkpt lat="45.91183" lon="4.7511">
        <ele>178</ele>
        <time>2017-08-03T13:14:36Z</time>
      </trkpt>
      <trkpt lat="45.91178" lon="4.75109">
        <ele>178</ele>
        <time>2017-08-03T13:14:37Z</time>
      </trkpt>
      <trkpt lat="45.91174" lon="4.75108">
        <ele>178</ele>
        <time>2017-08-03T13:14:38Z</time>
      </trkpt>
      <trkpt lat="45.91169" lon="4.75106">
        <ele>178</ele>
        <time>2017-08-03T13:14:39Z</time>
      </trkpt>
      <trkpt lat="45.91164" lon="4.75105">
        <ele>179</ele>
        <time>2017-08-03T13:14:40Z</time>
      </trkpt>
      <trkpt lat="45.91159" lon="4.75104">
        <ele>179</ele>
        <time>2017-08-03T13:14:41Z</time>
      </trkpt>
      <trkpt lat="45.91154" lon="4.75102">
        <ele>179</ele>
        <time>2017-08-03T13:14:42Z</time>
      </trkpt>
      <trkpt lat="45.91149" lon="4.75101">
        <ele>179</ele>
        <time>2017-08-03T13:14:43Z</time>
      </trkpt>
      <trkpt lat="45.91144" lon="4.75099">
        <ele>179</ele>
        <time>2017-08-03T13:14:44Z</time>
      </trkpt>
      <trkpt lat="45.91138" lon="4.75098">
        <ele>179</ele>
        <time>2017-08-03T13:14:45Z</time>
      </trkpt>
      <trkpt lat="45.91133" lon="4.75096">
        <ele>179</ele>
        <time>2017-08-03T13:14:46Z</time>
      </trkpt>
      <trkpt lat="45.91128" lon="4.75094">
        <ele>179</ele>
        <time>2017-08-03T13:14:47Z</time>
      </trkpt>
      <trkpt lat="45.91123" lon="4.75092">
        <ele>179</ele>
        <time>2017-08-03T13:14:48Z</time>
      </trkpt>
      <trkpt lat="45.91119" lon="4.7509">
        <ele>179</ele>
        <time>2017-08-03T13:14:49Z</time>
      </trkpt>
      <trkpt lat="45.91115" lon="4.75088">
        <ele>179</ele>
        <time>2017-08-03T13:14:50Z</time>
      </trkpt>
      <trkpt lat="45.91107" lon="4.75085">
        <ele>180</ele>
        <time>2017-08-03T13:14:52Z</time>
      </trkpt>
      <trkpt lat="45.91103" lon="4.75083">
        <ele>179</ele>
        <time>2017-08-03T13:14:53Z</time>
      </trkpt>
      <trkpt lat="45.91095" lon="4.7508">
        <ele>179</ele>
        <time>2017-08-03T13:14:55Z</time>
      </trkpt>
      <trkpt lat="45.9109" lon="4.75078">
        <ele>180</ele>
        <time>2017-08-03T13:14:56Z</time>
      </trkpt>
      <trkpt lat="45.91085" lon="4.75076">
        <ele>180</ele>
        <time>2017-08-03T13:14:57Z</time>
      </trkpt>
      <trkpt lat="45.9108" lon="4.75074">
        <ele>180</ele>
        <time>2017-08-03T13:14:58Z</time>
      </trkpt>
      <trkpt lat="45.91075" lon="4.75072">
        <ele>179</ele>
        <time>2017-08-03T13:14:59Z</time>
      </trkpt>
      <trkpt lat="45.91069" lon="4.75071">
        <ele>179</ele>
        <time>2017-08-03T13:15:00Z</time>
      </trkpt>
      <trkpt lat="45.91064" lon="4.75069">
        <ele>179</ele>
        <time>2017-08-03T13:15:01Z</time>
      </trkpt>
      <trkpt lat="45.9106" lon="4.75068">
        <ele>179</ele>
        <time>2017-08-03T13:15:02Z</time>
      </trkpt>
      <trkpt lat="45.91055" lon="4.75067">
        <ele>179</ele>
        <time>2017-08-03T13:15:03Z</time>
      </trkpt>
      <trkpt lat="45.9105" lon="4.75065">
        <ele>179</ele>
        <time>2017-08-03T13:15:04Z</time>
      </trkpt>
      <trkpt lat="45.91046" lon="4.75064">
        <ele>179</ele>
        <time>2017-08-03T13:15:05Z</time>
      </trkpt>
      <trkpt lat="45.91041" lon="4.75062">
        <ele>179</ele>
        <time>2017-08-03T13:15:06Z</time>
      </trkpt>
      <trkpt lat="45.91036" lon="4.7506">
        <ele>179</ele>
        <time>2017-08-03T13:15:07Z</time>
      </trkpt>
      <trkpt lat="45.9103" lon="4.75058">
        <ele>179</ele>
        <time>2017-08-03T13:15:08Z</time>
      </trkpt>
      <trkpt lat="45.91022" lon="4.75055">
        <ele>179</ele>
        <time>2017-08-03T13:15:10Z</time>
      </trkpt>
      <trkpt lat="45.91018" lon="4.75053">
        <ele>179</ele>
        <time>2017-08-03T13:15:11Z</time>
      </trkpt>
      <trkpt lat="45.91009" lon="4.7505">
        <ele>178</ele>
        <time>2017-08-03T13:15:13Z</time>
      </trkpt>
      <trkpt lat="45.91005" lon="4.75048">
        <ele>178</ele>
        <time>2017-08-03T13:15:14Z</time>
      </trkpt>
      <trkpt lat="45.91001" lon="4.75046">
        <ele>178</ele>
        <time>2017-08-03T13:15:15Z</time>
      </trkpt>
      <trkpt lat="45.90996" lon="4.75044">
        <ele>179</ele>
        <time>2017-08-03T13:15:16Z</time>
      </trkpt>
      <trkpt lat="45.90991" lon="4.75042">
        <ele>179</ele>
        <time>2017-08-03T13:15:17Z</time>
      </trkpt>
      <trkpt lat="45.90986" lon="4.7504">
        <ele>179</ele>
        <time>2017-08-03T13:15:18Z</time>
      </trkpt>
      <trkpt lat="45.90981" lon="4.75038">
        <ele>179</ele>
        <time>2017-08-03T13:15:19Z</time>
      </trkpt>
      <trkpt lat="45.90977" lon="4.75037">
        <ele>179</ele>
        <time>2017-08-03T13:15:20Z</time>
      </trkpt>
      <trkpt lat="45.90972" lon="4.75035">
        <ele>179</ele>
        <time>2017-08-03T13:15:21Z</time>
      </trkpt>
      <trkpt lat="45.90968" lon="4.75034">
        <ele>179</ele>
        <time>2017-08-03T13:15:22Z</time>
      </trkpt>
      <trkpt lat="45.90959" lon="4.75036">
        <ele>179</ele>
        <time>2017-08-03T13:15:24Z</time>
      </trkpt>
      <trkpt lat="45.90957" lon="4.75041">
        <ele>179</ele>
        <time>2017-08-03T13:15:25Z</time>
      </trkpt>
      <trkpt lat="45.90956" lon="4.7505">
        <ele>179</ele>
        <time>2017-08-03T13:15:27Z</time>
      </trkpt>
      <trkpt lat="45.90955" lon="4.75055">
        <ele>179</ele>
        <time>2017-08-03T13:15:28Z</time>
      </trkpt>
      <trkpt lat="45.90954" lon="4.75065">
        <ele>179</ele>
        <time>2017-08-03T13:15:30Z</time>
      </trkpt>
      <trkpt lat="45.90953" lon="4.7507">
        <ele>179</ele>
        <time>2017-08-03T13:15:31Z</time>
      </trkpt>
      <trkpt lat="45.90952" lon="4.75081">
        <ele>179</ele>
        <time>2017-08-03T13:15:33Z</time>
      </trkpt>
      <trkpt lat="45.90951" lon="4.75086">
        <ele>181</ele>
        <time>2017-08-03T13:15:34Z</time>
      </trkpt>
      <trkpt lat="45.9095" lon="4.75097">
        <ele>181</ele>
        <time>2017-08-03T13:15:36Z</time>
      </trkpt>
      <trkpt lat="45.9095" lon="4.75102">
        <ele>181</ele>
        <time>2017-08-03T13:15:37Z</time>
      </trkpt>
      <trkpt lat="45.90949" lon="4.75113">
        <ele>181</ele>
        <time>2017-08-03T13:15:39Z</time>
      </trkpt>
      <trkpt lat="45.90948" lon="4.75118">
        <ele>181</ele>
        <time>2017-08-03T13:15:40Z</time>
      </trkpt>
      <trkpt lat="45.90947" lon="4.75129">
        <ele>181</ele>
        <time>2017-08-03T13:15:42Z</time>
      </trkpt>
      <trkpt lat="45.90946" lon="4.75134">
        <ele>181</ele>
        <time>2017-08-03T13:15:43Z</time>
      </trkpt>
      <trkpt lat="45.90945" lon="4.75145">
        <ele>182</ele>
        <time>2017-08-03T13:15:45Z</time>
      </trkpt>
      <trkpt lat="45.90944" lon="4.7515">
        <ele>182</ele>
        <time>2017-08-03T13:15:46Z</time>
      </trkpt>
      <trkpt lat="45.90942" lon="4.7516">
        <ele>182</ele>
        <time>2017-08-03T13:15:48Z</time>
      </trkpt>
      <trkpt lat="45.90942" lon="4.75165">
        <ele>182</ele>
        <time>2017-08-03T13:15:49Z</time>
      </trkpt>
      <trkpt lat="45.9094" lon="4.75176">
        <ele>183</ele>
        <time>2017-08-03T13:15:51Z</time>
      </trkpt>
      <trkpt lat="45.90939" lon="4.75181">
        <ele>183</ele>
        <time>2017-08-03T13:15:52Z</time>
      </trkpt>
      <trkpt lat="45.90938" lon="4.75192">
        <ele>183</ele>
        <time>2017-08-03T13:15:54Z</time>
      </trkpt>
      <trkpt lat="45.90938" lon="4.75198">
        <ele>183</ele>
        <time>2017-08-03T13:15:55Z</time>
      </trkpt>
      <trkpt lat="45.90937" lon="4.75209">
        <ele>184</ele>
        <time>2017-08-03T13:15:57Z</time>
      </trkpt>
      <trkpt lat="45.90936" lon="4.75215">
        <ele>184</ele>
        <time>2017-08-03T13:15:58Z</time>
      </trkpt>
      <trkpt lat="45.90935" lon="4.75226">
        <ele>184</ele>
        <time>2017-08-03T13:16:00Z</time>
      </trkpt>
      <trkpt lat="45.90935" lon="4.75231">
        <ele>184</ele>
        <time>2017-08-03T13:16:01Z</time>
      </trkpt>
      <trkpt lat="45.90933" lon="4.75242">
        <ele>184</ele>
        <time>2017-08-03T13:16:03Z</time>
      </trkpt>
      <trkpt lat="45.90933" lon="4.75247">
        <ele>184</ele>
        <time>2017-08-03T13:16:04Z</time>
      </trkpt>
      <trkpt lat="45.90931" lon="4.75258">
        <ele>185</ele>
        <time>2017-08-03T13:16:06Z</time>
      </trkpt>
      <trkpt lat="45.90931" lon="4.75263">
        <ele>185</ele>
        <time>2017-08-03T13:16:07Z</time>
      </trkpt>
      <trkpt lat="45.9093" lon="4.75275">
        <ele>185</ele>
        <time>2017-08-03T13:16:09Z</time>
      </trkpt>
      <trkpt lat="45.9093" lon="4.75281">
        <ele>185</ele>
        <time>2017-08-03T13:16:10Z</time>
      </trkpt>
      <trkpt lat="45.90929" lon="4.75292">
        <ele>185</ele>
        <time>2017-08-03T13:16:12Z</time>
      </trkpt>
      <trkpt lat="45.90928" lon="4.75297">
        <ele>185</ele>
        <time>2017-08-03T13:16:13Z</time>
      </trkpt>
      <trkpt lat="45.90927" lon="4.75308">
        <ele>185</ele>
        <time>2017-08-03T13:16:15Z</time>
      </trkpt>
      <trkpt lat="45.90926" lon="4.75314">
        <ele>185</ele>
        <time>2017-08-03T13:16:16Z</time>
      </trkpt>
      <trkpt lat="45.90925" lon="4.75326">
        <ele>186</ele>
        <time>2017-08-03T13:16:18Z</time>
      </trkpt>
      <trkpt lat="45.90925" lon="4.75332">
        <ele>186</ele>
        <time>2017-08-03T13:16:19Z</time>
      </trkpt>
      <trkpt lat="45.90924" lon="4.75342">
        <ele>186</ele>
        <time>2017-08-03T13:16:21Z</time>
      </trkpt>
      <trkpt lat="45.90924" lon="4.75348">
        <ele>185</ele>
        <time>2017-08-03T13:16:22Z</time>
      </trkpt>
      <trkpt lat="45.90923" lon="4.75359">
        <ele>185</ele>
        <time>2017-08-03T13:16:24Z</time>
      </trkpt>
      <trkpt lat="45.90923" lon="4.75365">
        <ele>185</ele>
        <time>2017-08-03T13:16:25Z</time>
      </trkpt>
      <trkpt lat="45.90921" lon="4.75378">
        <ele>185</ele>
        <time>2017-08-03T13:16:27Z</time>
      </trkpt>
      <trkpt lat="45.90921" lon="4.75384">
        <ele>185</ele>
        <time>2017-08-03T13:16:28Z</time>
      </trkpt>
      <trkpt lat="45.9092" lon="4.75396">
        <ele>185</ele>
        <time>2017-08-03T13:16:30Z</time>
      </trkpt>
      <trkpt lat="45.90919" lon="4.75401">
        <ele>185</ele>
        <time>2017-08-03T13:16:31Z</time>
      </trkpt>
      <trkpt lat="45.90918" lon="4.75411">
        <ele>185</ele>
        <time>2017-08-03T13:16:33Z</time>
      </trkpt>
      <trkpt lat="45.90917" lon="4.75417">
        <ele>185</ele>
        <time>2017-08-03T13:16:34Z</time>
      </trkpt>
      <trkpt lat="45.90916" lon="4.75429">
        <ele>185</ele>
        <time>2017-08-03T13:16:36Z</time>
      </trkpt>
      <trkpt lat="45.90916" lon="4.75436">
        <ele>185</ele>
        <time>2017-08-03T13:16:37Z</time>
      </trkpt>
      <trkpt lat="45.90915" lon="4.75447">
        <ele>186</ele>
        <time>2017-08-03T13:16:39Z</time>
      </trkpt>
      <trkpt lat="45.90915" lon="4.75452">
        <ele>186</ele>
        <time>2017-08-03T13:16:40Z</time>
      </trkpt>
      <trkpt lat="45.90913" lon="4.75461">
        <ele>186</ele>
        <time>2017-08-03T13:16:42Z</time>
      </trkpt>
      <trkpt lat="45.90913" lon="4.75466">
        <ele>186</ele>
        <time>2017-08-03T13:16:43Z</time>
      </trkpt>
      <trkpt lat="45.90911" lon="4.75477">
        <ele>186</ele>
        <time>2017-08-03T13:16:45Z</time>
      </trkpt>
      <trkpt lat="45.90911" lon="4.75483">
        <ele>186</ele>
        <time>2017-08-03T13:16:46Z</time>
      </trkpt>
      <trkpt lat="45.9091" lon="4.7549">
        <ele>186</ele>
        <time>2017-08-03T13:16:47Z</time>
      </trkpt>
      <trkpt lat="45.90909" lon="4.75497">
        <ele>186</ele>
        <time>2017-08-03T13:16:48Z</time>
      </trkpt>
      <trkpt lat="45.90908" lon="4.75503">
        <ele>186</ele>
        <time>2017-08-03T13:16:49Z</time>
      </trkpt>
      <trkpt lat="45.90907" lon="4.7551">
        <ele>186</ele>
        <time>2017-08-03T13:16:50Z</time>
      </trkpt>
      <trkpt lat="45.90906" lon="4.75523">
        <ele>186</ele>
        <time>2017-08-03T13:16:52Z</time>
      </trkpt>
      <trkpt lat="45.90905" lon="4.75529">
        <ele>186</ele>
        <time>2017-08-03T13:16:53Z</time>
      </trkpt>
      <trkpt lat="45.90904" lon="4.75541">
        <ele>186</ele>
        <time>2017-08-03T13:16:55Z</time>
      </trkpt>
      <trkpt lat="45.90903" lon="4.75547">
        <ele>186</ele>
        <time>2017-08-03T13:16:56Z</time>
      </trkpt>
      <trkpt lat="45.90902" lon="4.75553">
        <ele>186</ele>
        <time>2017-08-03T13:16:57Z</time>
      </trkpt>
      <trkpt lat="45.90902" lon="4.7556">
        <ele>186</ele>
        <time>2017-08-03T13:16:58Z</time>
      </trkpt>
      <trkpt lat="45.90901" lon="4.75567">
        <ele>186</ele>
        <time>2017-08-03T13:16:59Z</time>
      </trkpt>
      <trkpt lat="45.90901" lon="4.75574">
        <ele>186</ele>
        <time>2017-08-03T13:17:00Z</time>
      </trkpt>
      <trkpt lat="45.909" lon="4.75581">
        <ele>186</ele>
        <time>2017-08-03T13:17:01Z</time>
      </trkpt>
      <trkpt lat="45.90899" lon="4.75587">
        <ele>185</ele>
        <time>2017-08-03T13:17:02Z</time>
      </trkpt>
      <trkpt lat="45.90898" lon="4.756">
        <ele>185</ele>
        <time>2017-08-03T13:17:04Z</time>
      </trkpt>
      <trkpt lat="45.90897" lon="4.75606">
        <ele>185</ele>
        <time>2017-08-03T13:17:05Z</time>
      </trkpt>
      <trkpt lat="45.90897" lon="4.75619">
        <ele>185</ele>
        <time>2017-08-03T13:17:07Z</time>
      </trkpt>
      <trkpt lat="45.90897" lon="4.75625">
        <ele>185</ele>
        <time>2017-08-03T13:17:08Z</time>
      </trkpt>
      <trkpt lat="45.90896" lon="4.75636">
        <ele>185</ele>
        <time>2017-08-03T13:17:10Z</time>
      </trkpt>
      <trkpt lat="45.90896" lon="4.75642">
        <ele>185</ele>
        <time>2017-08-03T13:17:11Z</time>
      </trkpt>
      <trkpt lat="45.90897" lon="4.75651">
        <ele>184</ele>
        <time>2017-08-03T13:17:13Z</time>
      </trkpt>
      <trkpt lat="45.90897" lon="4.75657">
        <ele>184</ele>
        <time>2017-08-03T13:17:14Z</time>
      </trkpt>
      <trkpt lat="45.90897" lon="4.75663">
        <ele>184</ele>
        <time>2017-08-03T13:17:15Z</time>
      </trkpt>
      <trkpt lat="45.90897" lon="4.7567">
        <ele>184</ele>
        <time>2017-08-03T13:17:16Z</time>
      </trkpt>
      <trkpt lat="45.90896" lon="4.75683">
        <ele>184</ele>
        <time>2017-08-03T13:17:18Z</time>
      </trkpt>
      <trkpt lat="45.90896" lon="4.75689">
        <ele>184</ele>
        <time>2017-08-03T13:17:19Z</time>
      </trkpt>
      <trkpt lat="45.90894" lon="4.75701">
        <ele>184</ele>
        <time>2017-08-03T13:17:21Z</time>
      </trkpt>
      <trkpt lat="45.90894" lon="4.75706">
        <ele>184</ele>
        <time>2017-08-03T13:17:22Z</time>
      </trkpt>
      <trkpt lat="45.90893" lon="4.75716">
        <ele>185</ele>
        <time>2017-08-03T13:17:24Z</time>
      </trkpt>
      <trkpt lat="45.90893" lon="4.75721">
        <ele>185</ele>
        <time>2017-08-03T13:17:25Z</time>
      </trkpt>
      <trkpt lat="45.90893" lon="4.75727">
        <ele>185</ele>
        <time>2017-08-03T13:17:26Z</time>
      </trkpt>
      <trkpt lat="45.90892" lon="4.75734">
        <ele>185</ele>
        <time>2017-08-03T13:17:27Z</time>
      </trkpt>
      <trkpt lat="45.90892" lon="4.75741">
        <ele>185</ele>
        <time>2017-08-03T13:17:28Z</time>
      </trkpt>
      <trkpt lat="45.90891" lon="4.75747">
        <ele>185</ele>
        <time>2017-08-03T13:17:29Z</time>
      </trkpt>
      <trkpt lat="45.90891" lon="4.75754">
        <ele>185</ele>
        <time>2017-08-03T13:17:30Z</time>
      </trkpt>
      <trkpt lat="45.90891" lon="4.7576">
        <ele>185</ele>
        <time>2017-08-03T13:17:31Z</time>
      </trkpt>
      <trkpt lat="45.9089" lon="4.75773">
        <ele>185</ele>
        <time>2017-08-03T13:17:33Z</time>
      </trkpt>
      <trkpt lat="45.9089" lon="4.75779">
        <ele>185</ele>
        <time>2017-08-03T13:17:34Z</time>
      </trkpt>
      <trkpt lat="45.90889" lon="4.75791">
        <ele>185</ele>
        <time>2017-08-03T13:17:36Z</time>
      </trkpt>
      <trkpt lat="45.90889" lon="4.75797">
        <ele>185</ele>
        <time>2017-08-03T13:17:37Z</time>
      </trkpt>
      <trkpt lat="45.9089" lon="4.75809">
        <ele>184</ele>
        <time>2017-08-03T13:17:39Z</time>
      </trkpt>
      <trkpt lat="45.90891" lon="4.75815">
        <ele>184</ele>
        <time>2017-08-03T13:17:40Z</time>
      </trkpt>
      <trkpt lat="45.90891" lon="4.75827">
        <ele>184</ele>
        <time>2017-08-03T13:17:42Z</time>
      </trkpt>
      <trkpt lat="45.90891" lon="4.75834">
        <ele>184</ele>
        <time>2017-08-03T13:17:43Z</time>
      </trkpt>
      <trkpt lat="45.9089" lon="4.75841">
        <ele>184</ele>
        <time>2017-08-03T13:17:44Z</time>
      </trkpt>
      <trkpt lat="45.90889" lon="4.75848">
        <ele>184</ele>
        <time>2017-08-03T13:17:45Z</time>
      </trkpt>
      <trkpt lat="45.90889" lon="4.75859">
        <ele>184</ele>
        <time>2017-08-03T13:17:47Z</time>
      </trkpt>
      <trkpt lat="45.90889" lon="4.75863">
        <ele>184</ele>
        <time>2017-08-03T13:17:48Z</time>
      </trkpt>
      <trkpt lat="45.90882" lon="4.7587">
        <ele>184</ele>
        <time>2017-08-03T13:17:51Z</time>
      </trkpt>
      <trkpt lat="45.90878" lon="4.75869">
        <ele>184</ele>
        <time>2017-08-03T13:17:52Z</time>
      </trkpt>
      <trkpt lat="45.90873" lon="4.75867">
        <ele>184</ele>
        <time>2017-08-03T13:17:53Z</time>
      </trkpt>
      <trkpt lat="45.90868" lon="4.75866">
        <ele>184</ele>
        <time>2017-08-03T13:17:54Z</time>
      </trkpt>
      <trkpt lat="45.90863" lon="4.75865">
        <ele>184</ele>
        <time>2017-08-03T13:17:55Z</time>
      </trkpt>
      <trkpt lat="45.90858" lon="4.75865">
        <ele>184</ele>
        <time>2017-08-03T13:17:56Z</time>
      </trkpt>
      <trkpt lat="45.90849" lon="4.75862">
        <ele>184</ele>
        <time>2017-08-03T13:17:58Z</time>
      </trkpt>
      <trkpt lat="45.90844" lon="4.75863">
        <ele>184</ele>
        <time>2017-08-03T13:17:59Z</time>
      </trkpt>
      <trkpt lat="45.9084" lon="4.75863">
        <ele>184</ele>
        <time>2017-08-03T13:18:00Z</time>
      </trkpt>
      <trkpt lat="45.90835" lon="4.75863">
        <ele>184</ele>
        <time>2017-08-03T13:18:01Z</time>
      </trkpt>
      <trkpt lat="45.9083" lon="4.75863">
        <ele>185</ele>
        <time>2017-08-03T13:18:02Z</time>
      </trkpt>
      <trkpt lat="45.90825" lon="4.75863">
        <ele>185</ele>
        <time>2017-08-03T13:18:03Z</time>
      </trkpt>
      <trkpt lat="45.9082" lon="4.75862">
        <ele>185</ele>
        <time>2017-08-03T13:18:04Z</time>
      </trkpt>
      <trkpt lat="45.90815" lon="4.75862">
        <ele>185</ele>
        <time>2017-08-03T13:18:05Z</time>
      </trkpt>
      <trkpt lat="45.9081" lon="4.75862">
        <ele>185</ele>
        <time>2017-08-03T13:18:06Z</time>
      </trkpt>
      <trkpt lat="45.90804" lon="4.75861">
        <ele>185</ele>
        <time>2017-08-03T13:18:07Z</time>
      </trkpt>
      <trkpt lat="45.90798" lon="4.75861">
        <ele>185</ele>
        <time>2017-08-03T13:18:08Z</time>
      </trkpt>
      <trkpt lat="45.90792" lon="4.7586">
        <ele>185</ele>
        <time>2017-08-03T13:18:09Z</time>
      </trkpt>
      <trkpt lat="45.90786" lon="4.75859">
        <ele>185</ele>
        <time>2017-08-03T13:18:10Z</time>
      </trkpt>
      <trkpt lat="45.90781" lon="4.7586">
        <ele>185</ele>
        <time>2017-08-03T13:18:11Z</time>
      </trkpt>
      <trkpt lat="45.90776" lon="4.75861">
        <ele>185</ele>
        <time>2017-08-03T13:18:12Z</time>
      </trkpt>
      <trkpt lat="45.90771" lon="4.75861">
        <ele>185</ele>
        <time>2017-08-03T13:18:13Z</time>
      </trkpt>
      <trkpt lat="45.90766" lon="4.7586">
        <ele>185</ele>
        <time>2017-08-03T13:18:14Z</time>
      </trkpt>
      <trkpt lat="45.9076" lon="4.75858">
        <ele>186</ele>
        <time>2017-08-03T13:18:15Z</time>
      </trkpt>
      <trkpt lat="45.90756" lon="4.75858">
        <ele>186</ele>
        <time>2017-08-03T13:18:16Z</time>
      </trkpt>
      <trkpt lat="45.90751" lon="4.75858">
        <ele>186</ele>
        <time>2017-08-03T13:18:17Z</time>
      </trkpt>
      <trkpt lat="45.90745" lon="4.75857">
        <ele>186</ele>
        <time>2017-08-03T13:18:18Z</time>
      </trkpt>
      <trkpt lat="45.9074" lon="4.75856">
        <ele>186</ele>
        <time>2017-08-03T13:18:19Z</time>
      </trkpt>
      <trkpt lat="45.90734" lon="4.75856">
        <ele>186</ele>
        <time>2017-08-03T13:18:20Z</time>
      </trkpt>
      <trkpt lat="45.90728" lon="4.75856">
        <ele>186</ele>
        <time>2017-08-03T13:18:21Z</time>
      </trkpt>
      <trkpt lat="45.90722" lon="4.75856">
        <ele>186</ele>
        <time>2017-08-03T13:18:22Z</time>
      </trkpt>
      <trkpt lat="45.90716" lon="4.75856">
        <ele>187</ele>
        <time>2017-08-03T13:18:23Z</time>
      </trkpt>
      <trkpt lat="45.9071" lon="4.75856">
        <ele>187</ele>
        <time>2017-08-03T13:18:24Z</time>
      </trkpt>
      <trkpt lat="45.90705" lon="4.75857">
        <ele>187</ele>
        <time>2017-08-03T13:18:25Z</time>
      </trkpt>
      <trkpt lat="45.907" lon="4.75858">
        <ele>187</ele>
        <time>2017-08-03T13:18:26Z</time>
      </trkpt>
      <trkpt lat="45.90696" lon="4.75859">
        <ele>187</ele>
        <time>2017-08-03T13:18:27Z</time>
      </trkpt>
      <trkpt lat="45.90691" lon="4.75861">
        <ele>187</ele>
        <time>2017-08-03T13:18:28Z</time>
      </trkpt>
      <trkpt lat="45.90686" lon="4.75863">
        <ele>187</ele>
        <time>2017-08-03T13:18:29Z</time>
      </trkpt>
      <trkpt lat="45.90682" lon="4.75866">
        <ele>187</ele>
        <time>2017-08-03T13:18:30Z</time>
      </trkpt>
      <trkpt lat="45.90677" lon="4.75868">
        <ele>187</ele>
        <time>2017-08-03T13:18:31Z</time>
      </trkpt>
      <trkpt lat="45.90672" lon="4.75871">
        <ele>187</ele>
        <time>2017-08-03T13:18:32Z</time>
      </trkpt>
      <trkpt lat="45.90668" lon="4.75875">
        <ele>187</ele>
        <time>2017-08-03T13:18:33Z</time>
      </trkpt>
      <trkpt lat="45.90664" lon="4.7588">
        <ele>187</ele>
        <time>2017-08-03T13:18:34Z</time>
      </trkpt>
      <trkpt lat="45.9066" lon="4.75885">
        <ele>187</ele>
        <time>2017-08-03T13:18:35Z</time>
      </trkpt>
      <trkpt lat="45.90657" lon="4.7589">
        <ele>187</ele>
        <time>2017-08-03T13:18:36Z</time>
      </trkpt>
      <trkpt lat="45.90654" lon="4.75895">
        <ele>187</ele>
        <time>2017-08-03T13:18:37Z</time>
      </trkpt>
      <trkpt lat="45.90648" lon="4.75902">
        <ele>187</ele>
        <time>2017-08-03T13:18:39Z</time>
      </trkpt>
      <trkpt lat="45.90646" lon="4.75906">
        <ele>187</ele>
        <time>2017-08-03T13:18:40Z</time>
      </trkpt>
      <trkpt lat="45.9064" lon="4.75914">
        <ele>187</ele>
        <time>2017-08-03T13:18:43Z</time>
      </trkpt>
      <trkpt lat="45.90636" lon="4.75918">
        <ele>186</ele>
        <time>2017-08-03T13:18:44Z</time>
      </trkpt>
      <trkpt lat="45.90633" lon="4.75923">
        <ele>186</ele>
        <time>2017-08-03T13:18:45Z</time>
      </trkpt>
      <trkpt lat="45.9063" lon="4.75929">
        <ele>186</ele>
        <time>2017-08-03T13:18:46Z</time>
      </trkpt>
      <trkpt lat="45.90627" lon="4.75935">
        <ele>186</ele>
        <time>2017-08-03T13:18:47Z</time>
      </trkpt>
      <trkpt lat="45.90623" lon="4.7594">
        <ele>186</ele>
        <time>2017-08-03T13:18:48Z</time>
      </trkpt>
      <trkpt lat="45.9062" lon="4.75946">
        <ele>186</ele>
        <time>2017-08-03T13:18:49Z</time>
      </trkpt>
      <trkpt lat="45.90617" lon="4.75952">
        <ele>186</ele>
        <time>2017-08-03T13:18:50Z</time>
      </trkpt>
      <trkpt lat="45.90613" lon="4.75958">
        <ele>186</ele>
        <time>2017-08-03T13:18:51Z</time>
      </trkpt>
      <trkpt lat="45.9061" lon="4.75963">
        <ele>186</ele>
        <time>2017-08-03T13:18:52Z</time>
      </trkpt>
      <trkpt lat="45.90606" lon="4.75969">
        <ele>186</ele>
        <time>2017-08-03T13:18:53Z</time>
      </trkpt>
      <trkpt lat="45.90603" lon="4.75974">
        <ele>186</ele>
        <time>2017-08-03T13:18:54Z</time>
      </trkpt>
      <trkpt lat="45.90599" lon="4.75978">
        <ele>186</ele>
        <time>2017-08-03T13:18:55Z</time>
      </trkpt>
      <trkpt lat="45.90594" lon="4.7598">
        <ele>186</ele>
        <time>2017-08-03T13:18:56Z</time>
      </trkpt>
      <trkpt lat="45.90586" lon="4.75977">
        <ele>186</ele>
        <time>2017-08-03T13:18:58Z</time>
      </trkpt>
      <trkpt lat="45.90583" lon="4.75975">
        <ele>186</ele>
        <time>2017-08-03T13:18:59Z</time>
      </trkpt>
      <trkpt lat="45.9058" lon="4.75971">
        <ele>186</ele>
        <time>2017-08-03T13:19:00Z</time>
      </trkpt>
      <trkpt lat="45.90576" lon="4.75967">
        <ele>186</ele>
        <time>2017-08-03T13:19:01Z</time>
      </trkpt>
      <trkpt lat="45.90572" lon="4.75964">
        <ele>186</ele>
        <time>2017-08-03T13:19:02Z</time>
      </trkpt>
      <trkpt lat="45.90567" lon="4.75959">
        <ele>186</ele>
        <time>2017-08-03T13:19:03Z</time>
      </trkpt>
      <trkpt lat="45.90562" lon="4.75955">
        <ele>186</ele>
        <time>2017-08-03T13:19:04Z</time>
      </trkpt>
      <trkpt lat="45.90558" lon="4.75952">
        <ele>186</ele>
        <time>2017-08-03T13:19:05Z</time>
      </trkpt>
      <trkpt lat="45.90553" lon="4.7595">
        <ele>186</ele>
        <time>2017-08-03T13:19:06Z</time>
      </trkpt>
      <trkpt lat="45.90548" lon="4.75948">
        <ele>186</ele>
        <time>2017-08-03T13:19:07Z</time>
      </trkpt>
      <trkpt lat="45.9054" lon="4.7595">
        <ele>186</ele>
        <time>2017-08-03T13:19:09Z</time>
      </trkpt>
      <trkpt lat="45.90535" lon="4.75953">
        <ele>186</ele>
        <time>2017-08-03T13:19:10Z</time>
      </trkpt>
      <trkpt lat="45.90531" lon="4.75956">
        <ele>186</ele>
        <time>2017-08-03T13:19:11Z</time>
      </trkpt>
      <trkpt lat="45.90526" lon="4.75961">
        <ele>186</ele>
        <time>2017-08-03T13:19:12Z</time>
      </trkpt>
      <trkpt lat="45.90522" lon="4.75967">
        <ele>186</ele>
        <time>2017-08-03T13:19:13Z</time>
      </trkpt>
      <trkpt lat="45.90518" lon="4.75973">
        <ele>186</ele>
        <time>2017-08-03T13:19:14Z</time>
      </trkpt>
      <trkpt lat="45.90515" lon="4.75981">
        <ele>186</ele>
        <time>2017-08-03T13:19:15Z</time>
      </trkpt>
      <trkpt lat="45.90514" lon="4.75988">
        <ele>186</ele>
        <time>2017-08-03T13:19:16Z</time>
      </trkpt>
      <trkpt lat="45.90512" lon="4.75996">
        <ele>186</ele>
        <time>2017-08-03T13:19:17Z</time>
      </trkpt>
      <trkpt lat="45.90511" lon="4.76004">
        <ele>186</ele>
        <time>2017-08-03T13:19:18Z</time>
      </trkpt>
      <trkpt lat="45.9051" lon="4.76012">
        <ele>186</ele>
        <time>2017-08-03T13:19:19Z</time>
      </trkpt>
      <trkpt lat="45.90509" lon="4.7602">
        <ele>186</ele>
        <time>2017-08-03T13:19:20Z</time>
      </trkpt>
      <trkpt lat="45.90508" lon="4.76027">
        <ele>185</ele>
        <time>2017-08-03T13:19:21Z</time>
      </trkpt>
      <trkpt lat="45.90507" lon="4.76034">
        <ele>185</ele>
        <time>2017-08-03T13:19:22Z</time>
      </trkpt>
      <trkpt lat="45.90505" lon="4.76041">
        <ele>185</ele>
        <time>2017-08-03T13:19:23Z</time>
      </trkpt>
      <trkpt lat="45.90503" lon="4.76047">
        <ele>185</ele>
        <time>2017-08-03T13:19:24Z</time>
      </trkpt>
      <trkpt lat="45.90501" lon="4.76053">
        <ele>185</ele>
        <time>2017-08-03T13:19:25Z</time>
      </trkpt>
      <trkpt lat="45.90499" lon="4.7606">
        <ele>185</ele>
        <time>2017-08-03T13:19:26Z</time>
      </trkpt>
      <trkpt lat="45.90496" lon="4.76067">
        <ele>185</ele>
        <time>2017-08-03T13:19:27Z</time>
      </trkpt>
      <trkpt lat="45.90492" lon="4.76073">
        <ele>185</ele>
        <time>2017-08-03T13:19:28Z</time>
      </trkpt>
      <trkpt lat="45.90489" lon="4.7608">
        <ele>185</ele>
        <time>2017-08-03T13:19:29Z</time>
      </trkpt>
      <trkpt lat="45.90485" lon="4.76086">
        <ele>185</ele>
        <time>2017-08-03T13:19:30Z</time>
      </trkpt>
      <trkpt lat="45.90482" lon="4.76091">
        <ele>185</ele>
        <time>2017-08-03T13:19:31Z</time>
      </trkpt>
      <trkpt lat="45.9048" lon="4.76097">
        <ele>185</ele>
        <time>2017-08-03T13:19:32Z</time>
      </trkpt>
      <trkpt lat="45.90474" lon="4.76106">
        <ele>185</ele>
        <time>2017-08-03T13:19:34Z</time>
      </trkpt>
      <trkpt lat="45.90471" lon="4.76111">
        <ele>185</ele>
        <time>2017-08-03T13:19:35Z</time>
      </trkpt>
      <trkpt lat="45.90467" lon="4.76115">
        <ele>185</ele>
        <time>2017-08-03T13:19:36Z</time>
      </trkpt>
      <trkpt lat="45.90464" lon="4.7612">
        <ele>185</ele>
        <time>2017-08-03T13:19:37Z</time>
      </trkpt>
      <trkpt lat="45.9046" lon="4.76126">
        <ele>185</ele>
        <time>2017-08-03T13:19:38Z</time>
      </trkpt>
      <trkpt lat="45.90456" lon="4.76131">
        <ele>186</ele>
        <time>2017-08-03T13:19:39Z</time>
      </trkpt>
      <trkpt lat="45.90452" lon="4.76136">
        <ele>186</ele>
        <time>2017-08-03T13:19:40Z</time>
      </trkpt>
      <trkpt lat="45.90448" lon="4.76142">
        <ele>186</ele>
        <time>2017-08-03T13:19:41Z</time>
      </trkpt>
      <trkpt lat="45.90444" lon="4.76147">
        <ele>186</ele>
        <time>2017-08-03T13:19:42Z</time>
      </trkpt>
      <trkpt lat="45.9044" lon="4.76152">
        <ele>186</ele>
        <time>2017-08-03T13:19:43Z</time>
      </trkpt>
      <trkpt lat="45.90436" lon="4.76158">
        <ele>186</ele>
        <time>2017-08-03T13:19:44Z</time>
      </trkpt>
      <trkpt lat="45.90432" lon="4.76163">
        <ele>186</ele>
        <time>2017-08-03T13:19:45Z</time>
      </trkpt>
      <trkpt lat="45.90426" lon="4.76171">
        <ele>186</ele>
        <time>2017-08-03T13:19:47Z</time>
      </trkpt>
      <trkpt lat="45.90423" lon="4.76174">
        <ele>186</ele>
        <time>2017-08-03T13:19:48Z</time>
      </trkpt>
      <trkpt lat="45.90418" lon="4.76183">
        <ele>186</ele>
        <time>2017-08-03T13:19:50Z</time>
      </trkpt>
      <trkpt lat="45.90417" lon="4.76189">
        <ele>186</ele>
        <time>2017-08-03T13:19:51Z</time>
      </trkpt>
      <trkpt lat="45.9042" lon="4.76199">
        <ele>186</ele>
        <time>2017-08-03T13:19:53Z</time>
      </trkpt>
      <trkpt lat="45.90424" lon="4.76201">
        <ele>186</ele>
        <time>2017-08-03T13:19:54Z</time>
      </trkpt>
      <trkpt lat="45.9043" lon="4.76206">
        <ele>186</ele>
        <time>2017-08-03T13:19:56Z</time>
      </trkpt>
      <trkpt lat="45.90434" lon="4.76208">
        <ele>186</ele>
        <time>2017-08-03T13:19:57Z</time>
      </trkpt>
      <trkpt lat="45.90442" lon="4.76213">
        <ele>186</ele>
        <time>2017-08-03T13:19:59Z</time>
      </trkpt>
      <trkpt lat="45.90447" lon="4.76215">
        <ele>186</ele>
        <time>2017-08-03T13:20:00Z</time>
      </trkpt>
      <trkpt lat="45.90454" lon="4.7622">
        <ele>186</ele>
        <time>2017-08-03T13:20:02Z</time>
      </trkpt>
      <trkpt lat="45.90458" lon="4.76222">
        <ele>186</ele>
        <time>2017-08-03T13:20:03Z</time>
      </trkpt>
      <trkpt lat="45.90464" lon="4.76226">
        <ele>185</ele>
        <time>2017-08-03T13:20:05Z</time>
      </trkpt>
      <trkpt lat="45.90467" lon="4.76228">
        <ele>185</ele>
        <time>2017-08-03T13:20:06Z</time>
      </trkpt>
      <trkpt lat="45.90475" lon="4.76233">
        <ele>185</ele>
        <time>2017-08-03T13:20:08Z</time>
      </trkpt>
      <trkpt lat="45.90479" lon="4.76235">
        <ele>185</ele>
        <time>2017-08-03T13:20:09Z</time>
      </trkpt>
      <trkpt lat="45.90486" lon="4.76241">
        <ele>185</ele>
        <time>2017-08-03T13:20:11Z</time>
      </trkpt>
      <trkpt lat="45.90489" lon="4.76245">
        <ele>185</ele>
        <time>2017-08-03T13:20:12Z</time>
      </trkpt>
      <trkpt lat="45.9049" lon="4.76256">
        <ele>185</ele>
        <time>2017-08-03T13:20:14Z</time>
      </trkpt>
      <trkpt lat="45.90489" lon="4.76262">
        <ele>185</ele>
        <time>2017-08-03T13:20:15Z</time>
      </trkpt>
      <trkpt lat="45.90485" lon="4.76273">
        <ele>186</ele>
        <time>2017-08-03T13:20:17Z</time>
      </trkpt>
      <trkpt lat="45.90483" lon="4.76279">
        <ele>186</ele>
        <time>2017-08-03T13:20:18Z</time>
      </trkpt>
      <trkpt lat="45.90481" lon="4.76285">
        <ele>186</ele>
        <time>2017-08-03T13:20:19Z</time>
      </trkpt>
      <trkpt lat="45.90479" lon="4.76292">
        <ele>186</ele>
        <time>2017-08-03T13:20:20Z</time>
      </trkpt>
      <trkpt lat="45.90476" lon="4.76298">
        <ele>186</ele>
        <time>2017-08-03T13:20:21Z</time>
      </trkpt>
      <trkpt lat="45.90474" lon="4.76304">
        <ele>186</ele>
        <time>2017-08-03T13:20:22Z</time>
      </trkpt>
      <trkpt lat="45.90471" lon="4.76315">
        <ele>186</ele>
        <time>2017-08-03T13:20:24Z</time>
      </trkpt>
      <trkpt lat="45.90469" lon="4.7632">
        <ele>186</ele>
        <time>2017-08-03T13:20:25Z</time>
      </trkpt>
      <trkpt lat="45.90466" lon="4.76329">
        <ele>186</ele>
        <time>2017-08-03T13:20:27Z</time>
      </trkpt>
      <trkpt lat="45.90465" lon="4.76334">
        <ele>186</ele>
        <time>2017-08-03T13:20:28Z</time>
      </trkpt>
      <trkpt lat="45.90462" lon="4.76345">
        <ele>186</ele>
        <time>2017-08-03T13:20:30Z</time>
      </trkpt>
      <trkpt lat="45.9046" lon="4.76351">
        <ele>186</ele>
        <time>2017-08-03T13:20:31Z</time>
      </trkpt>
      <trkpt lat="45.90458" lon="4.76357">
        <ele>186</ele>
        <time>2017-08-03T13:20:32Z</time>
      </trkpt>
      <trkpt lat="45.90456" lon="4.76363">
        <ele>186</ele>
        <time>2017-08-03T13:20:33Z</time>
      </trkpt>
      <trkpt lat="45.90454" lon="4.7637">
        <ele>186</ele>
        <time>2017-08-03T13:20:34Z</time>
      </trkpt>
      <trkpt lat="45.90452" lon="4.76376">
        <ele>186</ele>
        <time>2017-08-03T13:20:35Z</time>
      </trkpt>
      <trkpt lat="45.90448" lon="4.76387">
        <ele>187</ele>
        <time>2017-08-03T13:20:37Z</time>
      </trkpt>
      <trkpt lat="45.90446" lon="4.76392">
        <ele>187</ele>
        <time>2017-08-03T13:20:38Z</time>
      </trkpt>
      <trkpt lat="45.90442" lon="4.76401">
        <ele>187</ele>
        <time>2017-08-03T13:20:40Z</time>
      </trkpt>
      <trkpt lat="45.9044" lon="4.76406">
        <ele>187</ele>
        <time>2017-08-03T13:20:41Z</time>
      </trkpt>
      <trkpt lat="45.90438" lon="4.76412">
        <ele>187</ele>
        <time>2017-08-03T13:20:42Z</time>
      </trkpt>
      <trkpt lat="45.90435" lon="4.76417">
        <ele>187</ele>
        <time>2017-08-03T13:20:43Z</time>
      </trkpt>
      <trkpt lat="45.90433" lon="4.76423">
        <ele>187</ele>
        <time>2017-08-03T13:20:44Z</time>
      </trkpt>
      <trkpt lat="45.9043" lon="4.76429">
        <ele>187</ele>
        <time>2017-08-03T13:20:45Z</time>
      </trkpt>
      <trkpt lat="45.90428" lon="4.76435">
        <ele>187</ele>
        <time>2017-08-03T13:20:46Z</time>
      </trkpt>
      <trkpt lat="45.90426" lon="4.76441">
        <ele>187</ele>
        <time>2017-08-03T13:20:47Z</time>
      </trkpt>
      <trkpt lat="45.90424" lon="4.76447">
        <ele>186</ele>
        <time>2017-08-03T13:20:48Z</time>
      </trkpt>
      <trkpt lat="45.90422" lon="4.76453">
        <ele>186</ele>
        <time>2017-08-03T13:20:49Z</time>
      </trkpt>
      <trkpt lat="45.90418" lon="4.76463">
        <ele>186</ele>
        <time>2017-08-03T13:20:51Z</time>
      </trkpt>
      <trkpt lat="45.90415" lon="4.76468">
        <ele>188</ele>
        <time>2017-08-03T13:20:52Z</time>
      </trkpt>
      <trkpt lat="45.90409" lon="4.76474">
        <ele>188</ele>
        <time>2017-08-03T13:20:54Z</time>
      </trkpt>
      <trkpt lat="45.90405" lon="4.76475">
        <ele>188</ele>
        <time>2017-08-03T13:20:55Z</time>
      </trkpt>
      <trkpt lat="45.90399" lon="4.76476">
        <ele>188</ele>
        <time>2017-08-03T13:20:57Z</time>
      </trkpt>
      <trkpt lat="45.90395" lon="4.76476">
        <ele>188</ele>
        <time>2017-08-03T13:20:58Z</time>
      </trkpt>
      <trkpt lat="45.90387" lon="4.76476">
        <ele>188</ele>
        <time>2017-08-03T13:21:00Z</time>
      </trkpt>
      <trkpt lat="45.90383" lon="4.76476">
        <ele>188</ele>
        <time>2017-08-03T13:21:01Z</time>
      </trkpt>
      <trkpt lat="45.90379" lon="4.76476">
        <ele>188</ele>
        <time>2017-08-03T13:21:02Z</time>
      </trkpt>
      <trkpt lat="45.90374" lon="4.76478">
        <ele>188</ele>
        <time>2017-08-03T13:21:03Z</time>
      </trkpt>
      <trkpt lat="45.90369" lon="4.7648">
        <ele>188</ele>
        <time>2017-08-03T13:21:04Z</time>
      </trkpt>
      <trkpt lat="45.90365" lon="4.76483">
        <ele>188</ele>
        <time>2017-08-03T13:21:05Z</time>
      </trkpt>
      <trkpt lat="45.90359" lon="4.76491">
        <ele>188</ele>
        <time>2017-08-03T13:21:07Z</time>
      </trkpt>
      <trkpt lat="45.90356" lon="4.76495">
        <ele>188</ele>
        <time>2017-08-03T13:21:08Z</time>
      </trkpt>
      <trkpt lat="45.9035" lon="4.76503">
        <ele>187</ele>
        <time>2017-08-03T13:21:10Z</time>
      </trkpt>
      <trkpt lat="45.90348" lon="4.76507">
        <ele>187</ele>
        <time>2017-08-03T13:21:11Z</time>
      </trkpt>
      <trkpt lat="45.90343" lon="4.76517">
        <ele>187</ele>
        <time>2017-08-03T13:21:13Z</time>
      </trkpt>
      <trkpt lat="45.90341" lon="4.76523">
        <ele>186</ele>
        <time>2017-08-03T13:21:14Z</time>
      </trkpt>
      <trkpt lat="45.9034" lon="4.76535">
        <ele>186</ele>
        <time>2017-08-03T13:21:16Z</time>
      </trkpt>
      <trkpt lat="45.9034" lon="4.7654">
        <ele>186</ele>
        <time>2017-08-03T13:21:17Z</time>
      </trkpt>
      <trkpt lat="45.9034" lon="4.76553">
        <ele>185</ele>
        <time>2017-08-03T13:21:19Z</time>
      </trkpt>
      <trkpt lat="45.90339" lon="4.76559">
        <ele>185</ele>
        <time>2017-08-03T13:21:20Z</time>
      </trkpt>
      <trkpt lat="45.90339" lon="4.76566">
        <ele>185</ele>
        <time>2017-08-03T13:21:21Z</time>
      </trkpt>
      <trkpt lat="45.9034" lon="4.76573">
        <ele>185</ele>
        <time>2017-08-03T13:21:22Z</time>
      </trkpt>
      <trkpt lat="45.9034" lon="4.7658">
        <ele>185</ele>
        <time>2017-08-03T13:21:23Z</time>
      </trkpt>
      <trkpt lat="45.9034" lon="4.76587">
        <ele>185</ele>
        <time>2017-08-03T13:21:24Z</time>
      </trkpt>
      <trkpt lat="45.9034" lon="4.76595">
        <ele>184</ele>
        <time>2017-08-03T13:21:25Z</time>
      </trkpt>
      <trkpt lat="45.9034" lon="4.76603">
        <ele>184</ele>
        <time>2017-08-03T13:21:26Z</time>
      </trkpt>
      <trkpt lat="45.90339" lon="4.76611">
        <ele>184</ele>
        <time>2017-08-03T13:21:27Z</time>
      </trkpt>
      <trkpt lat="45.90339" lon="4.76619">
        <ele>184</ele>
        <time>2017-08-03T13:21:28Z</time>
      </trkpt>
      <trkpt lat="45.90339" lon="4.76628">
        <ele>184</ele>
        <time>2017-08-03T13:21:29Z</time>
      </trkpt>
      <trkpt lat="45.90339" lon="4.76636">
        <ele>184</ele>
        <time>2017-08-03T13:21:30Z</time>
      </trkpt>
      <trkpt lat="45.90338" lon="4.76644">
        <ele>184</ele>
        <time>2017-08-03T13:21:31Z</time>
      </trkpt>
      <trkpt lat="45.90338" lon="4.76652">
        <ele>184</ele>
        <time>2017-08-03T13:21:32Z</time>
      </trkpt>
      <trkpt lat="45.90338" lon="4.76661">
        <ele>184</ele>
        <time>2017-08-03T13:21:33Z</time>
      </trkpt>
      <trkpt lat="45.90338" lon="4.76669">
        <ele>184</ele>
        <time>2017-08-03T13:21:34Z</time>
      </trkpt>
      <trkpt lat="45.90338" lon="4.76677">
        <ele>183</ele>
        <time>2017-08-03T13:21:35Z</time>
      </trkpt>
      <trkpt lat="45.90338" lon="4.76684">
        <ele>183</ele>
        <time>2017-08-03T13:21:36Z</time>
      </trkpt>
      <trkpt lat="45.90338" lon="4.76692">
        <ele>183</ele>
        <time>2017-08-03T13:21:37Z</time>
      </trkpt>
      <trkpt lat="45.90338" lon="4.76699">
        <ele>183</ele>
        <time>2017-08-03T13:21:38Z</time>
      </trkpt>
      <trkpt lat="45.90338" lon="4.76707">
        <ele>183</ele>
        <time>2017-08-03T13:21:39Z</time>
      </trkpt>
      <trkpt lat="45.90339" lon="4.76714">
        <ele>183</ele>
        <time>2017-08-03T13:21:40Z</time>
      </trkpt>
      <trkpt lat="45.90339" lon="4.7672">
        <ele>183</ele>
        <time>2017-08-03T13:21:41Z</time>
      </trkpt>
      <trkpt lat="45.90339" lon="4.76727">
        <ele>183</ele>
        <time>2017-08-03T13:21:42Z</time>
      </trkpt>
      <trkpt lat="45.90339" lon="4.76734">
        <ele>183</ele>
        <time>2017-08-03T13:21:43Z</time>
      </trkpt>
      <trkpt lat="45.9034" lon="4.7674">
        <ele>183</ele>
        <time>2017-08-03T13:21:44Z</time>
      </trkpt>
      <trkpt lat="45.9034" lon="4.76753">
        <ele>183</ele>
        <time>2017-08-03T13:21:46Z</time>
      </trkpt>
      <trkpt lat="45.9034" lon="4.76759">
        <ele>183</ele>
        <time>2017-08-03T13:21:47Z</time>
      </trkpt>
      <trkpt lat="45.90339" lon="4.76765">
        <ele>182</ele>
        <time>2017-08-03T13:21:48Z</time>
      </trkpt>
      <trkpt lat="45.90338" lon="4.76772">
        <ele>182</ele>
        <time>2017-08-03T13:21:49Z</time>
      </trkpt>
      <trkpt lat="45.90338" lon="4.7678">
        <ele>182</ele>
        <time>2017-08-03T13:21:50Z</time>
      </trkpt>
      <trkpt lat="45.90338" lon="4.76787">
        <ele>182</ele>
        <time>2017-08-03T13:21:51Z</time>
      </trkpt>
      <trkpt lat="45.90338" lon="4.76794">
        <ele>182</ele>
        <time>2017-08-03T13:21:52Z</time>
      </trkpt>
      <trkpt lat="45.90337" lon="4.768">
        <ele>182</ele>
        <time>2017-08-03T13:21:53Z</time>
      </trkpt>
      <trkpt lat="45.90337" lon="4.76807">
        <ele>182</ele>
        <time>2017-08-03T13:21:54Z</time>
      </trkpt>
      <trkpt lat="45.90336" lon="4.76813">
        <ele>182</ele>
        <time>2017-08-03T13:21:55Z</time>
      </trkpt>
      <trkpt lat="45.90336" lon="4.7682">
        <ele>182</ele>
        <time>2017-08-03T13:21:56Z</time>
      </trkpt>
      <trkpt lat="45.90335" lon="4.76826">
        <ele>182</ele>
        <time>2017-08-03T13:21:57Z</time>
      </trkpt>
      <trkpt lat="45.90335" lon="4.76833">
        <ele>182</ele>
        <time>2017-08-03T13:21:58Z</time>
      </trkpt>
      <trkpt lat="45.90335" lon="4.76839">
        <ele>182</ele>
        <time>2017-08-03T13:21:59Z</time>
      </trkpt>
      <trkpt lat="45.90338" lon="4.76851">
        <ele>182</ele>
        <time>2017-08-03T13:22:01Z</time>
      </trkpt>
      <trkpt lat="45.9034" lon="4.76855">
        <ele>182</ele>
        <time>2017-08-03T13:22:02Z</time>
      </trkpt>
      <trkpt lat="45.90348" lon="4.7686">
        <ele>182</ele>
        <time>2017-08-03T13:22:04Z</time>
      </trkpt>
      <trkpt lat="45.90352" lon="4.76861">
        <ele>182</ele>
        <time>2017-08-03T13:22:05Z</time>
      </trkpt>
      <trkpt lat="45.90357" lon="4.76862">
        <ele>182</ele>
        <time>2017-08-03T13:22:06Z</time>
      </trkpt>
      <trkpt lat="45.90361" lon="4.76862">
        <ele>182</ele>
        <time>2017-08-03T13:22:07Z</time>
      </trkpt>
      <trkpt lat="45.90367" lon="4.76862">
        <ele>182</ele>
        <time>2017-08-03T13:22:08Z</time>
      </trkpt>
      <trkpt lat="45.90372" lon="4.76862">
        <ele>182</ele>
        <time>2017-08-03T13:22:09Z</time>
      </trkpt>
      <trkpt lat="45.90377" lon="4.76862">
        <ele>182</ele>
        <time>2017-08-03T13:22:10Z</time>
      </trkpt>
      <trkpt lat="45.90382" lon="4.76863">
        <ele>182</ele>
        <time>2017-08-03T13:22:11Z</time>
      </trkpt>
      <trkpt lat="45.90391" lon="4.76863">
        <ele>182</ele>
        <time>2017-08-03T13:22:13Z</time>
      </trkpt>
      <trkpt lat="45.90395" lon="4.76864">
        <ele>182</ele>
        <time>2017-08-03T13:22:14Z</time>
      </trkpt>
      <trkpt lat="45.90403" lon="4.76865">
        <ele>182</ele>
        <time>2017-08-03T13:22:16Z</time>
      </trkpt>
      <trkpt lat="45.90408" lon="4.76865">
        <ele>182</ele>
        <time>2017-08-03T13:22:17Z</time>
      </trkpt>
      <trkpt lat="45.90413" lon="4.76866">
        <ele>182</ele>
        <time>2017-08-03T13:22:18Z</time>
      </trkpt>
      <trkpt lat="45.90417" lon="4.76867">
        <ele>181</ele>
        <time>2017-08-03T13:22:19Z</time>
      </trkpt>
      <trkpt lat="45.90422" lon="4.76867">
        <ele>181</ele>
        <time>2017-08-03T13:22:20Z</time>
      </trkpt>
      <trkpt lat="45.90427" lon="4.76867">
        <ele>181</ele>
        <time>2017-08-03T13:22:21Z</time>
      </trkpt>
      <trkpt lat="45.90431" lon="4.76867">
        <ele>181</ele>
        <time>2017-08-03T13:22:22Z</time>
      </trkpt>
      <trkpt lat="45.90436" lon="4.76867">
        <ele>181</ele>
        <time>2017-08-03T13:22:23Z</time>
      </trkpt>
      <trkpt lat="45.90444" lon="4.76869">
        <ele>181</ele>
        <time>2017-08-03T13:22:25Z</time>
      </trkpt>
      <trkpt lat="45.90448" lon="4.7687">
        <ele>181</ele>
        <time>2017-08-03T13:22:26Z</time>
      </trkpt>
      <trkpt lat="45.90453" lon="4.76871">
        <ele>181</ele>
        <time>2017-08-03T13:22:27Z</time>
      </trkpt>
      <trkpt lat="45.90457" lon="4.76872">
        <ele>181</ele>
        <time>2017-08-03T13:22:28Z</time>
      </trkpt>
      <trkpt lat="45.90462" lon="4.76872">
        <ele>181</ele>
        <time>2017-08-03T13:22:29Z</time>
      </trkpt>
      <trkpt lat="45.90467" lon="4.76873">
        <ele>181</ele>
        <time>2017-08-03T13:22:30Z</time>
      </trkpt>
      <trkpt lat="45.90472" lon="4.76875">
        <ele>181</ele>
        <time>2017-08-03T13:22:31Z</time>
      </trkpt>
      <trkpt lat="45.90477" lon="4.76876">
        <ele>181</ele>
        <time>2017-08-03T13:22:32Z</time>
      </trkpt>
      <trkpt lat="45.90483" lon="4.76877">
        <ele>181</ele>
        <time>2017-08-03T13:22:33Z</time>
      </trkpt>
      <trkpt lat="45.90488" lon="4.76878">
        <ele>181</ele>
        <time>2017-08-03T13:22:34Z</time>
      </trkpt>
      <trkpt lat="45.90496" lon="4.76881">
        <ele>181</ele>
        <time>2017-08-03T13:22:36Z</time>
      </trkpt>
      <trkpt lat="45.905" lon="4.76883">
        <ele>180</ele>
        <time>2017-08-03T13:22:37Z</time>
      </trkpt>
      <trkpt lat="45.90505" lon="4.76884">
        <ele>180</ele>
        <time>2017-08-03T13:22:38Z</time>
      </trkpt>
      <trkpt lat="45.90509" lon="4.76886">
        <ele>180</ele>
        <time>2017-08-03T13:22:39Z</time>
      </trkpt>
      <trkpt lat="45.90514" lon="4.76887">
        <ele>180</ele>
        <time>2017-08-03T13:22:40Z</time>
      </trkpt>
      <trkpt lat="45.90519" lon="4.76888">
        <ele>180</ele>
        <time>2017-08-03T13:22:41Z</time>
      </trkpt>
      <trkpt lat="45.90524" lon="4.7689">
        <ele>180</ele>
        <time>2017-08-03T13:22:42Z</time>
      </trkpt>
      <trkpt lat="45.90529" lon="4.76891">
        <ele>180</ele>
        <time>2017-08-03T13:22:43Z</time>
      </trkpt>
      <trkpt lat="45.90534" lon="4.76892">
        <ele>180</ele>
        <time>2017-08-03T13:22:44Z</time>
      </trkpt>
      <trkpt lat="45.9054" lon="4.76893">
        <ele>180</ele>
        <time>2017-08-03T13:22:45Z</time>
      </trkpt>
      <trkpt lat="45.90545" lon="4.76894">
        <ele>180</ele>
        <time>2017-08-03T13:22:46Z</time>
      </trkpt>
      <trkpt lat="45.90549" lon="4.76894">
        <ele>180</ele>
        <time>2017-08-03T13:22:47Z</time>
      </trkpt>
      <trkpt lat="45.90557" lon="4.76896">
        <ele>180</ele>
        <time>2017-08-03T13:22:49Z</time>
      </trkpt>
      <trkpt lat="45.90561" lon="4.76897">
        <ele>180</ele>
        <time>2017-08-03T13:22:50Z</time>
      </trkpt>
      <trkpt lat="45.90565" lon="4.76898">
        <ele>180</ele>
        <time>2017-08-03T13:22:51Z</time>
      </trkpt>
      <trkpt lat="45.9057" lon="4.769">
        <ele>180</ele>
        <time>2017-08-03T13:22:52Z</time>
      </trkpt>
      <trkpt lat="45.90575" lon="4.76901">
        <ele>180</ele>
        <time>2017-08-03T13:22:53Z</time>
      </trkpt>
      <trkpt lat="45.9058" lon="4.76902">
        <ele>180</ele>
        <time>2017-08-03T13:22:54Z</time>
      </trkpt>
      <trkpt lat="45.90584" lon="4.76903">
        <ele>180</ele>
        <time>2017-08-03T13:22:55Z</time>
      </trkpt>
      <trkpt lat="45.90589" lon="4.76904">
        <ele>180</ele>
        <time>2017-08-03T13:22:56Z</time>
      </trkpt>
      <trkpt lat="45.90594" lon="4.76905">
        <ele>180</ele>
        <time>2017-08-03T13:22:57Z</time>
      </trkpt>
      <trkpt lat="45.90598" lon="4.76906">
        <ele>179</ele>
        <time>2017-08-03T13:22:58Z</time>
      </trkpt>
      <trkpt lat="45.90603" lon="4.76908">
        <ele>179</ele>
        <time>2017-08-03T13:22:59Z</time>
      </trkpt>
      <trkpt lat="45.90608" lon="4.7691">
        <ele>179</ele>
        <time>2017-08-03T13:23:00Z</time>
      </trkpt>
      <trkpt lat="45.90612" lon="4.76911">
        <ele>179</ele>
        <time>2017-08-03T13:23:01Z</time>
      </trkpt>
      <trkpt lat="45.90617" lon="4.76912">
        <ele>179</ele>
        <time>2017-08-03T13:23:02Z</time>
      </trkpt>
      <trkpt lat="45.90625" lon="4.76915">
        <ele>179</ele>
        <time>2017-08-03T13:23:04Z</time>
      </trkpt>
      <trkpt lat="45.90629" lon="4.76916">
        <ele>179</ele>
        <time>2017-08-03T13:23:05Z</time>
      </trkpt>
      <trkpt lat="45.90637" lon="4.76919">
        <ele>180</ele>
        <time>2017-08-03T13:23:07Z</time>
      </trkpt>
      <trkpt lat="45.90641" lon="4.7692">
        <ele>180</ele>
        <time>2017-08-03T13:23:08Z</time>
      </trkpt>
      <trkpt lat="45.90649" lon="4.76922">
        <ele>179</ele>
        <time>2017-08-03T13:23:10Z</time>
      </trkpt>
      <trkpt lat="45.90654" lon="4.76923">
        <ele>179</ele>
        <time>2017-08-03T13:23:11Z</time>
      </trkpt>
      <trkpt lat="45.90662" lon="4.76925">
        <ele>179</ele>
        <time>2017-08-03T13:23:13Z</time>
      </trkpt>
      <trkpt lat="45.90667" lon="4.76926">
        <ele>179</ele>
        <time>2017-08-03T13:23:14Z</time>
      </trkpt>
      <trkpt lat="45.90672" lon="4.76927">
        <ele>179</ele>
        <time>2017-08-03T13:23:15Z</time>
      </trkpt>
      <trkpt lat="45.90677" lon="4.76929">
        <ele>179</ele>
        <time>2017-08-03T13:23:16Z</time>
      </trkpt>
      <trkpt lat="45.90681" lon="4.7693">
        <ele>179</ele>
        <time>2017-08-03T13:23:17Z</time>
      </trkpt>
      <trkpt lat="45.90685" lon="4.76932">
        <ele>179</ele>
        <time>2017-08-03T13:23:18Z</time>
      </trkpt>
      <trkpt lat="45.90693" lon="4.76938">
        <ele>179</ele>
        <time>2017-08-03T13:23:20Z</time>
      </trkpt>
      <trkpt lat="45.90697" lon="4.7694">
        <ele>179</ele>
        <time>2017-08-03T13:23:21Z</time>
      </trkpt>
      <trkpt lat="45.90705" lon="4.76946">
        <ele>179</ele>
        <time>2017-08-03T13:23:23Z</time>
      </trkpt>
      <trkpt lat="45.90709" lon="4.76948">
        <ele>179</ele>
        <time>2017-08-03T13:23:24Z</time>
      </trkpt>
      <trkpt lat="45.90713" lon="4.76951">
        <ele>179</ele>
        <time>2017-08-03T13:23:25Z</time>
      </trkpt>
      <trkpt lat="45.90718" lon="4.76953">
        <ele>179</ele>
        <time>2017-08-03T13:23:26Z</time>
      </trkpt>
      <trkpt lat="45.90726" lon="4.76956">
        <ele>179</ele>
        <time>2017-08-03T13:23:28Z</time>
      </trkpt>
      <trkpt lat="45.9073" lon="4.76958">
        <ele>179</ele>
        <time>2017-08-03T13:23:29Z</time>
      </trkpt>
      <trkpt lat="45.90737" lon="4.76963">
        <ele>179</ele>
        <time>2017-08-03T13:23:31Z</time>
      </trkpt>
      <trkpt lat="45.9074" lon="4.76965">
        <ele>179</ele>
        <time>2017-08-03T13:23:32Z</time>
      </trkpt>
      <trkpt lat="45.90747" lon="4.76968">
        <ele>179</ele>
        <time>2017-08-03T13:23:34Z</time>
      </trkpt>
      <trkpt lat="45.9075" lon="4.76969">
        <ele>178</ele>
        <time>2017-08-03T13:23:35Z</time>
      </trkpt>
      <trkpt lat="45.90758" lon="4.76972">
        <ele>178</ele>
        <time>2017-08-03T13:23:37Z</time>
      </trkpt>
      <trkpt lat="45.90762" lon="4.76974">
        <ele>178</ele>
        <time>2017-08-03T13:23:38Z</time>
      </trkpt>
      <trkpt lat="45.9077" lon="4.76979">
        <ele>178</ele>
        <time>2017-08-03T13:23:40Z</time>
      </trkpt>
      <trkpt lat="45.90774" lon="4.76984">
        <ele>178</ele>
        <time>2017-08-03T13:23:41Z</time>
      </trkpt>
      <trkpt lat="45.90778" lon="4.76988">
        <ele>178</ele>
        <time>2017-08-03T13:23:42Z</time>
      </trkpt>
      <trkpt lat="45.90781" lon="4.76993">
        <ele>178</ele>
        <time>2017-08-03T13:23:43Z</time>
      </trkpt>
      <trkpt lat="45.90785" lon="4.76997">
        <ele>178</ele>
        <time>2017-08-03T13:23:44Z</time>
      </trkpt>
      <trkpt lat="45.90788" lon="4.77001">
        <ele>178</ele>
        <time>2017-08-03T13:23:45Z</time>
      </trkpt>
      <trkpt lat="45.90796" lon="4.77008">
        <ele>177</ele>
        <time>2017-08-03T13:23:47Z</time>
      </trkpt>
      <trkpt lat="45.90799" lon="4.77011">
        <ele>177</ele>
        <time>2017-08-03T13:23:48Z</time>
      </trkpt>
      <trkpt lat="45.90803" lon="4.77015">
        <ele>177</ele>
        <time>2017-08-03T13:23:49Z</time>
      </trkpt>
      <trkpt lat="45.90807" lon="4.7702">
        <ele>177</ele>
        <time>2017-08-03T13:23:50Z</time>
      </trkpt>
      <trkpt lat="45.90811" lon="4.77025">
        <ele>177</ele>
        <time>2017-08-03T13:23:51Z</time>
      </trkpt>
      <trkpt lat="45.90815" lon="4.7703">
        <ele>177</ele>
        <time>2017-08-03T13:23:52Z</time>
      </trkpt>
      <trkpt lat="45.90818" lon="4.77035">
        <ele>177</ele>
        <time>2017-08-03T13:23:53Z</time>
      </trkpt>
      <trkpt lat="45.90822" lon="4.7704">
        <ele>177</ele>
        <time>2017-08-03T13:23:54Z</time>
      </trkpt>
      <trkpt lat="45.90829" lon="4.77048">
        <ele>177</ele>
        <time>2017-08-03T13:23:56Z</time>
      </trkpt>
      <trkpt lat="45.90833" lon="4.77051">
        <ele>177</ele>
        <time>2017-08-03T13:23:57Z</time>
      </trkpt>
      <trkpt lat="45.9084" lon="4.77057">
        <ele>177</ele>
        <time>2017-08-03T13:23:59Z</time>
      </trkpt>
      <trkpt lat="45.90844" lon="4.7706">
        <ele>177</ele>
        <time>2017-08-03T13:24:00Z</time>
      </trkpt>
      <trkpt lat="45.90847" lon="4.77065">
        <ele>177</ele>
        <time>2017-08-03T13:24:01Z</time>
      </trkpt>
      <trkpt lat="45.90851" lon="4.77069">
        <ele>177</ele>
        <time>2017-08-03T13:24:02Z</time>
      </trkpt>
      <trkpt lat="45.90855" lon="4.77073">
        <ele>177</ele>
        <time>2017-08-03T13:24:03Z</time>
      </trkpt>
      <trkpt lat="45.90859" lon="4.77077">
        <ele>177</ele>
        <time>2017-08-03T13:24:04Z</time>
      </trkpt>
      <trkpt lat="45.90864" lon="4.77081">
        <ele>177</ele>
        <time>2017-08-03T13:24:05Z</time>
      </trkpt>
      <trkpt lat="45.90868" lon="4.77085">
        <ele>176</ele>
        <time>2017-08-03T13:24:06Z</time>
      </trkpt>
      <trkpt lat="45.90872" lon="4.7709">
        <ele>176</ele>
        <time>2017-08-03T13:24:07Z</time>
      </trkpt>
      <trkpt lat="45.90877" lon="4.77094">
        <ele>176</ele>
        <time>2017-08-03T13:24:08Z</time>
      </trkpt>
      <trkpt lat="45.90881" lon="4.77099">
        <ele>176</ele>
        <time>2017-08-03T13:24:09Z</time>
      </trkpt>
      <trkpt lat="45.90885" lon="4.77104">
        <ele>176</ele>
        <time>2017-08-03T13:24:10Z</time>
      </trkpt>
      <trkpt lat="45.90889" lon="4.77109">
        <ele>176</ele>
        <time>2017-08-03T13:24:11Z</time>
      </trkpt>
      <trkpt lat="45.90893" lon="4.77114">
        <ele>176</ele>
        <time>2017-08-03T13:24:12Z</time>
      </trkpt>
      <trkpt lat="45.90897" lon="4.77119">
        <ele>176</ele>
        <time>2017-08-03T13:24:13Z</time>
      </trkpt>
      <trkpt lat="45.90901" lon="4.77123">
        <ele>176</ele>
        <time>2017-08-03T13:24:14Z</time>
      </trkpt>
      <trkpt lat="45.90904" lon="4.77128">
        <ele>176</ele>
        <time>2017-08-03T13:24:15Z</time>
      </trkpt>
      <trkpt lat="45.90907" lon="4.77132">
        <ele>176</ele>
        <time>2017-08-03T13:24:16Z</time>
      </trkpt>
      <trkpt lat="45.9091" lon="4.77136">
        <ele>176</ele>
        <time>2017-08-03T13:24:17Z</time>
      </trkpt>
      <trkpt lat="45.90914" lon="4.77141">
        <ele>176</ele>
        <time>2017-08-03T13:24:18Z</time>
      </trkpt>
      <trkpt lat="45.90917" lon="4.77146">
        <ele>176</ele>
        <time>2017-08-03T13:24:19Z</time>
      </trkpt>
      <trkpt lat="45.90921" lon="4.77151">
        <ele>176</ele>
        <time>2017-08-03T13:24:20Z</time>
      </trkpt>
      <trkpt lat="45.90924" lon="4.77156">
        <ele>176</ele>
        <time>2017-08-03T13:24:21Z</time>
      </trkpt>
      <trkpt lat="45.90928" lon="4.77161">
        <ele>175</ele>
        <time>2017-08-03T13:24:22Z</time>
      </trkpt>
      <trkpt lat="45.90932" lon="4.77167">
        <ele>176</ele>
        <time>2017-08-03T13:24:23Z</time>
      </trkpt>
      <trkpt lat="45.90935" lon="4.77172">
        <ele>176</ele>
        <time>2017-08-03T13:24:24Z</time>
      </trkpt>
      <trkpt lat="45.90939" lon="4.77178">
        <ele>176</ele>
        <time>2017-08-03T13:24:25Z</time>
      </trkpt>
      <trkpt lat="45.90943" lon="4.77183">
        <ele>176</ele>
        <time>2017-08-03T13:24:26Z</time>
      </trkpt>
      <trkpt lat="45.90946" lon="4.77188">
        <ele>176</ele>
        <time>2017-08-03T13:24:27Z</time>
      </trkpt>
      <trkpt lat="45.90949" lon="4.77193">
        <ele>176</ele>
        <time>2017-08-03T13:24:28Z</time>
      </trkpt>
      <trkpt lat="45.90954" lon="4.77203">
        <ele>177</ele>
        <time>2017-08-03T13:24:30Z</time>
      </trkpt>
      <trkpt lat="45.90956" lon="4.77207">
        <ele>177</ele>
        <time>2017-08-03T13:24:31Z</time>
      </trkpt>
      <trkpt lat="45.90962" lon="4.77216">
        <ele>177</ele>
        <time>2017-08-03T13:24:33Z</time>
      </trkpt>
      <trkpt lat="45.90965" lon="4.77221">
        <ele>177</ele>
        <time>2017-08-03T13:24:34Z</time>
      </trkpt>
      <trkpt lat="45.90967" lon="4.77227">
        <ele>177</ele>
        <time>2017-08-03T13:24:35Z</time>
      </trkpt>
      <trkpt lat="45.9097" lon="4.77233">
        <ele>177</ele>
        <time>2017-08-03T13:24:36Z</time>
      </trkpt>
      <trkpt lat="45.90973" lon="4.77239">
        <ele>177</ele>
        <time>2017-08-03T13:24:37Z</time>
      </trkpt>
      <trkpt lat="45.90975" lon="4.77246">
        <ele>178</ele>
        <time>2017-08-03T13:24:38Z</time>
      </trkpt>
      <trkpt lat="45.90976" lon="4.77253">
        <ele>178</ele>
        <time>2017-08-03T13:24:39Z</time>
      </trkpt>
      <trkpt lat="45.90976" lon="4.7726">
        <ele>178</ele>
        <time>2017-08-03T13:24:40Z</time>
      </trkpt>
      <trkpt lat="45.90975" lon="4.77268">
        <ele>178</ele>
        <time>2017-08-03T13:24:41Z</time>
      </trkpt>
      <trkpt lat="45.90973" lon="4.77276">
        <ele>178</ele>
        <time>2017-08-03T13:24:42Z</time>
      </trkpt>
      <trkpt lat="45.90969" lon="4.77283">
        <ele>178</ele>
        <time>2017-08-03T13:24:43Z</time>
      </trkpt>
      <trkpt lat="45.90966" lon="4.7729">
        <ele>178</ele>
        <time>2017-08-03T13:24:44Z</time>
      </trkpt>
      <trkpt lat="45.90963" lon="4.77296">
        <ele>178</ele>
        <time>2017-08-03T13:24:45Z</time>
      </trkpt>
      <trkpt lat="45.9096" lon="4.77302">
        <ele>178</ele>
        <time>2017-08-03T13:24:46Z</time>
      </trkpt>
      <trkpt lat="45.90957" lon="4.77308">
        <ele>178</ele>
        <time>2017-08-03T13:24:47Z</time>
      </trkpt>
      <trkpt lat="45.90953" lon="4.77313">
        <ele>178</ele>
        <time>2017-08-03T13:24:48Z</time>
      </trkpt>
      <trkpt lat="45.9095" lon="4.77318">
        <ele>178</ele>
        <time>2017-08-03T13:24:49Z</time>
      </trkpt>
      <trkpt lat="45.90947" lon="4.77323">
        <ele>178</ele>
        <time>2017-08-03T13:24:50Z</time>
      </trkpt>
      <trkpt lat="45.90941" lon="4.77331">
        <ele>177</ele>
        <time>2017-08-03T13:24:52Z</time>
      </trkpt>
      <trkpt lat="45.90938" lon="4.77337">
        <ele>177</ele>
        <time>2017-08-03T13:24:53Z</time>
      </trkpt>
      <trkpt lat="45.90936" lon="4.77342">
        <ele>177</ele>
        <time>2017-08-03T13:24:54Z</time>
      </trkpt>
      <trkpt lat="45.90933" lon="4.77347">
        <ele>177</ele>
        <time>2017-08-03T13:24:55Z</time>
      </trkpt>
      <trkpt lat="45.9093" lon="4.77353">
        <ele>177</ele>
        <time>2017-08-03T13:24:56Z</time>
      </trkpt>
      <trkpt lat="45.90926" lon="4.77359">
        <ele>177</ele>
        <time>2017-08-03T13:24:57Z</time>
      </trkpt>
      <trkpt lat="45.90923" lon="4.77364">
        <ele>177</ele>
        <time>2017-08-03T13:24:58Z</time>
      </trkpt>
      <trkpt lat="45.90919" lon="4.77371">
        <ele>177</ele>
        <time>2017-08-03T13:24:59Z</time>
      </trkpt>
      <trkpt lat="45.90916" lon="4.77377">
        <ele>177</ele>
        <time>2017-08-03T13:25:00Z</time>
      </trkpt>
      <trkpt lat="45.90912" lon="4.77383">
        <ele>177</ele>
        <time>2017-08-03T13:25:01Z</time>
      </trkpt>
      <trkpt lat="45.90909" lon="4.77388">
        <ele>177</ele>
        <time>2017-08-03T13:25:02Z</time>
      </trkpt>
      <trkpt lat="45.90906" lon="4.77394">
        <ele>177</ele>
        <time>2017-08-03T13:25:03Z</time>
      </trkpt>
      <trkpt lat="45.90903" lon="4.77399">
        <ele>177</ele>
        <time>2017-08-03T13:25:04Z</time>
      </trkpt>
      <trkpt lat="45.909" lon="4.77404">
        <ele>177</ele>
        <time>2017-08-03T13:25:05Z</time>
      </trkpt>
      <trkpt lat="45.90896" lon="4.77409">
        <ele>177</ele>
        <time>2017-08-03T13:25:06Z</time>
      </trkpt>
      <trkpt lat="45.90893" lon="4.77415">
        <ele>177</ele>
        <time>2017-08-03T13:25:07Z</time>
      </trkpt>
      <trkpt lat="45.90888" lon="4.77425">
        <ele>177</ele>
        <time>2017-08-03T13:25:09Z</time>
      </trkpt>
      <trkpt lat="45.90886" lon="4.7743">
        <ele>177</ele>
        <time>2017-08-03T13:25:10Z</time>
      </trkpt>
      <trkpt lat="45.90881" lon="4.77439">
        <ele>178</ele>
        <time>2017-08-03T13:25:12Z</time>
      </trkpt>
      <trkpt lat="45.90878" lon="4.77443">
        <ele>178</ele>
        <time>2017-08-03T13:25:13Z</time>
      </trkpt>
      <trkpt lat="45.90873" lon="4.77452">
        <ele>178</ele>
        <time>2017-08-03T13:25:15Z</time>
      </trkpt>
      <trkpt lat="45.90871" lon="4.77457">
        <ele>178</ele>
        <time>2017-08-03T13:25:16Z</time>
      </trkpt>
      <trkpt lat="45.90868" lon="4.77462">
        <ele>178</ele>
        <time>2017-08-03T13:25:17Z</time>
      </trkpt>
      <trkpt lat="45.90865" lon="4.77468">
        <ele>178</ele>
        <time>2017-08-03T13:25:18Z</time>
      </trkpt>
      <trkpt lat="45.9086" lon="4.77477">
        <ele>178</ele>
        <time>2017-08-03T13:25:20Z</time>
      </trkpt>
      <trkpt lat="45.90857" lon="4.77483">
        <ele>178</ele>
        <time>2017-08-03T13:25:21Z</time>
      </trkpt>
      <trkpt lat="45.90851" lon="4.77492">
        <ele>178</ele>
        <time>2017-08-03T13:25:23Z</time>
      </trkpt>
      <trkpt lat="45.90848" lon="4.77497">
        <ele>178</ele>
        <time>2017-08-03T13:25:24Z</time>
      </trkpt>
      <trkpt lat="45.90842" lon="4.77506">
        <ele>179</ele>
        <time>2017-08-03T13:25:26Z</time>
      </trkpt>
      <trkpt lat="45.90839" lon="4.77511">
        <ele>179</ele>
        <time>2017-08-03T13:25:27Z</time>
      </trkpt>
      <trkpt lat="45.90835" lon="4.77515">
        <ele>179</ele>
        <time>2017-08-03T13:25:28Z</time>
      </trkpt>
      <trkpt lat="45.90832" lon="4.7752">
        <ele>178</ele>
        <time>2017-08-03T13:25:29Z</time>
      </trkpt>
      <trkpt lat="45.90829" lon="4.77525">
        <ele>178</ele>
        <time>2017-08-03T13:25:30Z</time>
      </trkpt>
      <trkpt lat="45.90825" lon="4.7753">
        <ele>178</ele>
        <time>2017-08-03T13:25:31Z</time>
      </trkpt>
      <trkpt lat="45.90822" lon="4.77534">
        <ele>178</ele>
        <time>2017-08-03T13:25:32Z</time>
      </trkpt>
      <trkpt lat="45.90818" lon="4.77539">
        <ele>178</ele>
        <time>2017-08-03T13:25:33Z</time>
      </trkpt>
      <trkpt lat="45.90814" lon="4.77544">
        <ele>178</ele>
        <time>2017-08-03T13:25:34Z</time>
      </trkpt>
      <trkpt lat="45.90811" lon="4.77549">
        <ele>178</ele>
        <time>2017-08-03T13:25:35Z</time>
      </trkpt>
      <trkpt lat="45.90807" lon="4.77553">
        <ele>178</ele>
        <time>2017-08-03T13:25:36Z</time>
      </trkpt>
      <trkpt lat="45.90803" lon="4.77558">
        <ele>178</ele>
        <time>2017-08-03T13:25:37Z</time>
      </trkpt>
      <trkpt lat="45.90799" lon="4.77563">
        <ele>178</ele>
        <time>2017-08-03T13:25:38Z</time>
      </trkpt>
      <trkpt lat="45.90796" lon="4.77568">
        <ele>178</ele>
        <time>2017-08-03T13:25:39Z</time>
      </trkpt>
      <trkpt lat="45.90792" lon="4.77572">
        <ele>178</ele>
        <time>2017-08-03T13:25:40Z</time>
      </trkpt>
      <trkpt lat="45.90788" lon="4.77578">
        <ele>178</ele>
        <time>2017-08-03T13:25:41Z</time>
      </trkpt>
      <trkpt lat="45.90784" lon="4.77582">
        <ele>178</ele>
        <time>2017-08-03T13:25:42Z</time>
      </trkpt>
      <trkpt lat="45.90781" lon="4.77587">
        <ele>179</ele>
        <time>2017-08-03T13:25:43Z</time>
      </trkpt>
      <trkpt lat="45.90777" lon="4.77592">
        <ele>179</ele>
        <time>2017-08-03T13:25:44Z</time>
      </trkpt>
      <trkpt lat="45.90774" lon="4.77597">
        <ele>179</ele>
        <time>2017-08-03T13:25:45Z</time>
      </trkpt>
      <trkpt lat="45.90772" lon="4.77602">
        <ele>179</ele>
        <time>2017-08-03T13:25:46Z</time>
      </trkpt>
      <trkpt lat="45.90769" lon="4.77607">
        <ele>179</ele>
        <time>2017-08-03T13:25:47Z</time>
      </trkpt>
      <trkpt lat="45.90763" lon="4.77616">
        <ele>179</ele>
        <time>2017-08-03T13:25:49Z</time>
      </trkpt>
      <trkpt lat="45.9076" lon="4.7762">
        <ele>179</ele>
        <time>2017-08-03T13:25:50Z</time>
      </trkpt>
      <trkpt lat="45.90754" lon="4.77629">
        <ele>179</ele>
        <time>2017-08-03T13:25:52Z</time>
      </trkpt>
      <trkpt lat="45.90752" lon="4.77632">
        <ele>179</ele>
        <time>2017-08-03T13:25:53Z</time>
      </trkpt>
      <trkpt lat="45.90746" lon="4.77639">
        <ele>180</ele>
        <time>2017-08-03T13:25:55Z</time>
      </trkpt>
      <trkpt lat="45.90743" lon="4.77644">
        <ele>180</ele>
        <time>2017-08-03T13:25:56Z</time>
      </trkpt>
      <trkpt lat="45.90741" lon="4.77657">
        <ele>180</ele>
        <time>2017-08-03T13:25:58Z</time>
      </trkpt>
      <trkpt lat="45.90744" lon="4.77663">
        <ele>181</ele>
        <time>2017-08-03T13:25:59Z</time>
      </trkpt>
      <trkpt lat="45.90751" lon="4.77667">
        <ele>181</ele>
        <time>2017-08-03T13:26:01Z</time>
      </trkpt>
      <trkpt lat="45.90756" lon="4.77666">
        <ele>181</ele>
        <time>2017-08-03T13:26:02Z</time>
      </trkpt>
      <trkpt lat="45.90764" lon="4.77664">
        <ele>180</ele>
        <time>2017-08-03T13:26:04Z</time>
      </trkpt>
      <trkpt lat="45.90769" lon="4.77665">
        <ele>180</ele>
        <time>2017-08-03T13:26:05Z</time>
      </trkpt>
      <trkpt lat="45.90774" lon="4.77666">
        <ele>180</ele>
        <time>2017-08-03T13:26:06Z</time>
      </trkpt>
      <trkpt lat="45.90778" lon="4.77667">
        <ele>180</ele>
        <time>2017-08-03T13:26:07Z</time>
      </trkpt>
      <trkpt lat="45.90787" lon="4.77669">
        <ele>180</ele>
        <time>2017-08-03T13:26:09Z</time>
      </trkpt>
      <trkpt lat="45.90791" lon="4.7767">
        <ele>180</ele>
        <time>2017-08-03T13:26:10Z</time>
      </trkpt>
      <trkpt lat="45.90799" lon="4.77672">
        <ele>179</ele>
        <time>2017-08-03T13:26:12Z</time>
      </trkpt>
      <trkpt lat="45.90803" lon="4.77672">
        <ele>179</ele>
        <time>2017-08-03T13:26:13Z</time>
      </trkpt>
      <trkpt lat="45.90808" lon="4.77673">
        <ele>179</ele>
        <time>2017-08-03T13:26:14Z</time>
      </trkpt>
      <trkpt lat="45.90813" lon="4.77673">
        <ele>179</ele>
        <time>2017-08-03T13:26:15Z</time>
      </trkpt>
      <trkpt lat="45.90818" lon="4.77675">
        <ele>179</ele>
        <time>2017-08-03T13:26:16Z</time>
      </trkpt>
      <trkpt lat="45.90823" lon="4.77676">
        <ele>179</ele>
        <time>2017-08-03T13:26:17Z</time>
      </trkpt>
      <trkpt lat="45.90828" lon="4.77678">
        <ele>179</ele>
        <time>2017-08-03T13:26:18Z</time>
      </trkpt>
      <trkpt lat="45.90833" lon="4.7768">
        <ele>179</ele>
        <time>2017-08-03T13:26:19Z</time>
      </trkpt>
      <trkpt lat="45.90838" lon="4.77683">
        <ele>178</ele>
        <time>2017-08-03T13:26:20Z</time>
      </trkpt>
      <trkpt lat="45.90844" lon="4.77685">
        <ele>178</ele>
        <time>2017-08-03T13:26:21Z</time>
      </trkpt>
      <trkpt lat="45.90849" lon="4.77687">
        <ele>178</ele>
        <time>2017-08-03T13:26:22Z</time>
      </trkpt>
      <trkpt lat="45.90855" lon="4.7769">
        <ele>178</ele>
        <time>2017-08-03T13:26:23Z</time>
      </trkpt>
      <trkpt lat="45.9086" lon="4.77694">
        <ele>178</ele>
        <time>2017-08-03T13:26:24Z</time>
      </trkpt>
      <trkpt lat="45.90866" lon="4.77698">
        <ele>178</ele>
        <time>2017-08-03T13:26:25Z</time>
      </trkpt>
      <trkpt lat="45.90871" lon="4.77705">
        <ele>178</ele>
        <time>2017-08-03T13:26:26Z</time>
      </trkpt>
      <trkpt lat="45.90876" lon="4.7771">
        <ele>177</ele>
        <time>2017-08-03T13:26:27Z</time>
      </trkpt>
      <trkpt lat="45.90882" lon="4.77715">
        <ele>177</ele>
        <time>2017-08-03T13:26:28Z</time>
      </trkpt>
      <trkpt lat="45.90888" lon="4.77721">
        <ele>177</ele>
        <time>2017-08-03T13:26:29Z</time>
      </trkpt>
      <trkpt lat="45.90893" lon="4.77728">
        <ele>177</ele>
        <time>2017-08-03T13:26:30Z</time>
      </trkpt>
      <trkpt lat="45.90898" lon="4.77734">
        <ele>177</ele>
        <time>2017-08-03T13:26:31Z</time>
      </trkpt>
      <trkpt lat="45.90904" lon="4.77741">
        <ele>177</ele>
        <time>2017-08-03T13:26:32Z</time>
      </trkpt>
      <trkpt lat="45.90909" lon="4.77747">
        <ele>176</ele>
        <time>2017-08-03T13:26:33Z</time>
      </trkpt>
      <trkpt lat="45.90915" lon="4.77754">
        <ele>176</ele>
        <time>2017-08-03T13:26:34Z</time>
      </trkpt>
      <trkpt lat="45.9092" lon="4.77761">
        <ele>176</ele>
        <time>2017-08-03T13:26:35Z</time>
      </trkpt>
      <trkpt lat="45.90925" lon="4.77768">
        <ele>177</ele>
        <time>2017-08-03T13:26:36Z</time>
      </trkpt>
      <trkpt lat="45.9093" lon="4.77774">
        <ele>177</ele>
        <time>2017-08-03T13:26:37Z</time>
      </trkpt>
      <trkpt lat="45.90936" lon="4.77781">
        <ele>177</ele>
        <time>2017-08-03T13:26:38Z</time>
      </trkpt>
      <trkpt lat="45.90941" lon="4.77787">
        <ele>177</ele>
        <time>2017-08-03T13:26:39Z</time>
      </trkpt>
      <trkpt lat="45.90947" lon="4.77792">
        <ele>177</ele>
        <time>2017-08-03T13:26:40Z</time>
      </trkpt>
      <trkpt lat="45.90954" lon="4.77793">
        <ele>177</ele>
        <time>2017-08-03T13:26:41Z</time>
      </trkpt>
      <trkpt lat="45.9096" lon="4.77792">
        <ele>177</ele>
        <time>2017-08-03T13:26:42Z</time>
      </trkpt>
      <trkpt lat="45.90966" lon="4.77792">
        <ele>177</ele>
        <time>2017-08-03T13:26:43Z</time>
      </trkpt>
      <trkpt lat="45.90972" lon="4.77792">
        <ele>177</ele>
        <time>2017-08-03T13:26:44Z</time>
      </trkpt>
      <trkpt lat="45.90978" lon="4.77792">
        <ele>177</ele>
        <time>2017-08-03T13:26:45Z</time>
      </trkpt>
      <trkpt lat="45.90983" lon="4.77791">
        <ele>177</ele>
        <time>2017-08-03T13:26:46Z</time>
      </trkpt>
      <trkpt lat="45.90988" lon="4.77791">
        <ele>177</ele>
        <time>2017-08-03T13:26:47Z</time>
      </trkpt>
      <trkpt lat="45.90993" lon="4.7779">
        <ele>177</ele>
        <time>2017-08-03T13:26:48Z</time>
      </trkpt>
      <trkpt lat="45.90998" lon="4.77788">
        <ele>177</ele>
        <time>2017-08-03T13:26:49Z</time>
      </trkpt>
      <trkpt lat="45.91003" lon="4.77787">
        <ele>178</ele>
        <time>2017-08-03T13:26:50Z</time>
      </trkpt>
      <trkpt lat="45.91008" lon="4.77785">
        <ele>178</ele>
        <time>2017-08-03T13:26:51Z</time>
      </trkpt>
      <trkpt lat="45.91013" lon="4.77784">
        <ele>178</ele>
        <time>2017-08-03T13:26:52Z</time>
      </trkpt>
      <trkpt lat="45.91019" lon="4.77784">
        <ele>178</ele>
        <time>2017-08-03T13:26:53Z</time>
      </trkpt>
      <trkpt lat="45.91024" lon="4.77782">
        <ele>178</ele>
        <time>2017-08-03T13:26:54Z</time>
      </trkpt>
      <trkpt lat="45.91029" lon="4.77781">
        <ele>178</ele>
        <time>2017-08-03T13:26:55Z</time>
      </trkpt>
      <trkpt lat="45.91035" lon="4.77778">
        <ele>178</ele>
        <time>2017-08-03T13:26:56Z</time>
      </trkpt>
      <trkpt lat="45.91041" lon="4.77777">
        <ele>178</ele>
        <time>2017-08-03T13:26:57Z</time>
      </trkpt>
      <trkpt lat="45.91047" lon="4.77775">
        <ele>178</ele>
        <time>2017-08-03T13:26:58Z</time>
      </trkpt>
      <trkpt lat="45.91052" lon="4.77772">
        <ele>178</ele>
        <time>2017-08-03T13:26:59Z</time>
      </trkpt>
      <trkpt lat="45.91058" lon="4.77769">
        <ele>178</ele>
        <time>2017-08-03T13:27:00Z</time>
      </trkpt>
      <trkpt lat="45.91063" lon="4.77766">
        <ele>178</ele>
        <time>2017-08-03T13:27:01Z</time>
      </trkpt>
      <trkpt lat="45.91068" lon="4.77763">
        <ele>178</ele>
        <time>2017-08-03T13:27:02Z</time>
      </trkpt>
      <trkpt lat="45.91072" lon="4.77761">
        <ele>179</ele>
        <time>2017-08-03T13:27:03Z</time>
      </trkpt>
      <trkpt lat="45.91076" lon="4.77758">
        <ele>179</ele>
        <time>2017-08-03T13:27:04Z</time>
      </trkpt>
      <trkpt lat="45.91081" lon="4.77754">
        <ele>179</ele>
        <time>2017-08-03T13:27:05Z</time>
      </trkpt>
      <trkpt lat="45.91086" lon="4.77751">
        <ele>179</ele>
        <time>2017-08-03T13:27:06Z</time>
      </trkpt>
      <trkpt lat="45.91092" lon="4.77747">
        <ele>179</ele>
        <time>2017-08-03T13:27:07Z</time>
      </trkpt>
      <trkpt lat="45.91097" lon="4.77744">
        <ele>178</ele>
        <time>2017-08-03T13:27:08Z</time>
      </trkpt>
      <trkpt lat="45.91103" lon="4.77741">
        <ele>178</ele>
        <time>2017-08-03T13:27:09Z</time>
      </trkpt>
      <trkpt lat="45.91107" lon="4.77739">
        <ele>178</ele>
        <time>2017-08-03T13:27:10Z</time>
      </trkpt>
      <trkpt lat="45.91112" lon="4.77736">
        <ele>178</ele>
        <time>2017-08-03T13:27:11Z</time>
      </trkpt>
      <trkpt lat="45.91116" lon="4.77733">
        <ele>178</ele>
        <time>2017-08-03T13:27:12Z</time>
      </trkpt>
      <trkpt lat="45.91121" lon="4.77731">
        <ele>178</ele>
        <time>2017-08-03T13:27:13Z</time>
      </trkpt>
      <trkpt lat="45.91125" lon="4.77728">
        <ele>178</ele>
        <time>2017-08-03T13:27:14Z</time>
      </trkpt>
      <trkpt lat="45.91129" lon="4.77725">
        <ele>177</ele>
        <time>2017-08-03T13:27:15Z</time>
      </trkpt>
      <trkpt lat="45.91134" lon="4.77724">
        <ele>177</ele>
        <time>2017-08-03T13:27:16Z</time>
      </trkpt>
      <trkpt lat="45.91139" lon="4.77721">
        <ele>177</ele>
        <time>2017-08-03T13:27:17Z</time>
      </trkpt>
      <trkpt lat="45.91145" lon="4.77718">
        <ele>177</ele>
        <time>2017-08-03T13:27:18Z</time>
      </trkpt>
      <trkpt lat="45.9115" lon="4.77716">
        <ele>177</ele>
        <time>2017-08-03T13:27:19Z</time>
      </trkpt>
      <trkpt lat="45.91156" lon="4.77714">
        <ele>177</ele>
        <time>2017-08-03T13:27:20Z</time>
      </trkpt>
      <trkpt lat="45.91161" lon="4.77712">
        <ele>177</ele>
        <time>2017-08-03T13:27:21Z</time>
      </trkpt>
      <trkpt lat="45.91167" lon="4.77709">
        <ele>177</ele>
        <time>2017-08-03T13:27:22Z</time>
      </trkpt>
      <trkpt lat="45.91173" lon="4.77707">
        <ele>176</ele>
        <time>2017-08-03T13:27:23Z</time>
      </trkpt>
      <trkpt lat="45.91179" lon="4.77704">
        <ele>176</ele>
        <time>2017-08-03T13:27:24Z</time>
      </trkpt>
      <trkpt lat="45.91185" lon="4.77701">
        <ele>176</ele>
        <time>2017-08-03T13:27:25Z</time>
      </trkpt>
      <trkpt lat="45.91189" lon="4.777">
        <ele>176</ele>
        <time>2017-08-03T13:27:26Z</time>
      </trkpt>
      <trkpt lat="45.91194" lon="4.77698">
        <ele>176</ele>
        <time>2017-08-03T13:27:27Z</time>
      </trkpt>
      <trkpt lat="45.91199" lon="4.77699">
        <ele>176</ele>
        <time>2017-08-03T13:27:28Z</time>
      </trkpt>
      <trkpt lat="45.91204" lon="4.77699">
        <ele>176</ele>
        <time>2017-08-03T13:27:29Z</time>
      </trkpt>
      <trkpt lat="45.91209" lon="4.77697">
        <ele>176</ele>
        <time>2017-08-03T13:27:30Z</time>
      </trkpt>
      <trkpt lat="45.91214" lon="4.77696">
        <ele>176</ele>
        <time>2017-08-03T13:27:31Z</time>
      </trkpt>
      <trkpt lat="45.91218" lon="4.77694">
        <ele>176</ele>
        <time>2017-08-03T13:27:32Z</time>
      </trkpt>
      <trkpt lat="45.91223" lon="4.77693">
        <ele>176</ele>
        <time>2017-08-03T13:27:33Z</time>
      </trkpt>
      <trkpt lat="45.91228" lon="4.77692">
        <ele>176</ele>
        <time>2017-08-03T13:27:34Z</time>
      </trkpt>
      <trkpt lat="45.91233" lon="4.77691">
        <ele>176</ele>
        <time>2017-08-03T13:27:35Z</time>
      </trkpt>
      <trkpt lat="45.91237" lon="4.77692">
        <ele>176</ele>
        <time>2017-08-03T13:27:36Z</time>
      </trkpt>
      <trkpt lat="45.91242" lon="4.77691">
        <ele>176</ele>
        <time>2017-08-03T13:27:37Z</time>
      </trkpt>
      <trkpt lat="45.91247" lon="4.7769">
        <ele>176</ele>
        <time>2017-08-03T13:27:38Z</time>
      </trkpt>
      <trkpt lat="45.91251" lon="4.7769">
        <ele>176</ele>
        <time>2017-08-03T13:27:39Z</time>
      </trkpt>
      <trkpt lat="45.9126" lon="4.77692">
        <ele>176</ele>
        <time>2017-08-03T13:27:41Z</time>
      </trkpt>
      <trkpt lat="45.91264" lon="4.77694">
        <ele>176</ele>
        <time>2017-08-03T13:27:42Z</time>
      </trkpt>
      <trkpt lat="45.91272" lon="4.77697">
        <ele>176</ele>
        <time>2017-08-03T13:27:44Z</time>
      </trkpt>
      <trkpt lat="45.91276" lon="4.777">
        <ele>176</ele>
        <time>2017-08-03T13:27:45Z</time>
      </trkpt>
      <trkpt lat="45.91281" lon="4.77702">
        <ele>176</ele>
        <time>2017-08-03T13:27:46Z</time>
      </trkpt>
      <trkpt lat="45.91285" lon="4.77705">
        <ele>176</ele>
        <time>2017-08-03T13:27:47Z</time>
      </trkpt>
      <trkpt lat="45.9129" lon="4.77707">
        <ele>176</ele>
        <time>2017-08-03T13:27:48Z</time>
      </trkpt>
      <trkpt lat="45.91295" lon="4.77709">
        <ele>176</ele>
        <time>2017-08-03T13:27:49Z</time>
      </trkpt>
      <trkpt lat="45.913" lon="4.77711">
        <ele>176</ele>
        <time>2017-08-03T13:27:50Z</time>
      </trkpt>
      <trkpt lat="45.91305" lon="4.77714">
        <ele>176</ele>
        <time>2017-08-03T13:27:51Z</time>
      </trkpt>
      <trkpt lat="45.9131" lon="4.77716">
        <ele>176</ele>
        <time>2017-08-03T13:27:52Z</time>
      </trkpt>
      <trkpt lat="45.91314" lon="4.77718">
        <ele>176</ele>
        <time>2017-08-03T13:27:53Z</time>
      </trkpt>
      <trkpt lat="45.91323" lon="4.7772">
        <ele>176</ele>
        <time>2017-08-03T13:27:55Z</time>
      </trkpt>
      <trkpt lat="45.91326" lon="4.77722">
        <ele>176</ele>
        <time>2017-08-03T13:27:56Z</time>
      </trkpt>
      <trkpt lat="45.91334" lon="4.77725">
        <ele>176</ele>
        <time>2017-08-03T13:27:58Z</time>
      </trkpt>
      <trkpt lat="45.91338" lon="4.77726">
        <ele>176</ele>
        <time>2017-08-03T13:27:59Z</time>
      </trkpt>
      <trkpt lat="45.91346" lon="4.77727">
        <ele>176</ele>
        <time>2017-08-03T13:28:01Z</time>
      </trkpt>
      <trkpt lat="45.91349" lon="4.77727">
        <ele>176</ele>
        <time>2017-08-03T13:28:02Z</time>
      </trkpt>
      <trkpt lat="45.91356" lon="4.77727">
        <ele>176</ele>
        <time>2017-08-03T13:28:04Z</time>
      </trkpt>
      <trkpt lat="45.9136" lon="4.77727">
        <ele>176</ele>
        <time>2017-08-03T13:28:05Z</time>
      </trkpt>
      <trkpt lat="45.91364" lon="4.77727">
        <ele>176</ele>
        <time>2017-08-03T13:28:06Z</time>
      </trkpt>
      <trkpt lat="45.91369" lon="4.77727">
        <ele>176</ele>
        <time>2017-08-03T13:28:07Z</time>
      </trkpt>
      <trkpt lat="45.91374" lon="4.77727">
        <ele>177</ele>
        <time>2017-08-03T13:28:08Z</time>
      </trkpt>
      <trkpt lat="45.91379" lon="4.77727">
        <ele>177</ele>
        <time>2017-08-03T13:28:09Z</time>
      </trkpt>
      <trkpt lat="45.91384" lon="4.77727">
        <ele>177</ele>
        <time>2017-08-03T13:28:10Z</time>
      </trkpt>
      <trkpt lat="45.91389" lon="4.77727">
        <ele>177</ele>
        <time>2017-08-03T13:28:11Z</time>
      </trkpt>
      <trkpt lat="45.91394" lon="4.77727">
        <ele>177</ele>
        <time>2017-08-03T13:28:12Z</time>
      </trkpt>
      <trkpt lat="45.91399" lon="4.77728">
        <ele>177</ele>
        <time>2017-08-03T13:28:13Z</time>
      </trkpt>
      <trkpt lat="45.91406" lon="4.77722">
        <ele>177</ele>
        <time>2017-08-03T13:28:15Z</time>
      </trkpt>
      <trkpt lat="45.9141" lon="4.77718">
        <ele>177</ele>
        <time>2017-08-03T13:28:16Z</time>
      </trkpt>
      <trkpt lat="45.91413" lon="4.77713">
        <ele>177</ele>
        <time>2017-08-03T13:28:17Z</time>
      </trkpt>
      <trkpt lat="45.91416" lon="4.77708">
        <ele>177</ele>
        <time>2017-08-03T13:28:18Z</time>
      </trkpt>
      <trkpt lat="45.9142" lon="4.77698">
        <ele>177</ele>
        <time>2017-08-03T13:28:20Z</time>
      </trkpt>
      <trkpt lat="45.9142" lon="4.77691">
        <ele>177</ele>
        <time>2017-08-03T13:28:21Z</time>
      </trkpt>
      <trkpt lat="45.91417" lon="4.77679">
        <ele>176</ele>
        <time>2017-08-03T13:28:23Z</time>
      </trkpt>
      <trkpt lat="45.91415" lon="4.77673">
        <ele>176</ele>
        <time>2017-08-03T13:28:24Z</time>
      </trkpt>
      <trkpt lat="45.91414" lon="4.77667">
        <ele>176</ele>
        <time>2017-08-03T13:28:25Z</time>
      </trkpt>
      <trkpt lat="45.91412" lon="4.77661">
        <ele>176</ele>
        <time>2017-08-03T13:28:26Z</time>
      </trkpt>
      <trkpt lat="45.91411" lon="4.77653">
        <ele>175</ele>
        <time>2017-08-03T13:28:27Z</time>
      </trkpt>
      <trkpt lat="45.9141" lon="4.77647">
        <ele>175</ele>
        <time>2017-08-03T13:28:28Z</time>
      </trkpt>
      <trkpt lat="45.91408" lon="4.7764">
        <ele>175</ele>
        <time>2017-08-03T13:28:29Z</time>
      </trkpt>
      <trkpt lat="45.91406" lon="4.77634">
        <ele>175</ele>
        <time>2017-08-03T13:28:30Z</time>
      </trkpt>
      <trkpt lat="45.91405" lon="4.77626">
        <ele>175</ele>
        <time>2017-08-03T13:28:31Z</time>
      </trkpt>
      <trkpt lat="45.91404" lon="4.77619">
        <ele>175</ele>
        <time>2017-08-03T13:28:32Z</time>
      </trkpt>
      <trkpt lat="45.91402" lon="4.77611">
        <ele>174</ele>
        <time>2017-08-03T13:28:33Z</time>
      </trkpt>
      <trkpt lat="45.91401" lon="4.77604">
        <ele>174</ele>
        <time>2017-08-03T13:28:34Z</time>
      </trkpt>
      <trkpt lat="45.914" lon="4.77596">
        <ele>174</ele>
        <time>2017-08-03T13:28:35Z</time>
      </trkpt>
      <trkpt lat="45.914" lon="4.77589">
        <ele>174</ele>
        <time>2017-08-03T13:28:36Z</time>
      </trkpt>
      <trkpt lat="45.91399" lon="4.77582">
        <ele>174</ele>
        <time>2017-08-03T13:28:37Z</time>
      </trkpt>
      <trkpt lat="45.91397" lon="4.77574">
        <ele>174</ele>
        <time>2017-08-03T13:28:38Z</time>
      </trkpt>
      <trkpt lat="45.91396" lon="4.77566">
        <ele>174</ele>
        <time>2017-08-03T13:28:39Z</time>
      </trkpt>
      <trkpt lat="45.91395" lon="4.77557">
        <ele>174</ele>
        <time>2017-08-03T13:28:40Z</time>
      </trkpt>
      <trkpt lat="45.91394" lon="4.77549">
        <ele>174</ele>
        <time>2017-08-03T13:28:41Z</time>
      </trkpt>
      <trkpt lat="45.91393" lon="4.7754">
        <ele>174</ele>
        <time>2017-08-03T13:28:42Z</time>
      </trkpt>
      <trkpt lat="45.91393" lon="4.77532">
        <ele>174</ele>
        <time>2017-08-03T13:28:43Z</time>
      </trkpt>
      <trkpt lat="45.91392" lon="4.77524">
        <ele>174</ele>
        <time>2017-08-03T13:28:44Z</time>
      </trkpt>
      <trkpt lat="45.91391" lon="4.77516">
        <ele>174</ele>
        <time>2017-08-03T13:28:45Z</time>
      </trkpt>
      <trkpt lat="45.91391" lon="4.77509">
        <ele>174</ele>
        <time>2017-08-03T13:28:46Z</time>
      </trkpt>
      <trkpt lat="45.9139" lon="4.77501">
        <ele>174</ele>
        <time>2017-08-03T13:28:47Z</time>
      </trkpt>
      <trkpt lat="45.91389" lon="4.77493">
        <ele>174</ele>
        <time>2017-08-03T13:28:48Z</time>
      </trkpt>
      <trkpt lat="45.91389" lon="4.77486">
        <ele>174</ele>
        <time>2017-08-03T13:28:49Z</time>
      </trkpt>
      <trkpt lat="45.91388" lon="4.77479">
        <ele>174</ele>
        <time>2017-08-03T13:28:50Z</time>
      </trkpt>
      <trkpt lat="45.91388" lon="4.77472">
        <ele>174</ele>
        <time>2017-08-03T13:28:51Z</time>
      </trkpt>
      <trkpt lat="45.91388" lon="4.77465">
        <ele>174</ele>
        <time>2017-08-03T13:28:52Z</time>
      </trkpt>
      <trkpt lat="45.91388" lon="4.77458">
        <ele>174</ele>
        <time>2017-08-03T13:28:53Z</time>
      </trkpt>
      <trkpt lat="45.91387" lon="4.7745">
        <ele>174</ele>
        <time>2017-08-03T13:28:54Z</time>
      </trkpt>
      <trkpt lat="45.91387" lon="4.77442">
        <ele>174</ele>
        <time>2017-08-03T13:28:55Z</time>
      </trkpt>
      <trkpt lat="45.91386" lon="4.77434">
        <ele>174</ele>
        <time>2017-08-03T13:28:56Z</time>
      </trkpt>
      <trkpt lat="45.91385" lon="4.77426">
        <ele>174</ele>
        <time>2017-08-03T13:28:57Z</time>
      </trkpt>
      <trkpt lat="45.91385" lon="4.77419">
        <ele>174</ele>
        <time>2017-08-03T13:28:58Z</time>
      </trkpt>
      <trkpt lat="45.91385" lon="4.77413">
        <ele>174</ele>
        <time>2017-08-03T13:28:59Z</time>
      </trkpt>
      <trkpt lat="45.91385" lon="4.77406">
        <ele>174</ele>
        <time>2017-08-03T13:29:00Z</time>
      </trkpt>
      <trkpt lat="45.91386" lon="4.774">
        <ele>174</ele>
        <time>2017-08-03T13:29:01Z</time>
      </trkpt>
      <trkpt lat="45.91386" lon="4.77393">
        <ele>174</ele>
        <time>2017-08-03T13:29:02Z</time>
      </trkpt>
      <trkpt lat="45.91386" lon="4.77385">
        <ele>174</ele>
        <time>2017-08-03T13:29:03Z</time>
      </trkpt>
      <trkpt lat="45.91386" lon="4.77377">
        <ele>174</ele>
        <time>2017-08-03T13:29:04Z</time>
      </trkpt>
      <trkpt lat="45.91386" lon="4.77368">
        <ele>174</ele>
        <time>2017-08-03T13:29:05Z</time>
      </trkpt>
      <trkpt lat="45.91387" lon="4.7736">
        <ele>174</ele>
        <time>2017-08-03T13:29:06Z</time>
      </trkpt>
      <trkpt lat="45.91387" lon="4.77352">
        <ele>174</ele>
        <time>2017-08-03T13:29:07Z</time>
      </trkpt>
      <trkpt lat="45.91386" lon="4.77345">
        <ele>174</ele>
        <time>2017-08-03T13:29:08Z</time>
      </trkpt>
      <trkpt lat="45.91386" lon="4.77337">
        <ele>174</ele>
        <time>2017-08-03T13:29:09Z</time>
      </trkpt>
      <trkpt lat="45.91386" lon="4.7733">
        <ele>175</ele>
        <time>2017-08-03T13:29:10Z</time>
      </trkpt>
      <trkpt lat="45.91386" lon="4.77323">
        <ele>175</ele>
        <time>2017-08-03T13:29:11Z</time>
      </trkpt>
      <trkpt lat="45.91386" lon="4.77317">
        <ele>175</ele>
        <time>2017-08-03T13:29:12Z</time>
      </trkpt>
      <trkpt lat="45.91386" lon="4.7731">
        <ele>175</ele>
        <time>2017-08-03T13:29:13Z</time>
      </trkpt>
      <trkpt lat="45.91386" lon="4.77304">
        <ele>175</ele>
        <time>2017-08-03T13:29:14Z</time>
      </trkpt>
      <trkpt lat="45.91386" lon="4.77297">
        <ele>175</ele>
        <time>2017-08-03T13:29:15Z</time>
      </trkpt>
      <trkpt lat="45.91384" lon="4.7729">
        <ele>175</ele>
        <time>2017-08-03T13:29:16Z</time>
      </trkpt>
      <trkpt lat="45.91384" lon="4.77283">
        <ele>175</ele>
        <time>2017-08-03T13:29:17Z</time>
      </trkpt>
      <trkpt lat="45.91383" lon="4.77276">
        <ele>175</ele>
        <time>2017-08-03T13:29:18Z</time>
      </trkpt>
      <trkpt lat="45.91382" lon="4.77269">
        <ele>175</ele>
        <time>2017-08-03T13:29:19Z</time>
      </trkpt>
      <trkpt lat="45.91382" lon="4.77261">
        <ele>175</ele>
        <time>2017-08-03T13:29:20Z</time>
      </trkpt>
      <trkpt lat="45.9138" lon="4.77255">
        <ele>175</ele>
        <time>2017-08-03T13:29:21Z</time>
      </trkpt>
      <trkpt lat="45.91379" lon="4.77248">
        <ele>176</ele>
        <time>2017-08-03T13:29:22Z</time>
      </trkpt>
      <trkpt lat="45.91377" lon="4.77236">
        <ele>176</ele>
        <time>2017-08-03T13:29:24Z</time>
      </trkpt>
      <trkpt lat="45.91377" lon="4.77229">
        <ele>176</ele>
        <time>2017-08-03T13:29:25Z</time>
      </trkpt>
      <trkpt lat="45.91376" lon="4.77223">
        <ele>176</ele>
        <time>2017-08-03T13:29:26Z</time>
      </trkpt>
      <trkpt lat="45.91375" lon="4.77216">
        <ele>176</ele>
        <time>2017-08-03T13:29:27Z</time>
      </trkpt>
      <trkpt lat="45.91373" lon="4.77209">
        <ele>176</ele>
        <time>2017-08-03T13:29:28Z</time>
      </trkpt>
      <trkpt lat="45.91372" lon="4.77202">
        <ele>176</ele>
        <time>2017-08-03T13:29:29Z</time>
      </trkpt>
      <trkpt lat="45.9137" lon="4.77194">
        <ele>176</ele>
        <time>2017-08-03T13:29:30Z</time>
      </trkpt>
      <trkpt lat="45.91369" lon="4.77187">
        <ele>176</ele>
        <time>2017-08-03T13:29:31Z</time>
      </trkpt>
      <trkpt lat="45.91368" lon="4.77179">
        <ele>176</ele>
        <time>2017-08-03T13:29:32Z</time>
      </trkpt>
      <trkpt lat="45.91367" lon="4.77171">
        <ele>176</ele>
        <time>2017-08-03T13:29:33Z</time>
      </trkpt>
      <trkpt lat="45.91365" lon="4.77165">
        <ele>177</ele>
        <time>2017-08-03T13:29:34Z</time>
      </trkpt>
      <trkpt lat="45.91363" lon="4.77158">
        <ele>177</ele>
        <time>2017-08-03T13:29:35Z</time>
      </trkpt>
      <trkpt lat="45.91363" lon="4.77151">
        <ele>177</ele>
        <time>2017-08-03T13:29:36Z</time>
      </trkpt>
      <trkpt lat="45.91362" lon="4.77144">
        <ele>177</ele>
        <time>2017-08-03T13:29:37Z</time>
      </trkpt>
      <trkpt lat="45.9136" lon="4.77133">
        <ele>177</ele>
        <time>2017-08-03T13:29:39Z</time>
      </trkpt>
      <trkpt lat="45.91358" lon="4.77127">
        <ele>177</ele>
        <time>2017-08-03T13:29:40Z</time>
      </trkpt>
      <trkpt lat="45.91357" lon="4.7712">
        <ele>177</ele>
        <time>2017-08-03T13:29:41Z</time>
      </trkpt>
      <trkpt lat="45.91356" lon="4.77114">
        <ele>177</ele>
        <time>2017-08-03T13:29:42Z</time>
      </trkpt>
      <trkpt lat="45.91353" lon="4.77102">
        <ele>177</ele>
        <time>2017-08-03T13:29:44Z</time>
      </trkpt>
      <trkpt lat="45.91351" lon="4.77097">
        <ele>177</ele>
        <time>2017-08-03T13:29:45Z</time>
      </trkpt>
      <trkpt lat="45.9135" lon="4.7709">
        <ele>177</ele>
        <time>2017-08-03T13:29:46Z</time>
      </trkpt>
      <trkpt lat="45.91348" lon="4.77083">
        <ele>177</ele>
        <time>2017-08-03T13:29:47Z</time>
      </trkpt>
      <trkpt lat="45.91347" lon="4.77076">
        <ele>177</ele>
        <time>2017-08-03T13:29:48Z</time>
      </trkpt>
      <trkpt lat="45.91346" lon="4.77068">
        <ele>176</ele>
        <time>2017-08-03T13:29:49Z</time>
      </trkpt>
      <trkpt lat="45.91345" lon="4.77061">
        <ele>176</ele>
        <time>2017-08-03T13:29:50Z</time>
      </trkpt>
      <trkpt lat="45.91343" lon="4.77053">
        <ele>176</ele>
        <time>2017-08-03T13:29:51Z</time>
      </trkpt>
      <trkpt lat="45.91341" lon="4.77046">
        <ele>176</ele>
        <time>2017-08-03T13:29:52Z</time>
      </trkpt>
      <trkpt lat="45.9134" lon="4.77039">
        <ele>176</ele>
        <time>2017-08-03T13:29:53Z</time>
      </trkpt>
      <trkpt lat="45.91338" lon="4.77031">
        <ele>176</ele>
        <time>2017-08-03T13:29:54Z</time>
      </trkpt>
      <trkpt lat="45.91336" lon="4.77024">
        <ele>176</ele>
        <time>2017-08-03T13:29:55Z</time>
      </trkpt>
      <trkpt lat="45.91335" lon="4.77017">
        <ele>176</ele>
        <time>2017-08-03T13:29:56Z</time>
      </trkpt>
      <trkpt lat="45.91333" lon="4.7701">
        <ele>176</ele>
        <time>2017-08-03T13:29:57Z</time>
      </trkpt>
      <trkpt lat="45.91331" lon="4.77003">
        <ele>176</ele>
        <time>2017-08-03T13:29:58Z</time>
      </trkpt>
      <trkpt lat="45.91328" lon="4.76997">
        <ele>176</ele>
        <time>2017-08-03T13:29:59Z</time>
      </trkpt>
      <trkpt lat="45.91326" lon="4.76989">
        <ele>176</ele>
        <time>2017-08-03T13:30:00Z</time>
      </trkpt>
      <trkpt lat="45.91325" lon="4.76982">
        <ele>175</ele>
        <time>2017-08-03T13:30:01Z</time>
      </trkpt>
      <trkpt lat="45.91323" lon="4.76974">
        <ele>175</ele>
        <time>2017-08-03T13:30:02Z</time>
      </trkpt>
      <trkpt lat="45.91322" lon="4.76967">
        <ele>175</ele>
        <time>2017-08-03T13:30:03Z</time>
      </trkpt>
      <trkpt lat="45.91322" lon="4.7696">
        <ele>175</ele>
        <time>2017-08-03T13:30:04Z</time>
      </trkpt>
      <trkpt lat="45.91322" lon="4.76952">
        <ele>175</ele>
        <time>2017-08-03T13:30:05Z</time>
      </trkpt>
      <trkpt lat="45.91322" lon="4.76945">
        <ele>175</ele>
        <time>2017-08-03T13:30:06Z</time>
      </trkpt>
      <trkpt lat="45.91322" lon="4.76938">
        <ele>175</ele>
        <time>2017-08-03T13:30:07Z</time>
      </trkpt>
      <trkpt lat="45.91322" lon="4.7693">
        <ele>175</ele>
        <time>2017-08-03T13:30:08Z</time>
      </trkpt>
      <trkpt lat="45.91322" lon="4.76922">
        <ele>175</ele>
        <time>2017-08-03T13:30:09Z</time>
      </trkpt>
      <trkpt lat="45.91322" lon="4.76914">
        <ele>175</ele>
        <time>2017-08-03T13:30:10Z</time>
      </trkpt>
      <trkpt lat="45.91322" lon="4.76906">
        <ele>175</ele>
        <time>2017-08-03T13:30:11Z</time>
      </trkpt>
      <trkpt lat="45.91323" lon="4.76897">
        <ele>175</ele>
        <time>2017-08-03T13:30:12Z</time>
      </trkpt>
      <trkpt lat="45.91323" lon="4.76889">
        <ele>175</ele>
        <time>2017-08-03T13:30:13Z</time>
      </trkpt>
      <trkpt lat="45.91324" lon="4.76882">
        <ele>175</ele>
        <time>2017-08-03T13:30:14Z</time>
      </trkpt>
      <trkpt lat="45.91322" lon="4.76875">
        <ele>175</ele>
        <time>2017-08-03T13:30:15Z</time>
      </trkpt>
      <trkpt lat="45.91321" lon="4.76862">
        <ele>175</ele>
        <time>2017-08-03T13:30:17Z</time>
      </trkpt>
      <trkpt lat="45.91321" lon="4.76856">
        <ele>175</ele>
        <time>2017-08-03T13:30:18Z</time>
      </trkpt>
      <trkpt lat="45.91322" lon="4.7685">
        <ele>175</ele>
        <time>2017-08-03T13:30:19Z</time>
      </trkpt>
      <trkpt lat="45.91322" lon="4.76843">
        <ele>174</ele>
        <time>2017-08-03T13:30:20Z</time>
      </trkpt>
      <trkpt lat="45.91323" lon="4.76836">
        <ele>174</ele>
        <time>2017-08-03T13:30:21Z</time>
      </trkpt>
      <trkpt lat="45.91323" lon="4.76829">
        <ele>175</ele>
        <time>2017-08-03T13:30:22Z</time>
      </trkpt>
      <trkpt lat="45.91323" lon="4.76821">
        <ele>175</ele>
        <time>2017-08-03T13:30:23Z</time>
      </trkpt>
      <trkpt lat="45.91323" lon="4.76813">
        <ele>175</ele>
        <time>2017-08-03T13:30:24Z</time>
      </trkpt>
      <trkpt lat="45.91324" lon="4.76805">
        <ele>175</ele>
        <time>2017-08-03T13:30:25Z</time>
      </trkpt>
      <trkpt lat="45.91324" lon="4.76797">
        <ele>175</ele>
        <time>2017-08-03T13:30:26Z</time>
      </trkpt>
      <trkpt lat="45.91325" lon="4.7679">
        <ele>175</ele>
        <time>2017-08-03T13:30:27Z</time>
      </trkpt>
      <trkpt lat="45.91325" lon="4.76783">
        <ele>175</ele>
        <time>2017-08-03T13:30:28Z</time>
      </trkpt>
      <trkpt lat="45.91326" lon="4.76776">
        <ele>176</ele>
        <time>2017-08-03T13:30:29Z</time>
      </trkpt>
      <trkpt lat="45.91327" lon="4.7677">
        <ele>176</ele>
        <time>2017-08-03T13:30:30Z</time>
      </trkpt>
      <trkpt lat="45.91327" lon="4.76763">
        <ele>176</ele>
        <time>2017-08-03T13:30:31Z</time>
      </trkpt>
      <trkpt lat="45.91327" lon="4.76757">
        <ele>176</ele>
        <time>2017-08-03T13:30:32Z</time>
      </trkpt>
      <trkpt lat="45.91328" lon="4.7675">
        <ele>176</ele>
        <time>2017-08-03T13:30:33Z</time>
      </trkpt>
      <trkpt lat="45.91328" lon="4.76743">
        <ele>176</ele>
        <time>2017-08-03T13:30:34Z</time>
      </trkpt>
      <trkpt lat="45.91328" lon="4.76735">
        <ele>176</ele>
        <time>2017-08-03T13:30:35Z</time>
      </trkpt>
      <trkpt lat="45.91328" lon="4.76729">
        <ele>176</ele>
        <time>2017-08-03T13:30:36Z</time>
      </trkpt>
      <trkpt lat="45.91328" lon="4.76716">
        <ele>176</ele>
        <time>2017-08-03T13:30:38Z</time>
      </trkpt>
      <trkpt lat="45.91329" lon="4.7671">
        <ele>176</ele>
        <time>2017-08-03T13:30:39Z</time>
      </trkpt>
      <trkpt lat="45.91332" lon="4.76698">
        <ele>176</ele>
        <time>2017-08-03T13:30:41Z</time>
      </trkpt>
      <trkpt lat="45.91334" lon="4.76692">
        <ele>176</ele>
        <time>2017-08-03T13:30:42Z</time>
      </trkpt>
      <trkpt lat="45.91336" lon="4.76686">
        <ele>176</ele>
        <time>2017-08-03T13:30:43Z</time>
      </trkpt>
      <trkpt lat="45.91339" lon="4.76681">
        <ele>176</ele>
        <time>2017-08-03T13:30:44Z</time>
      </trkpt>
      <trkpt lat="45.91344" lon="4.76671">
        <ele>176</ele>
        <time>2017-08-03T13:30:46Z</time>
      </trkpt>
      <trkpt lat="45.91347" lon="4.76667">
        <ele>176</ele>
        <time>2017-08-03T13:30:47Z</time>
      </trkpt>
      <trkpt lat="45.91352" lon="4.76658">
        <ele>176</ele>
        <time>2017-08-03T13:30:49Z</time>
      </trkpt>
      <trkpt lat="45.91355" lon="4.76653">
        <ele>176</ele>
        <time>2017-08-03T13:30:50Z</time>
      </trkpt>
      <trkpt lat="45.91358" lon="4.76648">
        <ele>176</ele>
        <time>2017-08-03T13:30:51Z</time>
      </trkpt>
      <trkpt lat="45.91361" lon="4.76643">
        <ele>176</ele>
        <time>2017-08-03T13:30:52Z</time>
      </trkpt>
      <trkpt lat="45.91364" lon="4.76638">
        <ele>176</ele>
        <time>2017-08-03T13:30:53Z</time>
      </trkpt>
      <trkpt lat="45.91367" lon="4.76633">
        <ele>176</ele>
        <time>2017-08-03T13:30:54Z</time>
      </trkpt>
      <trkpt lat="45.9137" lon="4.76627">
        <ele>176</ele>
        <time>2017-08-03T13:30:55Z</time>
      </trkpt>
      <trkpt lat="45.91373" lon="4.76621">
        <ele>176</ele>
        <time>2017-08-03T13:30:56Z</time>
      </trkpt>
      <trkpt lat="45.91377" lon="4.76616">
        <ele>176</ele>
        <time>2017-08-03T13:30:57Z</time>
      </trkpt>
      <trkpt lat="45.9138" lon="4.7661">
        <ele>176</ele>
        <time>2017-08-03T13:30:58Z</time>
      </trkpt>
      <trkpt lat="45.91383" lon="4.76604">
        <ele>176</ele>
        <time>2017-08-03T13:30:59Z</time>
      </trkpt>
      <trkpt lat="45.91385" lon="4.76599">
        <ele>176</ele>
        <time>2017-08-03T13:31:00Z</time>
      </trkpt>
      <trkpt lat="45.9139" lon="4.7659">
        <ele>176</ele>
        <time>2017-08-03T13:31:02Z</time>
      </trkpt>
      <trkpt lat="45.91393" lon="4.76586">
        <ele>177</ele>
        <time>2017-08-03T13:31:03Z</time>
      </trkpt>
      <trkpt lat="45.91397" lon="4.76577">
        <ele>177</ele>
        <time>2017-08-03T13:31:05Z</time>
      </trkpt>
      <trkpt lat="45.91399" lon="4.76573">
        <ele>177</ele>
        <time>2017-08-03T13:31:06Z</time>
      </trkpt>
      <trkpt lat="45.91404" lon="4.76564">
        <ele>177</ele>
        <time>2017-08-03T13:31:08Z</time>
      </trkpt>
      <trkpt lat="45.91407" lon="4.76559">
        <ele>177</ele>
        <time>2017-08-03T13:31:09Z</time>
      </trkpt>
      <trkpt lat="45.91411" lon="4.76554">
        <ele>177</ele>
        <time>2017-08-03T13:31:10Z</time>
      </trkpt>
      <trkpt lat="45.91414" lon="4.76548">
        <ele>177</ele>
        <time>2017-08-03T13:31:11Z</time>
      </trkpt>
      <trkpt lat="45.91417" lon="4.76543">
        <ele>177</ele>
        <time>2017-08-03T13:31:12Z</time>
      </trkpt>
      <trkpt lat="45.9142" lon="4.76538">
        <ele>177</ele>
        <time>2017-08-03T13:31:13Z</time>
      </trkpt>
      <trkpt lat="45.91425" lon="4.76528">
        <ele>177</ele>
        <time>2017-08-03T13:31:15Z</time>
      </trkpt>
      <trkpt lat="45.91428" lon="4.76524">
        <ele>177</ele>
        <time>2017-08-03T13:31:16Z</time>
      </trkpt>
      <trkpt lat="45.91433" lon="4.76515">
        <ele>177</ele>
        <time>2017-08-03T13:31:18Z</time>
      </trkpt>
      <trkpt lat="45.91436" lon="4.76511">
        <ele>177</ele>
        <time>2017-08-03T13:31:19Z</time>
      </trkpt>
      <trkpt lat="45.91441" lon="4.76501">
        <ele>177</ele>
        <time>2017-08-03T13:31:21Z</time>
      </trkpt>
      <trkpt lat="45.91444" lon="4.76497">
        <ele>177</ele>
        <time>2017-08-03T13:31:22Z</time>
      </trkpt>
      <trkpt lat="45.91449" lon="4.76486">
        <ele>177</ele>
        <time>2017-08-03T13:31:24Z</time>
      </trkpt>
      <trkpt lat="45.91452" lon="4.76482">
        <ele>177</ele>
        <time>2017-08-03T13:31:25Z</time>
      </trkpt>
      <trkpt lat="45.91457" lon="4.76473">
        <ele>177</ele>
        <time>2017-08-03T13:31:27Z</time>
      </trkpt>
      <trkpt lat="45.91459" lon="4.76469">
        <ele>177</ele>
        <time>2017-08-03T13:31:28Z</time>
      </trkpt>
      <trkpt lat="45.91464" lon="4.76461">
        <ele>177</ele>
        <time>2017-08-03T13:31:30Z</time>
      </trkpt>
      <trkpt lat="45.91466" lon="4.76457">
        <ele>177</ele>
        <time>2017-08-03T13:31:31Z</time>
      </trkpt>
      <trkpt lat="45.9147" lon="4.76447">
        <ele>177</ele>
        <time>2017-08-03T13:31:33Z</time>
      </trkpt>
      <trkpt lat="45.91473" lon="4.76442">
        <ele>176</ele>
        <time>2017-08-03T13:31:34Z</time>
      </trkpt>
      <trkpt lat="45.91476" lon="4.76436">
        <ele>176</ele>
        <time>2017-08-03T13:31:35Z</time>
      </trkpt>
      <trkpt lat="45.91479" lon="4.76431">
        <ele>176</ele>
        <time>2017-08-03T13:31:36Z</time>
      </trkpt>
      <trkpt lat="45.91482" lon="4.76425">
        <ele>176</ele>
        <time>2017-08-03T13:31:37Z</time>
      </trkpt>
      <trkpt lat="45.91486" lon="4.7642">
        <ele>176</ele>
        <time>2017-08-03T13:31:38Z</time>
      </trkpt>
      <trkpt lat="45.91489" lon="4.76414">
        <ele>176</ele>
        <time>2017-08-03T13:31:39Z</time>
      </trkpt>
      <trkpt lat="45.91492" lon="4.76408">
        <ele>176</ele>
        <time>2017-08-03T13:31:40Z</time>
      </trkpt>
      <trkpt lat="45.91497" lon="4.76398">
        <ele>176</ele>
        <time>2017-08-03T13:31:42Z</time>
      </trkpt>
      <trkpt lat="45.915" lon="4.76394">
        <ele>176</ele>
        <time>2017-08-03T13:31:43Z</time>
      </trkpt>
      <trkpt lat="45.91505" lon="4.76385">
        <ele>176</ele>
        <time>2017-08-03T13:31:45Z</time>
      </trkpt>
      <trkpt lat="45.91507" lon="4.76382">
        <ele>176</ele>
        <time>2017-08-03T13:31:46Z</time>
      </trkpt>
      <trkpt lat="45.91511" lon="4.76374">
        <ele>176</ele>
        <time>2017-08-03T13:31:48Z</time>
      </trkpt>
      <trkpt lat="45.91514" lon="4.7637">
        <ele>176</ele>
        <time>2017-08-03T13:31:49Z</time>
      </trkpt>
      <trkpt lat="45.91519" lon="4.7636">
        <ele>176</ele>
        <time>2017-08-03T13:31:51Z</time>
      </trkpt>
      <trkpt lat="45.91522" lon="4.76355">
        <ele>176</ele>
        <time>2017-08-03T13:31:52Z</time>
      </trkpt>
      <trkpt lat="45.91525" lon="4.76349">
        <ele>176</ele>
        <time>2017-08-03T13:31:53Z</time>
      </trkpt>
      <trkpt lat="45.91528" lon="4.76344">
        <ele>176</ele>
        <time>2017-08-03T13:31:54Z</time>
      </trkpt>
      <trkpt lat="45.9153" lon="4.76338">
        <ele>176</ele>
        <time>2017-08-03T13:31:55Z</time>
      </trkpt>
      <trkpt lat="45.91533" lon="4.76332">
        <ele>177</ele>
        <time>2017-08-03T13:31:56Z</time>
      </trkpt>
      <trkpt lat="45.91538" lon="4.76322">
        <ele>177</ele>
        <time>2017-08-03T13:31:58Z</time>
      </trkpt>
      <trkpt lat="45.9154" lon="4.76317">
        <ele>177</ele>
        <time>2017-08-03T13:31:59Z</time>
      </trkpt>
      <trkpt lat="45.91548" lon="4.76315">
        <ele>177</ele>
        <time>2017-08-03T13:32:03Z</time>
      </trkpt>
      <trkpt lat="45.9155" lon="4.76314">
        <ele>177</ele>
        <time>2017-08-03T13:32:04Z</time>
      </trkpt>
      <trkpt lat="45.91558" lon="4.76315">
        <ele>176</ele>
        <time>2017-08-03T13:32:08Z</time>
      </trkpt>
      <trkpt lat="45.9156" lon="4.76315">
        <ele>176</ele>
        <time>2017-08-03T13:32:09Z</time>
      </trkpt>
      <trkpt lat="45.91567" lon="4.76317">
        <ele>176</ele>
        <time>2017-08-03T13:32:12Z</time>
      </trkpt>
      <trkpt lat="45.91569" lon="4.76317">
        <ele>176</ele>
        <time>2017-08-03T13:32:13Z</time>
      </trkpt>
      <trkpt lat="45.91576" lon="4.76317">
        <ele>176</ele>
        <time>2017-08-03T13:32:17Z</time>
      </trkpt>
      <trkpt lat="45.91578" lon="4.76318">
        <ele>176</ele>
        <time>2017-08-03T13:32:18Z</time>
      </trkpt>
      <trkpt lat="45.91586" lon="4.76319">
        <ele>176</ele>
        <time>2017-08-03T13:32:22Z</time>
      </trkpt>
      <trkpt lat="45.91588" lon="4.76319">
        <ele>176</ele>
        <time>2017-08-03T13:32:23Z</time>
      </trkpt>
      <trkpt lat="45.91596" lon="4.76321">
        <ele>176</ele>
        <time>2017-08-03T13:32:28Z</time>
      </trkpt>
      <trkpt lat="45.91598" lon="4.76322">
        <ele>176</ele>
        <time>2017-08-03T13:32:29Z</time>
      </trkpt>
      <trkpt lat="45.91606" lon="4.76324">
        <ele>176</ele>
        <time>2017-08-03T13:32:34Z</time>
      </trkpt>
      <trkpt lat="45.91607" lon="4.76324">
        <ele>176</ele>
        <time>2017-08-03T13:32:35Z</time>
      </trkpt>
      <trkpt lat="45.91614" lon="4.76329">
        <ele>177</ele>
        <time>2017-08-03T13:32:39Z</time>
      </trkpt>
      <trkpt lat="45.91616" lon="4.76331">
        <ele>177</ele>
        <time>2017-08-03T13:32:40Z</time>
      </trkpt>
      <trkpt lat="45.91623" lon="4.76333">
        <ele>177</ele>
        <time>2017-08-03T13:32:44Z</time>
      </trkpt>
      <trkpt lat="45.91625" lon="4.76334">
        <ele>176</ele>
        <time>2017-08-03T13:32:45Z</time>
      </trkpt>
      <trkpt lat="45.91633" lon="4.76337">
        <ele>176</ele>
        <time>2017-08-03T13:32:50Z</time>
      </trkpt>
      <trkpt lat="45.91635" lon="4.76337">
        <ele>176</ele>
        <time>2017-08-03T13:32:51Z</time>
      </trkpt>
      <trkpt lat="45.91643" lon="4.76339">
        <ele>177</ele>
        <time>2017-08-03T13:32:56Z</time>
      </trkpt>
      <trkpt lat="45.91644" lon="4.76339">
        <ele>177</ele>
        <time>2017-08-03T13:32:57Z</time>
      </trkpt>
      <trkpt lat="45.91646" lon="4.7634">
        <ele>177</ele>
        <time>2017-08-03T13:32:58Z</time>
      </trkpt>
      <trkpt lat="45.91647" lon="4.7634">
        <ele>177</ele>
        <time>2017-08-03T13:32:59Z</time>
      </trkpt>
      <trkpt lat="45.91652" lon="4.76341">
        <ele>177</ele>
        <time>2017-08-03T13:33:12Z</time>
      </trkpt>
      <trkpt lat="45.91653" lon="4.7634">
        <ele>177</ele>
        <time>2017-08-03T13:33:13Z</time>
      </trkpt>
      <trkpt lat="45.91659" lon="4.76345">
        <ele>177</ele>
        <time>2017-08-03T13:33:53Z</time>
      </trkpt>
      <trkpt lat="45.91661" lon="4.76345">
        <ele>177</ele>
        <time>2017-08-03T13:33:54Z</time>
      </trkpt>
      <trkpt lat="45.9167" lon="4.76348">
        <ele>177</ele>
        <time>2017-08-03T13:33:59Z</time>
      </trkpt>
      <trkpt lat="45.91671" lon="4.76349">
        <ele>177</ele>
        <time>2017-08-03T13:34:00Z</time>
      </trkpt>
      <trkpt lat="45.91679" lon="4.76351">
        <ele>177</ele>
        <time>2017-08-03T13:34:04Z</time>
      </trkpt>
      <trkpt lat="45.9168" lon="4.7635">
        <ele>177</ele>
        <time>2017-08-03T13:34:05Z</time>
      </trkpt>
      <trkpt lat="45.91688" lon="4.7635">
        <ele>177</ele>
        <time>2017-08-03T13:34:09Z</time>
      </trkpt>
      <trkpt lat="45.91691" lon="4.76349">
        <ele>177</ele>
        <time>2017-08-03T13:34:10Z</time>
      </trkpt>
      <trkpt lat="45.91699" lon="4.76346">
        <ele>177</ele>
        <time>2017-08-03T13:34:15Z</time>
      </trkpt>
      <trkpt lat="45.917" lon="4.76346">
        <ele>177</ele>
        <time>2017-08-03T13:34:16Z</time>
      </trkpt>
      <trkpt lat="45.91707" lon="4.76343">
        <ele>177</ele>
        <time>2017-08-03T13:34:20Z</time>
      </trkpt>
      <trkpt lat="45.91709" lon="4.76343">
        <ele>176</ele>
        <time>2017-08-03T13:34:21Z</time>
      </trkpt>
      <trkpt lat="45.91717" lon="4.7634">
        <ele>176</ele>
        <time>2017-08-03T13:34:26Z</time>
      </trkpt>
      <trkpt lat="45.91719" lon="4.76339">
        <ele>176</ele>
        <time>2017-08-03T13:34:27Z</time>
      </trkpt>
      <trkpt lat="45.91725" lon="4.76336">
        <ele>176</ele>
        <time>2017-08-03T13:34:30Z</time>
      </trkpt>
      <trkpt lat="45.91728" lon="4.76334">
        <ele>176</ele>
        <time>2017-08-03T13:34:31Z</time>
      </trkpt>
      <trkpt lat="45.91735" lon="4.76331">
        <ele>177</ele>
        <time>2017-08-03T13:34:34Z</time>
      </trkpt>
      <trkpt lat="45.91736" lon="4.7633">
        <ele>177</ele>
        <time>2017-08-03T13:34:35Z</time>
      </trkpt>
      <trkpt lat="45.91744" lon="4.76326">
        <ele>176</ele>
        <time>2017-08-03T13:34:39Z</time>
      </trkpt>
      <trkpt lat="45.91746" lon="4.76325">
        <ele>176</ele>
        <time>2017-08-03T13:34:40Z</time>
      </trkpt>
      <trkpt lat="45.91754" lon="4.76322">
        <ele>176</ele>
        <time>2017-08-03T13:34:44Z</time>
      </trkpt>
      <trkpt lat="45.91756" lon="4.76322">
        <ele>176</ele>
        <time>2017-08-03T13:34:45Z</time>
      </trkpt>
      <trkpt lat="45.91763" lon="4.76323">
        <ele>175</ele>
        <time>2017-08-03T13:34:49Z</time>
      </trkpt>
      <trkpt lat="45.91765" lon="4.76324">
        <ele>175</ele>
        <time>2017-08-03T13:34:50Z</time>
      </trkpt>
      <trkpt lat="45.91772" lon="4.76326">
        <ele>175</ele>
        <time>2017-08-03T13:34:54Z</time>
      </trkpt>
      <trkpt lat="45.91774" lon="4.76325">
        <ele>175</ele>
        <time>2017-08-03T13:34:55Z</time>
      </trkpt>
      <trkpt lat="45.91782" lon="4.76326">
        <ele>175</ele>
        <time>2017-08-03T13:34:58Z</time>
      </trkpt>
      <trkpt lat="45.91783" lon="4.76327">
        <ele>175</ele>
        <time>2017-08-03T13:34:59Z</time>
      </trkpt>
      <trkpt lat="45.9179" lon="4.7633">
        <ele>175</ele>
        <time>2017-08-03T13:35:03Z</time>
      </trkpt>
      <trkpt lat="45.91792" lon="4.76331">
        <ele>175</ele>
        <time>2017-08-03T13:35:04Z</time>
      </trkpt>
      <trkpt lat="45.91801" lon="4.76332">
        <ele>174</ele>
        <time>2017-08-03T13:35:09Z</time>
      </trkpt>
      <trkpt lat="45.91803" lon="4.76332">
        <ele>174</ele>
        <time>2017-08-03T13:35:10Z</time>
      </trkpt>
      <trkpt lat="45.91811" lon="4.76333">
        <ele>174</ele>
        <time>2017-08-03T13:35:14Z</time>
      </trkpt>
      <trkpt lat="45.91813" lon="4.76331">
        <ele>174</ele>
        <time>2017-08-03T13:35:15Z</time>
      </trkpt>
      <trkpt lat="45.91817" lon="4.76321">
        <ele>174</ele>
        <time>2017-08-03T13:35:18Z</time>
      </trkpt>
      <trkpt lat="45.91818" lon="4.76318">
        <ele>174</ele>
        <time>2017-08-03T13:35:19Z</time>
      </trkpt>
      <trkpt lat="45.9182" lon="4.76307">
        <ele>174</ele>
        <time>2017-08-03T13:35:23Z</time>
      </trkpt>
      <trkpt lat="45.91821" lon="4.76304">
        <ele>174</ele>
        <time>2017-08-03T13:35:24Z</time>
      </trkpt>
      <trkpt lat="45.91825" lon="4.76293">
        <ele>174</ele>
        <time>2017-08-03T13:35:27Z</time>
      </trkpt>
      <trkpt lat="45.91828" lon="4.7629">
        <ele>174</ele>
        <time>2017-08-03T13:35:28Z</time>
      </trkpt>
      <trkpt lat="45.91832" lon="4.76279">
        <ele>174</ele>
        <time>2017-08-03T13:35:30Z</time>
      </trkpt>
      <trkpt lat="45.91834" lon="4.76274">
        <ele>172</ele>
        <time>2017-08-03T13:35:31Z</time>
      </trkpt>
      <trkpt lat="45.91836" lon="4.76264">
        <ele>173</ele>
        <time>2017-08-03T13:35:33Z</time>
      </trkpt>
      <trkpt lat="45.91838" lon="4.7626">
        <ele>173</ele>
        <time>2017-08-03T13:35:34Z</time>
      </trkpt>
      <trkpt lat="45.91841" lon="4.7625">
        <ele>173</ele>
        <time>2017-08-03T13:35:36Z</time>
      </trkpt>
      <trkpt lat="45.91843" lon="4.76245">
        <ele>173</ele>
        <time>2017-08-03T13:35:37Z</time>
      </trkpt>
      <trkpt lat="45.91846" lon="4.76234">
        <ele>172</ele>
        <time>2017-08-03T13:35:39Z</time>
      </trkpt>
      <trkpt lat="45.91847" lon="4.76229">
        <ele>172</ele>
        <time>2017-08-03T13:35:40Z</time>
      </trkpt>
      <trkpt lat="45.9185" lon="4.76218">
        <ele>172</ele>
        <time>2017-08-03T13:35:42Z</time>
      </trkpt>
      <trkpt lat="45.91851" lon="4.76213">
        <ele>172</ele>
        <time>2017-08-03T13:35:43Z</time>
      </trkpt>
      <trkpt lat="45.91854" lon="4.76204">
        <ele>172</ele>
        <time>2017-08-03T13:35:45Z</time>
      </trkpt>
      <trkpt lat="45.91855" lon="4.762">
        <ele>172</ele>
        <time>2017-08-03T13:35:46Z</time>
      </trkpt>
      <trkpt lat="45.91857" lon="4.76192">
        <ele>172</ele>
        <time>2017-08-03T13:35:48Z</time>
      </trkpt>
      <trkpt lat="45.91858" lon="4.76187">
        <ele>172</ele>
        <time>2017-08-03T13:35:49Z</time>
      </trkpt>
      <trkpt lat="45.91861" lon="4.76178">
        <ele>172</ele>
        <time>2017-08-03T13:35:51Z</time>
      </trkpt>
      <trkpt lat="45.91864" lon="4.76175">
        <ele>172</ele>
        <time>2017-08-03T13:35:52Z</time>
      </trkpt>
      <trkpt lat="45.91871" lon="4.76173">
        <ele>172</ele>
        <time>2017-08-03T13:35:54Z</time>
      </trkpt>
      <trkpt lat="45.91875" lon="4.76174">
        <ele>172</ele>
        <time>2017-08-03T13:35:55Z</time>
      </trkpt>
      <trkpt lat="45.91883" lon="4.76178">
        <ele>172</ele>
        <time>2017-08-03T13:35:57Z</time>
      </trkpt>
      <trkpt lat="45.91886" lon="4.7618">
        <ele>172</ele>
        <time>2017-08-03T13:35:58Z</time>
      </trkpt>
      <trkpt lat="45.91894" lon="4.76185">
        <ele>172</ele>
        <time>2017-08-03T13:36:00Z</time>
      </trkpt>
      <trkpt lat="45.91898" lon="4.76186">
        <ele>172</ele>
        <time>2017-08-03T13:36:01Z</time>
      </trkpt>
      <trkpt lat="45.91906" lon="4.7619">
        <ele>172</ele>
        <time>2017-08-03T13:36:03Z</time>
      </trkpt>
      <trkpt lat="45.9191" lon="4.76193">
        <ele>172</ele>
        <time>2017-08-03T13:36:04Z</time>
      </trkpt>
      <trkpt lat="45.91918" lon="4.76197">
        <ele>171</ele>
        <time>2017-08-03T13:36:06Z</time>
      </trkpt>
      <trkpt lat="45.91922" lon="4.76199">
        <ele>171</ele>
        <time>2017-08-03T13:36:07Z</time>
      </trkpt>
      <trkpt lat="45.9193" lon="4.76204">
        <ele>171</ele>
        <time>2017-08-03T13:36:09Z</time>
      </trkpt>
      <trkpt lat="45.91934" lon="4.76207">
        <ele>171</ele>
        <time>2017-08-03T13:36:10Z</time>
      </trkpt>
      <trkpt lat="45.91939" lon="4.7621">
        <ele>171</ele>
        <time>2017-08-03T13:36:11Z</time>
      </trkpt>
      <trkpt lat="45.91943" lon="4.76213">
        <ele>171</ele>
        <time>2017-08-03T13:36:12Z</time>
      </trkpt>
      <trkpt lat="45.91948" lon="4.76216">
        <ele>171</ele>
        <time>2017-08-03T13:36:13Z</time>
      </trkpt>
      <trkpt lat="45.91953" lon="4.76218">
        <ele>171</ele>
        <time>2017-08-03T13:36:14Z</time>
      </trkpt>
      <trkpt lat="45.91958" lon="4.7622">
        <ele>171</ele>
        <time>2017-08-03T13:36:15Z</time>
      </trkpt>
      <trkpt lat="45.91963" lon="4.76223">
        <ele>171</ele>
        <time>2017-08-03T13:36:16Z</time>
      </trkpt>
      <trkpt lat="45.91968" lon="4.76225">
        <ele>171</ele>
        <time>2017-08-03T13:36:17Z</time>
      </trkpt>
      <trkpt lat="45.91973" lon="4.76228">
        <ele>171</ele>
        <time>2017-08-03T13:36:18Z</time>
      </trkpt>
      <trkpt lat="45.91977" lon="4.7623">
        <ele>171</ele>
        <time>2017-08-03T13:36:19Z</time>
      </trkpt>
      <trkpt lat="45.91981" lon="4.76232">
        <ele>171</ele>
        <time>2017-08-03T13:36:20Z</time>
      </trkpt>
      <trkpt lat="45.91989" lon="4.76236">
        <ele>170</ele>
        <time>2017-08-03T13:36:22Z</time>
      </trkpt>
      <trkpt lat="45.91993" lon="4.76238">
        <ele>170</ele>
        <time>2017-08-03T13:36:23Z</time>
      </trkpt>
      <trkpt lat="45.92001" lon="4.76243">
        <ele>170</ele>
        <time>2017-08-03T13:36:25Z</time>
      </trkpt>
      <trkpt lat="45.92005" lon="4.76245">
        <ele>170</ele>
        <time>2017-08-03T13:36:26Z</time>
      </trkpt>
      <trkpt lat="45.92009" lon="4.76247">
        <ele>170</ele>
        <time>2017-08-03T13:36:27Z</time>
      </trkpt>
      <trkpt lat="45.92013" lon="4.76249">
        <ele>170</ele>
        <time>2017-08-03T13:36:28Z</time>
      </trkpt>
      <trkpt lat="45.92021" lon="4.76254">
        <ele>169</ele>
        <time>2017-08-03T13:36:30Z</time>
      </trkpt>
      <trkpt lat="45.92025" lon="4.76256">
        <ele>169</ele>
        <time>2017-08-03T13:36:31Z</time>
      </trkpt>
      <trkpt lat="45.92031" lon="4.7626">
        <ele>169</ele>
        <time>2017-08-03T13:36:33Z</time>
      </trkpt>
      <trkpt lat="45.92035" lon="4.76262">
        <ele>169</ele>
        <time>2017-08-03T13:36:34Z</time>
      </trkpt>
      <trkpt lat="45.92042" lon="4.76266">
        <ele>169</ele>
        <time>2017-08-03T13:36:36Z</time>
      </trkpt>
      <trkpt lat="45.92045" lon="4.76269">
        <ele>169</ele>
        <time>2017-08-03T13:36:37Z</time>
      </trkpt>
      <trkpt lat="45.9205" lon="4.76271">
        <ele>169</ele>
        <time>2017-08-03T13:36:38Z</time>
      </trkpt>
      <trkpt lat="45.92054" lon="4.76273">
        <ele>169</ele>
        <time>2017-08-03T13:36:39Z</time>
      </trkpt>
      <trkpt lat="45.92062" lon="4.76277">
        <ele>169</ele>
        <time>2017-08-03T13:36:41Z</time>
      </trkpt>
      <trkpt lat="45.92065" lon="4.76279">
        <ele>169</ele>
        <time>2017-08-03T13:36:42Z</time>
      </trkpt>
      <trkpt lat="45.92072" lon="4.76283">
        <ele>169</ele>
        <time>2017-08-03T13:36:44Z</time>
      </trkpt>
      <trkpt lat="45.92076" lon="4.76284">
        <ele>169</ele>
        <time>2017-08-03T13:36:45Z</time>
      </trkpt>
      <trkpt lat="45.92083" lon="4.76289">
        <ele>169</ele>
        <time>2017-08-03T13:36:47Z</time>
      </trkpt>
      <trkpt lat="45.92087" lon="4.76291">
        <ele>169</ele>
        <time>2017-08-03T13:36:48Z</time>
      </trkpt>
      <trkpt lat="45.92092" lon="4.76293">
        <ele>169</ele>
        <time>2017-08-03T13:36:49Z</time>
      </trkpt>
      <trkpt lat="45.92096" lon="4.76296">
        <ele>169</ele>
        <time>2017-08-03T13:36:50Z</time>
      </trkpt>
      <trkpt lat="45.921" lon="4.76299">
        <ele>169</ele>
        <time>2017-08-03T13:36:51Z</time>
      </trkpt>
      <trkpt lat="45.92104" lon="4.76301">
        <ele>169</ele>
        <time>2017-08-03T13:36:52Z</time>
      </trkpt>
      <trkpt lat="45.92111" lon="4.76306">
        <ele>169</ele>
        <time>2017-08-03T13:36:54Z</time>
      </trkpt>
      <trkpt lat="45.92115" lon="4.76308">
        <ele>169</ele>
        <time>2017-08-03T13:36:55Z</time>
      </trkpt>
      <trkpt lat="45.92123" lon="4.76312">
        <ele>169</ele>
        <time>2017-08-03T13:36:57Z</time>
      </trkpt>
      <trkpt lat="45.92126" lon="4.76314">
        <ele>169</ele>
        <time>2017-08-03T13:36:58Z</time>
      </trkpt>
      <trkpt lat="45.92134" lon="4.76319">
        <ele>169</ele>
        <time>2017-08-03T13:37:00Z</time>
      </trkpt>
      <trkpt lat="45.92138" lon="4.76321">
        <ele>169</ele>
        <time>2017-08-03T13:37:01Z</time>
      </trkpt>
      <trkpt lat="45.92142" lon="4.76322">
        <ele>169</ele>
        <time>2017-08-03T13:37:02Z</time>
      </trkpt>
      <trkpt lat="45.92147" lon="4.76325">
        <ele>169</ele>
        <time>2017-08-03T13:37:03Z</time>
      </trkpt>
      <trkpt lat="45.92151" lon="4.76328">
        <ele>169</ele>
        <time>2017-08-03T13:37:04Z</time>
      </trkpt>
      <trkpt lat="45.92156" lon="4.76331">
        <ele>169</ele>
        <time>2017-08-03T13:37:05Z</time>
      </trkpt>
      <trkpt lat="45.92164" lon="4.76336">
        <ele>169</ele>
        <time>2017-08-03T13:37:07Z</time>
      </trkpt>
      <trkpt lat="45.92167" lon="4.76338">
        <ele>169</ele>
        <time>2017-08-03T13:37:08Z</time>
      </trkpt>
      <trkpt lat="45.92174" lon="4.76343">
        <ele>169</ele>
        <time>2017-08-03T13:37:10Z</time>
      </trkpt>
      <trkpt lat="45.92178" lon="4.76346">
        <ele>169</ele>
        <time>2017-08-03T13:37:11Z</time>
      </trkpt>
      <trkpt lat="45.92182" lon="4.76349">
        <ele>168</ele>
        <time>2017-08-03T13:37:12Z</time>
      </trkpt>
      <trkpt lat="45.92187" lon="4.76351">
        <ele>168</ele>
        <time>2017-08-03T13:37:13Z</time>
      </trkpt>
      <trkpt lat="45.92195" lon="4.76356">
        <ele>168</ele>
        <time>2017-08-03T13:37:15Z</time>
      </trkpt>
      <trkpt lat="45.92198" lon="4.76359">
        <ele>168</ele>
        <time>2017-08-03T13:37:16Z</time>
      </trkpt>
      <trkpt lat="45.92205" lon="4.76363">
        <ele>168</ele>
        <time>2017-08-03T13:37:18Z</time>
      </trkpt>
      <trkpt lat="45.92209" lon="4.76365">
        <ele>168</ele>
        <time>2017-08-03T13:37:19Z</time>
      </trkpt>
      <trkpt lat="45.92213" lon="4.76368">
        <ele>168</ele>
        <time>2017-08-03T13:37:20Z</time>
      </trkpt>
      <trkpt lat="45.92217" lon="4.76371">
        <ele>168</ele>
        <time>2017-08-03T13:37:21Z</time>
      </trkpt>
      <trkpt lat="45.92222" lon="4.76373">
        <ele>168</ele>
        <time>2017-08-03T13:37:22Z</time>
      </trkpt>
      <trkpt lat="45.92226" lon="4.76377">
        <ele>168</ele>
        <time>2017-08-03T13:37:23Z</time>
      </trkpt>
      <trkpt lat="45.9223" lon="4.7638">
        <ele>168</ele>
        <time>2017-08-03T13:37:24Z</time>
      </trkpt>
      <trkpt lat="45.92235" lon="4.76382">
        <ele>168</ele>
        <time>2017-08-03T13:37:25Z</time>
      </trkpt>
      <trkpt lat="45.92244" lon="4.76384">
        <ele>168</ele>
        <time>2017-08-03T13:37:27Z</time>
      </trkpt>
      <trkpt lat="45.92248" lon="4.76385">
        <ele>168</ele>
        <time>2017-08-03T13:37:28Z</time>
      </trkpt>
      <trkpt lat="45.92256" lon="4.76384">
        <ele>167</ele>
        <time>2017-08-03T13:37:30Z</time>
      </trkpt>
      <trkpt lat="45.9226" lon="4.76383">
        <ele>167</ele>
        <time>2017-08-03T13:37:31Z</time>
      </trkpt>
      <trkpt lat="45.92269" lon="4.76379">
        <ele>167</ele>
        <time>2017-08-03T13:37:33Z</time>
      </trkpt>
      <trkpt lat="45.92273" lon="4.76378">
        <ele>167</ele>
        <time>2017-08-03T13:37:34Z</time>
      </trkpt>
      <trkpt lat="45.92282" lon="4.76375">
        <ele>167</ele>
        <time>2017-08-03T13:37:36Z</time>
      </trkpt>
      <trkpt lat="45.92285" lon="4.76374">
        <ele>167</ele>
        <time>2017-08-03T13:37:37Z</time>
      </trkpt>
      <trkpt lat="45.92292" lon="4.76371">
        <ele>167</ele>
        <time>2017-08-03T13:37:39Z</time>
      </trkpt>
      <trkpt lat="45.92296" lon="4.7637">
        <ele>167</ele>
        <time>2017-08-03T13:37:40Z</time>
      </trkpt>
      <trkpt lat="45.92303" lon="4.76368">
        <ele>167</ele>
        <time>2017-08-03T13:37:42Z</time>
      </trkpt>
      <trkpt lat="45.92308" lon="4.76367">
        <ele>167</ele>
        <time>2017-08-03T13:37:43Z</time>
      </trkpt>
      <trkpt lat="45.92312" lon="4.76365">
        <ele>167</ele>
        <time>2017-08-03T13:37:44Z</time>
      </trkpt>
      <trkpt lat="45.92316" lon="4.76364">
        <ele>167</ele>
        <time>2017-08-03T13:37:45Z</time>
      </trkpt>
      <trkpt lat="45.92325" lon="4.7636">
        <ele>167</ele>
        <time>2017-08-03T13:37:47Z</time>
      </trkpt>
      <trkpt lat="45.92329" lon="4.76358">
        <ele>167</ele>
        <time>2017-08-03T13:37:48Z</time>
      </trkpt>
      <trkpt lat="45.92336" lon="4.76356">
        <ele>168</ele>
        <time>2017-08-03T13:37:50Z</time>
      </trkpt>
      <trkpt lat="45.92339" lon="4.76354">
        <ele>168</ele>
        <time>2017-08-03T13:37:51Z</time>
      </trkpt>
      <trkpt lat="45.92347" lon="4.76349">
        <ele>168</ele>
        <time>2017-08-03T13:37:53Z</time>
      </trkpt>
      <trkpt lat="45.9235" lon="4.76347">
        <ele>168</ele>
        <time>2017-08-03T13:37:54Z</time>
      </trkpt>
      <trkpt lat="45.92357" lon="4.76344">
        <ele>168</ele>
        <time>2017-08-03T13:37:56Z</time>
      </trkpt>
      <trkpt lat="45.9236" lon="4.76344">
        <ele>168</ele>
        <time>2017-08-03T13:37:57Z</time>
      </trkpt>
      <trkpt lat="45.92368" lon="4.76346">
        <ele>168</ele>
        <time>2017-08-03T13:38:00Z</time>
      </trkpt>
      <trkpt lat="45.92371" lon="4.76347">
        <ele>168</ele>
        <time>2017-08-03T13:38:01Z</time>
      </trkpt>
      <trkpt lat="45.92377" lon="4.7635">
        <ele>168</ele>
        <time>2017-08-03T13:38:03Z</time>
      </trkpt>
      <trkpt lat="45.9238" lon="4.76351">
        <ele>168</ele>
        <time>2017-08-03T13:38:04Z</time>
      </trkpt>
      <trkpt lat="45.92386" lon="4.76355">
        <ele>169</ele>
        <time>2017-08-03T13:38:06Z</time>
      </trkpt>
      <trkpt lat="45.92388" lon="4.76358">
        <ele>169</ele>
        <time>2017-08-03T13:38:07Z</time>
      </trkpt>
      <trkpt lat="45.92395" lon="4.76364">
        <ele>169</ele>
        <time>2017-08-03T13:38:10Z</time>
      </trkpt>
      <trkpt lat="45.92396" lon="4.76365">
        <ele>169</ele>
        <time>2017-08-03T13:38:11Z</time>
      </trkpt>
      <trkpt lat="45.92404" lon="4.76367">
        <ele>169</ele>
        <time>2017-08-03T13:38:14Z</time>
      </trkpt>
      <trkpt lat="45.92407" lon="4.76373">
        <ele>169</ele>
        <time>2017-08-03T13:38:15Z</time>
      </trkpt>
      <trkpt lat="45.92415" lon="4.76376">
        <ele>169</ele>
        <time>2017-08-03T13:38:18Z</time>
      </trkpt>
      <trkpt lat="45.92417" lon="4.76373">
        <ele>170</ele>
        <time>2017-08-03T13:38:19Z</time>
      </trkpt>
      <trkpt lat="45.92422" lon="4.76366">
        <ele>170</ele>
        <time>2017-08-03T13:38:21Z</time>
      </trkpt>
      <trkpt lat="45.92424" lon="4.7636">
        <ele>170</ele>
        <time>2017-08-03T13:38:22Z</time>
      </trkpt>
      <trkpt lat="45.92428" lon="4.76351">
        <ele>170</ele>
        <time>2017-08-03T13:38:24Z</time>
      </trkpt>
      <trkpt lat="45.9243" lon="4.76346">
        <ele>170</ele>
        <time>2017-08-03T13:38:25Z</time>
      </trkpt>
      <trkpt lat="45.92434" lon="4.76337">
        <ele>170</ele>
        <time>2017-08-03T13:38:27Z</time>
      </trkpt>
      <trkpt lat="45.92437" lon="4.76333">
        <ele>170</ele>
        <time>2017-08-03T13:38:28Z</time>
      </trkpt>
      <trkpt lat="45.92441" lon="4.76323">
        <ele>170</ele>
        <time>2017-08-03T13:38:30Z</time>
      </trkpt>
      <trkpt lat="45.92444" lon="4.76318">
        <ele>170</ele>
        <time>2017-08-03T13:38:31Z</time>
      </trkpt>
      <trkpt lat="45.92448" lon="4.76307">
        <ele>169</ele>
        <time>2017-08-03T13:38:33Z</time>
      </trkpt>
      <trkpt lat="45.9245" lon="4.76303">
        <ele>169</ele>
        <time>2017-08-03T13:38:34Z</time>
      </trkpt>
      <trkpt lat="45.92454" lon="4.76293">
        <ele>169</ele>
        <time>2017-08-03T13:38:36Z</time>
      </trkpt>
      <trkpt lat="45.92455" lon="4.7629">
        <ele>169</ele>
        <time>2017-08-03T13:38:37Z</time>
      </trkpt>
      <trkpt lat="45.9246" lon="4.76283">
        <ele>169</ele>
        <time>2017-08-03T13:38:39Z</time>
      </trkpt>
      <trkpt lat="45.92463" lon="4.76279">
        <ele>169</ele>
        <time>2017-08-03T13:38:40Z</time>
      </trkpt>
      <trkpt lat="45.92467" lon="4.76275">
        <ele>169</ele>
        <time>2017-08-03T13:38:41Z</time>
      </trkpt>
      <trkpt lat="45.92471" lon="4.76272">
        <ele>169</ele>
        <time>2017-08-03T13:38:42Z</time>
      </trkpt>
      <trkpt lat="45.9248" lon="4.76268">
        <ele>169</ele>
        <time>2017-08-03T13:38:44Z</time>
      </trkpt>
      <trkpt lat="45.92483" lon="4.76266">
        <ele>169</ele>
        <time>2017-08-03T13:38:45Z</time>
      </trkpt>
      <trkpt lat="45.9249" lon="4.76262">
        <ele>169</ele>
        <time>2017-08-03T13:38:47Z</time>
      </trkpt>
      <trkpt lat="45.92493" lon="4.76261">
        <ele>169</ele>
        <time>2017-08-03T13:38:48Z</time>
      </trkpt>
      <trkpt lat="45.92501" lon="4.76258">
        <ele>168</ele>
        <time>2017-08-03T13:38:50Z</time>
      </trkpt>
      <trkpt lat="45.92505" lon="4.76256">
        <ele>168</ele>
        <time>2017-08-03T13:38:51Z</time>
      </trkpt>
      <trkpt lat="45.9251" lon="4.76254">
        <ele>168</ele>
        <time>2017-08-03T13:38:52Z</time>
      </trkpt>
      <trkpt lat="45.92514" lon="4.76254">
        <ele>168</ele>
        <time>2017-08-03T13:38:53Z</time>
      </trkpt>
      <trkpt lat="45.92522" lon="4.76256">
        <ele>168</ele>
        <time>2017-08-03T13:38:55Z</time>
      </trkpt>
      <trkpt lat="45.92526" lon="4.76257">
        <ele>168</ele>
        <time>2017-08-03T13:38:56Z</time>
      </trkpt>
      <trkpt lat="45.92532" lon="4.7626">
        <ele>168</ele>
        <time>2017-08-03T13:38:58Z</time>
      </trkpt>
      <trkpt lat="45.92536" lon="4.76262">
        <ele>168</ele>
        <time>2017-08-03T13:38:59Z</time>
      </trkpt>
      <trkpt lat="45.92544" lon="4.76266">
        <ele>168</ele>
        <time>2017-08-03T13:39:01Z</time>
      </trkpt>
      <trkpt lat="45.92547" lon="4.76268">
        <ele>168</ele>
        <time>2017-08-03T13:39:02Z</time>
      </trkpt>
      <trkpt lat="45.92552" lon="4.76271">
        <ele>168</ele>
        <time>2017-08-03T13:39:03Z</time>
      </trkpt>
      <trkpt lat="45.92556" lon="4.76274">
        <ele>168</ele>
        <time>2017-08-03T13:39:04Z</time>
      </trkpt>
      <trkpt lat="45.92561" lon="4.76276">
        <ele>168</ele>
        <time>2017-08-03T13:39:05Z</time>
      </trkpt>
      <trkpt lat="45.92565" lon="4.76279">
        <ele>168</ele>
        <time>2017-08-03T13:39:06Z</time>
      </trkpt>
      <trkpt lat="45.9257" lon="4.76282">
        <ele>168</ele>
        <time>2017-08-03T13:39:07Z</time>
      </trkpt>
      <trkpt lat="45.92574" lon="4.76285">
        <ele>168</ele>
        <time>2017-08-03T13:39:08Z</time>
      </trkpt>
      <trkpt lat="45.92582" lon="4.76289">
        <ele>168</ele>
        <time>2017-08-03T13:39:10Z</time>
      </trkpt>
      <trkpt lat="45.92586" lon="4.76292">
        <ele>168</ele>
        <time>2017-08-03T13:39:11Z</time>
      </trkpt>
      <trkpt lat="45.9259" lon="4.76295">
        <ele>167</ele>
        <time>2017-08-03T13:39:12Z</time>
      </trkpt>
      <trkpt lat="45.92595" lon="4.76297">
        <ele>167</ele>
        <time>2017-08-03T13:39:13Z</time>
      </trkpt>
      <trkpt lat="45.92599" lon="4.763">
        <ele>167</ele>
        <time>2017-08-03T13:39:14Z</time>
      </trkpt>
      <trkpt lat="45.92604" lon="4.76302">
        <ele>167</ele>
        <time>2017-08-03T13:39:15Z</time>
      </trkpt>
      <trkpt lat="45.92612" lon="4.76306">
        <ele>167</ele>
        <time>2017-08-03T13:39:17Z</time>
      </trkpt>
      <trkpt lat="45.92615" lon="4.76308">
        <ele>167</ele>
        <time>2017-08-03T13:39:18Z</time>
      </trkpt>
      <trkpt lat="45.92622" lon="4.76312">
        <ele>167</ele>
        <time>2017-08-03T13:39:20Z</time>
      </trkpt>
      <trkpt lat="45.92626" lon="4.76314">
        <ele>168</ele>
        <time>2017-08-03T13:39:21Z</time>
      </trkpt>
      <trkpt lat="45.92634" lon="4.76319">
        <ele>168</ele>
        <time>2017-08-03T13:39:23Z</time>
      </trkpt>
      <trkpt lat="45.92638" lon="4.76321">
        <ele>168</ele>
        <time>2017-08-03T13:39:24Z</time>
      </trkpt>
      <trkpt lat="45.92643" lon="4.76324">
        <ele>168</ele>
        <time>2017-08-03T13:39:25Z</time>
      </trkpt>
      <trkpt lat="45.92648" lon="4.76326">
        <ele>168</ele>
        <time>2017-08-03T13:39:26Z</time>
      </trkpt>
      <trkpt lat="45.92652" lon="4.76328">
        <ele>168</ele>
        <time>2017-08-03T13:39:27Z</time>
      </trkpt>
      <trkpt lat="45.92657" lon="4.7633">
        <ele>168</ele>
        <time>2017-08-03T13:39:28Z</time>
      </trkpt>
      <trkpt lat="45.92665" lon="4.76334">
        <ele>168</ele>
        <time>2017-08-03T13:39:30Z</time>
      </trkpt>
      <trkpt lat="45.92669" lon="4.76335">
        <ele>168</ele>
        <time>2017-08-03T13:39:31Z</time>
      </trkpt>
      <trkpt lat="45.92677" lon="4.76338">
        <ele>168</ele>
        <time>2017-08-03T13:39:33Z</time>
      </trkpt>
      <trkpt lat="45.92681" lon="4.7634">
        <ele>168</ele>
        <time>2017-08-03T13:39:34Z</time>
      </trkpt>
      <trkpt lat="45.92689" lon="4.76343">
        <ele>168</ele>
        <time>2017-08-03T13:39:36Z</time>
      </trkpt>
      <trkpt lat="45.92693" lon="4.76345">
        <ele>168</ele>
        <time>2017-08-03T13:39:37Z</time>
      </trkpt>
      <trkpt lat="45.927" lon="4.76346">
        <ele>168</ele>
        <time>2017-08-03T13:39:39Z</time>
      </trkpt>
      <trkpt lat="45.92704" lon="4.76346">
        <ele>168</ele>
        <time>2017-08-03T13:39:40Z</time>
      </trkpt>
      <trkpt lat="45.92712" lon="4.76348">
        <ele>169</ele>
        <time>2017-08-03T13:39:42Z</time>
      </trkpt>
      <trkpt lat="45.92715" lon="4.7635">
        <ele>169</ele>
        <time>2017-08-03T13:39:43Z</time>
      </trkpt>
      <trkpt lat="45.92723" lon="4.76352">
        <ele>169</ele>
        <time>2017-08-03T13:39:45Z</time>
      </trkpt>
      <trkpt lat="45.92728" lon="4.76354">
        <ele>169</ele>
        <time>2017-08-03T13:39:46Z</time>
      </trkpt>
      <trkpt lat="45.92735" lon="4.76357">
        <ele>169</ele>
        <time>2017-08-03T13:39:48Z</time>
      </trkpt>
      <trkpt lat="45.92738" lon="4.76359">
        <ele>169</ele>
        <time>2017-08-03T13:39:49Z</time>
      </trkpt>
      <trkpt lat="45.92745" lon="4.76362">
        <ele>169</ele>
        <time>2017-08-03T13:39:51Z</time>
      </trkpt>
      <trkpt lat="45.92749" lon="4.76363">
        <ele>169</ele>
        <time>2017-08-03T13:39:52Z</time>
      </trkpt>
      <trkpt lat="45.92758" lon="4.76367">
        <ele>169</ele>
        <time>2017-08-03T13:39:54Z</time>
      </trkpt>
      <trkpt lat="45.92762" lon="4.76368">
        <ele>169</ele>
        <time>2017-08-03T13:39:55Z</time>
      </trkpt>
      <trkpt lat="45.92771" lon="4.7637">
        <ele>169</ele>
        <time>2017-08-03T13:39:57Z</time>
      </trkpt>
      <trkpt lat="45.92774" lon="4.76371">
        <ele>169</ele>
        <time>2017-08-03T13:39:58Z</time>
      </trkpt>
      <trkpt lat="45.9278" lon="4.76375">
        <ele>169</ele>
        <time>2017-08-03T13:40:00Z</time>
      </trkpt>
      <trkpt lat="45.92784" lon="4.76376">
        <ele>169</ele>
        <time>2017-08-03T13:40:01Z</time>
      </trkpt>
      <trkpt lat="45.92792" lon="4.76379">
        <ele>169</ele>
        <time>2017-08-03T13:40:03Z</time>
      </trkpt>
      <trkpt lat="45.92796" lon="4.76381">
        <ele>169</ele>
        <time>2017-08-03T13:40:04Z</time>
      </trkpt>
      <trkpt lat="45.92804" lon="4.76384">
        <ele>169</ele>
        <time>2017-08-03T13:40:06Z</time>
      </trkpt>
      <trkpt lat="45.92807" lon="4.76384">
        <ele>169</ele>
        <time>2017-08-03T13:40:07Z</time>
      </trkpt>
      <trkpt lat="45.92814" lon="4.7638">
        <ele>169</ele>
        <time>2017-08-03T13:40:09Z</time>
      </trkpt>
      <trkpt lat="45.92816" lon="4.76378">
        <ele>169</ele>
        <time>2017-08-03T13:40:10Z</time>
      </trkpt>
      <trkpt lat="45.92822" lon="4.76371">
        <ele>169</ele>
        <time>2017-08-03T13:40:12Z</time>
      </trkpt>
      <trkpt lat="45.92825" lon="4.76367">
        <ele>169</ele>
        <time>2017-08-03T13:40:13Z</time>
      </trkpt>
      <trkpt lat="45.92828" lon="4.76362">
        <ele>169</ele>
        <time>2017-08-03T13:40:14Z</time>
      </trkpt>
      <trkpt lat="45.92831" lon="4.76357">
        <ele>170</ele>
        <time>2017-08-03T13:40:15Z</time>
      </trkpt>
      <trkpt lat="45.92837" lon="4.76347">
        <ele>170</ele>
        <time>2017-08-03T13:40:17Z</time>
      </trkpt>
      <trkpt lat="45.9284" lon="4.76343">
        <ele>170</ele>
        <time>2017-08-03T13:40:18Z</time>
      </trkpt>
      <trkpt lat="45.92846" lon="4.76335">
        <ele>170</ele>
        <time>2017-08-03T13:40:20Z</time>
      </trkpt>
      <trkpt lat="45.92848" lon="4.76332">
        <ele>170</ele>
        <time>2017-08-03T13:40:21Z</time>
      </trkpt>
      <trkpt lat="45.92852" lon="4.76326">
        <ele>169</ele>
        <time>2017-08-03T13:40:23Z</time>
      </trkpt>
      <trkpt lat="45.92854" lon="4.76323">
        <ele>169</ele>
        <time>2017-08-03T13:40:24Z</time>
      </trkpt>
      <trkpt lat="45.92859" lon="4.76315">
        <ele>169</ele>
        <time>2017-08-03T13:40:26Z</time>
      </trkpt>
      <trkpt lat="45.92862" lon="4.76311">
        <ele>169</ele>
        <time>2017-08-03T13:40:27Z</time>
      </trkpt>
      <trkpt lat="45.92867" lon="4.76305">
        <ele>169</ele>
        <time>2017-08-03T13:40:29Z</time>
      </trkpt>
      <trkpt lat="45.92871" lon="4.76303">
        <ele>169</ele>
        <time>2017-08-03T13:40:30Z</time>
      </trkpt>
      <trkpt lat="45.92877" lon="4.76298">
        <ele>169</ele>
        <time>2017-08-03T13:40:33Z</time>
      </trkpt>
      <trkpt lat="45.92879" lon="4.76296">
        <ele>169</ele>
        <time>2017-08-03T13:40:34Z</time>
      </trkpt>
      <trkpt lat="45.92886" lon="4.763">
        <ele>169</ele>
        <time>2017-08-03T13:40:37Z</time>
      </trkpt>
      <trkpt lat="45.92888" lon="4.76303">
        <ele>169</ele>
        <time>2017-08-03T13:40:38Z</time>
      </trkpt>
      <trkpt lat="45.92894" lon="4.76307">
        <ele>169</ele>
        <time>2017-08-03T13:40:40Z</time>
      </trkpt>
      <trkpt lat="45.92897" lon="4.7631">
        <ele>169</ele>
        <time>2017-08-03T13:40:41Z</time>
      </trkpt>
      <trkpt lat="45.92901" lon="4.76314">
        <ele>169</ele>
        <time>2017-08-03T13:40:43Z</time>
      </trkpt>
      <trkpt lat="45.92905" lon="4.76316">
        <ele>169</ele>
        <time>2017-08-03T13:40:44Z</time>
      </trkpt>
      <trkpt lat="45.92911" lon="4.76321">
        <ele>169</ele>
        <time>2017-08-03T13:40:46Z</time>
      </trkpt>
      <trkpt lat="45.92914" lon="4.76324">
        <ele>169</ele>
        <time>2017-08-03T13:40:47Z</time>
      </trkpt>
      <trkpt lat="45.92921" lon="4.76331">
        <ele>169</ele>
        <time>2017-08-03T13:40:49Z</time>
      </trkpt>
      <trkpt lat="45.92925" lon="4.76334">
        <ele>169</ele>
        <time>2017-08-03T13:40:50Z</time>
      </trkpt>
      <trkpt lat="45.92932" lon="4.7634">
        <ele>169</ele>
        <time>2017-08-03T13:40:52Z</time>
      </trkpt>
      <trkpt lat="45.92935" lon="4.76343">
        <ele>169</ele>
        <time>2017-08-03T13:40:53Z</time>
      </trkpt>
      <trkpt lat="45.92942" lon="4.76349">
        <ele>169</ele>
        <time>2017-08-03T13:40:55Z</time>
      </trkpt>
      <trkpt lat="45.92945" lon="4.76352">
        <ele>169</ele>
        <time>2017-08-03T13:40:56Z</time>
      </trkpt>
      <trkpt lat="45.92953" lon="4.76358">
        <ele>169</ele>
        <time>2017-08-03T13:40:58Z</time>
      </trkpt>
      <trkpt lat="45.92956" lon="4.76362">
        <ele>169</ele>
        <time>2017-08-03T13:40:59Z</time>
      </trkpt>
      <trkpt lat="45.92963" lon="4.76368">
        <ele>169</ele>
        <time>2017-08-03T13:41:01Z</time>
      </trkpt>
      <trkpt lat="45.92967" lon="4.76372">
        <ele>169</ele>
        <time>2017-08-03T13:41:02Z</time>
      </trkpt>
      <trkpt lat="45.92971" lon="4.76376">
        <ele>169</ele>
        <time>2017-08-03T13:41:03Z</time>
      </trkpt>
      <trkpt lat="45.92975" lon="4.7638">
        <ele>169</ele>
        <time>2017-08-03T13:41:04Z</time>
      </trkpt>
      <trkpt lat="45.92979" lon="4.76383">
        <ele>169</ele>
        <time>2017-08-03T13:41:05Z</time>
      </trkpt>
      <trkpt lat="45.92984" lon="4.76386">
        <ele>169</ele>
        <time>2017-08-03T13:41:06Z</time>
      </trkpt>
      <trkpt lat="45.92991" lon="4.76393">
        <ele>169</ele>
        <time>2017-08-03T13:41:08Z</time>
      </trkpt>
      <trkpt lat="45.92994" lon="4.76396">
        <ele>169</ele>
        <time>2017-08-03T13:41:09Z</time>
      </trkpt>
      <trkpt lat="45.93001" lon="4.76405">
        <ele>169</ele>
        <time>2017-08-03T13:41:11Z</time>
      </trkpt>
      <trkpt lat="45.93005" lon="4.76408">
        <ele>169</ele>
        <time>2017-08-03T13:41:12Z</time>
      </trkpt>
      <trkpt lat="45.93012" lon="4.76416">
        <ele>169</ele>
        <time>2017-08-03T13:41:14Z</time>
      </trkpt>
      <trkpt lat="45.93016" lon="4.7642">
        <ele>169</ele>
        <time>2017-08-03T13:41:15Z</time>
      </trkpt>
      <trkpt lat="45.93023" lon="4.76426">
        <ele>169</ele>
        <time>2017-08-03T13:41:17Z</time>
      </trkpt>
      <trkpt lat="45.93026" lon="4.76429">
        <ele>169</ele>
        <time>2017-08-03T13:41:18Z</time>
      </trkpt>
      <trkpt lat="45.93034" lon="4.76436">
        <ele>169</ele>
        <time>2017-08-03T13:41:20Z</time>
      </trkpt>
      <trkpt lat="45.93038" lon="4.7644">
        <ele>169</ele>
        <time>2017-08-03T13:41:21Z</time>
      </trkpt>
      <trkpt lat="45.93043" lon="4.76444">
        <ele>169</ele>
        <time>2017-08-03T13:41:22Z</time>
      </trkpt>
      <trkpt lat="45.93047" lon="4.76448">
        <ele>169</ele>
        <time>2017-08-03T13:41:23Z</time>
      </trkpt>
      <trkpt lat="45.93051" lon="4.76452">
        <ele>169</ele>
        <time>2017-08-03T13:41:24Z</time>
      </trkpt>
      <trkpt lat="45.93054" lon="4.76456">
        <ele>169</ele>
        <time>2017-08-03T13:41:25Z</time>
      </trkpt>
      <trkpt lat="45.9306" lon="4.76464">
        <ele>169</ele>
        <time>2017-08-03T13:41:27Z</time>
      </trkpt>
      <trkpt lat="45.93063" lon="4.76467">
        <ele>169</ele>
        <time>2017-08-03T13:41:28Z</time>
      </trkpt>
      <trkpt lat="45.9307" lon="4.76474">
        <ele>169</ele>
        <time>2017-08-03T13:41:30Z</time>
      </trkpt>
      <trkpt lat="45.93074" lon="4.76477">
        <ele>169</ele>
        <time>2017-08-03T13:41:31Z</time>
      </trkpt>
      <trkpt lat="45.93077" lon="4.7648">
        <ele>169</ele>
        <time>2017-08-03T13:41:32Z</time>
      </trkpt>
      <trkpt lat="45.93082" lon="4.76485">
        <ele>170</ele>
        <time>2017-08-03T13:41:33Z</time>
      </trkpt>
      <trkpt lat="45.93086" lon="4.7649">
        <ele>170</ele>
        <time>2017-08-03T13:41:34Z</time>
      </trkpt>
      <trkpt lat="45.9309" lon="4.76493">
        <ele>170</ele>
        <time>2017-08-03T13:41:35Z</time>
      </trkpt>
      <trkpt lat="45.93094" lon="4.76497">
        <ele>170</ele>
        <time>2017-08-03T13:41:36Z</time>
      </trkpt>
      <trkpt lat="45.93098" lon="4.76501">
        <ele>170</ele>
        <time>2017-08-03T13:41:37Z</time>
      </trkpt>
      <trkpt lat="45.93102" lon="4.76504">
        <ele>170</ele>
        <time>2017-08-03T13:41:38Z</time>
      </trkpt>
      <trkpt lat="45.93105" lon="4.76509">
        <ele>170</ele>
        <time>2017-08-03T13:41:39Z</time>
      </trkpt>
      <trkpt lat="45.93109" lon="4.76512">
        <ele>170</ele>
        <time>2017-08-03T13:41:40Z</time>
      </trkpt>
      <trkpt lat="45.93113" lon="4.76517">
        <ele>170</ele>
        <time>2017-08-03T13:41:41Z</time>
      </trkpt>
      <trkpt lat="45.93116" lon="4.76521">
        <ele>170</ele>
        <time>2017-08-03T13:41:42Z</time>
      </trkpt>
      <trkpt lat="45.9312" lon="4.76525">
        <ele>170</ele>
        <time>2017-08-03T13:41:43Z</time>
      </trkpt>
      <trkpt lat="45.93124" lon="4.76528">
        <ele>170</ele>
        <time>2017-08-03T13:41:44Z</time>
      </trkpt>
      <trkpt lat="45.93129" lon="4.76532">
        <ele>170</ele>
        <time>2017-08-03T13:41:45Z</time>
      </trkpt>
      <trkpt lat="45.93132" lon="4.76536">
        <ele>170</ele>
        <time>2017-08-03T13:41:46Z</time>
      </trkpt>
      <trkpt lat="45.93136" lon="4.7654">
        <ele>170</ele>
        <time>2017-08-03T13:41:47Z</time>
      </trkpt>
      <trkpt lat="45.93142" lon="4.76547">
        <ele>170</ele>
        <time>2017-08-03T13:41:49Z</time>
      </trkpt>
      <trkpt lat="45.93145" lon="4.76551">
        <ele>170</ele>
        <time>2017-08-03T13:41:50Z</time>
      </trkpt>
      <trkpt lat="45.9315" lon="4.76559">
        <ele>170</ele>
        <time>2017-08-03T13:41:52Z</time>
      </trkpt>
      <trkpt lat="45.93153" lon="4.76562">
        <ele>170</ele>
        <time>2017-08-03T13:41:53Z</time>
      </trkpt>
      <trkpt lat="45.9316" lon="4.76569">
        <ele>170</ele>
        <time>2017-08-03T13:41:55Z</time>
      </trkpt>
      <trkpt lat="45.93163" lon="4.76573">
        <ele>171</ele>
        <time>2017-08-03T13:41:56Z</time>
      </trkpt>
      <trkpt lat="45.93167" lon="4.76576">
        <ele>170</ele>
        <time>2017-08-03T13:41:57Z</time>
      </trkpt>
      <trkpt lat="45.93172" lon="4.76581">
        <ele>171</ele>
        <time>2017-08-03T13:41:58Z</time>
      </trkpt>
      <trkpt lat="45.93176" lon="4.76585">
        <ele>171</ele>
        <time>2017-08-03T13:41:59Z</time>
      </trkpt>
      <trkpt lat="45.93181" lon="4.76589">
        <ele>171</ele>
        <time>2017-08-03T13:42:00Z</time>
      </trkpt>
      <trkpt lat="45.93186" lon="4.76591">
        <ele>171</ele>
        <time>2017-08-03T13:42:01Z</time>
      </trkpt>
      <trkpt lat="45.93192" lon="4.76589">
        <ele>170</ele>
        <time>2017-08-03T13:42:02Z</time>
      </trkpt>
      <trkpt lat="45.93197" lon="4.76584">
        <ele>170</ele>
        <time>2017-08-03T13:42:03Z</time>
      </trkpt>
      <trkpt lat="45.93201" lon="4.76578">
        <ele>169</ele>
        <time>2017-08-03T13:42:04Z</time>
      </trkpt>
      <trkpt lat="45.93204" lon="4.7657">
        <ele>169</ele>
        <time>2017-08-03T13:42:05Z</time>
      </trkpt>
      <trkpt lat="45.93206" lon="4.76563">
        <ele>169</ele>
        <time>2017-08-03T13:42:06Z</time>
      </trkpt>
      <trkpt lat="45.93207" lon="4.76555">
        <ele>169</ele>
        <time>2017-08-03T13:42:07Z</time>
      </trkpt>
      <trkpt lat="45.93209" lon="4.76547">
        <ele>169</ele>
        <time>2017-08-03T13:42:08Z</time>
      </trkpt>
      <trkpt lat="45.9321" lon="4.7654">
        <ele>169</ele>
        <time>2017-08-03T13:42:09Z</time>
      </trkpt>
      <trkpt lat="45.93211" lon="4.76533">
        <ele>169</ele>
        <time>2017-08-03T13:42:10Z</time>
      </trkpt>
      <trkpt lat="45.93212" lon="4.76526">
        <ele>169</ele>
        <time>2017-08-03T13:42:11Z</time>
      </trkpt>
      <trkpt lat="45.93213" lon="4.76519">
        <ele>169</ele>
        <time>2017-08-03T13:42:12Z</time>
      </trkpt>
      <trkpt lat="45.93214" lon="4.76513">
        <ele>169</ele>
        <time>2017-08-03T13:42:13Z</time>
      </trkpt>
      <trkpt lat="45.93215" lon="4.76507">
        <ele>169</ele>
        <time>2017-08-03T13:42:14Z</time>
      </trkpt>
      <trkpt lat="45.93217" lon="4.76495">
        <ele>169</ele>
        <time>2017-08-03T13:42:16Z</time>
      </trkpt>
      <trkpt lat="45.93217" lon="4.76489">
        <ele>169</ele>
        <time>2017-08-03T13:42:17Z</time>
      </trkpt>
      <trkpt lat="45.93218" lon="4.76478">
        <ele>169</ele>
        <time>2017-08-03T13:42:19Z</time>
      </trkpt>
      <trkpt lat="45.93218" lon="4.76473">
        <ele>169</ele>
        <time>2017-08-03T13:42:20Z</time>
      </trkpt>
      <trkpt lat="45.93219" lon="4.76464">
        <ele>169</ele>
        <time>2017-08-03T13:42:22Z</time>
      </trkpt>
      <trkpt lat="45.93219" lon="4.76459">
        <ele>169</ele>
        <time>2017-08-03T13:42:23Z</time>
      </trkpt>
      <trkpt lat="45.9322" lon="4.76451">
        <ele>168</ele>
        <time>2017-08-03T13:42:25Z</time>
      </trkpt>
      <trkpt lat="45.93221" lon="4.76446">
        <ele>168</ele>
        <time>2017-08-03T13:42:26Z</time>
      </trkpt>
      <trkpt lat="45.93222" lon="4.76434">
        <ele>168</ele>
        <time>2017-08-03T13:42:28Z</time>
      </trkpt>
      <trkpt lat="45.93223" lon="4.76428">
        <ele>168</ele>
        <time>2017-08-03T13:42:29Z</time>
      </trkpt>
      <trkpt lat="45.93223" lon="4.76421">
        <ele>168</ele>
        <time>2017-08-03T13:42:30Z</time>
      </trkpt>
      <trkpt lat="45.93223" lon="4.76414">
        <ele>168</ele>
        <time>2017-08-03T13:42:31Z</time>
      </trkpt>
      <trkpt lat="45.93224" lon="4.76402">
        <ele>168</ele>
        <time>2017-08-03T13:42:33Z</time>
      </trkpt>
      <trkpt lat="45.93224" lon="4.76396">
        <ele>168</ele>
        <time>2017-08-03T13:42:34Z</time>
      </trkpt>
      <trkpt lat="45.93224" lon="4.76384">
        <ele>168</ele>
        <time>2017-08-03T13:42:36Z</time>
      </trkpt>
      <trkpt lat="45.93224" lon="4.76378">
        <ele>168</ele>
        <time>2017-08-03T13:42:37Z</time>
      </trkpt>
      <trkpt lat="45.93225" lon="4.76368">
        <ele>168</ele>
        <time>2017-08-03T13:42:39Z</time>
      </trkpt>
      <trkpt lat="45.93225" lon="4.76362">
        <ele>168</ele>
        <time>2017-08-03T13:42:40Z</time>
      </trkpt>
      <trkpt lat="45.93226" lon="4.7635">
        <ele>168</ele>
        <time>2017-08-03T13:42:42Z</time>
      </trkpt>
      <trkpt lat="45.93226" lon="4.76343">
        <ele>168</ele>
        <time>2017-08-03T13:42:43Z</time>
      </trkpt>
      <trkpt lat="45.93226" lon="4.76336">
        <ele>168</ele>
        <time>2017-08-03T13:42:44Z</time>
      </trkpt>
      <trkpt lat="45.93227" lon="4.7633">
        <ele>169</ele>
        <time>2017-08-03T13:42:45Z</time>
      </trkpt>
      <trkpt lat="45.93227" lon="4.76323">
        <ele>169</ele>
        <time>2017-08-03T13:42:46Z</time>
      </trkpt>
      <trkpt lat="45.93228" lon="4.76317">
        <ele>169</ele>
        <time>2017-08-03T13:42:47Z</time>
      </trkpt>
      <trkpt lat="45.9323" lon="4.76305">
        <ele>169</ele>
        <time>2017-08-03T13:42:49Z</time>
      </trkpt>
      <trkpt lat="45.9323" lon="4.76299">
        <ele>169</ele>
        <time>2017-08-03T13:42:50Z</time>
      </trkpt>
      <trkpt lat="45.93233" lon="4.7629">
        <ele>169</ele>
        <time>2017-08-03T13:42:52Z</time>
      </trkpt>
      <trkpt lat="45.93237" lon="4.76287">
        <ele>169</ele>
        <time>2017-08-03T13:42:53Z</time>
      </trkpt>
      <trkpt lat="45.93245" lon="4.76284">
        <ele>169</ele>
        <time>2017-08-03T13:42:55Z</time>
      </trkpt>
      <trkpt lat="45.9325" lon="4.76283">
        <ele>169</ele>
        <time>2017-08-03T13:42:56Z</time>
      </trkpt>
      <trkpt lat="45.93258" lon="4.76283">
        <ele>169</ele>
        <time>2017-08-03T13:42:58Z</time>
      </trkpt>
      <trkpt lat="45.93262" lon="4.76282">
        <ele>169</ele>
        <time>2017-08-03T13:42:59Z</time>
      </trkpt>
      <trkpt lat="45.93268" lon="4.76283">
        <ele>169</ele>
        <time>2017-08-03T13:43:01Z</time>
      </trkpt>
      <trkpt lat="45.93271" lon="4.76284">
        <ele>168</ele>
        <time>2017-08-03T13:43:02Z</time>
      </trkpt>
      <trkpt lat="45.93278" lon="4.76287">
        <ele>168</ele>
        <time>2017-08-03T13:43:04Z</time>
      </trkpt>
      <trkpt lat="45.93281" lon="4.7629">
        <ele>168</ele>
        <time>2017-08-03T13:43:05Z</time>
      </trkpt>
      <trkpt lat="45.93288" lon="4.76292">
        <ele>168</ele>
        <time>2017-08-03T13:43:07Z</time>
      </trkpt>
      <trkpt lat="45.93292" lon="4.76294">
        <ele>168</ele>
        <time>2017-08-03T13:43:08Z</time>
      </trkpt>
      <trkpt lat="45.933" lon="4.76297">
        <ele>168</ele>
        <time>2017-08-03T13:43:10Z</time>
      </trkpt>
      <trkpt lat="45.93304" lon="4.76299">
        <ele>168</ele>
        <time>2017-08-03T13:43:11Z</time>
      </trkpt>
      <trkpt lat="45.93312" lon="4.76303">
        <ele>168</ele>
        <time>2017-08-03T13:43:13Z</time>
      </trkpt>
      <trkpt lat="45.93315" lon="4.76307">
        <ele>168</ele>
        <time>2017-08-03T13:43:14Z</time>
      </trkpt>
      <trkpt lat="45.93321" lon="4.76311">
        <ele>168</ele>
        <time>2017-08-03T13:43:16Z</time>
      </trkpt>
      <trkpt lat="45.93325" lon="4.76314">
        <ele>168</ele>
        <time>2017-08-03T13:43:17Z</time>
      </trkpt>
      <trkpt lat="45.93334" lon="4.76319">
        <ele>169</ele>
        <time>2017-08-03T13:43:19Z</time>
      </trkpt>
      <trkpt lat="45.93337" lon="4.76322">
        <ele>169</ele>
        <time>2017-08-03T13:43:20Z</time>
      </trkpt>
      <trkpt lat="45.93342" lon="4.7633">
        <ele>169</ele>
        <time>2017-08-03T13:43:22Z</time>
      </trkpt>
      <trkpt lat="45.93345" lon="4.76334">
        <ele>169</ele>
        <time>2017-08-03T13:43:23Z</time>
      </trkpt>
      <trkpt lat="45.9335" lon="4.76344">
        <ele>168</ele>
        <time>2017-08-03T13:43:25Z</time>
      </trkpt>
      <trkpt lat="45.93352" lon="4.76349">
        <ele>168</ele>
        <time>2017-08-03T13:43:26Z</time>
      </trkpt>
      <trkpt lat="45.93357" lon="4.76359">
        <ele>168</ele>
        <time>2017-08-03T13:43:28Z</time>
      </trkpt>
      <trkpt lat="45.93359" lon="4.76364">
        <ele>168</ele>
        <time>2017-08-03T13:43:29Z</time>
      </trkpt>
      <trkpt lat="45.93364" lon="4.76372">
        <ele>168</ele>
        <time>2017-08-03T13:43:31Z</time>
      </trkpt>
      <trkpt lat="45.93366" lon="4.76376">
        <ele>168</ele>
        <time>2017-08-03T13:43:32Z</time>
      </trkpt>
      <trkpt lat="45.93371" lon="4.76383">
        <ele>168</ele>
        <time>2017-08-03T13:43:34Z</time>
      </trkpt>
      <trkpt lat="45.93374" lon="4.76387">
        <ele>168</ele>
        <time>2017-08-03T13:43:35Z</time>
      </trkpt>
      <trkpt lat="45.9338" lon="4.76395">
        <ele>168</ele>
        <time>2017-08-03T13:43:37Z</time>
      </trkpt>
      <trkpt lat="45.93383" lon="4.76399">
        <ele>168</ele>
        <time>2017-08-03T13:43:38Z</time>
      </trkpt>
      <trkpt lat="45.93388" lon="4.76406">
        <ele>167</ele>
        <time>2017-08-03T13:43:40Z</time>
      </trkpt>
      <trkpt lat="45.93391" lon="4.76409">
        <ele>167</ele>
        <time>2017-08-03T13:43:41Z</time>
      </trkpt>
      <trkpt lat="45.93397" lon="4.76417">
        <ele>167</ele>
        <time>2017-08-03T13:43:43Z</time>
      </trkpt>
      <trkpt lat="45.93401" lon="4.76421">
        <ele>167</ele>
        <time>2017-08-03T13:43:44Z</time>
      </trkpt>
      <trkpt lat="45.93404" lon="4.76425">
        <ele>167</ele>
        <time>2017-08-03T13:43:45Z</time>
      </trkpt>
      <trkpt lat="45.93408" lon="4.76431">
        <ele>167</ele>
        <time>2017-08-03T13:43:46Z</time>
      </trkpt>
      <trkpt lat="45.93414" lon="4.7644">
        <ele>167</ele>
        <time>2017-08-03T13:43:48Z</time>
      </trkpt>
      <trkpt lat="45.93418" lon="4.76443">
        <ele>167</ele>
        <time>2017-08-03T13:43:49Z</time>
      </trkpt>
      <trkpt lat="45.93423" lon="4.7645">
        <ele>167</ele>
        <time>2017-08-03T13:43:51Z</time>
      </trkpt>
      <trkpt lat="45.93426" lon="4.76453">
        <ele>167</ele>
        <time>2017-08-03T13:43:52Z</time>
      </trkpt>
      <trkpt lat="45.9343" lon="4.76457">
        <ele>167</ele>
        <time>2017-08-03T13:43:53Z</time>
      </trkpt>
      <trkpt lat="45.93433" lon="4.76463">
        <ele>167</ele>
        <time>2017-08-03T13:43:54Z</time>
      </trkpt>
      <trkpt lat="45.93436" lon="4.76468">
        <ele>167</ele>
        <time>2017-08-03T13:43:55Z</time>
      </trkpt>
      <trkpt lat="45.93439" lon="4.76473">
        <ele>167</ele>
        <time>2017-08-03T13:43:56Z</time>
      </trkpt>
      <trkpt lat="45.93442" lon="4.76478">
        <ele>167</ele>
        <time>2017-08-03T13:43:57Z</time>
      </trkpt>
      <trkpt lat="45.93446" lon="4.76482">
        <ele>167</ele>
        <time>2017-08-03T13:43:58Z</time>
      </trkpt>
      <trkpt lat="45.93449" lon="4.76487">
        <ele>167</ele>
        <time>2017-08-03T13:43:59Z</time>
      </trkpt>
      <trkpt lat="45.93452" lon="4.76492">
        <ele>167</ele>
        <time>2017-08-03T13:44:00Z</time>
      </trkpt>
      <trkpt lat="45.93458" lon="4.765">
        <ele>167</ele>
        <time>2017-08-03T13:44:02Z</time>
      </trkpt>
      <trkpt lat="45.93461" lon="4.76502">
        <ele>168</ele>
        <time>2017-08-03T13:44:03Z</time>
      </trkpt>
      <trkpt lat="45.93466" lon="4.7651">
        <ele>168</ele>
        <time>2017-08-03T13:44:05Z</time>
      </trkpt>
      <trkpt lat="45.93469" lon="4.76514">
        <ele>168</ele>
        <time>2017-08-03T13:44:06Z</time>
      </trkpt>
      <trkpt lat="45.93475" lon="4.76519">
        <ele>168</ele>
        <time>2017-08-03T13:44:08Z</time>
      </trkpt>
      <trkpt lat="45.93477" lon="4.76522">
        <ele>168</ele>
        <time>2017-08-03T13:44:09Z</time>
      </trkpt>
      <trkpt lat="45.93481" lon="4.76529">
        <ele>168</ele>
        <time>2017-08-03T13:44:11Z</time>
      </trkpt>
      <trkpt lat="45.93484" lon="4.76533">
        <ele>168</ele>
        <time>2017-08-03T13:44:12Z</time>
      </trkpt>
      <trkpt lat="45.9349" lon="4.76541">
        <ele>168</ele>
        <time>2017-08-03T13:44:14Z</time>
      </trkpt>
      <trkpt lat="45.93493" lon="4.76545">
        <ele>168</ele>
        <time>2017-08-03T13:44:15Z</time>
      </trkpt>
      <trkpt lat="45.93499" lon="4.76553">
        <ele>169</ele>
        <time>2017-08-03T13:44:17Z</time>
      </trkpt>
      <trkpt lat="45.93502" lon="4.76557">
        <ele>168</ele>
        <time>2017-08-03T13:44:18Z</time>
      </trkpt>
      <trkpt lat="45.93508" lon="4.76564">
        <ele>168</ele>
        <time>2017-08-03T13:44:20Z</time>
      </trkpt>
      <trkpt lat="45.93511" lon="4.76567">
        <ele>168</ele>
        <time>2017-08-03T13:44:21Z</time>
      </trkpt>
      <trkpt lat="45.93516" lon="4.76572">
        <ele>168</ele>
        <time>2017-08-03T13:44:23Z</time>
      </trkpt>
      <trkpt lat="45.9352" lon="4.76576">
        <ele>168</ele>
        <time>2017-08-03T13:44:24Z</time>
      </trkpt>
      <trkpt lat="45.93524" lon="4.76579">
        <ele>168</ele>
        <time>2017-08-03T13:44:25Z</time>
      </trkpt>
      <trkpt lat="45.93528" lon="4.76584">
        <ele>169</ele>
        <time>2017-08-03T13:44:26Z</time>
      </trkpt>
      <trkpt lat="45.93531" lon="4.76589">
        <ele>169</ele>
        <time>2017-08-03T13:44:27Z</time>
      </trkpt>
      <trkpt lat="45.93534" lon="4.76593">
        <ele>169</ele>
        <time>2017-08-03T13:44:28Z</time>
      </trkpt>
      <trkpt lat="45.93538" lon="4.76601">
        <ele>169</ele>
        <time>2017-08-03T13:44:30Z</time>
      </trkpt>
      <trkpt lat="45.9354" lon="4.76604">
        <ele>169</ele>
        <time>2017-08-03T13:44:31Z</time>
      </trkpt>
      <trkpt lat="45.93546" lon="4.7661">
        <ele>169</ele>
        <time>2017-08-03T13:44:33Z</time>
      </trkpt>
      <trkpt lat="45.93549" lon="4.76613">
        <ele>169</ele>
        <time>2017-08-03T13:44:34Z</time>
      </trkpt>
      <trkpt lat="45.93554" lon="4.7662">
        <ele>169</ele>
        <time>2017-08-03T13:44:36Z</time>
      </trkpt>
      <trkpt lat="45.93557" lon="4.76625">
        <ele>169</ele>
        <time>2017-08-03T13:44:37Z</time>
      </trkpt>
      <trkpt lat="45.9356" lon="4.76631">
        <ele>169</ele>
        <time>2017-08-03T13:44:38Z</time>
      </trkpt>
      <trkpt lat="45.93563" lon="4.76635">
        <ele>170</ele>
        <time>2017-08-03T13:44:39Z</time>
      </trkpt>
      <trkpt lat="45.93569" lon="4.76644">
        <ele>170</ele>
        <time>2017-08-03T13:44:41Z</time>
      </trkpt>
      <trkpt lat="45.93571" lon="4.76649">
        <ele>170</ele>
        <time>2017-08-03T13:44:42Z</time>
      </trkpt>
      <trkpt lat="45.93576" lon="4.76657">
        <ele>170</ele>
        <time>2017-08-03T13:44:44Z</time>
      </trkpt>
      <trkpt lat="45.93579" lon="4.76662">
        <ele>171</ele>
        <time>2017-08-03T13:44:45Z</time>
      </trkpt>
      <trkpt lat="45.93582" lon="4.76667">
        <ele>171</ele>
        <time>2017-08-03T13:44:46Z</time>
      </trkpt>
      <trkpt lat="45.93586" lon="4.76673">
        <ele>170</ele>
        <time>2017-08-03T13:44:47Z</time>
      </trkpt>
      <trkpt lat="45.93589" lon="4.76678">
        <ele>170</ele>
        <time>2017-08-03T13:44:48Z</time>
      </trkpt>
      <trkpt lat="45.93592" lon="4.76683">
        <ele>170</ele>
        <time>2017-08-03T13:44:49Z</time>
      </trkpt>
      <trkpt lat="45.93598" lon="4.76692">
        <ele>169</ele>
        <time>2017-08-03T13:44:51Z</time>
      </trkpt>
      <trkpt lat="45.93601" lon="4.76696">
        <ele>169</ele>
        <time>2017-08-03T13:44:52Z</time>
      </trkpt>
      <trkpt lat="45.93606" lon="4.76703">
        <ele>169</ele>
        <time>2017-08-03T13:44:54Z</time>
      </trkpt>
      <trkpt lat="45.93609" lon="4.76707">
        <ele>169</ele>
        <time>2017-08-03T13:44:55Z</time>
      </trkpt>
      <trkpt lat="45.93615" lon="4.76716">
        <ele>169</ele>
        <time>2017-08-03T13:44:57Z</time>
      </trkpt>
      <trkpt lat="45.93618" lon="4.76721">
        <ele>169</ele>
        <time>2017-08-03T13:44:58Z</time>
      </trkpt>
      <trkpt lat="45.93623" lon="4.76731">
        <ele>169</ele>
        <time>2017-08-03T13:45:00Z</time>
      </trkpt>
      <trkpt lat="45.93626" lon="4.76736">
        <ele>168</ele>
        <time>2017-08-03T13:45:01Z</time>
      </trkpt>
      <trkpt lat="45.93632" lon="4.76745">
        <ele>168</ele>
        <time>2017-08-03T13:45:03Z</time>
      </trkpt>
      <trkpt lat="45.93635" lon="4.7675">
        <ele>168</ele>
        <time>2017-08-03T13:45:04Z</time>
      </trkpt>
      <trkpt lat="45.9364" lon="4.76759">
        <ele>168</ele>
        <time>2017-08-03T13:45:06Z</time>
      </trkpt>
      <trkpt lat="45.93644" lon="4.76763">
        <ele>167</ele>
        <time>2017-08-03T13:45:07Z</time>
      </trkpt>
      <trkpt lat="45.93647" lon="4.76768">
        <ele>167</ele>
        <time>2017-08-03T13:45:08Z</time>
      </trkpt>
      <trkpt lat="45.93651" lon="4.76774">
        <ele>167</ele>
        <time>2017-08-03T13:45:09Z</time>
      </trkpt>
      <trkpt lat="45.93657" lon="4.76783">
        <ele>167</ele>
        <time>2017-08-03T13:45:11Z</time>
      </trkpt>
      <trkpt lat="45.93659" lon="4.76786">
        <ele>167</ele>
        <time>2017-08-03T13:45:12Z</time>
      </trkpt>
      <trkpt lat="45.93665" lon="4.76793">
        <ele>167</ele>
        <time>2017-08-03T13:45:14Z</time>
      </trkpt>
      <trkpt lat="45.93667" lon="4.76796">
        <ele>167</ele>
        <time>2017-08-03T13:45:15Z</time>
      </trkpt>
      <trkpt lat="45.93672" lon="4.76805">
        <ele>166</ele>
        <time>2017-08-03T13:45:17Z</time>
      </trkpt>
      <trkpt lat="45.93674" lon="4.7681">
        <ele>166</ele>
        <time>2017-08-03T13:45:18Z</time>
      </trkpt>
      <trkpt lat="45.9368" lon="4.76819">
        <ele>166</ele>
        <time>2017-08-03T13:45:20Z</time>
      </trkpt>
      <trkpt lat="45.93682" lon="4.76823">
        <ele>166</ele>
        <time>2017-08-03T13:45:21Z</time>
      </trkpt>
      <trkpt lat="45.93686" lon="4.76832">
        <ele>166</ele>
        <time>2017-08-03T13:45:23Z</time>
      </trkpt>
      <trkpt lat="45.93689" lon="4.76837">
        <ele>167</ele>
        <time>2017-08-03T13:45:24Z</time>
      </trkpt>
      <trkpt lat="45.93694" lon="4.76847">
        <ele>167</ele>
        <time>2017-08-03T13:45:26Z</time>
      </trkpt>
      <trkpt lat="45.93696" lon="4.76852">
        <ele>167</ele>
        <time>2017-08-03T13:45:27Z</time>
      </trkpt>
      <trkpt lat="45.93701" lon="4.76859">
        <ele>167</ele>
        <time>2017-08-03T13:45:29Z</time>
      </trkpt>
      <trkpt lat="45.93703" lon="4.76864">
        <ele>167</ele>
        <time>2017-08-03T13:45:30Z</time>
      </trkpt>
      <trkpt lat="45.93708" lon="4.76872">
        <ele>167</ele>
        <time>2017-08-03T13:45:32Z</time>
      </trkpt>
      <trkpt lat="45.9371" lon="4.76877">
        <ele>167</ele>
        <time>2017-08-03T13:45:33Z</time>
      </trkpt>
      <trkpt lat="45.93715" lon="4.76886">
        <ele>167</ele>
        <time>2017-08-03T13:45:35Z</time>
      </trkpt>
      <trkpt lat="45.93717" lon="4.76889">
        <ele>168</ele>
        <time>2017-08-03T13:45:36Z</time>
      </trkpt>
      <trkpt lat="45.93721" lon="4.76896">
        <ele>168</ele>
        <time>2017-08-03T13:45:38Z</time>
      </trkpt>
      <trkpt lat="45.93724" lon="4.76901">
        <ele>168</ele>
        <time>2017-08-03T13:45:39Z</time>
      </trkpt>
      <trkpt lat="45.93729" lon="4.76909">
        <ele>168</ele>
        <time>2017-08-03T13:45:41Z</time>
      </trkpt>
      <trkpt lat="45.93732" lon="4.76914">
        <ele>168</ele>
        <time>2017-08-03T13:45:42Z</time>
      </trkpt>
      <trkpt lat="45.93736" lon="4.76924">
        <ele>169</ele>
        <time>2017-08-03T13:45:44Z</time>
      </trkpt>
      <trkpt lat="45.93738" lon="4.76929">
        <ele>169</ele>
        <time>2017-08-03T13:45:45Z</time>
      </trkpt>
      <trkpt lat="45.93743" lon="4.76937">
        <ele>169</ele>
        <time>2017-08-03T13:45:47Z</time>
      </trkpt>
      <trkpt lat="45.93745" lon="4.76941">
        <ele>169</ele>
        <time>2017-08-03T13:45:48Z</time>
      </trkpt>
      <trkpt lat="45.93748" lon="4.76953">
        <ele>169</ele>
        <time>2017-08-03T13:45:50Z</time>
      </trkpt>
      <trkpt lat="45.9375" lon="4.76959">
        <ele>169</ele>
        <time>2017-08-03T13:45:51Z</time>
      </trkpt>
      <trkpt lat="45.93754" lon="4.7697">
        <ele>168</ele>
        <time>2017-08-03T13:45:53Z</time>
      </trkpt>
      <trkpt lat="45.93756" lon="4.76974">
        <ele>168</ele>
        <time>2017-08-03T13:45:54Z</time>
      </trkpt>
      <trkpt lat="45.93762" lon="4.76983">
        <ele>168</ele>
        <time>2017-08-03T13:45:56Z</time>
      </trkpt>
      <trkpt lat="45.93763" lon="4.76987">
        <ele>168</ele>
        <time>2017-08-03T13:45:57Z</time>
      </trkpt>
      <trkpt lat="45.93766" lon="4.76995">
        <ele>168</ele>
        <time>2017-08-03T13:45:59Z</time>
      </trkpt>
      <trkpt lat="45.93768" lon="4.76999">
        <ele>168</ele>
        <time>2017-08-03T13:46:00Z</time>
      </trkpt>
      <trkpt lat="45.93773" lon="4.77009">
        <ele>168</ele>
        <time>2017-08-03T13:46:02Z</time>
      </trkpt>
      <trkpt lat="45.93775" lon="4.77015">
        <ele>168</ele>
        <time>2017-08-03T13:46:03Z</time>
      </trkpt>
      <trkpt lat="45.93777" lon="4.77025">
        <ele>168</ele>
        <time>2017-08-03T13:46:05Z</time>
      </trkpt>
      <trkpt lat="45.93778" lon="4.77031">
        <ele>168</ele>
        <time>2017-08-03T13:46:06Z</time>
      </trkpt>
      <trkpt lat="45.93781" lon="4.7704">
        <ele>169</ele>
        <time>2017-08-03T13:46:08Z</time>
      </trkpt>
      <trkpt lat="45.93783" lon="4.77046">
        <ele>169</ele>
        <time>2017-08-03T13:46:09Z</time>
      </trkpt>
      <trkpt lat="45.93787" lon="4.77057">
        <ele>169</ele>
        <time>2017-08-03T13:46:11Z</time>
      </trkpt>
      <trkpt lat="45.93789" lon="4.77063">
        <ele>169</ele>
        <time>2017-08-03T13:46:12Z</time>
      </trkpt>
      <trkpt lat="45.93794" lon="4.77074">
        <ele>168</ele>
        <time>2017-08-03T13:46:14Z</time>
      </trkpt>
      <trkpt lat="45.93795" lon="4.77079">
        <ele>168</ele>
        <time>2017-08-03T13:46:15Z</time>
      </trkpt>
      <trkpt lat="45.93798" lon="4.77089">
        <ele>169</ele>
        <time>2017-08-03T13:46:17Z</time>
      </trkpt>
      <trkpt lat="45.93799" lon="4.77094">
        <ele>169</ele>
        <time>2017-08-03T13:46:18Z</time>
      </trkpt>
      <trkpt lat="45.938" lon="4.77104">
        <ele>169</ele>
        <time>2017-08-03T13:46:20Z</time>
      </trkpt>
      <trkpt lat="45.938" lon="4.77108">
        <ele>169</ele>
        <time>2017-08-03T13:46:21Z</time>
      </trkpt>
      <trkpt lat="45.93802" lon="4.77119">
        <ele>169</ele>
        <time>2017-08-03T13:46:23Z</time>
      </trkpt>
      <trkpt lat="45.93803" lon="4.77125">
        <ele>169</ele>
        <time>2017-08-03T13:46:24Z</time>
      </trkpt>
      <trkpt lat="45.93804" lon="4.77136">
        <ele>169</ele>
        <time>2017-08-03T13:46:26Z</time>
      </trkpt>
      <trkpt lat="45.93805" lon="4.77142">
        <ele>168</ele>
        <time>2017-08-03T13:46:27Z</time>
      </trkpt>
      <trkpt lat="45.93806" lon="4.77151">
        <ele>168</ele>
        <time>2017-08-03T13:46:29Z</time>
      </trkpt>
      <trkpt lat="45.93806" lon="4.77156">
        <ele>168</ele>
        <time>2017-08-03T13:46:30Z</time>
      </trkpt>
      <trkpt lat="45.93806" lon="4.77165">
        <ele>168</ele>
        <time>2017-08-03T13:46:32Z</time>
      </trkpt>
      <trkpt lat="45.93805" lon="4.77169">
        <ele>169</ele>
        <time>2017-08-03T13:46:33Z</time>
      </trkpt>
      <trkpt lat="45.93805" lon="4.7718">
        <ele>169</ele>
        <time>2017-08-03T13:46:35Z</time>
      </trkpt>
      <trkpt lat="45.93806" lon="4.77185">
        <ele>169</ele>
        <time>2017-08-03T13:46:36Z</time>
      </trkpt>
      <trkpt lat="45.93808" lon="4.77193">
        <ele>169</ele>
        <time>2017-08-03T13:46:37Z</time>
      </trkpt>
      <trkpt lat="45.9381" lon="4.77199">
        <ele>170</ele>
        <time>2017-08-03T13:46:38Z</time>
      </trkpt>
      <trkpt lat="45.93815" lon="4.77205">
        <ele>170</ele>
        <time>2017-08-03T13:46:40Z</time>
      </trkpt>
      <trkpt lat="45.93819" lon="4.77207">
        <ele>170</ele>
        <time>2017-08-03T13:46:41Z</time>
      </trkpt>
      <trkpt lat="45.93828" lon="4.7721">
        <ele>170</ele>
        <time>2017-08-03T13:46:44Z</time>
      </trkpt>
      <trkpt lat="45.9383" lon="4.77211">
        <ele>170</ele>
        <time>2017-08-03T13:46:45Z</time>
      </trkpt>
      <trkpt lat="45.93838" lon="4.77217">
        <ele>168</ele>
        <time>2017-08-03T13:46:48Z</time>
      </trkpt>
      <trkpt lat="45.93839" lon="4.77219">
        <ele>169</ele>
        <time>2017-08-03T13:46:49Z</time>
      </trkpt>
      <trkpt lat="45.93845" lon="4.77221">
        <ele>169</ele>
        <time>2017-08-03T13:46:51Z</time>
      </trkpt>
      <trkpt lat="45.93848" lon="4.77222">
        <ele>169</ele>
        <time>2017-08-03T13:46:52Z</time>
      </trkpt>
      <trkpt lat="45.93853" lon="4.77225">
        <ele>169</ele>
        <time>2017-08-03T13:46:54Z</time>
      </trkpt>
      <trkpt lat="45.93857" lon="4.77226">
        <ele>168</ele>
        <time>2017-08-03T13:46:55Z</time>
      </trkpt>
      <trkpt lat="45.93864" lon="4.77227">
        <ele>168</ele>
        <time>2017-08-03T13:46:57Z</time>
      </trkpt>
      <trkpt lat="45.93868" lon="4.77228">
        <ele>168</ele>
        <time>2017-08-03T13:46:58Z</time>
      </trkpt>
      <trkpt lat="45.93876" lon="4.77229">
        <ele>168</ele>
        <time>2017-08-03T13:47:00Z</time>
      </trkpt>
      <trkpt lat="45.93879" lon="4.77229">
        <ele>168</ele>
        <time>2017-08-03T13:47:01Z</time>
      </trkpt>
      <trkpt lat="45.93887" lon="4.77231">
        <ele>167</ele>
        <time>2017-08-03T13:47:03Z</time>
      </trkpt>
      <trkpt lat="45.93891" lon="4.77232">
        <ele>167</ele>
        <time>2017-08-03T13:47:04Z</time>
      </trkpt>
      <trkpt lat="45.93898" lon="4.77234">
        <ele>167</ele>
        <time>2017-08-03T13:47:06Z</time>
      </trkpt>
      <trkpt lat="45.93902" lon="4.77235">
        <ele>167</ele>
        <time>2017-08-03T13:47:07Z</time>
      </trkpt>
      <trkpt lat="45.93909" lon="4.77236">
        <ele>167</ele>
        <time>2017-08-03T13:47:09Z</time>
      </trkpt>
      <trkpt lat="45.93912" lon="4.77237">
        <ele>167</ele>
        <time>2017-08-03T13:47:10Z</time>
      </trkpt>
      <trkpt lat="45.93918" lon="4.77239">
        <ele>167</ele>
        <time>2017-08-03T13:47:12Z</time>
      </trkpt>
      <trkpt lat="45.93922" lon="4.7724">
        <ele>167</ele>
        <time>2017-08-03T13:47:13Z</time>
      </trkpt>
      <trkpt lat="45.93928" lon="4.77242">
        <ele>167</ele>
        <time>2017-08-03T13:47:15Z</time>
      </trkpt>
      <trkpt lat="45.93931" lon="4.77243">
        <ele>167</ele>
        <time>2017-08-03T13:47:16Z</time>
      </trkpt>
      <trkpt lat="45.93938" lon="4.77245">
        <ele>167</ele>
        <time>2017-08-03T13:47:18Z</time>
      </trkpt>
      <trkpt lat="45.93941" lon="4.77245">
        <ele>168</ele>
        <time>2017-08-03T13:47:19Z</time>
      </trkpt>
      <trkpt lat="45.93948" lon="4.77246">
        <ele>168</ele>
        <time>2017-08-03T13:47:21Z</time>
      </trkpt>
      <trkpt lat="45.93951" lon="4.77245">
        <ele>168</ele>
        <time>2017-08-03T13:47:22Z</time>
      </trkpt>
      <trkpt lat="45.93957" lon="4.77247">
        <ele>168</ele>
        <time>2017-08-03T13:47:24Z</time>
      </trkpt>
      <trkpt lat="45.93961" lon="4.77248">
        <ele>168</ele>
        <time>2017-08-03T13:47:25Z</time>
      </trkpt>
      <trkpt lat="45.9397" lon="4.77249">
        <ele>169</ele>
        <time>2017-08-03T13:47:27Z</time>
      </trkpt>
      <trkpt lat="45.93974" lon="4.7725">
        <ele>169</ele>
        <time>2017-08-03T13:47:28Z</time>
      </trkpt>
      <trkpt lat="45.93982" lon="4.77253">
        <ele>169</ele>
        <time>2017-08-03T13:47:30Z</time>
      </trkpt>
      <trkpt lat="45.93987" lon="4.77254">
        <ele>169</ele>
        <time>2017-08-03T13:47:31Z</time>
      </trkpt>
      <trkpt lat="45.93995" lon="4.77256">
        <ele>170</ele>
        <time>2017-08-03T13:47:33Z</time>
      </trkpt>
      <trkpt lat="45.94" lon="4.77257">
        <ele>170</ele>
        <time>2017-08-03T13:47:34Z</time>
      </trkpt>
      <trkpt lat="45.94008" lon="4.77258">
        <ele>173</ele>
        <time>2017-08-03T13:47:36Z</time>
      </trkpt>
      <trkpt lat="45.9401" lon="4.77259">
        <ele>173</ele>
        <time>2017-08-03T13:47:37Z</time>
      </trkpt>
      <trkpt lat="45.94015" lon="4.77252">
        <ele>173</ele>
        <time>2017-08-03T13:47:40Z</time>
      </trkpt>
      <trkpt lat="45.94016" lon="4.77248">
        <ele>173</ele>
        <time>2017-08-03T13:47:41Z</time>
      </trkpt>
      <trkpt lat="45.94019" lon="4.77236">
        <ele>173</ele>
        <time>2017-08-03T13:47:44Z</time>
      </trkpt>
      <trkpt lat="45.94019" lon="4.77233">
        <ele>174</ele>
        <time>2017-08-03T13:47:45Z</time>
      </trkpt>
      <trkpt lat="45.94018" lon="4.77221">
        <ele>174</ele>
        <time>2017-08-03T13:47:50Z</time>
      </trkpt>
      <trkpt lat="45.94018" lon="4.77218">
        <ele>174</ele>
        <time>2017-08-03T13:47:51Z</time>
      </trkpt>
      <trkpt lat="45.94014" lon="4.7721">
        <ele>174</ele>
        <time>2017-08-03T13:47:53Z</time>
      </trkpt>
      <trkpt lat="45.94011" lon="4.77208">
        <ele>174</ele>
        <time>2017-08-03T13:47:54Z</time>
      </trkpt>
      <trkpt lat="45.94008" lon="4.77218">
        <ele>174</ele>
        <time>2017-08-03T13:47:57Z</time>
      </trkpt>
      <trkpt lat="45.94008" lon="4.77223">
        <ele>173</ele>
        <time>2017-08-03T13:47:58Z</time>
      </trkpt>
      <trkpt lat="45.94002" lon="4.77214">
        <ele>174</ele>
        <time>2017-08-03T13:48:05Z</time>
      </trkpt>
      <trkpt lat="45.94002" lon="4.77208">
        <ele>174</ele>
        <time>2017-08-03T13:48:06Z</time>
      </trkpt>
      <trkpt lat="45.94003" lon="4.77196">
        <ele>174</ele>
        <time>2017-08-03T13:48:08Z</time>
      </trkpt>
      <trkpt lat="45.94003" lon="4.7719">
        <ele>174</ele>
        <time>2017-08-03T13:48:09Z</time>
      </trkpt>
      <trkpt lat="45.94003" lon="4.77178">
        <ele>173</ele>
        <time>2017-08-03T13:48:11Z</time>
      </trkpt>
      <trkpt lat="45.94004" lon="4.77173">
        <ele>173</ele>
        <time>2017-08-03T13:48:12Z</time>
      </trkpt>
      <trkpt lat="45.94005" lon="4.77163">
        <ele>173</ele>
        <time>2017-08-03T13:48:14Z</time>
      </trkpt>
      <trkpt lat="45.94006" lon="4.77157">
        <ele>173</ele>
        <time>2017-08-03T13:48:15Z</time>
      </trkpt>
      <trkpt lat="45.94007" lon="4.77144">
        <ele>174</ele>
        <time>2017-08-03T13:48:17Z</time>
      </trkpt>
      <trkpt lat="45.94007" lon="4.77138">
        <ele>174</ele>
        <time>2017-08-03T13:48:18Z</time>
      </trkpt>
      <trkpt lat="45.94008" lon="4.77126">
        <ele>174</ele>
        <time>2017-08-03T13:48:20Z</time>
      </trkpt>
      <trkpt lat="45.94009" lon="4.77121">
        <ele>174</ele>
        <time>2017-08-03T13:48:21Z</time>
      </trkpt>
      <trkpt lat="45.94011" lon="4.7711">
        <ele>174</ele>
        <time>2017-08-03T13:48:23Z</time>
      </trkpt>
      <trkpt lat="45.94011" lon="4.77104">
        <ele>174</ele>
        <time>2017-08-03T13:48:24Z</time>
      </trkpt>
      <trkpt lat="45.94011" lon="4.77091">
        <ele>173</ele>
        <time>2017-08-03T13:48:26Z</time>
      </trkpt>
      <trkpt lat="45.94011" lon="4.77085">
        <ele>173</ele>
        <time>2017-08-03T13:48:27Z</time>
      </trkpt>
      <trkpt lat="45.94008" lon="4.77076">
        <ele>173</ele>
        <time>2017-08-03T13:48:29Z</time>
      </trkpt>
      <trkpt lat="45.94006" lon="4.77074">
        <ele>173</ele>
        <time>2017-08-03T13:48:30Z</time>
      </trkpt>
      <trkpt lat="45.94" lon="4.77067">
        <ele>173</ele>
        <time>2017-08-03T13:48:32Z</time>
      </trkpt>
      <trkpt lat="45.93998" lon="4.77064">
        <ele>170</ele>
        <time>2017-08-03T13:48:33Z</time>
      </trkpt>
      <trkpt lat="45.93994" lon="4.77053">
        <ele>170</ele>
        <time>2017-08-03T13:48:36Z</time>
      </trkpt>
      <trkpt lat="45.93993" lon="4.7705">
        <ele>170</ele>
        <time>2017-08-03T13:48:37Z</time>
      </trkpt>
      <trkpt lat="45.9399" lon="4.7704">
        <ele>170</ele>
        <time>2017-08-03T13:48:39Z</time>
      </trkpt>
      <trkpt lat="45.93989" lon="4.77036">
        <ele>170</ele>
        <time>2017-08-03T13:48:40Z</time>
      </trkpt>
      <trkpt lat="45.93988" lon="4.77027">
        <ele>170</ele>
        <time>2017-08-03T13:48:42Z</time>
      </trkpt>
      <trkpt lat="45.93987" lon="4.77022">
        <ele>170</ele>
        <time>2017-08-03T13:48:43Z</time>
      </trkpt>
      <trkpt lat="45.93984" lon="4.7701">
        <ele>170</ele>
        <time>2017-08-03T13:48:47Z</time>
      </trkpt>
      <trkpt lat="45.93984" lon="4.77008">
        <ele>170</ele>
        <time>2017-08-03T13:48:48Z</time>
      </trkpt>
      <trkpt lat="45.93984" lon="4.77008">
        <ele>170</ele>
        <time>2017-08-03T13:48:49Z</time>
      </trkpt>
      <trkpt lat="45.93984" lon="4.77007">
        <ele>170</ele>
        <time>2017-08-03T13:49:12Z</time>
      </trkpt>
      <trkpt lat="45.93985" lon="4.77004">
        <ele>170</ele>
        <time>2017-08-03T13:49:13Z</time>
      </trkpt>
      <trkpt lat="45.9398" lon="4.76995">
        <ele>170</ele>
        <time>2017-08-03T14:02:41Z</time>
      </trkpt>
      <trkpt lat="45.93978" lon="4.76993">
        <ele>170</ele>
        <time>2017-08-03T14:02:42Z</time>
      </trkpt>
      <trkpt lat="45.93976" lon="4.76982">
        <ele>170</ele>
        <time>2017-08-03T14:02:45Z</time>
      </trkpt>
      <trkpt lat="45.93974" lon="4.76979">
        <ele>170</ele>
        <time>2017-08-03T14:02:46Z</time>
      </trkpt>
      <trkpt lat="45.93971" lon="4.76971">
        <ele>170</ele>
        <time>2017-08-03T14:02:48Z</time>
      </trkpt>
      <trkpt lat="45.93969" lon="4.76967">
        <ele>170</ele>
        <time>2017-08-03T14:02:49Z</time>
      </trkpt>
      <trkpt lat="45.93965" lon="4.76959">
        <ele>170</ele>
        <time>2017-08-03T14:02:51Z</time>
      </trkpt>
      <trkpt lat="45.93962" lon="4.76955">
        <ele>170</ele>
        <time>2017-08-03T14:02:52Z</time>
      </trkpt>
      <trkpt lat="45.93959" lon="4.76947">
        <ele>170</ele>
        <time>2017-08-03T14:02:54Z</time>
      </trkpt>
      <trkpt lat="45.93957" lon="4.76943">
        <ele>171</ele>
        <time>2017-08-03T14:02:55Z</time>
      </trkpt>
      <trkpt lat="45.93955" lon="4.76935">
        <ele>171</ele>
        <time>2017-08-03T14:02:57Z</time>
      </trkpt>
      <trkpt lat="45.93953" lon="4.76931">
        <ele>171</ele>
        <time>2017-08-03T14:02:58Z</time>
      </trkpt>
      <trkpt lat="45.93951" lon="4.76923">
        <ele>171</ele>
        <time>2017-08-03T14:03:00Z</time>
      </trkpt>
      <trkpt lat="45.9395" lon="4.76919">
        <ele>171</ele>
        <time>2017-08-03T14:03:01Z</time>
      </trkpt>
      <trkpt lat="45.93947" lon="4.7691">
        <ele>172</ele>
        <time>2017-08-03T14:03:03Z</time>
      </trkpt>
      <trkpt lat="45.93945" lon="4.76905">
        <ele>172</ele>
        <time>2017-08-03T14:03:04Z</time>
      </trkpt>
      <trkpt lat="45.93942" lon="4.76893">
        <ele>172</ele>
        <time>2017-08-03T14:03:06Z</time>
      </trkpt>
      <trkpt lat="45.93941" lon="4.76888">
        <ele>172</ele>
        <time>2017-08-03T14:03:07Z</time>
      </trkpt>
      <trkpt lat="45.93937" lon="4.76878">
        <ele>172</ele>
        <time>2017-08-03T14:03:09Z</time>
      </trkpt>
      <trkpt lat="45.93935" lon="4.76874">
        <ele>172</ele>
        <time>2017-08-03T14:03:10Z</time>
      </trkpt>
      <trkpt lat="45.93932" lon="4.76867">
        <ele>172</ele>
        <time>2017-08-03T14:03:12Z</time>
      </trkpt>
      <trkpt lat="45.9393" lon="4.76863">
        <ele>172</ele>
        <time>2017-08-03T14:03:13Z</time>
      </trkpt>
      <trkpt lat="45.93926" lon="4.76853">
        <ele>172</ele>
        <time>2017-08-03T14:03:15Z</time>
      </trkpt>
      <trkpt lat="45.93925" lon="4.76848">
        <ele>172</ele>
        <time>2017-08-03T14:03:16Z</time>
      </trkpt>
      <trkpt lat="45.9392" lon="4.76837">
        <ele>173</ele>
        <time>2017-08-03T14:03:18Z</time>
      </trkpt>
      <trkpt lat="45.93917" lon="4.76833">
        <ele>173</ele>
        <time>2017-08-03T14:03:19Z</time>
      </trkpt>
      <trkpt lat="45.93913" lon="4.76824">
        <ele>172</ele>
        <time>2017-08-03T14:03:21Z</time>
      </trkpt>
      <trkpt lat="45.9391" lon="4.76821">
        <ele>172</ele>
        <time>2017-08-03T14:03:22Z</time>
      </trkpt>
      <trkpt lat="45.93906" lon="4.76813">
        <ele>172</ele>
        <time>2017-08-03T14:03:24Z</time>
      </trkpt>
      <trkpt lat="45.93903" lon="4.76809">
        <ele>172</ele>
        <time>2017-08-03T14:03:25Z</time>
      </trkpt>
      <trkpt lat="45.93897" lon="4.76801">
        <ele>171</ele>
        <time>2017-08-03T14:03:27Z</time>
      </trkpt>
      <trkpt lat="45.93894" lon="4.76797">
        <ele>171</ele>
        <time>2017-08-03T14:03:28Z</time>
      </trkpt>
      <trkpt lat="45.93889" lon="4.7679">
        <ele>171</ele>
        <time>2017-08-03T14:03:30Z</time>
      </trkpt>
      <trkpt lat="45.93887" lon="4.76786">
        <ele>171</ele>
        <time>2017-08-03T14:03:31Z</time>
      </trkpt>
      <trkpt lat="45.93881" lon="4.76777">
        <ele>171</ele>
        <time>2017-08-03T14:03:33Z</time>
      </trkpt>
      <trkpt lat="45.93879" lon="4.76773">
        <ele>171</ele>
        <time>2017-08-03T14:03:34Z</time>
      </trkpt>
      <trkpt lat="45.93874" lon="4.76766">
        <ele>171</ele>
        <time>2017-08-03T14:03:36Z</time>
      </trkpt>
      <trkpt lat="45.93872" lon="4.76762">
        <ele>171</ele>
        <time>2017-08-03T14:03:37Z</time>
      </trkpt>
      <trkpt lat="45.93868" lon="4.76755">
        <ele>172</ele>
        <time>2017-08-03T14:03:39Z</time>
      </trkpt>
      <trkpt lat="45.93865" lon="4.76752">
        <ele>172</ele>
        <time>2017-08-03T14:03:40Z</time>
      </trkpt>
      <trkpt lat="45.93861" lon="4.76745">
        <ele>172</ele>
        <time>2017-08-03T14:03:42Z</time>
      </trkpt>
      <trkpt lat="45.93858" lon="4.7674">
        <ele>172</ele>
        <time>2017-08-03T14:03:43Z</time>
      </trkpt>
      <trkpt lat="45.93853" lon="4.7673">
        <ele>172</ele>
        <time>2017-08-03T14:03:45Z</time>
      </trkpt>
      <trkpt lat="45.9385" lon="4.76726">
        <ele>172</ele>
        <time>2017-08-03T14:03:46Z</time>
      </trkpt>
      <trkpt lat="45.93845" lon="4.7672">
        <ele>172</ele>
        <time>2017-08-03T14:03:48Z</time>
      </trkpt>
      <trkpt lat="45.93842" lon="4.76716">
        <ele>172</ele>
        <time>2017-08-03T14:03:49Z</time>
      </trkpt>
      <trkpt lat="45.93837" lon="4.76707">
        <ele>172</ele>
        <time>2017-08-03T14:03:51Z</time>
      </trkpt>
      <trkpt lat="45.93834" lon="4.76703">
        <ele>172</ele>
        <time>2017-08-03T14:03:52Z</time>
      </trkpt>
      <trkpt lat="45.9383" lon="4.76695">
        <ele>170</ele>
        <time>2017-08-03T14:03:54Z</time>
      </trkpt>
      <trkpt lat="45.93827" lon="4.76692">
        <ele>170</ele>
        <time>2017-08-03T14:03:55Z</time>
      </trkpt>
      <trkpt lat="45.93822" lon="4.76684">
        <ele>170</ele>
        <time>2017-08-03T14:03:57Z</time>
      </trkpt>
      <trkpt lat="45.9382" lon="4.7668">
        <ele>170</ele>
        <time>2017-08-03T14:03:58Z</time>
      </trkpt>
      <trkpt lat="45.93816" lon="4.76673">
        <ele>170</ele>
        <time>2017-08-03T14:04:00Z</time>
      </trkpt>
      <trkpt lat="45.93814" lon="4.76668">
        <ele>170</ele>
        <time>2017-08-03T14:04:01Z</time>
      </trkpt>
      <trkpt lat="45.93809" lon="4.76659">
        <ele>170</ele>
        <time>2017-08-03T14:04:03Z</time>
      </trkpt>
      <trkpt lat="45.93806" lon="4.76654">
        <ele>170</ele>
        <time>2017-08-03T14:04:04Z</time>
      </trkpt>
      <trkpt lat="45.93803" lon="4.76645">
        <ele>169</ele>
        <time>2017-08-03T14:04:06Z</time>
      </trkpt>
      <trkpt lat="45.93801" lon="4.7664">
        <ele>169</ele>
        <time>2017-08-03T14:04:07Z</time>
      </trkpt>
      <trkpt lat="45.93797" lon="4.7663">
        <ele>169</ele>
        <time>2017-08-03T14:04:09Z</time>
      </trkpt>
      <trkpt lat="45.93795" lon="4.76624">
        <ele>169</ele>
        <time>2017-08-03T14:04:10Z</time>
      </trkpt>
      <trkpt lat="45.93792" lon="4.76614">
        <ele>169</ele>
        <time>2017-08-03T14:04:12Z</time>
      </trkpt>
      <trkpt lat="45.9379" lon="4.76609">
        <ele>169</ele>
        <time>2017-08-03T14:04:13Z</time>
      </trkpt>
      <trkpt lat="45.93787" lon="4.76599">
        <ele>169</ele>
        <time>2017-08-03T14:04:15Z</time>
      </trkpt>
      <trkpt lat="45.93786" lon="4.76593">
        <ele>169</ele>
        <time>2017-08-03T14:04:16Z</time>
      </trkpt>
      <trkpt lat="45.93785" lon="4.76587">
        <ele>169</ele>
        <time>2017-08-03T14:04:17Z</time>
      </trkpt>
      <trkpt lat="45.93783" lon="4.76581">
        <ele>170</ele>
        <time>2017-08-03T14:04:18Z</time>
      </trkpt>
      <trkpt lat="45.9378" lon="4.76575">
        <ele>170</ele>
        <time>2017-08-03T14:04:19Z</time>
      </trkpt>
      <trkpt lat="45.93778" lon="4.76569">
        <ele>170</ele>
        <time>2017-08-03T14:04:20Z</time>
      </trkpt>
      <trkpt lat="45.93774" lon="4.76559">
        <ele>170</ele>
        <time>2017-08-03T14:04:22Z</time>
      </trkpt>
      <trkpt lat="45.93773" lon="4.76554">
        <ele>170</ele>
        <time>2017-08-03T14:04:23Z</time>
      </trkpt>
      <trkpt lat="45.93769" lon="4.76545">
        <ele>170</ele>
        <time>2017-08-03T14:04:25Z</time>
      </trkpt>
      <trkpt lat="45.93768" lon="4.76541">
        <ele>170</ele>
        <time>2017-08-03T14:04:26Z</time>
      </trkpt>
      <trkpt lat="45.93764" lon="4.76532">
        <ele>170</ele>
        <time>2017-08-03T14:04:28Z</time>
      </trkpt>
      <trkpt lat="45.93762" lon="4.76527">
        <ele>170</ele>
        <time>2017-08-03T14:04:29Z</time>
      </trkpt>
      <trkpt lat="45.93758" lon="4.76516">
        <ele>170</ele>
        <time>2017-08-03T14:04:31Z</time>
      </trkpt>
      <trkpt lat="45.93756" lon="4.76511">
        <ele>170</ele>
        <time>2017-08-03T14:04:32Z</time>
      </trkpt>
      <trkpt lat="45.93753" lon="4.76502">
        <ele>170</ele>
        <time>2017-08-03T14:04:34Z</time>
      </trkpt>
      <trkpt lat="45.93751" lon="4.76498">
        <ele>170</ele>
        <time>2017-08-03T14:04:35Z</time>
      </trkpt>
      <trkpt lat="45.93748" lon="4.76487">
        <ele>169</ele>
        <time>2017-08-03T14:04:37Z</time>
      </trkpt>
      <trkpt lat="45.93746" lon="4.76482">
        <ele>169</ele>
        <time>2017-08-03T14:04:38Z</time>
      </trkpt>
      <trkpt lat="45.93742" lon="4.76472">
        <ele>169</ele>
        <time>2017-08-03T14:04:40Z</time>
      </trkpt>
      <trkpt lat="45.93742" lon="4.76467">
        <ele>169</ele>
        <time>2017-08-03T14:04:41Z</time>
      </trkpt>
      <trkpt lat="45.93739" lon="4.76457">
        <ele>169</ele>
        <time>2017-08-03T14:04:43Z</time>
      </trkpt>
      <trkpt lat="45.93737" lon="4.76452">
        <ele>169</ele>
        <time>2017-08-03T14:04:44Z</time>
      </trkpt>
      <trkpt lat="45.93734" lon="4.76441">
        <ele>169</ele>
        <time>2017-08-03T14:04:46Z</time>
      </trkpt>
      <trkpt lat="45.93731" lon="4.76435">
        <ele>169</ele>
        <time>2017-08-03T14:04:47Z</time>
      </trkpt>
      <trkpt lat="45.93727" lon="4.76425">
        <ele>169</ele>
        <time>2017-08-03T14:04:49Z</time>
      </trkpt>
      <trkpt lat="45.93725" lon="4.76419">
        <ele>169</ele>
        <time>2017-08-03T14:04:50Z</time>
      </trkpt>
      <trkpt lat="45.9372" lon="4.76409">
        <ele>169</ele>
        <time>2017-08-03T14:04:52Z</time>
      </trkpt>
      <trkpt lat="45.93718" lon="4.76404">
        <ele>169</ele>
        <time>2017-08-03T14:04:53Z</time>
      </trkpt>
      <trkpt lat="45.93714" lon="4.76395">
        <ele>169</ele>
        <time>2017-08-03T14:04:55Z</time>
      </trkpt>
      <trkpt lat="45.93712" lon="4.7639">
        <ele>169</ele>
        <time>2017-08-03T14:04:56Z</time>
      </trkpt>
      <trkpt lat="45.93709" lon="4.76384">
        <ele>169</ele>
        <time>2017-08-03T14:04:57Z</time>
      </trkpt>
      <trkpt lat="45.93707" lon="4.76378">
        <ele>169</ele>
        <time>2017-08-03T14:04:58Z</time>
      </trkpt>
      <trkpt lat="45.93703" lon="4.76368">
        <ele>169</ele>
        <time>2017-08-03T14:05:00Z</time>
      </trkpt>
      <trkpt lat="45.93701" lon="4.76363">
        <ele>169</ele>
        <time>2017-08-03T14:05:01Z</time>
      </trkpt>
      <trkpt lat="45.93697" lon="4.76354">
        <ele>169</ele>
        <time>2017-08-03T14:05:03Z</time>
      </trkpt>
      <trkpt lat="45.93695" lon="4.76349">
        <ele>169</ele>
        <time>2017-08-03T14:05:04Z</time>
      </trkpt>
      <trkpt lat="45.93691" lon="4.76339">
        <ele>169</ele>
        <time>2017-08-03T14:05:06Z</time>
      </trkpt>
      <trkpt lat="45.9369" lon="4.76333">
        <ele>170</ele>
        <time>2017-08-03T14:05:07Z</time>
      </trkpt>
      <trkpt lat="45.93686" lon="4.76323">
        <ele>170</ele>
        <time>2017-08-03T14:05:09Z</time>
      </trkpt>
      <trkpt lat="45.93684" lon="4.76318">
        <ele>170</ele>
        <time>2017-08-03T14:05:10Z</time>
      </trkpt>
      <trkpt lat="45.93682" lon="4.76312">
        <ele>170</ele>
        <time>2017-08-03T14:05:11Z</time>
      </trkpt>
      <trkpt lat="45.9368" lon="4.76306">
        <ele>170</ele>
        <time>2017-08-03T14:05:12Z</time>
      </trkpt>
      <trkpt lat="45.93676" lon="4.76296">
        <ele>170</ele>
        <time>2017-08-03T14:05:14Z</time>
      </trkpt>
      <trkpt lat="45.93674" lon="4.76291">
        <ele>170</ele>
        <time>2017-08-03T14:05:15Z</time>
      </trkpt>
      <trkpt lat="45.9367" lon="4.76283">
        <ele>170</ele>
        <time>2017-08-03T14:05:17Z</time>
      </trkpt>
      <trkpt lat="45.93668" lon="4.76278">
        <ele>170</ele>
        <time>2017-08-03T14:05:18Z</time>
      </trkpt>
      <trkpt lat="45.93665" lon="4.76268">
        <ele>169</ele>
        <time>2017-08-03T14:05:20Z</time>
      </trkpt>
      <trkpt lat="45.93663" lon="4.76263">
        <ele>169</ele>
        <time>2017-08-03T14:05:21Z</time>
      </trkpt>
      <trkpt lat="45.93661" lon="4.76256">
        <ele>169</ele>
        <time>2017-08-03T14:05:22Z</time>
      </trkpt>
      <trkpt lat="45.9366" lon="4.7625">
        <ele>170</ele>
        <time>2017-08-03T14:05:23Z</time>
      </trkpt>
      <trkpt lat="45.93658" lon="4.7624">
        <ele>169</ele>
        <time>2017-08-03T14:05:25Z</time>
      </trkpt>
      <trkpt lat="45.93656" lon="4.76234">
        <ele>169</ele>
        <time>2017-08-03T14:05:26Z</time>
      </trkpt>
      <trkpt lat="45.93653" lon="4.76223">
        <ele>169</ele>
        <time>2017-08-03T14:05:28Z</time>
      </trkpt>
      <trkpt lat="45.93651" lon="4.76217">
        <ele>169</ele>
        <time>2017-08-03T14:05:29Z</time>
      </trkpt>
      <trkpt lat="45.93649" lon="4.76211">
        <ele>169</ele>
        <time>2017-08-03T14:05:30Z</time>
      </trkpt>
      <trkpt lat="45.93647" lon="4.76204">
        <ele>169</ele>
        <time>2017-08-03T14:05:31Z</time>
      </trkpt>
      <trkpt lat="45.93646" lon="4.76198">
        <ele>169</ele>
        <time>2017-08-03T14:05:32Z</time>
      </trkpt>
      <trkpt lat="45.93644" lon="4.76191">
        <ele>169</ele>
        <time>2017-08-03T14:05:33Z</time>
      </trkpt>
      <trkpt lat="45.9364" lon="4.76181">
        <ele>169</ele>
        <time>2017-08-03T14:05:35Z</time>
      </trkpt>
      <trkpt lat="45.93638" lon="4.76176">
        <ele>169</ele>
        <time>2017-08-03T14:05:36Z</time>
      </trkpt>
      <trkpt lat="45.93635" lon="4.76166">
        <ele>170</ele>
        <time>2017-08-03T14:05:38Z</time>
      </trkpt>
      <trkpt lat="45.93633" lon="4.76161">
        <ele>170</ele>
        <time>2017-08-03T14:05:39Z</time>
      </trkpt>
      <trkpt lat="45.9363" lon="4.76152">
        <ele>170</ele>
        <time>2017-08-03T14:05:41Z</time>
      </trkpt>
      <trkpt lat="45.93629" lon="4.76147">
        <ele>170</ele>
        <time>2017-08-03T14:05:42Z</time>
      </trkpt>
      <trkpt lat="45.93626" lon="4.76137">
        <ele>169</ele>
        <time>2017-08-03T14:05:44Z</time>
      </trkpt>
      <trkpt lat="45.93624" lon="4.76131">
        <ele>169</ele>
        <time>2017-08-03T14:05:45Z</time>
      </trkpt>
      <trkpt lat="45.93622" lon="4.76123">
        <ele>169</ele>
        <time>2017-08-03T14:05:47Z</time>
      </trkpt>
      <trkpt lat="45.93621" lon="4.76117">
        <ele>169</ele>
        <time>2017-08-03T14:05:48Z</time>
      </trkpt>
      <trkpt lat="45.93618" lon="4.76107">
        <ele>170</ele>
        <time>2017-08-03T14:05:50Z</time>
      </trkpt>
      <trkpt lat="45.93616" lon="4.761">
        <ele>170</ele>
        <time>2017-08-03T14:05:51Z</time>
      </trkpt>
      <trkpt lat="45.93614" lon="4.76094">
        <ele>170</ele>
        <time>2017-08-03T14:05:52Z</time>
      </trkpt>
      <trkpt lat="45.93613" lon="4.76083">
        <ele>170</ele>
        <time>2017-08-03T14:05:53Z</time>
      </trkpt>
      <trkpt lat="45.93612" lon="4.76077">
        <ele>170</ele>
        <time>2017-08-03T14:05:54Z</time>
      </trkpt>
      <trkpt lat="45.9361" lon="4.76071">
        <ele>170</ele>
        <time>2017-08-03T14:05:55Z</time>
      </trkpt>
      <trkpt lat="45.93606" lon="4.76063">
        <ele>170</ele>
        <time>2017-08-03T14:05:57Z</time>
      </trkpt>
      <trkpt lat="45.93604" lon="4.76059">
        <ele>170</ele>
        <time>2017-08-03T14:05:58Z</time>
      </trkpt>
      <trkpt lat="45.93599" lon="4.76049">
        <ele>170</ele>
        <time>2017-08-03T14:06:00Z</time>
      </trkpt>
      <trkpt lat="45.93598" lon="4.76044">
        <ele>170</ele>
        <time>2017-08-03T14:06:01Z</time>
      </trkpt>
      <trkpt lat="45.93594" lon="4.76034">
        <ele>170</ele>
        <time>2017-08-03T14:06:03Z</time>
      </trkpt>
      <trkpt lat="45.93592" lon="4.76028">
        <ele>170</ele>
        <time>2017-08-03T14:06:04Z</time>
      </trkpt>
      <trkpt lat="45.93587" lon="4.76017">
        <ele>171</ele>
        <time>2017-08-03T14:06:06Z</time>
      </trkpt>
      <trkpt lat="45.93585" lon="4.76012">
        <ele>171</ele>
        <time>2017-08-03T14:06:07Z</time>
      </trkpt>
      <trkpt lat="45.93582" lon="4.76002">
        <ele>172</ele>
        <time>2017-08-03T14:06:09Z</time>
      </trkpt>
      <trkpt lat="45.93581" lon="4.75999">
        <ele>172</ele>
        <time>2017-08-03T14:06:10Z</time>
      </trkpt>
      <trkpt lat="45.93577" lon="4.75988">
        <ele>171</ele>
        <time>2017-08-03T14:06:12Z</time>
      </trkpt>
      <trkpt lat="45.93575" lon="4.75982">
        <ele>170</ele>
        <time>2017-08-03T14:06:13Z</time>
      </trkpt>
      <trkpt lat="45.93572" lon="4.7597">
        <ele>170</ele>
        <time>2017-08-03T14:06:15Z</time>
      </trkpt>
      <trkpt lat="45.9357" lon="4.75964">
        <ele>169</ele>
        <time>2017-08-03T14:06:16Z</time>
      </trkpt>
      <trkpt lat="45.93567" lon="4.75954">
        <ele>169</ele>
        <time>2017-08-03T14:06:18Z</time>
      </trkpt>
      <trkpt lat="45.93565" lon="4.7595">
        <ele>169</ele>
        <time>2017-08-03T14:06:19Z</time>
      </trkpt>
      <trkpt lat="45.93562" lon="4.7594">
        <ele>169</ele>
        <time>2017-08-03T14:06:21Z</time>
      </trkpt>
      <trkpt lat="45.9356" lon="4.75935">
        <ele>169</ele>
        <time>2017-08-03T14:06:22Z</time>
      </trkpt>
      <trkpt lat="45.93558" lon="4.75929">
        <ele>169</ele>
        <time>2017-08-03T14:06:23Z</time>
      </trkpt>
      <trkpt lat="45.93555" lon="4.75923">
        <ele>169</ele>
        <time>2017-08-03T14:06:24Z</time>
      </trkpt>
      <trkpt lat="45.93553" lon="4.75917">
        <ele>169</ele>
        <time>2017-08-03T14:06:25Z</time>
      </trkpt>
      <trkpt lat="45.93551" lon="4.75911">
        <ele>169</ele>
        <time>2017-08-03T14:06:26Z</time>
      </trkpt>
      <trkpt lat="45.93547" lon="4.75901">
        <ele>169</ele>
        <time>2017-08-03T14:06:28Z</time>
      </trkpt>
      <trkpt lat="45.93546" lon="4.75897">
        <ele>169</ele>
        <time>2017-08-03T14:06:29Z</time>
      </trkpt>
      <trkpt lat="45.93544" lon="4.75888">
        <ele>169</ele>
        <time>2017-08-03T14:06:31Z</time>
      </trkpt>
      <trkpt lat="45.93542" lon="4.75883">
        <ele>169</ele>
        <time>2017-08-03T14:06:32Z</time>
      </trkpt>
      <trkpt lat="45.9354" lon="4.75872">
        <ele>169</ele>
        <time>2017-08-03T14:06:34Z</time>
      </trkpt>
      <trkpt lat="45.93539" lon="4.75867">
        <ele>169</ele>
        <time>2017-08-03T14:06:35Z</time>
      </trkpt>
      <trkpt lat="45.93537" lon="4.75854">
        <ele>169</ele>
        <time>2017-08-03T14:06:37Z</time>
      </trkpt>
      <trkpt lat="45.93536" lon="4.75847">
        <ele>169</ele>
        <time>2017-08-03T14:06:38Z</time>
      </trkpt>
      <trkpt lat="45.93535" lon="4.75839">
        <ele>169</ele>
        <time>2017-08-03T14:06:39Z</time>
      </trkpt>
      <trkpt lat="45.93534" lon="4.75832">
        <ele>169</ele>
        <time>2017-08-03T14:06:40Z</time>
      </trkpt>
      <trkpt lat="45.93534" lon="4.75821">
        <ele>169</ele>
        <time>2017-08-03T14:06:42Z</time>
      </trkpt>
      <trkpt lat="45.93534" lon="4.75816">
        <ele>169</ele>
        <time>2017-08-03T14:06:43Z</time>
      </trkpt>
      <trkpt lat="45.93533" lon="4.75805">
        <ele>169</ele>
        <time>2017-08-03T14:06:45Z</time>
      </trkpt>
      <trkpt lat="45.93533" lon="4.758">
        <ele>169</ele>
        <time>2017-08-03T14:06:46Z</time>
      </trkpt>
      <trkpt lat="45.93534" lon="4.75787">
        <ele>169</ele>
        <time>2017-08-03T14:06:48Z</time>
      </trkpt>
      <trkpt lat="45.93535" lon="4.7578">
        <ele>169</ele>
        <time>2017-08-03T14:06:49Z</time>
      </trkpt>
      <trkpt lat="45.93537" lon="4.75773">
        <ele>170</ele>
        <time>2017-08-03T14:06:50Z</time>
      </trkpt>
      <trkpt lat="45.93538" lon="4.75765">
        <ele>170</ele>
        <time>2017-08-03T14:06:51Z</time>
      </trkpt>
      <trkpt lat="45.93537" lon="4.75757">
        <ele>170</ele>
        <time>2017-08-03T14:06:52Z</time>
      </trkpt>
      <trkpt lat="45.93538" lon="4.7575">
        <ele>170</ele>
        <time>2017-08-03T14:06:53Z</time>
      </trkpt>
      <trkpt lat="45.93539" lon="4.75744">
        <ele>170</ele>
        <time>2017-08-03T14:06:54Z</time>
      </trkpt>
      <trkpt lat="45.9354" lon="4.75734">
        <ele>170</ele>
        <time>2017-08-03T14:06:55Z</time>
      </trkpt>
      <trkpt lat="45.93542" lon="4.75726">
        <ele>170</ele>
        <time>2017-08-03T14:06:56Z</time>
      </trkpt>
      <trkpt lat="45.93543" lon="4.7572">
        <ele>170</ele>
        <time>2017-08-03T14:06:57Z</time>
      </trkpt>
      <trkpt lat="45.93544" lon="4.75707">
        <ele>170</ele>
        <time>2017-08-03T14:06:59Z</time>
      </trkpt>
      <trkpt lat="45.93545" lon="4.75701">
        <ele>170</ele>
        <time>2017-08-03T14:07:00Z</time>
      </trkpt>
      <trkpt lat="45.93545" lon="4.75695">
        <ele>170</ele>
        <time>2017-08-03T14:07:01Z</time>
      </trkpt>
      <trkpt lat="45.93546" lon="4.75688">
        <ele>170</ele>
        <time>2017-08-03T14:07:02Z</time>
      </trkpt>
      <trkpt lat="45.93548" lon="4.75676">
        <ele>170</ele>
        <time>2017-08-03T14:07:04Z</time>
      </trkpt>
      <trkpt lat="45.93549" lon="4.75671">
        <ele>171</ele>
        <time>2017-08-03T14:07:05Z</time>
      </trkpt>
      <trkpt lat="45.93551" lon="4.7566">
        <ele>170</ele>
        <time>2017-08-03T14:07:07Z</time>
      </trkpt>
      <trkpt lat="45.93552" lon="4.75653">
        <ele>170</ele>
        <time>2017-08-03T14:07:08Z</time>
      </trkpt>
      <trkpt lat="45.93552" lon="4.75646">
        <ele>170</ele>
        <time>2017-08-03T14:07:09Z</time>
      </trkpt>
      <trkpt lat="45.93553" lon="4.7564">
        <ele>170</ele>
        <time>2017-08-03T14:07:10Z</time>
      </trkpt>
      <trkpt lat="45.93555" lon="4.75629">
        <ele>170</ele>
        <time>2017-08-03T14:07:12Z</time>
      </trkpt>
      <trkpt lat="45.93556" lon="4.75624">
        <ele>170</ele>
        <time>2017-08-03T14:07:13Z</time>
      </trkpt>
      <trkpt lat="45.93557" lon="4.75614">
        <ele>170</ele>
        <time>2017-08-03T14:07:15Z</time>
      </trkpt>
      <trkpt lat="45.93558" lon="4.7561">
        <ele>170</ele>
        <time>2017-08-03T14:07:16Z</time>
      </trkpt>
      <trkpt lat="45.9356" lon="4.756">
        <ele>170</ele>
        <time>2017-08-03T14:07:18Z</time>
      </trkpt>
      <trkpt lat="45.93561" lon="4.75595">
        <ele>170</ele>
        <time>2017-08-03T14:07:19Z</time>
      </trkpt>
      <trkpt lat="45.93563" lon="4.75583">
        <ele>170</ele>
        <time>2017-08-03T14:07:21Z</time>
      </trkpt>
      <trkpt lat="45.93564" lon="4.75577">
        <ele>170</ele>
        <time>2017-08-03T14:07:22Z</time>
      </trkpt>
      <trkpt lat="45.93565" lon="4.7557">
        <ele>170</ele>
        <time>2017-08-03T14:07:23Z</time>
      </trkpt>
      <trkpt lat="45.93566" lon="4.75564">
        <ele>170</ele>
        <time>2017-08-03T14:07:24Z</time>
      </trkpt>
      <trkpt lat="45.93567" lon="4.75551">
        <ele>169</ele>
        <time>2017-08-03T14:07:26Z</time>
      </trkpt>
      <trkpt lat="45.93568" lon="4.75546">
        <ele>169</ele>
        <time>2017-08-03T14:07:27Z</time>
      </trkpt>
      <trkpt lat="45.9357" lon="4.75536">
        <ele>169</ele>
        <time>2017-08-03T14:07:29Z</time>
      </trkpt>
      <trkpt lat="45.93571" lon="4.75531">
        <ele>169</ele>
        <time>2017-08-03T14:07:30Z</time>
      </trkpt>
      <trkpt lat="45.93573" lon="4.75519">
        <ele>169</ele>
        <time>2017-08-03T14:07:32Z</time>
      </trkpt>
      <trkpt lat="45.93573" lon="4.75512">
        <ele>169</ele>
        <time>2017-08-03T14:07:33Z</time>
      </trkpt>
      <trkpt lat="45.93574" lon="4.75505">
        <ele>170</ele>
        <time>2017-08-03T14:07:34Z</time>
      </trkpt>
      <trkpt lat="45.93575" lon="4.75498">
        <ele>169</ele>
        <time>2017-08-03T14:07:35Z</time>
      </trkpt>
      <trkpt lat="45.93576" lon="4.75491">
        <ele>169</ele>
        <time>2017-08-03T14:07:36Z</time>
      </trkpt>
      <trkpt lat="45.93576" lon="4.75485">
        <ele>169</ele>
        <time>2017-08-03T14:07:37Z</time>
      </trkpt>
      <trkpt lat="45.93576" lon="4.75472">
        <ele>168</ele>
        <time>2017-08-03T14:07:39Z</time>
      </trkpt>
      <trkpt lat="45.93578" lon="4.75467">
        <ele>168</ele>
        <time>2017-08-03T14:07:40Z</time>
      </trkpt>
      <trkpt lat="45.9358" lon="4.75455">
        <ele>168</ele>
        <time>2017-08-03T14:07:42Z</time>
      </trkpt>
      <trkpt lat="45.93582" lon="4.75449">
        <ele>168</ele>
        <time>2017-08-03T14:07:43Z</time>
      </trkpt>
      <trkpt lat="45.93583" lon="4.75442">
        <ele>168</ele>
        <time>2017-08-03T14:07:44Z</time>
      </trkpt>
      <trkpt lat="45.93584" lon="4.75436">
        <ele>169</ele>
        <time>2017-08-03T14:07:45Z</time>
      </trkpt>
      <trkpt lat="45.93584" lon="4.75424">
        <ele>168</ele>
        <time>2017-08-03T14:07:47Z</time>
      </trkpt>
      <trkpt lat="45.93585" lon="4.75418">
        <ele>168</ele>
        <time>2017-08-03T14:07:48Z</time>
      </trkpt>
      <trkpt lat="45.93586" lon="4.75408">
        <ele>168</ele>
        <time>2017-08-03T14:07:50Z</time>
      </trkpt>
      <trkpt lat="45.93587" lon="4.75403">
        <ele>168</ele>
        <time>2017-08-03T14:07:51Z</time>
      </trkpt>
      <trkpt lat="45.93587" lon="4.75394">
        <ele>169</ele>
        <time>2017-08-03T14:07:53Z</time>
      </trkpt>
      <trkpt lat="45.93589" lon="4.75389">
        <ele>169</ele>
        <time>2017-08-03T14:07:54Z</time>
      </trkpt>
      <trkpt lat="45.93591" lon="4.75379">
        <ele>169</ele>
        <time>2017-08-03T14:07:56Z</time>
      </trkpt>
      <trkpt lat="45.93592" lon="4.75375">
        <ele>169</ele>
        <time>2017-08-03T14:07:57Z</time>
      </trkpt>
      <trkpt lat="45.93594" lon="4.75365">
        <ele>169</ele>
        <time>2017-08-03T14:07:59Z</time>
      </trkpt>
      <trkpt lat="45.93596" lon="4.7536">
        <ele>169</ele>
        <time>2017-08-03T14:08:00Z</time>
      </trkpt>
      <trkpt lat="45.936" lon="4.75348">
        <ele>169</ele>
        <time>2017-08-03T14:08:02Z</time>
      </trkpt>
      <trkpt lat="45.93602" lon="4.75343">
        <ele>169</ele>
        <time>2017-08-03T14:08:03Z</time>
      </trkpt>
      <trkpt lat="45.93602" lon="4.75336">
        <ele>169</ele>
        <time>2017-08-03T14:08:04Z</time>
      </trkpt>
      <trkpt lat="45.93604" lon="4.7533">
        <ele>169</ele>
        <time>2017-08-03T14:08:05Z</time>
      </trkpt>
      <trkpt lat="45.93607" lon="4.75319">
        <ele>169</ele>
        <time>2017-08-03T14:08:07Z</time>
      </trkpt>
      <trkpt lat="45.93608" lon="4.75315">
        <ele>169</ele>
        <time>2017-08-03T14:08:08Z</time>
      </trkpt>
      <trkpt lat="45.9361" lon="4.75304">
        <ele>168</ele>
        <time>2017-08-03T14:08:10Z</time>
      </trkpt>
      <trkpt lat="45.93611" lon="4.75299">
        <ele>168</ele>
        <time>2017-08-03T14:08:11Z</time>
      </trkpt>
      <trkpt lat="45.93613" lon="4.7529">
        <ele>168</ele>
        <time>2017-08-03T14:08:13Z</time>
      </trkpt>
      <trkpt lat="45.93613" lon="4.75286">
        <ele>168</ele>
        <time>2017-08-03T14:08:14Z</time>
      </trkpt>
      <trkpt lat="45.93615" lon="4.75274">
        <ele>168</ele>
        <time>2017-08-03T14:08:16Z</time>
      </trkpt>
      <trkpt lat="45.93616" lon="4.75268">
        <ele>168</ele>
        <time>2017-08-03T14:08:17Z</time>
      </trkpt>
      <trkpt lat="45.93619" lon="4.75257">
        <ele>168</ele>
        <time>2017-08-03T14:08:19Z</time>
      </trkpt>
      <trkpt lat="45.93619" lon="4.75252">
        <ele>168</ele>
        <time>2017-08-03T14:08:20Z</time>
      </trkpt>
      <trkpt lat="45.93622" lon="4.75243">
        <ele>167</ele>
        <time>2017-08-03T14:08:22Z</time>
      </trkpt>
      <trkpt lat="45.93623" lon="4.75238">
        <ele>167</ele>
        <time>2017-08-03T14:08:23Z</time>
      </trkpt>
      <trkpt lat="45.93626" lon="4.75228">
        <ele>167</ele>
        <time>2017-08-03T14:08:25Z</time>
      </trkpt>
      <trkpt lat="45.93628" lon="4.75223">
        <ele>167</ele>
        <time>2017-08-03T14:08:26Z</time>
      </trkpt>
      <trkpt lat="45.93631" lon="4.75213">
        <ele>168</ele>
        <time>2017-08-03T14:08:28Z</time>
      </trkpt>
      <trkpt lat="45.93633" lon="4.75208">
        <ele>168</ele>
        <time>2017-08-03T14:08:29Z</time>
      </trkpt>
      <trkpt lat="45.93636" lon="4.75198">
        <ele>168</ele>
        <time>2017-08-03T14:08:31Z</time>
      </trkpt>
      <trkpt lat="45.93638" lon="4.75193">
        <ele>168</ele>
        <time>2017-08-03T14:08:32Z</time>
      </trkpt>
      <trkpt lat="45.9364" lon="4.75186">
        <ele>168</ele>
        <time>2017-08-03T14:08:33Z</time>
      </trkpt>
      <trkpt lat="45.93642" lon="4.75179">
        <ele>168</ele>
        <time>2017-08-03T14:08:34Z</time>
      </trkpt>
      <trkpt lat="45.93646" lon="4.7517">
        <ele>169</ele>
        <time>2017-08-03T14:08:36Z</time>
      </trkpt>
      <trkpt lat="45.93647" lon="4.75165">
        <ele>168</ele>
        <time>2017-08-03T14:08:37Z</time>
      </trkpt>
      <trkpt lat="45.93651" lon="4.75156">
        <ele>168</ele>
        <time>2017-08-03T14:08:39Z</time>
      </trkpt>
      <trkpt lat="45.93653" lon="4.75151">
        <ele>168</ele>
        <time>2017-08-03T14:08:40Z</time>
      </trkpt>
      <trkpt lat="45.93657" lon="4.75141">
        <ele>168</ele>
        <time>2017-08-03T14:08:42Z</time>
      </trkpt>
      <trkpt lat="45.9366" lon="4.75136">
        <ele>168</ele>
        <time>2017-08-03T14:08:43Z</time>
      </trkpt>
      <trkpt lat="45.93663" lon="4.7513">
        <ele>168</ele>
        <time>2017-08-03T14:08:44Z</time>
      </trkpt>
      <trkpt lat="45.93665" lon="4.75124">
        <ele>168</ele>
        <time>2017-08-03T14:08:45Z</time>
      </trkpt>
      <trkpt lat="45.93669" lon="4.75114">
        <ele>168</ele>
        <time>2017-08-03T14:08:47Z</time>
      </trkpt>
      <trkpt lat="45.93671" lon="4.75109">
        <ele>168</ele>
        <time>2017-08-03T14:08:48Z</time>
      </trkpt>
      <trkpt lat="45.93674" lon="4.751">
        <ele>168</ele>
        <time>2017-08-03T14:08:50Z</time>
      </trkpt>
      <trkpt lat="45.93677" lon="4.75095">
        <ele>168</ele>
        <time>2017-08-03T14:08:51Z</time>
      </trkpt>
      <trkpt lat="45.9368" lon="4.75089">
        <ele>168</ele>
        <time>2017-08-03T14:08:52Z</time>
      </trkpt>
      <trkpt lat="45.93683" lon="4.75084">
        <ele>168</ele>
        <time>2017-08-03T14:08:53Z</time>
      </trkpt>
      <trkpt lat="45.93686" lon="4.75078">
        <ele>167</ele>
        <time>2017-08-03T14:08:54Z</time>
      </trkpt>
      <trkpt lat="45.93689" lon="4.75072">
        <ele>167</ele>
        <time>2017-08-03T14:08:55Z</time>
      </trkpt>
      <trkpt lat="45.93694" lon="4.75061">
        <ele>167</ele>
        <time>2017-08-03T14:08:57Z</time>
      </trkpt>
      <trkpt lat="45.93696" lon="4.75056">
        <ele>167</ele>
        <time>2017-08-03T14:08:58Z</time>
      </trkpt>
      <trkpt lat="45.93701" lon="4.75051">
        <ele>167</ele>
        <time>2017-08-03T14:08:59Z</time>
      </trkpt>
      <trkpt lat="45.93704" lon="4.75046">
        <ele>167</ele>
        <time>2017-08-03T14:09:00Z</time>
      </trkpt>
      <trkpt lat="45.93707" lon="4.7504">
        <ele>167</ele>
        <time>2017-08-03T14:09:01Z</time>
      </trkpt>
      <trkpt lat="45.93709" lon="4.75035">
        <ele>167</ele>
        <time>2017-08-03T14:09:02Z</time>
      </trkpt>
      <trkpt lat="45.93713" lon="4.75024">
        <ele>167</ele>
        <time>2017-08-03T14:09:04Z</time>
      </trkpt>
      <trkpt lat="45.93716" lon="4.75018">
        <ele>167</ele>
        <time>2017-08-03T14:09:05Z</time>
      </trkpt>
      <trkpt lat="45.93718" lon="4.75007">
        <ele>168</ele>
        <time>2017-08-03T14:09:07Z</time>
      </trkpt>
      <trkpt lat="45.9372" lon="4.75003">
        <ele>168</ele>
        <time>2017-08-03T14:09:08Z</time>
      </trkpt>
      <trkpt lat="45.93723" lon="4.74996">
        <ele>168</ele>
        <time>2017-08-03T14:09:10Z</time>
      </trkpt>
      <trkpt lat="45.93724" lon="4.74992">
        <ele>168</ele>
        <time>2017-08-03T14:09:11Z</time>
      </trkpt>
      <trkpt lat="45.93727" lon="4.74983">
        <ele>168</ele>
        <time>2017-08-03T14:09:13Z</time>
      </trkpt>
      <trkpt lat="45.9373" lon="4.74978">
        <ele>168</ele>
        <time>2017-08-03T14:09:14Z</time>
      </trkpt>
      <trkpt lat="45.93734" lon="4.74968">
        <ele>168</ele>
        <time>2017-08-03T14:09:16Z</time>
      </trkpt>
      <trkpt lat="45.93735" lon="4.74964">
        <ele>169</ele>
        <time>2017-08-03T14:09:17Z</time>
      </trkpt>
      <trkpt lat="45.93739" lon="4.74956">
        <ele>169</ele>
        <time>2017-08-03T14:09:19Z</time>
      </trkpt>
      <trkpt lat="45.93741" lon="4.74951">
        <ele>169</ele>
        <time>2017-08-03T14:09:20Z</time>
      </trkpt>
      <trkpt lat="45.93745" lon="4.74942">
        <ele>169</ele>
        <time>2017-08-03T14:09:22Z</time>
      </trkpt>
      <trkpt lat="45.93747" lon="4.74937">
        <ele>169</ele>
        <time>2017-08-03T14:09:23Z</time>
      </trkpt>
      <trkpt lat="45.93752" lon="4.74926">
        <ele>170</ele>
        <time>2017-08-03T14:09:25Z</time>
      </trkpt>
      <trkpt lat="45.93755" lon="4.74921">
        <ele>171</ele>
        <time>2017-08-03T14:09:26Z</time>
      </trkpt>
      <trkpt lat="45.93759" lon="4.74912">
        <ele>170</ele>
        <time>2017-08-03T14:09:28Z</time>
      </trkpt>
      <trkpt lat="45.93761" lon="4.74908">
        <ele>170</ele>
        <time>2017-08-03T14:09:29Z</time>
      </trkpt>
      <trkpt lat="45.93765" lon="4.749">
        <ele>169</ele>
        <time>2017-08-03T14:09:31Z</time>
      </trkpt>
      <trkpt lat="45.93768" lon="4.74895">
        <ele>169</ele>
        <time>2017-08-03T14:09:32Z</time>
      </trkpt>
      <trkpt lat="45.93773" lon="4.74885">
        <ele>169</ele>
        <time>2017-08-03T14:09:34Z</time>
      </trkpt>
      <trkpt lat="45.93775" lon="4.74881">
        <ele>169</ele>
        <time>2017-08-03T14:09:35Z</time>
      </trkpt>
      <trkpt lat="45.9378" lon="4.74873">
        <ele>168</ele>
        <time>2017-08-03T14:09:37Z</time>
      </trkpt>
      <trkpt lat="45.93782" lon="4.74869">
        <ele>168</ele>
        <time>2017-08-03T14:09:38Z</time>
      </trkpt>
      <trkpt lat="45.93786" lon="4.7486">
        <ele>168</ele>
        <time>2017-08-03T14:09:40Z</time>
      </trkpt>
      <trkpt lat="45.93788" lon="4.74855">
        <ele>168</ele>
        <time>2017-08-03T14:09:41Z</time>
      </trkpt>
      <trkpt lat="45.93794" lon="4.74846">
        <ele>168</ele>
        <time>2017-08-03T14:09:43Z</time>
      </trkpt>
      <trkpt lat="45.93796" lon="4.74842">
        <ele>168</ele>
        <time>2017-08-03T14:09:44Z</time>
      </trkpt>
      <trkpt lat="45.938" lon="4.74833">
        <ele>167</ele>
        <time>2017-08-03T14:09:46Z</time>
      </trkpt>
      <trkpt lat="45.93803" lon="4.74828">
        <ele>167</ele>
        <time>2017-08-03T14:09:47Z</time>
      </trkpt>
      <trkpt lat="45.93809" lon="4.74818">
        <ele>167</ele>
        <time>2017-08-03T14:09:49Z</time>
      </trkpt>
      <trkpt lat="45.93812" lon="4.74813">
        <ele>167</ele>
        <time>2017-08-03T14:09:50Z</time>
      </trkpt>
      <trkpt lat="45.93816" lon="4.74803">
        <ele>167</ele>
        <time>2017-08-03T14:09:52Z</time>
      </trkpt>
      <trkpt lat="45.93819" lon="4.74798">
        <ele>167</ele>
        <time>2017-08-03T14:09:53Z</time>
      </trkpt>
      <trkpt lat="45.93824" lon="4.74789">
        <ele>167</ele>
        <time>2017-08-03T14:09:55Z</time>
      </trkpt>
      <trkpt lat="45.93827" lon="4.74784">
        <ele>167</ele>
        <time>2017-08-03T14:09:56Z</time>
      </trkpt>
      <trkpt lat="45.93832" lon="4.74774">
        <ele>167</ele>
        <time>2017-08-03T14:09:58Z</time>
      </trkpt>
      <trkpt lat="45.93835" lon="4.74768">
        <ele>168</ele>
        <time>2017-08-03T14:09:59Z</time>
      </trkpt>
      <trkpt lat="45.93837" lon="4.74763">
        <ele>168</ele>
        <time>2017-08-03T14:10:00Z</time>
      </trkpt>
      <trkpt lat="45.9384" lon="4.74756">
        <ele>168</ele>
        <time>2017-08-03T14:10:01Z</time>
      </trkpt>
      <trkpt lat="45.93843" lon="4.7475">
        <ele>168</ele>
        <time>2017-08-03T14:10:02Z</time>
      </trkpt>
      <trkpt lat="45.93845" lon="4.74745">
        <ele>169</ele>
        <time>2017-08-03T14:10:03Z</time>
      </trkpt>
      <trkpt lat="45.9385" lon="4.74736">
        <ele>169</ele>
        <time>2017-08-03T14:10:05Z</time>
      </trkpt>
      <trkpt lat="45.93852" lon="4.74732">
        <ele>169</ele>
        <time>2017-08-03T14:10:06Z</time>
      </trkpt>
      <trkpt lat="45.93856" lon="4.74724">
        <ele>169</ele>
        <time>2017-08-03T14:10:08Z</time>
      </trkpt>
      <trkpt lat="45.93859" lon="4.7472">
        <ele>169</ele>
        <time>2017-08-03T14:10:09Z</time>
      </trkpt>
      <trkpt lat="45.93864" lon="4.7471">
        <ele>169</ele>
        <time>2017-08-03T14:10:11Z</time>
      </trkpt>
      <trkpt lat="45.93866" lon="4.74703">
        <ele>169</ele>
        <time>2017-08-03T14:10:12Z</time>
      </trkpt>
      <trkpt lat="45.93869" lon="4.74697">
        <ele>169</ele>
        <time>2017-08-03T14:10:13Z</time>
      </trkpt>
      <trkpt lat="45.93871" lon="4.74692">
        <ele>170</ele>
        <time>2017-08-03T14:10:14Z</time>
      </trkpt>
      <trkpt lat="45.93875" lon="4.74681">
        <ele>170</ele>
        <time>2017-08-03T14:10:16Z</time>
      </trkpt>
      <trkpt lat="45.93876" lon="4.74676">
        <ele>170</ele>
        <time>2017-08-03T14:10:17Z</time>
      </trkpt>
      <trkpt lat="45.93879" lon="4.74665">
        <ele>170</ele>
        <time>2017-08-03T14:10:19Z</time>
      </trkpt>
      <trkpt lat="45.93881" lon="4.74659">
        <ele>170</ele>
        <time>2017-08-03T14:10:20Z</time>
      </trkpt>
      <trkpt lat="45.93885" lon="4.74649">
        <ele>170</ele>
        <time>2017-08-03T14:10:22Z</time>
      </trkpt>
      <trkpt lat="45.93887" lon="4.74644">
        <ele>170</ele>
        <time>2017-08-03T14:10:23Z</time>
      </trkpt>
      <trkpt lat="45.9389" lon="4.74633">
        <ele>170</ele>
        <time>2017-08-03T14:10:25Z</time>
      </trkpt>
      <trkpt lat="45.93892" lon="4.74627">
        <ele>170</ele>
        <time>2017-08-03T14:10:26Z</time>
      </trkpt>
      <trkpt lat="45.93894" lon="4.74621">
        <ele>170</ele>
        <time>2017-08-03T14:10:27Z</time>
      </trkpt>
      <trkpt lat="45.93896" lon="4.74615">
        <ele>170</ele>
        <time>2017-08-03T14:10:28Z</time>
      </trkpt>
      <trkpt lat="45.93898" lon="4.74608">
        <ele>170</ele>
        <time>2017-08-03T14:10:29Z</time>
      </trkpt>
      <trkpt lat="45.939" lon="4.74602">
        <ele>170</ele>
        <time>2017-08-03T14:10:30Z</time>
      </trkpt>
      <trkpt lat="45.93901" lon="4.74596">
        <ele>170</ele>
        <time>2017-08-03T14:10:31Z</time>
      </trkpt>
      <trkpt lat="45.93903" lon="4.7459">
        <ele>170</ele>
        <time>2017-08-03T14:10:32Z</time>
      </trkpt>
      <trkpt lat="45.93906" lon="4.74578">
        <ele>170</ele>
        <time>2017-08-03T14:10:34Z</time>
      </trkpt>
      <trkpt lat="45.93907" lon="4.74572">
        <ele>170</ele>
        <time>2017-08-03T14:10:35Z</time>
      </trkpt>
      <trkpt lat="45.9391" lon="4.74561">
        <ele>170</ele>
        <time>2017-08-03T14:10:37Z</time>
      </trkpt>
      <trkpt lat="45.93911" lon="4.74555">
        <ele>170</ele>
        <time>2017-08-03T14:10:38Z</time>
      </trkpt>
      <trkpt lat="45.93913" lon="4.74549">
        <ele>170</ele>
        <time>2017-08-03T14:10:39Z</time>
      </trkpt>
      <trkpt lat="45.93913" lon="4.74542">
        <ele>170</ele>
        <time>2017-08-03T14:10:40Z</time>
      </trkpt>
      <trkpt lat="45.93914" lon="4.74535">
        <ele>170</ele>
        <time>2017-08-03T14:10:41Z</time>
      </trkpt>
      <trkpt lat="45.93914" lon="4.74527">
        <ele>170</ele>
        <time>2017-08-03T14:10:42Z</time>
      </trkpt>
      <trkpt lat="45.93915" lon="4.74519">
        <ele>170</ele>
        <time>2017-08-03T14:10:43Z</time>
      </trkpt>
      <trkpt lat="45.93915" lon="4.74511">
        <ele>170</ele>
        <time>2017-08-03T14:10:44Z</time>
      </trkpt>
      <trkpt lat="45.93915" lon="4.74504">
        <ele>170</ele>
        <time>2017-08-03T14:10:45Z</time>
      </trkpt>
      <trkpt lat="45.93915" lon="4.74497">
        <ele>170</ele>
        <time>2017-08-03T14:10:46Z</time>
      </trkpt>
      <trkpt lat="45.93915" lon="4.7449">
        <ele>170</ele>
        <time>2017-08-03T14:10:47Z</time>
      </trkpt>
      <trkpt lat="45.93915" lon="4.74483">
        <ele>171</ele>
        <time>2017-08-03T14:10:48Z</time>
      </trkpt>
      <trkpt lat="45.93917" lon="4.74472">
        <ele>171</ele>
        <time>2017-08-03T14:10:50Z</time>
      </trkpt>
      <trkpt lat="45.93916" lon="4.74466">
        <ele>171</ele>
        <time>2017-08-03T14:10:51Z</time>
      </trkpt>
      <trkpt lat="45.93917" lon="4.74454">
        <ele>170</ele>
        <time>2017-08-03T14:10:53Z</time>
      </trkpt>
      <trkpt lat="45.93917" lon="4.74448">
        <ele>170</ele>
        <time>2017-08-03T14:10:54Z</time>
      </trkpt>
      <trkpt lat="45.93917" lon="4.74441">
        <ele>171</ele>
        <time>2017-08-03T14:10:55Z</time>
      </trkpt>
      <trkpt lat="45.93916" lon="4.74435">
        <ele>171</ele>
        <time>2017-08-03T14:10:56Z</time>
      </trkpt>
      <trkpt lat="45.93916" lon="4.74423">
        <ele>171</ele>
        <time>2017-08-03T14:10:58Z</time>
      </trkpt>
      <trkpt lat="45.93914" lon="4.74417">
        <ele>171</ele>
        <time>2017-08-03T14:10:59Z</time>
      </trkpt>
      <trkpt lat="45.93912" lon="4.74407">
        <ele>171</ele>
        <time>2017-08-03T14:11:01Z</time>
      </trkpt>
      <trkpt lat="45.93911" lon="4.74401">
        <ele>171</ele>
        <time>2017-08-03T14:11:02Z</time>
      </trkpt>
      <trkpt lat="45.93909" lon="4.7439">
        <ele>171</ele>
        <time>2017-08-03T14:11:04Z</time>
      </trkpt>
      <trkpt lat="45.93908" lon="4.74384">
        <ele>171</ele>
        <time>2017-08-03T14:11:05Z</time>
      </trkpt>
      <trkpt lat="45.93907" lon="4.74371">
        <ele>171</ele>
        <time>2017-08-03T14:11:07Z</time>
      </trkpt>
      <trkpt lat="45.93907" lon="4.74365">
        <ele>171</ele>
        <time>2017-08-03T14:11:08Z</time>
      </trkpt>
      <trkpt lat="45.93908" lon="4.74353">
        <ele>171</ele>
        <time>2017-08-03T14:11:10Z</time>
      </trkpt>
      <trkpt lat="45.93907" lon="4.74348">
        <ele>171</ele>
        <time>2017-08-03T14:11:11Z</time>
      </trkpt>
      <trkpt lat="45.93907" lon="4.74335">
        <ele>170</ele>
        <time>2017-08-03T14:11:13Z</time>
      </trkpt>
      <trkpt lat="45.93906" lon="4.74328">
        <ele>170</ele>
        <time>2017-08-03T14:11:14Z</time>
      </trkpt>
      <trkpt lat="45.93906" lon="4.74315">
        <ele>170</ele>
        <time>2017-08-03T14:11:16Z</time>
      </trkpt>
      <trkpt lat="45.93906" lon="4.74309">
        <ele>170</ele>
        <time>2017-08-03T14:11:17Z</time>
      </trkpt>
      <trkpt lat="45.93906" lon="4.74297">
        <ele>170</ele>
        <time>2017-08-03T14:11:19Z</time>
      </trkpt>
      <trkpt lat="45.93906" lon="4.74292">
        <ele>170</ele>
        <time>2017-08-03T14:11:20Z</time>
      </trkpt>
      <trkpt lat="45.93907" lon="4.74282">
        <ele>170</ele>
        <time>2017-08-03T14:11:22Z</time>
      </trkpt>
      <trkpt lat="45.93908" lon="4.74278">
        <ele>170</ele>
        <time>2017-08-03T14:11:23Z</time>
      </trkpt>
      <trkpt lat="45.93907" lon="4.74267">
        <ele>170</ele>
        <time>2017-08-03T14:11:25Z</time>
      </trkpt>
      <trkpt lat="45.93907" lon="4.74261">
        <ele>170</ele>
        <time>2017-08-03T14:11:26Z</time>
      </trkpt>
      <trkpt lat="45.93908" lon="4.74249">
        <ele>170</ele>
        <time>2017-08-03T14:11:28Z</time>
      </trkpt>
      <trkpt lat="45.93908" lon="4.74243">
        <ele>170</ele>
        <time>2017-08-03T14:11:29Z</time>
      </trkpt>
      <trkpt lat="45.9391" lon="4.74232">
        <ele>170</ele>
        <time>2017-08-03T14:11:31Z</time>
      </trkpt>
      <trkpt lat="45.9391" lon="4.74227">
        <ele>170</ele>
        <time>2017-08-03T14:11:32Z</time>
      </trkpt>
      <trkpt lat="45.93911" lon="4.74214">
        <ele>169</ele>
        <time>2017-08-03T14:11:34Z</time>
      </trkpt>
      <trkpt lat="45.93912" lon="4.74207">
        <ele>169</ele>
        <time>2017-08-03T14:11:35Z</time>
      </trkpt>
      <trkpt lat="45.93913" lon="4.74195">
        <ele>169</ele>
        <time>2017-08-03T14:11:37Z</time>
      </trkpt>
      <trkpt lat="45.93913" lon="4.74189">
        <ele>169</ele>
        <time>2017-08-03T14:11:38Z</time>
      </trkpt>
      <trkpt lat="45.93914" lon="4.74178">
        <ele>169</ele>
        <time>2017-08-03T14:11:40Z</time>
      </trkpt>
      <trkpt lat="45.93915" lon="4.74172">
        <ele>168</ele>
        <time>2017-08-03T14:11:41Z</time>
      </trkpt>
      <trkpt lat="45.93915" lon="4.7416">
        <ele>168</ele>
        <time>2017-08-03T14:11:43Z</time>
      </trkpt>
      <trkpt lat="45.93915" lon="4.74154">
        <ele>169</ele>
        <time>2017-08-03T14:11:44Z</time>
      </trkpt>
      <trkpt lat="45.93916" lon="4.74142">
        <ele>169</ele>
        <time>2017-08-03T14:11:46Z</time>
      </trkpt>
      <trkpt lat="45.93917" lon="4.74136">
        <ele>169</ele>
        <time>2017-08-03T14:11:47Z</time>
      </trkpt>
      <trkpt lat="45.93918" lon="4.74125">
        <ele>169</ele>
        <time>2017-08-03T14:11:49Z</time>
      </trkpt>
      <trkpt lat="45.93919" lon="4.7412">
        <ele>169</ele>
        <time>2017-08-03T14:11:50Z</time>
      </trkpt>
      <trkpt lat="45.9392" lon="4.74109">
        <ele>169</ele>
        <time>2017-08-03T14:11:52Z</time>
      </trkpt>
      <trkpt lat="45.93921" lon="4.74103">
        <ele>169</ele>
        <time>2017-08-03T14:11:53Z</time>
      </trkpt>
      <trkpt lat="45.93922" lon="4.74091">
        <ele>170</ele>
        <time>2017-08-03T14:11:55Z</time>
      </trkpt>
      <trkpt lat="45.93922" lon="4.74085">
        <ele>170</ele>
        <time>2017-08-03T14:11:56Z</time>
      </trkpt>
      <trkpt lat="45.93922" lon="4.74074">
        <ele>170</ele>
        <time>2017-08-03T14:11:58Z</time>
      </trkpt>
      <trkpt lat="45.93923" lon="4.74068">
        <ele>170</ele>
        <time>2017-08-03T14:11:59Z</time>
      </trkpt>
      <trkpt lat="45.93923" lon="4.74057">
        <ele>171</ele>
        <time>2017-08-03T14:12:01Z</time>
      </trkpt>
      <trkpt lat="45.93924" lon="4.74051">
        <ele>171</ele>
        <time>2017-08-03T14:12:02Z</time>
      </trkpt>
      <trkpt lat="45.93925" lon="4.74044">
        <ele>171</ele>
        <time>2017-08-03T14:12:03Z</time>
      </trkpt>
      <trkpt lat="45.93925" lon="4.74036">
        <ele>171</ele>
        <time>2017-08-03T14:12:04Z</time>
      </trkpt>
      <trkpt lat="45.93927" lon="4.7403">
        <ele>171</ele>
        <time>2017-08-03T14:12:05Z</time>
      </trkpt>
      <trkpt lat="45.93928" lon="4.74023">
        <ele>171</ele>
        <time>2017-08-03T14:12:06Z</time>
      </trkpt>
      <trkpt lat="45.93929" lon="4.7401">
        <ele>171</ele>
        <time>2017-08-03T14:12:08Z</time>
      </trkpt>
      <trkpt lat="45.93929" lon="4.74005">
        <ele>171</ele>
        <time>2017-08-03T14:12:09Z</time>
      </trkpt>
      <trkpt lat="45.9393" lon="4.73994">
        <ele>172</ele>
        <time>2017-08-03T14:12:11Z</time>
      </trkpt>
      <trkpt lat="45.93931" lon="4.73988">
        <ele>172</ele>
        <time>2017-08-03T14:12:12Z</time>
      </trkpt>
      <trkpt lat="45.93933" lon="4.73976">
        <ele>172</ele>
        <time>2017-08-03T14:12:14Z</time>
      </trkpt>
      <trkpt lat="45.93934" lon="4.73969">
        <ele>172</ele>
        <time>2017-08-03T14:12:15Z</time>
      </trkpt>
      <trkpt lat="45.93935" lon="4.73957">
        <ele>172</ele>
        <time>2017-08-03T14:12:17Z</time>
      </trkpt>
      <trkpt lat="45.93936" lon="4.73952">
        <ele>172</ele>
        <time>2017-08-03T14:12:18Z</time>
      </trkpt>
      <trkpt lat="45.93937" lon="4.73942">
        <ele>172</ele>
        <time>2017-08-03T14:12:20Z</time>
      </trkpt>
      <trkpt lat="45.93938" lon="4.73936">
        <ele>172</ele>
        <time>2017-08-03T14:12:21Z</time>
      </trkpt>
      <trkpt lat="45.9394" lon="4.73924">
        <ele>172</ele>
        <time>2017-08-03T14:12:23Z</time>
      </trkpt>
      <trkpt lat="45.93941" lon="4.73917">
        <ele>172</ele>
        <time>2017-08-03T14:12:24Z</time>
      </trkpt>
      <trkpt lat="45.93941" lon="4.73904">
        <ele>172</ele>
        <time>2017-08-03T14:12:26Z</time>
      </trkpt>
      <trkpt lat="45.93942" lon="4.73898">
        <ele>172</ele>
        <time>2017-08-03T14:12:27Z</time>
      </trkpt>
      <trkpt lat="45.93942" lon="4.73886">
        <ele>172</ele>
        <time>2017-08-03T14:12:29Z</time>
      </trkpt>
      <trkpt lat="45.93943" lon="4.7388">
        <ele>172</ele>
        <time>2017-08-03T14:12:30Z</time>
      </trkpt>
      <trkpt lat="45.93944" lon="4.73874">
        <ele>172</ele>
        <time>2017-08-03T14:12:31Z</time>
      </trkpt>
      <trkpt lat="45.93944" lon="4.73867">
        <ele>172</ele>
        <time>2017-08-03T14:12:32Z</time>
      </trkpt>
      <trkpt lat="45.93945" lon="4.73859">
        <ele>172</ele>
        <time>2017-08-03T14:12:33Z</time>
      </trkpt>
      <trkpt lat="45.93945" lon="4.73852">
        <ele>172</ele>
        <time>2017-08-03T14:12:34Z</time>
      </trkpt>
      <trkpt lat="45.93946" lon="4.73846">
        <ele>172</ele>
        <time>2017-08-03T14:12:35Z</time>
      </trkpt>
      <trkpt lat="45.93948" lon="4.73839">
        <ele>172</ele>
        <time>2017-08-03T14:12:36Z</time>
      </trkpt>
      <trkpt lat="45.93949" lon="4.73828">
        <ele>172</ele>
        <time>2017-08-03T14:12:38Z</time>
      </trkpt>
      <trkpt lat="45.9395" lon="4.73823">
        <ele>172</ele>
        <time>2017-08-03T14:12:39Z</time>
      </trkpt>
      <trkpt lat="45.93951" lon="4.73811">
        <ele>172</ele>
        <time>2017-08-03T14:12:41Z</time>
      </trkpt>
      <trkpt lat="45.93952" lon="4.73805">
        <ele>172</ele>
        <time>2017-08-03T14:12:42Z</time>
      </trkpt>
      <trkpt lat="45.93953" lon="4.73792">
        <ele>172</ele>
        <time>2017-08-03T14:12:44Z</time>
      </trkpt>
      <trkpt lat="45.93954" lon="4.73786">
        <ele>172</ele>
        <time>2017-08-03T14:12:45Z</time>
      </trkpt>
      <trkpt lat="45.93955" lon="4.73774">
        <ele>172</ele>
        <time>2017-08-03T14:12:47Z</time>
      </trkpt>
      <trkpt lat="45.93956" lon="4.73769">
        <ele>172</ele>
        <time>2017-08-03T14:12:48Z</time>
      </trkpt>
      <trkpt lat="45.93957" lon="4.73758">
        <ele>172</ele>
        <time>2017-08-03T14:12:50Z</time>
      </trkpt>
      <trkpt lat="45.93957" lon="4.73752">
        <ele>172</ele>
        <time>2017-08-03T14:12:51Z</time>
      </trkpt>
      <trkpt lat="45.93959" lon="4.73745">
        <ele>172</ele>
        <time>2017-08-03T14:12:52Z</time>
      </trkpt>
      <trkpt lat="45.9396" lon="4.73738">
        <ele>172</ele>
        <time>2017-08-03T14:12:53Z</time>
      </trkpt>
      <trkpt lat="45.93961" lon="4.73731">
        <ele>172</ele>
        <time>2017-08-03T14:12:54Z</time>
      </trkpt>
      <trkpt lat="45.93962" lon="4.73725">
        <ele>172</ele>
        <time>2017-08-03T14:12:55Z</time>
      </trkpt>
      <trkpt lat="45.93964" lon="4.73712">
        <ele>172</ele>
        <time>2017-08-03T14:12:57Z</time>
      </trkpt>
      <trkpt lat="45.93965" lon="4.73707">
        <ele>172</ele>
        <time>2017-08-03T14:12:58Z</time>
      </trkpt>
      <trkpt lat="45.93966" lon="4.73696">
        <ele>172</ele>
        <time>2017-08-03T14:13:00Z</time>
      </trkpt>
      <trkpt lat="45.93967" lon="4.7369">
        <ele>172</ele>
        <time>2017-08-03T14:13:01Z</time>
      </trkpt>
      <trkpt lat="45.93968" lon="4.73684">
        <ele>172</ele>
        <time>2017-08-03T14:13:02Z</time>
      </trkpt>
      <trkpt lat="45.93969" lon="4.73677">
        <ele>172</ele>
        <time>2017-08-03T14:13:03Z</time>
      </trkpt>
      <trkpt lat="45.9397" lon="4.73671">
        <ele>172</ele>
        <time>2017-08-03T14:13:04Z</time>
      </trkpt>
      <trkpt lat="45.93971" lon="4.73664">
        <ele>171</ele>
        <time>2017-08-03T14:13:05Z</time>
      </trkpt>
      <trkpt lat="45.93972" lon="4.73653">
        <ele>171</ele>
        <time>2017-08-03T14:13:07Z</time>
      </trkpt>
      <trkpt lat="45.93974" lon="4.73647">
        <ele>170</ele>
        <time>2017-08-03T14:13:08Z</time>
      </trkpt>
      <trkpt lat="45.93975" lon="4.73637">
        <ele>170</ele>
        <time>2017-08-03T14:13:10Z</time>
      </trkpt>
      <trkpt lat="45.93975" lon="4.73632">
        <ele>170</ele>
        <time>2017-08-03T14:13:11Z</time>
      </trkpt>
      <trkpt lat="45.93977" lon="4.73621">
        <ele>170</ele>
        <time>2017-08-03T14:13:13Z</time>
      </trkpt>
      <trkpt lat="45.9398" lon="4.73615">
        <ele>170</ele>
        <time>2017-08-03T14:13:14Z</time>
      </trkpt>
      <trkpt lat="45.93983" lon="4.73604">
        <ele>169</ele>
        <time>2017-08-03T14:13:16Z</time>
      </trkpt>
      <trkpt lat="45.93984" lon="4.73598">
        <ele>169</ele>
        <time>2017-08-03T14:13:17Z</time>
      </trkpt>
      <trkpt lat="45.93987" lon="4.73588">
        <ele>169</ele>
        <time>2017-08-03T14:13:19Z</time>
      </trkpt>
      <trkpt lat="45.93988" lon="4.73583">
        <ele>168</ele>
        <time>2017-08-03T14:13:20Z</time>
      </trkpt>
      <trkpt lat="45.93991" lon="4.73573">
        <ele>168</ele>
        <time>2017-08-03T14:13:22Z</time>
      </trkpt>
      <trkpt lat="45.93993" lon="4.73568">
        <ele>168</ele>
        <time>2017-08-03T14:13:23Z</time>
      </trkpt>
      <trkpt lat="45.93995" lon="4.73562">
        <ele>168</ele>
        <time>2017-08-03T14:13:24Z</time>
      </trkpt>
      <trkpt lat="45.93998" lon="4.73556">
        <ele>168</ele>
        <time>2017-08-03T14:13:25Z</time>
      </trkpt>
      <trkpt lat="45.93999" lon="4.7355">
        <ele>168</ele>
        <time>2017-08-03T14:13:26Z</time>
      </trkpt>
      <trkpt lat="45.94001" lon="4.73544">
        <ele>171</ele>
        <time>2017-08-03T14:13:27Z</time>
      </trkpt>
      <trkpt lat="45.94004" lon="4.73538">
        <ele>171</ele>
        <time>2017-08-03T14:13:28Z</time>
      </trkpt>
      <trkpt lat="45.94006" lon="4.73532">
        <ele>171</ele>
        <time>2017-08-03T14:13:29Z</time>
      </trkpt>
      <trkpt lat="45.94009" lon="4.73523">
        <ele>171</ele>
        <time>2017-08-03T14:13:31Z</time>
      </trkpt>
      <trkpt lat="45.94011" lon="4.73518">
        <ele>171</ele>
        <time>2017-08-03T14:13:32Z</time>
      </trkpt>
      <trkpt lat="45.94016" lon="4.73507">
        <ele>170</ele>
        <time>2017-08-03T14:13:34Z</time>
      </trkpt>
      <trkpt lat="45.94019" lon="4.73502">
        <ele>171</ele>
        <time>2017-08-03T14:13:35Z</time>
      </trkpt>
      <trkpt lat="45.94023" lon="4.73493">
        <ele>170</ele>
        <time>2017-08-03T14:13:37Z</time>
      </trkpt>
      <trkpt lat="45.94026" lon="4.73488">
        <ele>171</ele>
        <time>2017-08-03T14:13:38Z</time>
      </trkpt>
      <trkpt lat="45.94032" lon="4.73479">
        <ele>171</ele>
        <time>2017-08-03T14:13:40Z</time>
      </trkpt>
      <trkpt lat="45.94034" lon="4.73474">
        <ele>171</ele>
        <time>2017-08-03T14:13:41Z</time>
      </trkpt>
      <trkpt lat="45.9404" lon="4.73464">
        <ele>171</ele>
        <time>2017-08-03T14:13:43Z</time>
      </trkpt>
      <trkpt lat="45.94042" lon="4.73459">
        <ele>171</ele>
        <time>2017-08-03T14:13:44Z</time>
      </trkpt>
      <trkpt lat="45.94047" lon="4.73451">
        <ele>171</ele>
        <time>2017-08-03T14:13:46Z</time>
      </trkpt>
      <trkpt lat="45.9405" lon="4.73447">
        <ele>171</ele>
        <time>2017-08-03T14:13:47Z</time>
      </trkpt>
      <trkpt lat="45.94055" lon="4.73438">
        <ele>172</ele>
        <time>2017-08-03T14:13:49Z</time>
      </trkpt>
      <trkpt lat="45.94058" lon="4.73433">
        <ele>172</ele>
        <time>2017-08-03T14:13:50Z</time>
      </trkpt>
      <trkpt lat="45.94061" lon="4.73428">
        <ele>172</ele>
        <time>2017-08-03T14:13:51Z</time>
      </trkpt>
      <trkpt lat="45.94063" lon="4.73423">
        <ele>172</ele>
        <time>2017-08-03T14:13:52Z</time>
      </trkpt>
      <trkpt lat="45.94068" lon="4.73414">
        <ele>172</ele>
        <time>2017-08-03T14:13:54Z</time>
      </trkpt>
      <trkpt lat="45.94071" lon="4.73409">
        <ele>172</ele>
        <time>2017-08-03T14:13:55Z</time>
      </trkpt>
      <trkpt lat="45.94076" lon="4.73401">
        <ele>172</ele>
        <time>2017-08-03T14:13:57Z</time>
      </trkpt>
      <trkpt lat="45.94079" lon="4.73396">
        <ele>171</ele>
        <time>2017-08-03T14:13:58Z</time>
      </trkpt>
      <trkpt lat="45.94082" lon="4.73391">
        <ele>171</ele>
        <time>2017-08-03T14:13:59Z</time>
      </trkpt>
      <trkpt lat="45.94085" lon="4.73386">
        <ele>174</ele>
        <time>2017-08-03T14:14:00Z</time>
      </trkpt>
      <trkpt lat="45.94091" lon="4.73377">
        <ele>174</ele>
        <time>2017-08-03T14:14:02Z</time>
      </trkpt>
      <trkpt lat="45.94094" lon="4.73373">
        <ele>173</ele>
        <time>2017-08-03T14:14:03Z</time>
      </trkpt>
      <trkpt lat="45.94099" lon="4.73364">
        <ele>173</ele>
        <time>2017-08-03T14:14:05Z</time>
      </trkpt>
      <trkpt lat="45.94102" lon="4.7336">
        <ele>173</ele>
        <time>2017-08-03T14:14:06Z</time>
      </trkpt>
      <trkpt lat="45.94108" lon="4.73351">
        <ele>173</ele>
        <time>2017-08-03T14:14:08Z</time>
      </trkpt>
      <trkpt lat="45.94111" lon="4.73348">
        <ele>173</ele>
        <time>2017-08-03T14:14:09Z</time>
      </trkpt>
      <trkpt lat="45.94116" lon="4.73341">
        <ele>173</ele>
        <time>2017-08-03T14:14:11Z</time>
      </trkpt>
      <trkpt lat="45.94118" lon="4.73338">
        <ele>173</ele>
        <time>2017-08-03T14:14:12Z</time>
      </trkpt>
      <trkpt lat="45.94124" lon="4.7333">
        <ele>171</ele>
        <time>2017-08-03T14:14:14Z</time>
      </trkpt>
      <trkpt lat="45.94127" lon="4.73325">
        <ele>171</ele>
        <time>2017-08-03T14:14:15Z</time>
      </trkpt>
      <trkpt lat="45.94132" lon="4.73317">
        <ele>171</ele>
        <time>2017-08-03T14:14:17Z</time>
      </trkpt>
      <trkpt lat="45.94135" lon="4.73313">
        <ele>171</ele>
        <time>2017-08-03T14:14:18Z</time>
      </trkpt>
      <trkpt lat="45.9414" lon="4.73305">
        <ele>171</ele>
        <time>2017-08-03T14:14:20Z</time>
      </trkpt>
      <trkpt lat="45.94143" lon="4.73301">
        <ele>171</ele>
        <time>2017-08-03T14:14:21Z</time>
      </trkpt>
      <trkpt lat="45.94149" lon="4.73294">
        <ele>170</ele>
        <time>2017-08-03T14:14:23Z</time>
      </trkpt>
      <trkpt lat="45.94153" lon="4.73289">
        <ele>170</ele>
        <time>2017-08-03T14:14:24Z</time>
      </trkpt>
      <trkpt lat="45.94156" lon="4.73284">
        <ele>170</ele>
        <time>2017-08-03T14:14:25Z</time>
      </trkpt>
      <trkpt lat="45.94159" lon="4.73279">
        <ele>170</ele>
        <time>2017-08-03T14:14:26Z</time>
      </trkpt>
      <trkpt lat="45.94164" lon="4.73272">
        <ele>170</ele>
        <time>2017-08-03T14:14:28Z</time>
      </trkpt>
      <trkpt lat="45.94167" lon="4.73269">
        <ele>172</ele>
        <time>2017-08-03T14:14:29Z</time>
      </trkpt>
      <trkpt lat="45.94173" lon="4.73263">
        <ele>171</ele>
        <time>2017-08-03T14:14:31Z</time>
      </trkpt>
      <trkpt lat="45.94176" lon="4.7326">
        <ele>171</ele>
        <time>2017-08-03T14:14:32Z</time>
      </trkpt>
      <trkpt lat="45.94184" lon="4.73253">
        <ele>171</ele>
        <time>2017-08-03T14:14:34Z</time>
      </trkpt>
      <trkpt lat="45.94187" lon="4.7325">
        <ele>169</ele>
        <time>2017-08-03T14:14:35Z</time>
      </trkpt>
      <trkpt lat="45.94195" lon="4.73243">
        <ele>169</ele>
        <time>2017-08-03T14:14:37Z</time>
      </trkpt>
      <trkpt lat="45.94199" lon="4.7324">
        <ele>169</ele>
        <time>2017-08-03T14:14:38Z</time>
      </trkpt>
      <trkpt lat="45.94206" lon="4.73233">
        <ele>169</ele>
        <time>2017-08-03T14:14:40Z</time>
      </trkpt>
      <trkpt lat="45.9421" lon="4.73229">
        <ele>169</ele>
        <time>2017-08-03T14:14:41Z</time>
      </trkpt>
      <trkpt lat="45.94218" lon="4.73224">
        <ele>169</ele>
        <time>2017-08-03T14:14:43Z</time>
      </trkpt>
      <trkpt lat="45.94222" lon="4.73221">
        <ele>169</ele>
        <time>2017-08-03T14:14:44Z</time>
      </trkpt>
      <trkpt lat="45.94228" lon="4.73216">
        <ele>169</ele>
        <time>2017-08-03T14:14:46Z</time>
      </trkpt>
      <trkpt lat="45.94231" lon="4.73214">
        <ele>169</ele>
        <time>2017-08-03T14:14:47Z</time>
      </trkpt>
      <trkpt lat="45.94238" lon="4.73208">
        <ele>169</ele>
        <time>2017-08-03T14:14:49Z</time>
      </trkpt>
      <trkpt lat="45.94242" lon="4.73205">
        <ele>168</ele>
        <time>2017-08-03T14:14:50Z</time>
      </trkpt>
      <trkpt lat="45.9425" lon="4.732">
        <ele>168</ele>
        <time>2017-08-03T14:14:52Z</time>
      </trkpt>
      <trkpt lat="45.94253" lon="4.73196">
        <ele>169</ele>
        <time>2017-08-03T14:14:53Z</time>
      </trkpt>
      <trkpt lat="45.9426" lon="4.73192">
        <ele>169</ele>
        <time>2017-08-03T14:14:55Z</time>
      </trkpt>
      <trkpt lat="45.94264" lon="4.73189">
        <ele>169</ele>
        <time>2017-08-03T14:14:56Z</time>
      </trkpt>
      <trkpt lat="45.94271" lon="4.73184">
        <ele>169</ele>
        <time>2017-08-03T14:14:58Z</time>
      </trkpt>
      <trkpt lat="45.94275" lon="4.73181">
        <ele>169</ele>
        <time>2017-08-03T14:14:59Z</time>
      </trkpt>
      <trkpt lat="45.94279" lon="4.73178">
        <ele>169</ele>
        <time>2017-08-03T14:15:00Z</time>
      </trkpt>
      <trkpt lat="45.94283" lon="4.73175">
        <ele>170</ele>
        <time>2017-08-03T14:15:01Z</time>
      </trkpt>
      <trkpt lat="45.94287" lon="4.73172">
        <ele>170</ele>
        <time>2017-08-03T14:15:02Z</time>
      </trkpt>
      <trkpt lat="45.94291" lon="4.73169">
        <ele>170</ele>
        <time>2017-08-03T14:15:03Z</time>
      </trkpt>
      <trkpt lat="45.94296" lon="4.73165">
        <ele>168</ele>
        <time>2017-08-03T14:15:04Z</time>
      </trkpt>
      <trkpt lat="45.94299" lon="4.73162">
        <ele>168</ele>
        <time>2017-08-03T14:15:05Z</time>
      </trkpt>
      <trkpt lat="45.94307" lon="4.73155">
        <ele>168</ele>
        <time>2017-08-03T14:15:07Z</time>
      </trkpt>
      <trkpt lat="45.9431" lon="4.73152">
        <ele>168</ele>
        <time>2017-08-03T14:15:08Z</time>
      </trkpt>
      <trkpt lat="45.94315" lon="4.73148">
        <ele>168</ele>
        <time>2017-08-03T14:15:10Z</time>
      </trkpt>
      <trkpt lat="45.94318" lon="4.73145">
        <ele>168</ele>
        <time>2017-08-03T14:15:11Z</time>
      </trkpt>
      <trkpt lat="45.94324" lon="4.73142">
        <ele>168</ele>
        <time>2017-08-03T14:15:13Z</time>
      </trkpt>
      <trkpt lat="45.94327" lon="4.73139">
        <ele>168</ele>
        <time>2017-08-03T14:15:14Z</time>
      </trkpt>
      <trkpt lat="45.94335" lon="4.73132">
        <ele>169</ele>
        <time>2017-08-03T14:15:16Z</time>
      </trkpt>
      <trkpt lat="45.94338" lon="4.73129">
        <ele>169</ele>
        <time>2017-08-03T14:15:17Z</time>
      </trkpt>
      <trkpt lat="45.94344" lon="4.73126">
        <ele>169</ele>
        <time>2017-08-03T14:15:19Z</time>
      </trkpt>
      <trkpt lat="45.94347" lon="4.73124">
        <ele>169</ele>
        <time>2017-08-03T14:15:20Z</time>
      </trkpt>
      <trkpt lat="45.94354" lon="4.73118">
        <ele>169</ele>
        <time>2017-08-03T14:15:22Z</time>
      </trkpt>
      <trkpt lat="45.94358" lon="4.73115">
        <ele>169</ele>
        <time>2017-08-03T14:15:23Z</time>
      </trkpt>
      <trkpt lat="45.94362" lon="4.73111">
        <ele>169</ele>
        <time>2017-08-03T14:15:24Z</time>
      </trkpt>
      <trkpt lat="45.94366" lon="4.73107">
        <ele>169</ele>
        <time>2017-08-03T14:15:25Z</time>
      </trkpt>
      <trkpt lat="45.94371" lon="4.73103">
        <ele>169</ele>
        <time>2017-08-03T14:15:26Z</time>
      </trkpt>
      <trkpt lat="45.94375" lon="4.731">
        <ele>169</ele>
        <time>2017-08-03T14:15:27Z</time>
      </trkpt>
      <trkpt lat="45.94381" lon="4.73096">
        <ele>169</ele>
        <time>2017-08-03T14:15:29Z</time>
      </trkpt>
      <trkpt lat="45.94385" lon="4.73093">
        <ele>169</ele>
        <time>2017-08-03T14:15:30Z</time>
      </trkpt>
      <trkpt lat="45.94389" lon="4.73089">
        <ele>169</ele>
        <time>2017-08-03T14:15:31Z</time>
      </trkpt>
      <trkpt lat="45.94392" lon="4.73086">
        <ele>169</ele>
        <time>2017-08-03T14:15:32Z</time>
      </trkpt>
      <trkpt lat="45.94396" lon="4.73082">
        <ele>168</ele>
        <time>2017-08-03T14:15:33Z</time>
      </trkpt>
      <trkpt lat="45.944" lon="4.73078">
        <ele>168</ele>
        <time>2017-08-03T14:15:34Z</time>
      </trkpt>
      <trkpt lat="45.94406" lon="4.7307">
        <ele>168</ele>
        <time>2017-08-03T14:15:36Z</time>
      </trkpt>
      <trkpt lat="45.94409" lon="4.73066">
        <ele>168</ele>
        <time>2017-08-03T14:15:37Z</time>
      </trkpt>
      <trkpt lat="45.94415" lon="4.7306">
        <ele>168</ele>
        <time>2017-08-03T14:15:39Z</time>
      </trkpt>
      <trkpt lat="45.94418" lon="4.73057">
        <ele>169</ele>
        <time>2017-08-03T14:15:40Z</time>
      </trkpt>
      <trkpt lat="45.94423" lon="4.73052">
        <ele>169</ele>
        <time>2017-08-03T14:15:42Z</time>
      </trkpt>
      <trkpt lat="45.94425" lon="4.73048">
        <ele>169</ele>
        <time>2017-08-03T14:15:43Z</time>
      </trkpt>
      <trkpt lat="45.9443" lon="4.73041">
        <ele>169</ele>
        <time>2017-08-03T14:15:45Z</time>
      </trkpt>
      <trkpt lat="45.94431" lon="4.73037">
        <ele>169</ele>
        <time>2017-08-03T14:15:46Z</time>
      </trkpt>
      <trkpt lat="45.94436" lon="4.7303">
        <ele>169</ele>
        <time>2017-08-03T14:15:48Z</time>
      </trkpt>
      <trkpt lat="45.94439" lon="4.73028">
        <ele>169</ele>
        <time>2017-08-03T14:15:49Z</time>
      </trkpt>
      <trkpt lat="45.94445" lon="4.73022">
        <ele>169</ele>
        <time>2017-08-03T14:15:51Z</time>
      </trkpt>
      <trkpt lat="45.94447" lon="4.7302">
        <ele>169</ele>
        <time>2017-08-03T14:15:52Z</time>
      </trkpt>
      <trkpt lat="45.94455" lon="4.73015">
        <ele>169</ele>
        <time>2017-08-03T14:15:55Z</time>
      </trkpt>
      <trkpt lat="45.94458" lon="4.73015">
        <ele>169</ele>
        <time>2017-08-03T14:15:56Z</time>
      </trkpt>
      <trkpt lat="45.94465" lon="4.73015">
        <ele>169</ele>
        <time>2017-08-03T14:15:58Z</time>
      </trkpt>
      <trkpt lat="45.9447" lon="4.73014">
        <ele>170</ele>
        <time>2017-08-03T14:15:59Z</time>
      </trkpt>
      <trkpt lat="45.94474" lon="4.73014">
        <ele>170</ele>
        <time>2017-08-03T14:16:00Z</time>
      </trkpt>
      <trkpt lat="45.94479" lon="4.73013">
        <ele>170</ele>
        <time>2017-08-03T14:16:01Z</time>
      </trkpt>
      <trkpt lat="45.94486" lon="4.73013">
        <ele>170</ele>
        <time>2017-08-03T14:16:03Z</time>
      </trkpt>
      <trkpt lat="45.94489" lon="4.73013">
        <ele>170</ele>
        <time>2017-08-03T14:16:04Z</time>
      </trkpt>
      <trkpt lat="45.94496" lon="4.73012">
        <ele>170</ele>
        <time>2017-08-03T14:16:06Z</time>
      </trkpt>
      <trkpt lat="45.94499" lon="4.73012">
        <ele>170</ele>
        <time>2017-08-03T14:16:07Z</time>
      </trkpt>
      <trkpt lat="45.94506" lon="4.73012">
        <ele>171</ele>
        <time>2017-08-03T14:16:09Z</time>
      </trkpt>
      <trkpt lat="45.94509" lon="4.73013">
        <ele>171</ele>
        <time>2017-08-03T14:16:10Z</time>
      </trkpt>
      <trkpt lat="45.94515" lon="4.73013">
        <ele>171</ele>
        <time>2017-08-03T14:16:12Z</time>
      </trkpt>
      <trkpt lat="45.94519" lon="4.73012">
        <ele>171</ele>
        <time>2017-08-03T14:16:13Z</time>
      </trkpt>
      <trkpt lat="45.94526" lon="4.7301">
        <ele>171</ele>
        <time>2017-08-03T14:16:15Z</time>
      </trkpt>
      <trkpt lat="45.9453" lon="4.73009">
        <ele>171</ele>
        <time>2017-08-03T14:16:16Z</time>
      </trkpt>
      <trkpt lat="45.94537" lon="4.73015">
        <ele>171</ele>
        <time>2017-08-03T14:16:19Z</time>
      </trkpt>
      <trkpt lat="45.94539" lon="4.73018">
        <ele>171</ele>
        <time>2017-08-03T14:16:20Z</time>
      </trkpt>
      <trkpt lat="45.94544" lon="4.73026">
        <ele>171</ele>
        <time>2017-08-03T14:16:23Z</time>
      </trkpt>
      <trkpt lat="45.94546" lon="4.73028">
        <ele>171</ele>
        <time>2017-08-03T14:16:24Z</time>
      </trkpt>
      <trkpt lat="45.94549" lon="4.73037">
        <ele>171</ele>
        <time>2017-08-03T14:16:27Z</time>
      </trkpt>
      <trkpt lat="45.9455" lon="4.7304">
        <ele>171</ele>
        <time>2017-08-03T14:16:28Z</time>
      </trkpt>
      <trkpt lat="45.94551" lon="4.73051">
        <ele>172</ele>
        <time>2017-08-03T14:16:31Z</time>
      </trkpt>
      <trkpt lat="45.94552" lon="4.73056">
        <ele>172</ele>
        <time>2017-08-03T14:16:32Z</time>
      </trkpt>
      <trkpt lat="45.94553" lon="4.73068">
        <ele>172</ele>
        <time>2017-08-03T14:16:35Z</time>
      </trkpt>
      <trkpt lat="45.94553" lon="4.73073">
        <ele>172</ele>
        <time>2017-08-03T14:16:36Z</time>
      </trkpt>
      <trkpt lat="45.94554" lon="4.73083">
        <ele>172</ele>
        <time>2017-08-03T14:16:38Z</time>
      </trkpt>
      <trkpt lat="45.94554" lon="4.73088">
        <ele>172</ele>
        <time>2017-08-03T14:16:39Z</time>
      </trkpt>
      <trkpt lat="45.94555" lon="4.73097">
        <ele>172</ele>
        <time>2017-08-03T14:16:41Z</time>
      </trkpt>
      <trkpt lat="45.94555" lon="4.73101">
        <ele>173</ele>
        <time>2017-08-03T14:16:42Z</time>
      </trkpt>
      <trkpt lat="45.94548" lon="4.73106">
        <ele>173</ele>
        <time>2017-08-03T14:16:46Z</time>
      </trkpt>
      <trkpt lat="45.94545" lon="4.73106">
        <ele>173</ele>
        <time>2017-08-03T14:16:47Z</time>
      </trkpt>
      <trkpt lat="45.94538" lon="4.73106">
        <ele>173</ele>
        <time>2017-08-03T14:16:49Z</time>
      </trkpt>
      <trkpt lat="45.94535" lon="4.73106">
        <ele>173</ele>
        <time>2017-08-03T14:16:50Z</time>
      </trkpt>
      <trkpt lat="45.94528" lon="4.73103">
        <ele>173</ele>
        <time>2017-08-03T14:16:52Z</time>
      </trkpt>
      <trkpt lat="45.94525" lon="4.73102">
        <ele>173</ele>
        <time>2017-08-03T14:16:53Z</time>
      </trkpt>
      <trkpt lat="45.94516" lon="4.731">
        <ele>172</ele>
        <time>2017-08-03T14:16:56Z</time>
      </trkpt>
      <trkpt lat="45.94513" lon="4.73098">
        <ele>172</ele>
        <time>2017-08-03T14:16:57Z</time>
      </trkpt>
      <trkpt lat="45.94506" lon="4.73093">
        <ele>172</ele>
        <time>2017-08-03T14:16:59Z</time>
      </trkpt>
      <trkpt lat="45.94502" lon="4.7309">
        <ele>172</ele>
        <time>2017-08-03T14:17:00Z</time>
      </trkpt>
      <trkpt lat="45.94494" lon="4.73085">
        <ele>172</ele>
        <time>2017-08-03T14:17:02Z</time>
      </trkpt>
      <trkpt lat="45.9449" lon="4.73082">
        <ele>171</ele>
        <time>2017-08-03T14:17:03Z</time>
      </trkpt>
      <trkpt lat="45.94483" lon="4.73077">
        <ele>171</ele>
        <time>2017-08-03T14:17:06Z</time>
      </trkpt>
      <trkpt lat="45.9448" lon="4.73077">
        <ele>171</ele>
        <time>2017-08-03T14:17:07Z</time>
      </trkpt>
      <trkpt lat="45.94471" lon="4.73075">
        <ele>170</ele>
        <time>2017-08-03T14:17:10Z</time>
      </trkpt>
      <trkpt lat="45.94469" lon="4.73075">
        <ele>170</ele>
        <time>2017-08-03T14:17:11Z</time>
      </trkpt>
      <trkpt lat="45.94463" lon="4.73066">
        <ele>170</ele>
        <time>2017-08-03T14:17:14Z</time>
      </trkpt>
      <trkpt lat="45.94461" lon="4.73061">
        <ele>170</ele>
        <time>2017-08-03T14:17:15Z</time>
      </trkpt>
      <trkpt lat="45.9446" lon="4.73051">
        <ele>170</ele>
        <time>2017-08-03T14:17:17Z</time>
      </trkpt>
      <trkpt lat="45.94459" lon="4.73046">
        <ele>170</ele>
        <time>2017-08-03T14:17:18Z</time>
      </trkpt>
      <trkpt lat="45.94458" lon="4.73035">
        <ele>169</ele>
        <time>2017-08-03T14:17:20Z</time>
      </trkpt>
      <trkpt lat="45.94457" lon="4.73029">
        <ele>169</ele>
        <time>2017-08-03T14:17:21Z</time>
      </trkpt>
      <trkpt lat="45.94456" lon="4.73018">
        <ele>169</ele>
        <time>2017-08-03T14:17:23Z</time>
      </trkpt>
      <trkpt lat="45.94455" lon="4.73013">
        <ele>169</ele>
        <time>2017-08-03T14:17:24Z</time>
      </trkpt>
      <trkpt lat="45.94454" lon="4.73002">
        <ele>169</ele>
        <time>2017-08-03T14:17:26Z</time>
      </trkpt>
      <trkpt lat="45.94453" lon="4.72996">
        <ele>167</ele>
        <time>2017-08-03T14:17:27Z</time>
      </trkpt>
      <trkpt lat="45.94452" lon="4.72985">
        <ele>167</ele>
        <time>2017-08-03T14:17:29Z</time>
      </trkpt>
      <trkpt lat="45.94451" lon="4.72979">
        <ele>167</ele>
        <time>2017-08-03T14:17:30Z</time>
      </trkpt>
      <trkpt lat="45.94449" lon="4.72967">
        <ele>167</ele>
        <time>2017-08-03T14:17:32Z</time>
      </trkpt>
      <trkpt lat="45.94449" lon="4.72961">
        <ele>167</ele>
        <time>2017-08-03T14:17:33Z</time>
      </trkpt>
      <trkpt lat="45.94448" lon="4.7295">
        <ele>167</ele>
        <time>2017-08-03T14:17:35Z</time>
      </trkpt>
      <trkpt lat="45.94447" lon="4.72944">
        <ele>167</ele>
        <time>2017-08-03T14:17:36Z</time>
      </trkpt>
      <trkpt lat="45.94446" lon="4.72932">
        <ele>167</ele>
        <time>2017-08-03T14:17:38Z</time>
      </trkpt>
      <trkpt lat="45.94445" lon="4.72926">
        <ele>167</ele>
        <time>2017-08-03T14:17:39Z</time>
      </trkpt>
      <trkpt lat="45.94444" lon="4.72915">
        <ele>166</ele>
        <time>2017-08-03T14:17:41Z</time>
      </trkpt>
      <trkpt lat="45.94443" lon="4.7291">
        <ele>166</ele>
        <time>2017-08-03T14:17:42Z</time>
      </trkpt>
      <trkpt lat="45.94441" lon="4.72899">
        <ele>166</ele>
        <time>2017-08-03T14:17:44Z</time>
      </trkpt>
      <trkpt lat="45.9444" lon="4.72893">
        <ele>166</ele>
        <time>2017-08-03T14:17:45Z</time>
      </trkpt>
      <trkpt lat="45.94439" lon="4.72881">
        <ele>166</ele>
        <time>2017-08-03T14:17:47Z</time>
      </trkpt>
      <trkpt lat="45.94439" lon="4.72874">
        <ele>166</ele>
        <time>2017-08-03T14:17:48Z</time>
      </trkpt>
      <trkpt lat="45.94438" lon="4.72862">
        <ele>166</ele>
        <time>2017-08-03T14:17:50Z</time>
      </trkpt>
      <trkpt lat="45.94438" lon="4.72856">
        <ele>166</ele>
        <time>2017-08-03T14:17:51Z</time>
      </trkpt>
      <trkpt lat="45.94437" lon="4.72849">
        <ele>166</ele>
        <time>2017-08-03T14:17:52Z</time>
      </trkpt>
      <trkpt lat="45.94437" lon="4.72842">
        <ele>166</ele>
        <time>2017-08-03T14:17:53Z</time>
      </trkpt>
      <trkpt lat="45.94436" lon="4.72835">
        <ele>166</ele>
        <time>2017-08-03T14:17:54Z</time>
      </trkpt>
      <trkpt lat="45.94434" lon="4.72827">
        <ele>167</ele>
        <time>2017-08-03T14:17:55Z</time>
      </trkpt>
      <trkpt lat="45.94433" lon="4.7282">
        <ele>167</ele>
        <time>2017-08-03T14:17:56Z</time>
      </trkpt>
      <trkpt lat="45.94432" lon="4.72812">
        <ele>167</ele>
        <time>2017-08-03T14:17:57Z</time>
      </trkpt>
      <trkpt lat="45.94431" lon="4.72803">
        <ele>167</ele>
        <time>2017-08-03T14:17:58Z</time>
      </trkpt>
      <trkpt lat="45.94429" lon="4.72795">
        <ele>168</ele>
        <time>2017-08-03T14:17:59Z</time>
      </trkpt>
      <trkpt lat="45.94428" lon="4.72786">
        <ele>168</ele>
        <time>2017-08-03T14:18:00Z</time>
      </trkpt>
      <trkpt lat="45.94427" lon="4.72778">
        <ele>168</ele>
        <time>2017-08-03T14:18:01Z</time>
      </trkpt>
      <trkpt lat="45.94426" lon="4.72769">
        <ele>169</ele>
        <time>2017-08-03T14:18:02Z</time>
      </trkpt>
      <trkpt lat="45.94424" lon="4.72761">
        <ele>169</ele>
        <time>2017-08-03T14:18:03Z</time>
      </trkpt>
      <trkpt lat="45.94423" lon="4.72752">
        <ele>170</ele>
        <time>2017-08-03T14:18:04Z</time>
      </trkpt>
      <trkpt lat="45.94421" lon="4.72744">
        <ele>171</ele>
        <time>2017-08-03T14:18:05Z</time>
      </trkpt>
      <trkpt lat="45.9442" lon="4.72735">
        <ele>171</ele>
        <time>2017-08-03T14:18:06Z</time>
      </trkpt>
      <trkpt lat="45.94419" lon="4.72727">
        <ele>171</ele>
        <time>2017-08-03T14:18:07Z</time>
      </trkpt>
      <trkpt lat="45.94418" lon="4.72719">
        <ele>171</ele>
        <time>2017-08-03T14:18:08Z</time>
      </trkpt>
      <trkpt lat="45.94417" lon="4.72711">
        <ele>172</ele>
        <time>2017-08-03T14:18:09Z</time>
      </trkpt>
      <trkpt lat="45.94416" lon="4.72702">
        <ele>172</ele>
        <time>2017-08-03T14:18:10Z</time>
      </trkpt>
      <trkpt lat="45.94415" lon="4.72695">
        <ele>173</ele>
        <time>2017-08-03T14:18:11Z</time>
      </trkpt>
      <trkpt lat="45.94414" lon="4.72686">
        <ele>173</ele>
        <time>2017-08-03T14:18:12Z</time>
      </trkpt>
      <trkpt lat="45.94414" lon="4.72678">
        <ele>173</ele>
        <time>2017-08-03T14:18:13Z</time>
      </trkpt>
      <trkpt lat="45.94414" lon="4.7267">
        <ele>174</ele>
        <time>2017-08-03T14:18:14Z</time>
      </trkpt>
      <trkpt lat="45.94414" lon="4.72662">
        <ele>174</ele>
        <time>2017-08-03T14:18:15Z</time>
      </trkpt>
      <trkpt lat="45.94413" lon="4.72654">
        <ele>174</ele>
        <time>2017-08-03T14:18:16Z</time>
      </trkpt>
      <trkpt lat="45.94411" lon="4.72646">
        <ele>174</ele>
        <time>2017-08-03T14:18:17Z</time>
      </trkpt>
      <trkpt lat="45.94411" lon="4.72637">
        <ele>174</ele>
        <time>2017-08-03T14:18:18Z</time>
      </trkpt>
      <trkpt lat="45.94409" lon="4.7263">
        <ele>174</ele>
        <time>2017-08-03T14:18:19Z</time>
      </trkpt>
      <trkpt lat="45.94408" lon="4.72622">
        <ele>173</ele>
        <time>2017-08-03T14:18:20Z</time>
      </trkpt>
      <trkpt lat="45.94407" lon="4.72615">
        <ele>173</ele>
        <time>2017-08-03T14:18:21Z</time>
      </trkpt>
      <trkpt lat="45.94406" lon="4.72602">
        <ele>173</ele>
        <time>2017-08-03T14:18:23Z</time>
      </trkpt>
      <trkpt lat="45.94405" lon="4.72596">
        <ele>173</ele>
        <time>2017-08-03T14:18:24Z</time>
      </trkpt>
      <trkpt lat="45.94404" lon="4.72589">
        <ele>173</ele>
        <time>2017-08-03T14:18:25Z</time>
      </trkpt>
      <trkpt lat="45.94403" lon="4.72581">
        <ele>173</ele>
        <time>2017-08-03T14:18:26Z</time>
      </trkpt>
      <trkpt lat="45.94401" lon="4.72573">
        <ele>173</ele>
        <time>2017-08-03T14:18:27Z</time>
      </trkpt>
      <trkpt lat="45.944" lon="4.72565">
        <ele>173</ele>
        <time>2017-08-03T14:18:28Z</time>
      </trkpt>
      <trkpt lat="45.94398" lon="4.72558">
        <ele>173</ele>
        <time>2017-08-03T14:18:29Z</time>
      </trkpt>
      <trkpt lat="45.94397" lon="4.7255">
        <ele>173</ele>
        <time>2017-08-03T14:18:30Z</time>
      </trkpt>
      <trkpt lat="45.94395" lon="4.72543">
        <ele>173</ele>
        <time>2017-08-03T14:18:31Z</time>
      </trkpt>
      <trkpt lat="45.94394" lon="4.72535">
        <ele>174</ele>
        <time>2017-08-03T14:18:32Z</time>
      </trkpt>
      <trkpt lat="45.94392" lon="4.72529">
        <ele>174</ele>
        <time>2017-08-03T14:18:33Z</time>
      </trkpt>
      <trkpt lat="45.9439" lon="4.72523">
        <ele>174</ele>
        <time>2017-08-03T14:18:34Z</time>
      </trkpt>
      <trkpt lat="45.94386" lon="4.72512">
        <ele>174</ele>
        <time>2017-08-03T14:18:36Z</time>
      </trkpt>
      <trkpt lat="45.94384" lon="4.72505">
        <ele>174</ele>
        <time>2017-08-03T14:18:37Z</time>
      </trkpt>
      <trkpt lat="45.94382" lon="4.72498">
        <ele>173</ele>
        <time>2017-08-03T14:18:38Z</time>
      </trkpt>
      <trkpt lat="45.9438" lon="4.72492">
        <ele>173</ele>
        <time>2017-08-03T14:18:39Z</time>
      </trkpt>
      <trkpt lat="45.94377" lon="4.72484">
        <ele>173</ele>
        <time>2017-08-03T14:18:40Z</time>
      </trkpt>
      <trkpt lat="45.94374" lon="4.72478">
        <ele>173</ele>
        <time>2017-08-03T14:18:41Z</time>
      </trkpt>
      <trkpt lat="45.94371" lon="4.72471">
        <ele>173</ele>
        <time>2017-08-03T14:18:42Z</time>
      </trkpt>
      <trkpt lat="45.94368" lon="4.72464">
        <ele>173</ele>
        <time>2017-08-03T14:18:43Z</time>
      </trkpt>
      <trkpt lat="45.94365" lon="4.72458">
        <ele>173</ele>
        <time>2017-08-03T14:18:44Z</time>
      </trkpt>
      <trkpt lat="45.94363" lon="4.72453">
        <ele>173</ele>
        <time>2017-08-03T14:18:45Z</time>
      </trkpt>
      <trkpt lat="45.9436" lon="4.72448">
        <ele>173</ele>
        <time>2017-08-03T14:18:46Z</time>
      </trkpt>
      <trkpt lat="45.94357" lon="4.72442">
        <ele>173</ele>
        <time>2017-08-03T14:18:47Z</time>
      </trkpt>
      <trkpt lat="45.94354" lon="4.72435">
        <ele>173</ele>
        <time>2017-08-03T14:18:48Z</time>
      </trkpt>
      <trkpt lat="45.94352" lon="4.72428">
        <ele>173</ele>
        <time>2017-08-03T14:18:49Z</time>
      </trkpt>
      <trkpt lat="45.94349" lon="4.72421">
        <ele>173</ele>
        <time>2017-08-03T14:18:50Z</time>
      </trkpt>
      <trkpt lat="45.94346" lon="4.72413">
        <ele>173</ele>
        <time>2017-08-03T14:18:51Z</time>
      </trkpt>
      <trkpt lat="45.94343" lon="4.72406">
        <ele>173</ele>
        <time>2017-08-03T14:18:52Z</time>
      </trkpt>
      <trkpt lat="45.9434" lon="4.724">
        <ele>172</ele>
        <time>2017-08-03T14:18:53Z</time>
      </trkpt>
      <trkpt lat="45.94336" lon="4.72394">
        <ele>172</ele>
        <time>2017-08-03T14:18:54Z</time>
      </trkpt>
      <trkpt lat="45.94333" lon="4.72388">
        <ele>172</ele>
        <time>2017-08-03T14:18:55Z</time>
      </trkpt>
      <trkpt lat="45.94329" lon="4.72378">
        <ele>172</ele>
        <time>2017-08-03T14:18:57Z</time>
      </trkpt>
      <trkpt lat="45.94326" lon="4.72372">
        <ele>172</ele>
        <time>2017-08-03T14:18:58Z</time>
      </trkpt>
      <trkpt lat="45.94324" lon="4.72366">
        <ele>172</ele>
        <time>2017-08-03T14:18:59Z</time>
      </trkpt>
      <trkpt lat="45.94322" lon="4.7236">
        <ele>172</ele>
        <time>2017-08-03T14:19:00Z</time>
      </trkpt>
      <trkpt lat="45.94318" lon="4.72349">
        <ele>172</ele>
        <time>2017-08-03T14:19:02Z</time>
      </trkpt>
      <trkpt lat="45.94315" lon="4.72344">
        <ele>172</ele>
        <time>2017-08-03T14:19:03Z</time>
      </trkpt>
      <trkpt lat="45.94313" lon="4.72338">
        <ele>172</ele>
        <time>2017-08-03T14:19:04Z</time>
      </trkpt>
      <trkpt lat="45.9431" lon="4.72332">
        <ele>172</ele>
        <time>2017-08-03T14:19:05Z</time>
      </trkpt>
      <trkpt lat="45.94306" lon="4.72325">
        <ele>171</ele>
        <time>2017-08-03T14:19:06Z</time>
      </trkpt>
      <trkpt lat="45.94304" lon="4.72317">
        <ele>171</ele>
        <time>2017-08-03T14:19:07Z</time>
      </trkpt>
      <trkpt lat="45.94301" lon="4.72311">
        <ele>171</ele>
        <time>2017-08-03T14:19:08Z</time>
      </trkpt>
      <trkpt lat="45.94298" lon="4.72305">
        <ele>171</ele>
        <time>2017-08-03T14:19:09Z</time>
      </trkpt>
      <trkpt lat="45.94295" lon="4.723">
        <ele>171</ele>
        <time>2017-08-03T14:19:10Z</time>
      </trkpt>
      <trkpt lat="45.94293" lon="4.72294">
        <ele>171</ele>
        <time>2017-08-03T14:19:11Z</time>
      </trkpt>
      <trkpt lat="45.9429" lon="4.72289">
        <ele>171</ele>
        <time>2017-08-03T14:19:12Z</time>
      </trkpt>
      <trkpt lat="45.94287" lon="4.72283">
        <ele>171</ele>
        <time>2017-08-03T14:19:13Z</time>
      </trkpt>
      <trkpt lat="45.94284" lon="4.72277">
        <ele>171</ele>
        <time>2017-08-03T14:19:14Z</time>
      </trkpt>
      <trkpt lat="45.9428" lon="4.72272">
        <ele>171</ele>
        <time>2017-08-03T14:19:15Z</time>
      </trkpt>
      <trkpt lat="45.94272" lon="4.72267">
        <ele>171</ele>
        <time>2017-08-03T14:19:17Z</time>
      </trkpt>
      <trkpt lat="45.94268" lon="4.72267">
        <ele>171</ele>
        <time>2017-08-03T14:19:18Z</time>
      </trkpt>
      <trkpt lat="45.94259" lon="4.72271">
        <ele>171</ele>
        <time>2017-08-03T14:19:20Z</time>
      </trkpt>
      <trkpt lat="45.94256" lon="4.72273">
        <ele>171</ele>
        <time>2017-08-03T14:19:21Z</time>
      </trkpt>
      <trkpt lat="45.94248" lon="4.72277">
        <ele>171</ele>
        <time>2017-08-03T14:19:23Z</time>
      </trkpt>
      <trkpt lat="45.94244" lon="4.72279">
        <ele>171</ele>
        <time>2017-08-03T14:19:24Z</time>
      </trkpt>
      <trkpt lat="45.94239" lon="4.72281">
        <ele>171</ele>
        <time>2017-08-03T14:19:25Z</time>
      </trkpt>
      <trkpt lat="45.94234" lon="4.72281">
        <ele>171</ele>
        <time>2017-08-03T14:19:26Z</time>
      </trkpt>
      <trkpt lat="45.94226" lon="4.72284">
        <ele>171</ele>
        <time>2017-08-03T14:19:28Z</time>
      </trkpt>
      <trkpt lat="45.94222" lon="4.72286">
        <ele>171</ele>
        <time>2017-08-03T14:19:29Z</time>
      </trkpt>
      <trkpt lat="45.94214" lon="4.72287">
        <ele>171</ele>
        <time>2017-08-03T14:19:31Z</time>
      </trkpt>
      <trkpt lat="45.94211" lon="4.72287">
        <ele>171</ele>
        <time>2017-08-03T14:19:32Z</time>
      </trkpt>
      <trkpt lat="45.94204" lon="4.72289">
        <ele>171</ele>
        <time>2017-08-03T14:19:34Z</time>
      </trkpt>
      <trkpt lat="45.942" lon="4.72289">
        <ele>171</ele>
        <time>2017-08-03T14:19:35Z</time>
      </trkpt>
      <trkpt lat="45.94194" lon="4.7229">
        <ele>171</ele>
        <time>2017-08-03T14:19:37Z</time>
      </trkpt>
      <trkpt lat="45.9419" lon="4.7229">
        <ele>171</ele>
        <time>2017-08-03T14:19:38Z</time>
      </trkpt>
      <trkpt lat="45.94182" lon="4.72289">
        <ele>171</ele>
        <time>2017-08-03T14:19:40Z</time>
      </trkpt>
      <trkpt lat="45.94178" lon="4.72289">
        <ele>171</ele>
        <time>2017-08-03T14:19:41Z</time>
      </trkpt>
      <trkpt lat="45.94172" lon="4.72288">
        <ele>171</ele>
        <time>2017-08-03T14:19:42Z</time>
      </trkpt>
      <trkpt lat="45.94167" lon="4.72288">
        <ele>171</ele>
        <time>2017-08-03T14:19:43Z</time>
      </trkpt>
      <trkpt lat="45.94162" lon="4.72287">
        <ele>171</ele>
        <time>2017-08-03T14:19:44Z</time>
      </trkpt>
      <trkpt lat="45.94156" lon="4.72286">
        <ele>171</ele>
        <time>2017-08-03T14:19:45Z</time>
      </trkpt>
      <trkpt lat="45.94151" lon="4.72284">
        <ele>171</ele>
        <time>2017-08-03T14:19:46Z</time>
      </trkpt>
      <trkpt lat="45.94146" lon="4.72281">
        <ele>171</ele>
        <time>2017-08-03T14:19:47Z</time>
      </trkpt>
      <trkpt lat="45.94141" lon="4.72278">
        <ele>171</ele>
        <time>2017-08-03T14:19:48Z</time>
      </trkpt>
      <trkpt lat="45.94137" lon="4.72276">
        <ele>171</ele>
        <time>2017-08-03T14:19:49Z</time>
      </trkpt>
      <trkpt lat="45.94132" lon="4.72272">
        <ele>171</ele>
        <time>2017-08-03T14:19:50Z</time>
      </trkpt>
      <trkpt lat="45.94127" lon="4.7227">
        <ele>171</ele>
        <time>2017-08-03T14:19:51Z</time>
      </trkpt>
      <trkpt lat="45.94122" lon="4.72268">
        <ele>171</ele>
        <time>2017-08-03T14:19:52Z</time>
      </trkpt>
      <trkpt lat="45.94117" lon="4.72265">
        <ele>171</ele>
        <time>2017-08-03T14:19:53Z</time>
      </trkpt>
      <trkpt lat="45.94111" lon="4.72263">
        <ele>171</ele>
        <time>2017-08-03T14:19:54Z</time>
      </trkpt>
      <trkpt lat="45.94105" lon="4.72263">
        <ele>171</ele>
        <time>2017-08-03T14:19:55Z</time>
      </trkpt>
      <trkpt lat="45.94099" lon="4.72263">
        <ele>171</ele>
        <time>2017-08-03T14:19:56Z</time>
      </trkpt>
      <trkpt lat="45.94092" lon="4.72264">
        <ele>171</ele>
        <time>2017-08-03T14:19:57Z</time>
      </trkpt>
      <trkpt lat="45.94086" lon="4.72265">
        <ele>171</ele>
        <time>2017-08-03T14:19:58Z</time>
      </trkpt>
      <trkpt lat="45.94079" lon="4.72268">
        <ele>171</ele>
        <time>2017-08-03T14:19:59Z</time>
      </trkpt>
      <trkpt lat="45.94073" lon="4.72272">
        <ele>171</ele>
        <time>2017-08-03T14:20:00Z</time>
      </trkpt>
      <trkpt lat="45.94068" lon="4.72277">
        <ele>171</ele>
        <time>2017-08-03T14:20:01Z</time>
      </trkpt>
      <trkpt lat="45.94063" lon="4.72284">
        <ele>171</ele>
        <time>2017-08-03T14:20:02Z</time>
      </trkpt>
      <trkpt lat="45.94059" lon="4.7229">
        <ele>171</ele>
        <time>2017-08-03T14:20:03Z</time>
      </trkpt>
      <trkpt lat="45.94054" lon="4.72295">
        <ele>171</ele>
        <time>2017-08-03T14:20:04Z</time>
      </trkpt>
      <trkpt lat="45.94049" lon="4.72301">
        <ele>171</ele>
        <time>2017-08-03T14:20:05Z</time>
      </trkpt>
      <trkpt lat="45.94044" lon="4.72306">
        <ele>171</ele>
        <time>2017-08-03T14:20:06Z</time>
      </trkpt>
      <trkpt lat="45.9404" lon="4.72311">
        <ele>171</ele>
        <time>2017-08-03T14:20:07Z</time>
      </trkpt>
      <trkpt lat="45.94036" lon="4.72317">
        <ele>171</ele>
        <time>2017-08-03T14:20:08Z</time>
      </trkpt>
      <trkpt lat="45.94032" lon="4.72322">
        <ele>171</ele>
        <time>2017-08-03T14:20:09Z</time>
      </trkpt>
      <trkpt lat="45.94027" lon="4.72327">
        <ele>171</ele>
        <time>2017-08-03T14:20:10Z</time>
      </trkpt>
      <trkpt lat="45.94023" lon="4.72332">
        <ele>171</ele>
        <time>2017-08-03T14:20:11Z</time>
      </trkpt>
      <trkpt lat="45.94019" lon="4.72338">
        <ele>171</ele>
        <time>2017-08-03T14:20:12Z</time>
      </trkpt>
      <trkpt lat="45.94015" lon="4.72343">
        <ele>171</ele>
        <time>2017-08-03T14:20:13Z</time>
      </trkpt>
      <trkpt lat="45.94011" lon="4.72348">
        <ele>171</ele>
        <time>2017-08-03T14:20:14Z</time>
      </trkpt>
      <trkpt lat="45.94008" lon="4.72353">
        <ele>171</ele>
        <time>2017-08-03T14:20:15Z</time>
      </trkpt>
      <trkpt lat="45.94004" lon="4.72358">
        <ele>171</ele>
        <time>2017-08-03T14:20:16Z</time>
      </trkpt>
      <trkpt lat="45.93999" lon="4.72362">
        <ele>171</ele>
        <time>2017-08-03T14:20:17Z</time>
      </trkpt>
      <trkpt lat="45.93996" lon="4.72366">
        <ele>171</ele>
        <time>2017-08-03T14:20:18Z</time>
      </trkpt>
      <trkpt lat="45.93992" lon="4.7237">
        <ele>171</ele>
        <time>2017-08-03T14:20:19Z</time>
      </trkpt>
      <trkpt lat="45.93988" lon="4.72374">
        <ele>171</ele>
        <time>2017-08-03T14:20:20Z</time>
      </trkpt>
      <trkpt lat="45.93984" lon="4.72378">
        <ele>171</ele>
        <time>2017-08-03T14:20:21Z</time>
      </trkpt>
      <trkpt lat="45.9398" lon="4.72383">
        <ele>171</ele>
        <time>2017-08-03T14:20:22Z</time>
      </trkpt>
      <trkpt lat="45.93975" lon="4.72387">
        <ele>171</ele>
        <time>2017-08-03T14:20:23Z</time>
      </trkpt>
      <trkpt lat="45.93971" lon="4.72393">
        <ele>171</ele>
        <time>2017-08-03T14:20:24Z</time>
      </trkpt>
      <trkpt lat="45.93966" lon="4.72398">
        <ele>171</ele>
        <time>2017-08-03T14:20:25Z</time>
      </trkpt>
      <trkpt lat="45.93961" lon="4.72404">
        <ele>171</ele>
        <time>2017-08-03T14:20:26Z</time>
      </trkpt>
      <trkpt lat="45.93956" lon="4.7241">
        <ele>171</ele>
        <time>2017-08-03T14:20:27Z</time>
      </trkpt>
      <trkpt lat="45.93951" lon="4.72417">
        <ele>171</ele>
        <time>2017-08-03T14:20:28Z</time>
      </trkpt>
      <trkpt lat="45.93946" lon="4.72423">
        <ele>171</ele>
        <time>2017-08-03T14:20:29Z</time>
      </trkpt>
      <trkpt lat="45.93942" lon="4.72428">
        <ele>171</ele>
        <time>2017-08-03T14:20:30Z</time>
      </trkpt>
      <trkpt lat="45.93938" lon="4.72433">
        <ele>171</ele>
        <time>2017-08-03T14:20:31Z</time>
      </trkpt>
      <trkpt lat="45.93934" lon="4.72439">
        <ele>171</ele>
        <time>2017-08-03T14:20:32Z</time>
      </trkpt>
      <trkpt lat="45.93929" lon="4.72444">
        <ele>171</ele>
        <time>2017-08-03T14:20:33Z</time>
      </trkpt>
      <trkpt lat="45.93925" lon="4.7245">
        <ele>171</ele>
        <time>2017-08-03T14:20:34Z</time>
      </trkpt>
      <trkpt lat="45.9392" lon="4.72456">
        <ele>171</ele>
        <time>2017-08-03T14:20:35Z</time>
      </trkpt>
      <trkpt lat="45.93915" lon="4.72461">
        <ele>172</ele>
        <time>2017-08-03T14:20:36Z</time>
      </trkpt>
      <trkpt lat="45.93911" lon="4.72467">
        <ele>172</ele>
        <time>2017-08-03T14:20:37Z</time>
      </trkpt>
      <trkpt lat="45.93906" lon="4.72473">
        <ele>172</ele>
        <time>2017-08-03T14:20:38Z</time>
      </trkpt>
      <trkpt lat="45.93903" lon="4.72478">
        <ele>172</ele>
        <time>2017-08-03T14:20:39Z</time>
      </trkpt>
      <trkpt lat="45.93899" lon="4.72483">
        <ele>172</ele>
        <time>2017-08-03T14:20:40Z</time>
      </trkpt>
      <trkpt lat="45.93896" lon="4.72487">
        <ele>172</ele>
        <time>2017-08-03T14:20:41Z</time>
      </trkpt>
      <trkpt lat="45.93889" lon="4.72496">
        <ele>172</ele>
        <time>2017-08-03T14:20:43Z</time>
      </trkpt>
      <trkpt lat="45.93885" lon="4.725">
        <ele>172</ele>
        <time>2017-08-03T14:20:44Z</time>
      </trkpt>
      <trkpt lat="45.93879" lon="4.72506">
        <ele>173</ele>
        <time>2017-08-03T14:20:46Z</time>
      </trkpt>
      <trkpt lat="45.93875" lon="4.72508">
        <ele>173</ele>
        <time>2017-08-03T14:20:47Z</time>
      </trkpt>
      <trkpt lat="45.93866" lon="4.72511">
        <ele>173</ele>
        <time>2017-08-03T14:20:49Z</time>
      </trkpt>
      <trkpt lat="45.93862" lon="4.72512">
        <ele>173</ele>
        <time>2017-08-03T14:20:50Z</time>
      </trkpt>
      <trkpt lat="45.93855" lon="4.72508">
        <ele>173</ele>
        <time>2017-08-03T14:20:52Z</time>
      </trkpt>
      <trkpt lat="45.93852" lon="4.72505">
        <ele>173</ele>
        <time>2017-08-03T14:20:53Z</time>
      </trkpt>
      <trkpt lat="45.93846" lon="4.72496">
        <ele>173</ele>
        <time>2017-08-03T14:20:56Z</time>
      </trkpt>
      <trkpt lat="45.93844" lon="4.72493">
        <ele>173</ele>
        <time>2017-08-03T14:20:57Z</time>
      </trkpt>
      <trkpt lat="45.93841" lon="4.72481">
        <ele>173</ele>
        <time>2017-08-03T14:20:59Z</time>
      </trkpt>
      <trkpt lat="45.93839" lon="4.72475">
        <ele>173</ele>
        <time>2017-08-03T14:21:00Z</time>
      </trkpt>
      <trkpt lat="45.93832" lon="4.7247">
        <ele>172</ele>
        <time>2017-08-03T14:21:01Z</time>
      </trkpt>
      <trkpt lat="45.93827" lon="4.72465">
        <ele>172</ele>
        <time>2017-08-03T14:21:02Z</time>
      </trkpt>
      <trkpt lat="45.93822" lon="4.72461">
        <ele>172</ele>
        <time>2017-08-03T14:21:03Z</time>
      </trkpt>
      <trkpt lat="45.93818" lon="4.72458">
        <ele>172</ele>
        <time>2017-08-03T14:21:04Z</time>
      </trkpt>
      <trkpt lat="45.93812" lon="4.72451">
        <ele>172</ele>
        <time>2017-08-03T14:21:06Z</time>
      </trkpt>
      <trkpt lat="45.93808" lon="4.72447">
        <ele>172</ele>
        <time>2017-08-03T14:21:07Z</time>
      </trkpt>
      <trkpt lat="45.93801" lon="4.7244">
        <ele>172</ele>
        <time>2017-08-03T14:21:09Z</time>
      </trkpt>
      <trkpt lat="45.93797" lon="4.72436">
        <ele>172</ele>
        <time>2017-08-03T14:21:10Z</time>
      </trkpt>
      <trkpt lat="45.93793" lon="4.72432">
        <ele>172</ele>
        <time>2017-08-03T14:21:11Z</time>
      </trkpt>
      <trkpt lat="45.93788" lon="4.72429">
        <ele>172</ele>
        <time>2017-08-03T14:21:12Z</time>
      </trkpt>
      <trkpt lat="45.93784" lon="4.72425">
        <ele>172</ele>
        <time>2017-08-03T14:21:13Z</time>
      </trkpt>
      <trkpt lat="45.9378" lon="4.72421">
        <ele>172</ele>
        <time>2017-08-03T14:21:14Z</time>
      </trkpt>
      <trkpt lat="45.93775" lon="4.72415">
        <ele>171</ele>
        <time>2017-08-03T14:21:15Z</time>
      </trkpt>
      <trkpt lat="45.93771" lon="4.72409">
        <ele>171</ele>
        <time>2017-08-03T14:21:16Z</time>
      </trkpt>
      <trkpt lat="45.93767" lon="4.72404">
        <ele>171</ele>
        <time>2017-08-03T14:21:17Z</time>
      </trkpt>
      <trkpt lat="45.93762" lon="4.724">
        <ele>171</ele>
        <time>2017-08-03T14:21:18Z</time>
      </trkpt>
      <trkpt lat="45.93758" lon="4.72396">
        <ele>171</ele>
        <time>2017-08-03T14:21:19Z</time>
      </trkpt>
      <trkpt lat="45.93755" lon="4.72393">
        <ele>171</ele>
        <time>2017-08-03T14:21:20Z</time>
      </trkpt>
      <trkpt lat="45.9375" lon="4.7239">
        <ele>171</ele>
        <time>2017-08-03T14:21:21Z</time>
      </trkpt>
      <trkpt lat="45.93744" lon="4.72387">
        <ele>171</ele>
        <time>2017-08-03T14:21:22Z</time>
      </trkpt>
      <trkpt lat="45.93738" lon="4.72383">
        <ele>171</ele>
        <time>2017-08-03T14:21:23Z</time>
      </trkpt>
      <trkpt lat="45.93733" lon="4.72379">
        <ele>171</ele>
        <time>2017-08-03T14:21:24Z</time>
      </trkpt>
      <trkpt lat="45.93727" lon="4.72373">
        <ele>172</ele>
        <time>2017-08-03T14:21:25Z</time>
      </trkpt>
      <trkpt lat="45.93723" lon="4.7237">
        <ele>172</ele>
        <time>2017-08-03T14:21:26Z</time>
      </trkpt>
      <trkpt lat="45.93718" lon="4.72366">
        <ele>172</ele>
        <time>2017-08-03T14:21:27Z</time>
      </trkpt>
      <trkpt lat="45.93713" lon="4.72361">
        <ele>172</ele>
        <time>2017-08-03T14:21:28Z</time>
      </trkpt>
      <trkpt lat="45.93708" lon="4.72356">
        <ele>171</ele>
        <time>2017-08-03T14:21:29Z</time>
      </trkpt>
      <trkpt lat="45.93703" lon="4.7235">
        <ele>171</ele>
        <time>2017-08-03T14:21:30Z</time>
      </trkpt>
      <trkpt lat="45.93698" lon="4.72345">
        <ele>171</ele>
        <time>2017-08-03T14:21:31Z</time>
      </trkpt>
      <trkpt lat="45.93694" lon="4.72342">
        <ele>171</ele>
        <time>2017-08-03T14:21:32Z</time>
      </trkpt>
      <trkpt lat="45.93692" lon="4.72337">
        <ele>171</ele>
        <time>2017-08-03T14:21:33Z</time>
      </trkpt>
      <trkpt lat="45.93687" lon="4.72332">
        <ele>172</ele>
        <time>2017-08-03T14:21:34Z</time>
      </trkpt>
      <trkpt lat="45.9368" lon="4.72325">
        <ele>171</ele>
        <time>2017-08-03T14:21:36Z</time>
      </trkpt>
      <trkpt lat="45.93675" lon="4.72322">
        <ele>171</ele>
        <time>2017-08-03T14:21:37Z</time>
      </trkpt>
      <trkpt lat="45.93668" lon="4.72314">
        <ele>172</ele>
        <time>2017-08-03T14:21:39Z</time>
      </trkpt>
      <trkpt lat="45.93665" lon="4.7231">
        <ele>172</ele>
        <time>2017-08-03T14:21:40Z</time>
      </trkpt>
      <trkpt lat="45.9366" lon="4.72306">
        <ele>172</ele>
        <time>2017-08-03T14:21:41Z</time>
      </trkpt>
      <trkpt lat="45.93656" lon="4.72302">
        <ele>172</ele>
        <time>2017-08-03T14:21:42Z</time>
      </trkpt>
      <trkpt lat="45.93651" lon="4.72298">
        <ele>172</ele>
        <time>2017-08-03T14:21:43Z</time>
      </trkpt>
      <trkpt lat="45.93646" lon="4.72294">
        <ele>172</ele>
        <time>2017-08-03T14:21:44Z</time>
      </trkpt>
      <trkpt lat="45.93643" lon="4.72291">
        <ele>172</ele>
        <time>2017-08-03T14:21:45Z</time>
      </trkpt>
      <trkpt lat="45.93639" lon="4.72286">
        <ele>172</ele>
        <time>2017-08-03T14:21:46Z</time>
      </trkpt>
      <trkpt lat="45.93635" lon="4.72283">
        <ele>172</ele>
        <time>2017-08-03T14:21:47Z</time>
      </trkpt>
      <trkpt lat="45.93631" lon="4.72279">
        <ele>172</ele>
        <time>2017-08-03T14:21:48Z</time>
      </trkpt>
      <trkpt lat="45.93624" lon="4.72273">
        <ele>172</ele>
        <time>2017-08-03T14:21:50Z</time>
      </trkpt>
      <trkpt lat="45.9362" lon="4.72269">
        <ele>172</ele>
        <time>2017-08-03T14:21:51Z</time>
      </trkpt>
      <trkpt lat="45.93613" lon="4.72263">
        <ele>172</ele>
        <time>2017-08-03T14:21:53Z</time>
      </trkpt>
      <trkpt lat="45.93609" lon="4.7226">
        <ele>172</ele>
        <time>2017-08-03T14:21:54Z</time>
      </trkpt>
      <trkpt lat="45.93601" lon="4.72254">
        <ele>173</ele>
        <time>2017-08-03T14:21:56Z</time>
      </trkpt>
      <trkpt lat="45.93599" lon="4.72251">
        <ele>173</ele>
        <time>2017-08-03T14:21:57Z</time>
      </trkpt>
      <trkpt lat="45.93591" lon="4.72245">
        <ele>173</ele>
        <time>2017-08-03T14:22:00Z</time>
      </trkpt>
      <trkpt lat="45.9359" lon="4.72243">
        <ele>173</ele>
        <time>2017-08-03T14:22:01Z</time>
      </trkpt>
      <trkpt lat="45.93583" lon="4.72244">
        <ele>173</ele>
        <time>2017-08-03T14:22:10Z</time>
      </trkpt>
      <trkpt lat="45.93582" lon="4.72243">
        <ele>173</ele>
        <time>2017-08-03T14:22:11Z</time>
      </trkpt>
      <trkpt lat="45.93577" lon="4.7224">
        <ele>173</ele>
        <time>2017-08-03T14:22:14Z</time>
      </trkpt>
      <trkpt lat="45.93575" lon="4.72236">
        <ele>173</ele>
        <time>2017-08-03T14:22:15Z</time>
      </trkpt>
      <trkpt lat="45.93571" lon="4.7223">
        <ele>173</ele>
        <time>2017-08-03T14:22:17Z</time>
      </trkpt>
      <trkpt lat="45.93569" lon="4.72228">
        <ele>173</ele>
        <time>2017-08-03T14:22:18Z</time>
      </trkpt>
      <trkpt lat="45.9356" lon="4.72228">
        <ele>173</ele>
        <time>2017-08-03T14:22:21Z</time>
      </trkpt>
      <trkpt lat="45.93557" lon="4.7223">
        <ele>173</ele>
        <time>2017-08-03T14:22:22Z</time>
      </trkpt>
      <trkpt lat="45.93553" lon="4.72238">
        <ele>172</ele>
        <time>2017-08-03T14:22:24Z</time>
      </trkpt>
      <trkpt lat="45.93549" lon="4.72243">
        <ele>172</ele>
        <time>2017-08-03T14:22:25Z</time>
      </trkpt>
      <trkpt lat="45.93545" lon="4.72252">
        <ele>172</ele>
        <time>2017-08-03T14:22:27Z</time>
      </trkpt>
      <trkpt lat="45.93543" lon="4.72256">
        <ele>172</ele>
        <time>2017-08-03T14:22:28Z</time>
      </trkpt>
      <trkpt lat="45.93539" lon="4.72264">
        <ele>172</ele>
        <time>2017-08-03T14:22:30Z</time>
      </trkpt>
      <trkpt lat="45.93538" lon="4.72267">
        <ele>172</ele>
        <time>2017-08-03T14:22:31Z</time>
      </trkpt>
      <trkpt lat="45.93535" lon="4.72275">
        <ele>172</ele>
        <time>2017-08-03T14:22:33Z</time>
      </trkpt>
      <trkpt lat="45.93533" lon="4.72278">
        <ele>172</ele>
        <time>2017-08-03T14:22:34Z</time>
      </trkpt>
      <trkpt lat="45.93529" lon="4.72289">
        <ele>172</ele>
        <time>2017-08-03T14:22:37Z</time>
      </trkpt>
      <trkpt lat="45.93527" lon="4.72292">
        <ele>172</ele>
        <time>2017-08-03T14:22:38Z</time>
      </trkpt>
      <trkpt lat="45.93523" lon="4.72299">
        <ele>172</ele>
        <time>2017-08-03T14:22:40Z</time>
      </trkpt>
      <trkpt lat="45.93521" lon="4.72303">
        <ele>173</ele>
        <time>2017-08-03T14:22:41Z</time>
      </trkpt>
      <trkpt lat="45.93517" lon="4.72311">
        <ele>173</ele>
        <time>2017-08-03T14:22:43Z</time>
      </trkpt>
      <trkpt lat="45.93515" lon="4.72316">
        <ele>173</ele>
        <time>2017-08-03T14:22:44Z</time>
      </trkpt>
      <trkpt lat="45.93513" lon="4.72328">
        <ele>173</ele>
        <time>2017-08-03T14:22:46Z</time>
      </trkpt>
      <trkpt lat="45.93514" lon="4.72336">
        <ele>173</ele>
        <time>2017-08-03T14:22:47Z</time>
      </trkpt>
      <trkpt lat="45.93517" lon="4.72343">
        <ele>173</ele>
        <time>2017-08-03T14:22:48Z</time>
      </trkpt>
      <trkpt lat="45.9352" lon="4.7235">
        <ele>173</ele>
        <time>2017-08-03T14:22:49Z</time>
      </trkpt>
      <trkpt lat="45.93523" lon="4.72357">
        <ele>173</ele>
        <time>2017-08-03T14:22:50Z</time>
      </trkpt>
      <trkpt lat="45.93526" lon="4.72364">
        <ele>173</ele>
        <time>2017-08-03T14:22:51Z</time>
      </trkpt>
      <trkpt lat="45.93528" lon="4.7237">
        <ele>173</ele>
        <time>2017-08-03T14:22:52Z</time>
      </trkpt>
      <trkpt lat="45.93531" lon="4.72376">
        <ele>173</ele>
        <time>2017-08-03T14:22:53Z</time>
      </trkpt>
      <trkpt lat="45.93533" lon="4.72382">
        <ele>173</ele>
        <time>2017-08-03T14:22:54Z</time>
      </trkpt>
      <trkpt lat="45.93535" lon="4.72389">
        <ele>173</ele>
        <time>2017-08-03T14:22:55Z</time>
      </trkpt>
      <trkpt lat="45.93539" lon="4.72396">
        <ele>173</ele>
        <time>2017-08-03T14:22:56Z</time>
      </trkpt>
      <trkpt lat="45.93542" lon="4.72402">
        <ele>173</ele>
        <time>2017-08-03T14:22:57Z</time>
      </trkpt>
      <trkpt lat="45.93545" lon="4.72409">
        <ele>173</ele>
        <time>2017-08-03T14:22:58Z</time>
      </trkpt>
      <trkpt lat="45.93546" lon="4.72416">
        <ele>173</ele>
        <time>2017-08-03T14:22:59Z</time>
      </trkpt>
      <trkpt lat="45.93547" lon="4.72422">
        <ele>172</ele>
        <time>2017-08-03T14:23:00Z</time>
      </trkpt>
      <trkpt lat="45.93548" lon="4.72429">
        <ele>172</ele>
        <time>2017-08-03T14:23:01Z</time>
      </trkpt>
      <trkpt lat="45.93548" lon="4.72437">
        <ele>172</ele>
        <time>2017-08-03T14:23:02Z</time>
      </trkpt>
      <trkpt lat="45.93548" lon="4.72444">
        <ele>172</ele>
        <time>2017-08-03T14:23:03Z</time>
      </trkpt>
      <trkpt lat="45.9355" lon="4.72449">
        <ele>172</ele>
        <time>2017-08-03T14:23:04Z</time>
      </trkpt>
      <trkpt lat="45.93551" lon="4.72456">
        <ele>172</ele>
        <time>2017-08-03T14:23:05Z</time>
      </trkpt>
      <trkpt lat="45.93552" lon="4.72462">
        <ele>172</ele>
        <time>2017-08-03T14:23:06Z</time>
      </trkpt>
      <trkpt lat="45.93554" lon="4.72468">
        <ele>172</ele>
        <time>2017-08-03T14:23:07Z</time>
      </trkpt>
      <trkpt lat="45.93558" lon="4.72479">
        <ele>172</ele>
        <time>2017-08-03T14:23:09Z</time>
      </trkpt>
      <trkpt lat="45.93559" lon="4.72485">
        <ele>172</ele>
        <time>2017-08-03T14:23:10Z</time>
      </trkpt>
      <trkpt lat="45.93562" lon="4.72496">
        <ele>172</ele>
        <time>2017-08-03T14:23:12Z</time>
      </trkpt>
      <trkpt lat="45.93563" lon="4.72501">
        <ele>172</ele>
        <time>2017-08-03T14:23:13Z</time>
      </trkpt>
      <trkpt lat="45.93566" lon="4.72512">
        <ele>172</ele>
        <time>2017-08-03T14:23:15Z</time>
      </trkpt>
      <trkpt lat="45.93569" lon="4.72518">
        <ele>172</ele>
        <time>2017-08-03T14:23:16Z</time>
      </trkpt>
      <trkpt lat="45.93571" lon="4.72524">
        <ele>172</ele>
        <time>2017-08-03T14:23:17Z</time>
      </trkpt>
      <trkpt lat="45.93573" lon="4.72529">
        <ele>172</ele>
        <time>2017-08-03T14:23:18Z</time>
      </trkpt>
      <trkpt lat="45.93577" lon="4.7254">
        <ele>172</ele>
        <time>2017-08-03T14:23:20Z</time>
      </trkpt>
      <trkpt lat="45.9358" lon="4.72545">
        <ele>173</ele>
        <time>2017-08-03T14:23:21Z</time>
      </trkpt>
      <trkpt lat="45.93583" lon="4.72549">
        <ele>173</ele>
        <time>2017-08-03T14:23:22Z</time>
      </trkpt>
      <trkpt lat="45.93586" lon="4.72554">
        <ele>172</ele>
        <time>2017-08-03T14:23:23Z</time>
      </trkpt>
      <trkpt lat="45.93592" lon="4.72561">
        <ele>173</ele>
        <time>2017-08-03T14:23:25Z</time>
      </trkpt>
      <trkpt lat="45.93595" lon="4.72563">
        <ele>173</ele>
        <time>2017-08-03T14:23:26Z</time>
      </trkpt>
      <trkpt lat="45.93602" lon="4.72562">
        <ele>173</ele>
        <time>2017-08-03T14:23:28Z</time>
      </trkpt>
      <trkpt lat="45.93605" lon="4.72557">
        <ele>172</ele>
        <time>2017-08-03T14:23:29Z</time>
      </trkpt>
      <trkpt lat="45.93609" lon="4.72551">
        <ele>172</ele>
        <time>2017-08-03T14:23:30Z</time>
      </trkpt>
      <trkpt lat="45.93613" lon="4.72543">
        <ele>172</ele>
        <time>2017-08-03T14:23:31Z</time>
      </trkpt>
      <trkpt lat="45.93617" lon="4.72537">
        <ele>172</ele>
        <time>2017-08-03T14:23:32Z</time>
      </trkpt>
      <trkpt lat="45.93621" lon="4.7253">
        <ele>172</ele>
        <time>2017-08-03T14:23:33Z</time>
      </trkpt>
      <trkpt lat="45.93625" lon="4.72523">
        <ele>172</ele>
        <time>2017-08-03T14:23:34Z</time>
      </trkpt>
      <trkpt lat="45.93629" lon="4.72516">
        <ele>172</ele>
        <time>2017-08-03T14:23:35Z</time>
      </trkpt>
      <trkpt lat="45.93633" lon="4.7251">
        <ele>172</ele>
        <time>2017-08-03T14:23:36Z</time>
      </trkpt>
      <trkpt lat="45.93636" lon="4.72505">
        <ele>172</ele>
        <time>2017-08-03T14:23:37Z</time>
      </trkpt>
      <trkpt lat="45.93641" lon="4.72494">
        <ele>172</ele>
        <time>2017-08-03T14:23:39Z</time>
      </trkpt>
      <trkpt lat="45.93643" lon="4.7249">
        <ele>172</ele>
        <time>2017-08-03T14:23:40Z</time>
      </trkpt>
      <trkpt lat="45.93648" lon="4.72481">
        <ele>172</ele>
        <time>2017-08-03T14:23:42Z</time>
      </trkpt>
      <trkpt lat="45.93651" lon="4.72476">
        <ele>172</ele>
        <time>2017-08-03T14:23:43Z</time>
      </trkpt>
      <trkpt lat="45.93653" lon="4.7247">
        <ele>172</ele>
        <time>2017-08-03T14:23:44Z</time>
      </trkpt>
      <trkpt lat="45.93655" lon="4.72463">
        <ele>172</ele>
        <time>2017-08-03T14:23:45Z</time>
      </trkpt>
      <trkpt lat="45.93658" lon="4.72457">
        <ele>172</ele>
        <time>2017-08-03T14:23:46Z</time>
      </trkpt>
      <trkpt lat="45.93661" lon="4.72453">
        <ele>172</ele>
        <time>2017-08-03T14:23:47Z</time>
      </trkpt>
      <trkpt lat="45.93669" lon="4.72448">
        <ele>171</ele>
        <time>2017-08-03T14:23:49Z</time>
      </trkpt>
      <trkpt lat="45.93674" lon="4.72451">
        <ele>171</ele>
        <time>2017-08-03T14:23:50Z</time>
      </trkpt>
      <trkpt lat="45.93678" lon="4.72454">
        <ele>171</ele>
        <time>2017-08-03T14:23:51Z</time>
      </trkpt>
      <trkpt lat="45.93682" lon="4.72458">
        <ele>171</ele>
        <time>2017-08-03T14:23:52Z</time>
      </trkpt>
      <trkpt lat="45.93686" lon="4.72463">
        <ele>171</ele>
        <time>2017-08-03T14:23:53Z</time>
      </trkpt>
      <trkpt lat="45.9369" lon="4.72467">
        <ele>171</ele>
        <time>2017-08-03T14:23:54Z</time>
      </trkpt>
      <trkpt lat="45.93694" lon="4.72471">
        <ele>171</ele>
        <time>2017-08-03T14:23:55Z</time>
      </trkpt>
      <trkpt lat="45.93698" lon="4.72474">
        <ele>171</ele>
        <time>2017-08-03T14:23:56Z</time>
      </trkpt>
      <trkpt lat="45.93701" lon="4.72477">
        <ele>171</ele>
        <time>2017-08-03T14:23:57Z</time>
      </trkpt>
      <trkpt lat="45.93705" lon="4.72481">
        <ele>171</ele>
        <time>2017-08-03T14:23:58Z</time>
      </trkpt>
      <trkpt lat="45.93711" lon="4.72488">
        <ele>171</ele>
        <time>2017-08-03T14:24:00Z</time>
      </trkpt>
      <trkpt lat="45.93715" lon="4.72491">
        <ele>171</ele>
        <time>2017-08-03T14:24:01Z</time>
      </trkpt>
      <trkpt lat="45.93722" lon="4.72498">
        <ele>171</ele>
        <time>2017-08-03T14:24:03Z</time>
      </trkpt>
      <trkpt lat="45.93726" lon="4.72502">
        <ele>171</ele>
        <time>2017-08-03T14:24:04Z</time>
      </trkpt>
      <trkpt lat="45.9373" lon="4.72505">
        <ele>171</ele>
        <time>2017-08-03T14:24:05Z</time>
      </trkpt>
      <trkpt lat="45.93733" lon="4.7251">
        <ele>171</ele>
        <time>2017-08-03T14:24:06Z</time>
      </trkpt>
      <trkpt lat="45.93737" lon="4.72514">
        <ele>171</ele>
        <time>2017-08-03T14:24:07Z</time>
      </trkpt>
      <trkpt lat="45.93741" lon="4.72518">
        <ele>171</ele>
        <time>2017-08-03T14:24:08Z</time>
      </trkpt>
      <trkpt lat="45.93748" lon="4.72524">
        <ele>172</ele>
        <time>2017-08-03T14:24:10Z</time>
      </trkpt>
      <trkpt lat="45.93752" lon="4.72527">
        <ele>172</ele>
        <time>2017-08-03T14:24:11Z</time>
      </trkpt>
      <trkpt lat="45.93758" lon="4.72534">
        <ele>173</ele>
        <time>2017-08-03T14:24:13Z</time>
      </trkpt>
      <trkpt lat="45.93761" lon="4.72537">
        <ele>173</ele>
        <time>2017-08-03T14:24:14Z</time>
      </trkpt>
      <trkpt lat="45.93765" lon="4.72541">
        <ele>173</ele>
        <time>2017-08-03T14:24:15Z</time>
      </trkpt>
      <trkpt lat="45.93769" lon="4.72544">
        <ele>173</ele>
        <time>2017-08-03T14:24:16Z</time>
      </trkpt>
      <trkpt lat="45.93773" lon="4.72548">
        <ele>173</ele>
        <time>2017-08-03T14:24:17Z</time>
      </trkpt>
      <trkpt lat="45.93777" lon="4.72552">
        <ele>173</ele>
        <time>2017-08-03T14:24:18Z</time>
      </trkpt>
      <trkpt lat="45.93783" lon="4.72559">
        <ele>173</ele>
        <time>2017-08-03T14:24:20Z</time>
      </trkpt>
      <trkpt lat="45.93787" lon="4.72563">
        <ele>174</ele>
        <time>2017-08-03T14:24:21Z</time>
      </trkpt>
      <trkpt lat="45.93792" lon="4.72568">
        <ele>174</ele>
        <time>2017-08-03T14:24:23Z</time>
      </trkpt>
      <trkpt lat="45.93796" lon="4.72571">
        <ele>174</ele>
        <time>2017-08-03T14:24:24Z</time>
      </trkpt>
      <trkpt lat="45.93801" lon="4.72574">
        <ele>174</ele>
        <time>2017-08-03T14:24:25Z</time>
      </trkpt>
      <trkpt lat="45.93805" lon="4.72576">
        <ele>174</ele>
        <time>2017-08-03T14:24:26Z</time>
      </trkpt>
      <trkpt lat="45.93807" lon="4.72582">
        <ele>174</ele>
        <time>2017-08-03T14:24:27Z</time>
      </trkpt>
      <trkpt lat="45.93808" lon="4.72592">
        <ele>174</ele>
        <time>2017-08-03T14:24:28Z</time>
      </trkpt>
      <trkpt lat="45.93811" lon="4.72599">
        <ele>173</ele>
        <time>2017-08-03T14:24:29Z</time>
      </trkpt>
      <trkpt lat="45.93812" lon="4.72605">
        <ele>173</ele>
        <time>2017-08-03T14:24:30Z</time>
      </trkpt>
      <trkpt lat="45.93809" lon="4.72616">
        <ele>173</ele>
        <time>2017-08-03T14:24:32Z</time>
      </trkpt>
      <trkpt lat="45.93804" lon="4.7262">
        <ele>173</ele>
        <time>2017-08-03T14:24:33Z</time>
      </trkpt>
      <trkpt lat="45.93799" lon="4.72627">
        <ele>173</ele>
        <time>2017-08-03T14:24:35Z</time>
      </trkpt>
      <trkpt lat="45.93796" lon="4.72631">
        <ele>173</ele>
        <time>2017-08-03T14:24:36Z</time>
      </trkpt>
      <trkpt lat="45.9379" lon="4.72638">
        <ele>173</ele>
        <time>2017-08-03T14:24:38Z</time>
      </trkpt>
      <trkpt lat="45.93787" lon="4.72643">
        <ele>173</ele>
        <time>2017-08-03T14:24:39Z</time>
      </trkpt>
      <trkpt lat="45.93784" lon="4.72648">
        <ele>173</ele>
        <time>2017-08-03T14:24:40Z</time>
      </trkpt>
      <trkpt lat="45.9378" lon="4.72653">
        <ele>173</ele>
        <time>2017-08-03T14:24:41Z</time>
      </trkpt>
      <trkpt lat="45.93776" lon="4.72658">
        <ele>173</ele>
        <time>2017-08-03T14:24:42Z</time>
      </trkpt>
      <trkpt lat="45.93773" lon="4.72663">
        <ele>173</ele>
        <time>2017-08-03T14:24:43Z</time>
      </trkpt>
      <trkpt lat="45.93767" lon="4.72671">
        <ele>173</ele>
        <time>2017-08-03T14:24:45Z</time>
      </trkpt>
      <trkpt lat="45.93763" lon="4.72675">
        <ele>173</ele>
        <time>2017-08-03T14:24:46Z</time>
      </trkpt>
      <trkpt lat="45.93757" lon="4.72682">
        <ele>173</ele>
        <time>2017-08-03T14:24:48Z</time>
      </trkpt>
      <trkpt lat="45.93754" lon="4.72685">
        <ele>173</ele>
        <time>2017-08-03T14:24:49Z</time>
      </trkpt>
      <trkpt lat="45.93747" lon="4.72693">
        <ele>173</ele>
        <time>2017-08-03T14:24:51Z</time>
      </trkpt>
      <trkpt lat="45.93743" lon="4.72697">
        <ele>173</ele>
        <time>2017-08-03T14:24:52Z</time>
      </trkpt>
      <trkpt lat="45.93739" lon="4.72701">
        <ele>173</ele>
        <time>2017-08-03T14:24:53Z</time>
      </trkpt>
      <trkpt lat="45.93735" lon="4.72705">
        <ele>173</ele>
        <time>2017-08-03T14:24:54Z</time>
      </trkpt>
      <trkpt lat="45.93727" lon="4.72713">
        <ele>173</ele>
        <time>2017-08-03T14:24:56Z</time>
      </trkpt>
      <trkpt lat="45.93723" lon="4.72716">
        <ele>173</ele>
        <time>2017-08-03T14:24:57Z</time>
      </trkpt>
      <trkpt lat="45.93717" lon="4.72723">
        <ele>173</ele>
        <time>2017-08-03T14:24:59Z</time>
      </trkpt>
      <trkpt lat="45.93714" lon="4.72726">
        <ele>173</ele>
        <time>2017-08-03T14:25:00Z</time>
      </trkpt>
      <trkpt lat="45.9371" lon="4.7273">
        <ele>173</ele>
        <time>2017-08-03T14:25:01Z</time>
      </trkpt>
      <trkpt lat="45.93706" lon="4.72734">
        <ele>173</ele>
        <time>2017-08-03T14:25:02Z</time>
      </trkpt>
      <trkpt lat="45.93703" lon="4.72738">
        <ele>173</ele>
        <time>2017-08-03T14:25:03Z</time>
      </trkpt>
      <trkpt lat="45.93699" lon="4.72742">
        <ele>173</ele>
        <time>2017-08-03T14:25:04Z</time>
      </trkpt>
      <trkpt lat="45.93694" lon="4.72746">
        <ele>173</ele>
        <time>2017-08-03T14:25:05Z</time>
      </trkpt>
      <trkpt lat="45.9369" lon="4.72751">
        <ele>172</ele>
        <time>2017-08-03T14:25:06Z</time>
      </trkpt>
      <trkpt lat="45.93686" lon="4.72755">
        <ele>173</ele>
        <time>2017-08-03T14:25:07Z</time>
      </trkpt>
      <trkpt lat="45.93682" lon="4.72758">
        <ele>173</ele>
        <time>2017-08-03T14:25:08Z</time>
      </trkpt>
      <trkpt lat="45.93676" lon="4.72764">
        <ele>173</ele>
        <time>2017-08-03T14:25:10Z</time>
      </trkpt>
      <trkpt lat="45.93673" lon="4.72766">
        <ele>173</ele>
        <time>2017-08-03T14:25:11Z</time>
      </trkpt>
      <trkpt lat="45.93665" lon="4.72772">
        <ele>174</ele>
        <time>2017-08-03T14:25:13Z</time>
      </trkpt>
      <trkpt lat="45.93661" lon="4.72774">
        <ele>174</ele>
        <time>2017-08-03T14:25:14Z</time>
      </trkpt>
      <trkpt lat="45.93656" lon="4.72777">
        <ele>174</ele>
        <time>2017-08-03T14:25:15Z</time>
      </trkpt>
      <trkpt lat="45.93651" lon="4.7278">
        <ele>174</ele>
        <time>2017-08-03T14:25:16Z</time>
      </trkpt>
      <trkpt lat="45.93647" lon="4.72783">
        <ele>174</ele>
        <time>2017-08-03T14:25:17Z</time>
      </trkpt>
      <trkpt lat="45.93643" lon="4.72786">
        <ele>173</ele>
        <time>2017-08-03T14:25:18Z</time>
      </trkpt>
      <trkpt lat="45.93638" lon="4.7279">
        <ele>173</ele>
        <time>2017-08-03T14:25:19Z</time>
      </trkpt>
      <trkpt lat="45.93634" lon="4.72793">
        <ele>173</ele>
        <time>2017-08-03T14:25:20Z</time>
      </trkpt>
      <trkpt lat="45.9363" lon="4.72796">
        <ele>173</ele>
        <time>2017-08-03T14:25:21Z</time>
      </trkpt>
      <trkpt lat="45.93626" lon="4.72799">
        <ele>173</ele>
        <time>2017-08-03T14:25:22Z</time>
      </trkpt>
      <trkpt lat="45.93622" lon="4.72803">
        <ele>173</ele>
        <time>2017-08-03T14:25:23Z</time>
      </trkpt>
      <trkpt lat="45.93618" lon="4.72806">
        <ele>173</ele>
        <time>2017-08-03T14:25:24Z</time>
      </trkpt>
      <trkpt lat="45.9361" lon="4.72812">
        <ele>173</ele>
        <time>2017-08-03T14:25:26Z</time>
      </trkpt>
      <trkpt lat="45.93607" lon="4.72814">
        <ele>173</ele>
        <time>2017-08-03T14:25:27Z</time>
      </trkpt>
      <trkpt lat="45.93599" lon="4.7282">
        <ele>173</ele>
        <time>2017-08-03T14:25:29Z</time>
      </trkpt>
      <trkpt lat="45.93595" lon="4.72824">
        <ele>173</ele>
        <time>2017-08-03T14:25:30Z</time>
      </trkpt>
      <trkpt lat="45.93591" lon="4.72826">
        <ele>173</ele>
        <time>2017-08-03T14:25:31Z</time>
      </trkpt>
      <trkpt lat="45.93587" lon="4.7283">
        <ele>172</ele>
        <time>2017-08-03T14:25:32Z</time>
      </trkpt>
      <trkpt lat="45.93582" lon="4.72834">
        <ele>172</ele>
        <time>2017-08-03T14:25:33Z</time>
      </trkpt>
      <trkpt lat="45.93576" lon="4.72837">
        <ele>172</ele>
        <time>2017-08-03T14:25:34Z</time>
      </trkpt>
      <trkpt lat="45.93571" lon="4.72842">
        <ele>172</ele>
        <time>2017-08-03T14:25:35Z</time>
      </trkpt>
      <trkpt lat="45.93566" lon="4.72846">
        <ele>172</ele>
        <time>2017-08-03T14:25:36Z</time>
      </trkpt>
      <trkpt lat="45.93561" lon="4.72851">
        <ele>172</ele>
        <time>2017-08-03T14:25:37Z</time>
      </trkpt>
      <trkpt lat="45.93557" lon="4.72855">
        <ele>172</ele>
        <time>2017-08-03T14:25:38Z</time>
      </trkpt>
      <trkpt lat="45.93552" lon="4.7286">
        <ele>173</ele>
        <time>2017-08-03T14:25:39Z</time>
      </trkpt>
      <trkpt lat="45.93548" lon="4.72865">
        <ele>173</ele>
        <time>2017-08-03T14:25:40Z</time>
      </trkpt>
      <trkpt lat="45.93544" lon="4.72869">
        <ele>173</ele>
        <time>2017-08-03T14:25:41Z</time>
      </trkpt>
      <trkpt lat="45.9354" lon="4.72874">
        <ele>173</ele>
        <time>2017-08-03T14:25:42Z</time>
      </trkpt>
      <trkpt lat="45.93536" lon="4.72878">
        <ele>173</ele>
        <time>2017-08-03T14:25:43Z</time>
      </trkpt>
      <trkpt lat="45.93532" lon="4.72883">
        <ele>173</ele>
        <time>2017-08-03T14:25:44Z</time>
      </trkpt>
      <trkpt lat="45.93528" lon="4.72887">
        <ele>172</ele>
        <time>2017-08-03T14:25:45Z</time>
      </trkpt>
      <trkpt lat="45.93525" lon="4.72891">
        <ele>172</ele>
        <time>2017-08-03T14:25:46Z</time>
      </trkpt>
      <trkpt lat="45.93521" lon="4.72896">
        <ele>172</ele>
        <time>2017-08-03T14:25:47Z</time>
      </trkpt>
      <trkpt lat="45.93517" lon="4.729">
        <ele>172</ele>
        <time>2017-08-03T14:25:48Z</time>
      </trkpt>
      <trkpt lat="45.93513" lon="4.72905">
        <ele>172</ele>
        <time>2017-08-03T14:25:49Z</time>
      </trkpt>
      <trkpt lat="45.93509" lon="4.7291">
        <ele>172</ele>
        <time>2017-08-03T14:25:50Z</time>
      </trkpt>
      <trkpt lat="45.93505" lon="4.72914">
        <ele>172</ele>
        <time>2017-08-03T14:25:51Z</time>
      </trkpt>
      <trkpt lat="45.93502" lon="4.72919">
        <ele>172</ele>
        <time>2017-08-03T14:25:52Z</time>
      </trkpt>
      <trkpt lat="45.93499" lon="4.72924">
        <ele>172</ele>
        <time>2017-08-03T14:25:53Z</time>
      </trkpt>
      <trkpt lat="45.93496" lon="4.7293">
        <ele>172</ele>
        <time>2017-08-03T14:25:54Z</time>
      </trkpt>
      <trkpt lat="45.93495" lon="4.72936">
        <ele>172</ele>
        <time>2017-08-03T14:25:55Z</time>
      </trkpt>
      <trkpt lat="45.93493" lon="4.72944">
        <ele>171</ele>
        <time>2017-08-03T14:25:56Z</time>
      </trkpt>
      <trkpt lat="45.93492" lon="4.72951">
        <ele>171</ele>
        <time>2017-08-03T14:25:57Z</time>
      </trkpt>
      <trkpt lat="45.9349" lon="4.72958">
        <ele>171</ele>
        <time>2017-08-03T14:25:58Z</time>
      </trkpt>
      <trkpt lat="45.93488" lon="4.72965">
        <ele>171</ele>
        <time>2017-08-03T14:25:59Z</time>
      </trkpt>
      <trkpt lat="45.93486" lon="4.72972">
        <ele>171</ele>
        <time>2017-08-03T14:26:00Z</time>
      </trkpt>
      <trkpt lat="45.93485" lon="4.72979">
        <ele>171</ele>
        <time>2017-08-03T14:26:01Z</time>
      </trkpt>
      <trkpt lat="45.93484" lon="4.72985">
        <ele>171</ele>
        <time>2017-08-03T14:26:02Z</time>
      </trkpt>
      <trkpt lat="45.93484" lon="4.72992">
        <ele>170</ele>
        <time>2017-08-03T14:26:03Z</time>
      </trkpt>
      <trkpt lat="45.93484" lon="4.72999">
        <ele>170</ele>
        <time>2017-08-03T14:26:04Z</time>
      </trkpt>
      <trkpt lat="45.93484" lon="4.73006">
        <ele>170</ele>
        <time>2017-08-03T14:26:05Z</time>
      </trkpt>
      <trkpt lat="45.93483" lon="4.73014">
        <ele>170</ele>
        <time>2017-08-03T14:26:06Z</time>
      </trkpt>
      <trkpt lat="45.93483" lon="4.73022">
        <ele>170</ele>
        <time>2017-08-03T14:26:07Z</time>
      </trkpt>
      <trkpt lat="45.93483" lon="4.7303">
        <ele>170</ele>
        <time>2017-08-03T14:26:08Z</time>
      </trkpt>
      <trkpt lat="45.93483" lon="4.73037">
        <ele>170</ele>
        <time>2017-08-03T14:26:09Z</time>
      </trkpt>
      <trkpt lat="45.93483" lon="4.73045">
        <ele>170</ele>
        <time>2017-08-03T14:26:10Z</time>
      </trkpt>
      <trkpt lat="45.93483" lon="4.73052">
        <ele>170</ele>
        <time>2017-08-03T14:26:11Z</time>
      </trkpt>
      <trkpt lat="45.93483" lon="4.73058">
        <ele>170</ele>
        <time>2017-08-03T14:26:12Z</time>
      </trkpt>
      <trkpt lat="45.93483" lon="4.73065">
        <ele>170</ele>
        <time>2017-08-03T14:26:13Z</time>
      </trkpt>
      <trkpt lat="45.93483" lon="4.73073">
        <ele>170</ele>
        <time>2017-08-03T14:26:14Z</time>
      </trkpt>
      <trkpt lat="45.93482" lon="4.7308">
        <ele>170</ele>
        <time>2017-08-03T14:26:15Z</time>
      </trkpt>
      <trkpt lat="45.93482" lon="4.73088">
        <ele>170</ele>
        <time>2017-08-03T14:26:16Z</time>
      </trkpt>
      <trkpt lat="45.93482" lon="4.73095">
        <ele>170</ele>
        <time>2017-08-03T14:26:17Z</time>
      </trkpt>
      <trkpt lat="45.93482" lon="4.73103">
        <ele>170</ele>
        <time>2017-08-03T14:26:18Z</time>
      </trkpt>
      <trkpt lat="45.93483" lon="4.7311">
        <ele>170</ele>
        <time>2017-08-03T14:26:19Z</time>
      </trkpt>
      <trkpt lat="45.93484" lon="4.73116">
        <ele>170</ele>
        <time>2017-08-03T14:26:20Z</time>
      </trkpt>
      <trkpt lat="45.93485" lon="4.73128">
        <ele>170</ele>
        <time>2017-08-03T14:26:22Z</time>
      </trkpt>
      <trkpt lat="45.93486" lon="4.73134">
        <ele>170</ele>
        <time>2017-08-03T14:26:23Z</time>
      </trkpt>
      <trkpt lat="45.93487" lon="4.7314">
        <ele>170</ele>
        <time>2017-08-03T14:26:24Z</time>
      </trkpt>
      <trkpt lat="45.93489" lon="4.73146">
        <ele>170</ele>
        <time>2017-08-03T14:26:25Z</time>
      </trkpt>
      <trkpt lat="45.9349" lon="4.73153">
        <ele>170</ele>
        <time>2017-08-03T14:26:26Z</time>
      </trkpt>
      <trkpt lat="45.93492" lon="4.7316">
        <ele>170</ele>
        <time>2017-08-03T14:26:27Z</time>
      </trkpt>
      <trkpt lat="45.93493" lon="4.73166">
        <ele>170</ele>
        <time>2017-08-03T14:26:28Z</time>
      </trkpt>
      <trkpt lat="45.93495" lon="4.73172">
        <ele>170</ele>
        <time>2017-08-03T14:26:29Z</time>
      </trkpt>
      <trkpt lat="45.93498" lon="4.73184">
        <ele>169</ele>
        <time>2017-08-03T14:26:31Z</time>
      </trkpt>
      <trkpt lat="45.935" lon="4.73189">
        <ele>169</ele>
        <time>2017-08-03T14:26:32Z</time>
      </trkpt>
      <trkpt lat="45.93502" lon="4.732">
        <ele>169</ele>
        <time>2017-08-03T14:26:34Z</time>
      </trkpt>
      <trkpt lat="45.93504" lon="4.73206">
        <ele>169</ele>
        <time>2017-08-03T14:26:35Z</time>
      </trkpt>
      <trkpt lat="45.93506" lon="4.73217">
        <ele>169</ele>
        <time>2017-08-03T14:26:37Z</time>
      </trkpt>
      <trkpt lat="45.93507" lon="4.73223">
        <ele>169</ele>
        <time>2017-08-03T14:26:38Z</time>
      </trkpt>
      <trkpt lat="45.93508" lon="4.7323">
        <ele>169</ele>
        <time>2017-08-03T14:26:39Z</time>
      </trkpt>
      <trkpt lat="45.93509" lon="4.73236">
        <ele>169</ele>
        <time>2017-08-03T14:26:40Z</time>
      </trkpt>
      <trkpt lat="45.9351" lon="4.73243">
        <ele>169</ele>
        <time>2017-08-03T14:26:41Z</time>
      </trkpt>
      <trkpt lat="45.93512" lon="4.73251">
        <ele>169</ele>
        <time>2017-08-03T14:26:42Z</time>
      </trkpt>
      <trkpt lat="45.93513" lon="4.73259">
        <ele>169</ele>
        <time>2017-08-03T14:26:43Z</time>
      </trkpt>
      <trkpt lat="45.93515" lon="4.73266">
        <ele>169</ele>
        <time>2017-08-03T14:26:44Z</time>
      </trkpt>
      <trkpt lat="45.93516" lon="4.73274">
        <ele>169</ele>
        <time>2017-08-03T14:26:45Z</time>
      </trkpt>
      <trkpt lat="45.93517" lon="4.73281">
        <ele>169</ele>
        <time>2017-08-03T14:26:46Z</time>
      </trkpt>
      <trkpt lat="45.93519" lon="4.73288">
        <ele>169</ele>
        <time>2017-08-03T14:26:47Z</time>
      </trkpt>
      <trkpt lat="45.9352" lon="4.73295">
        <ele>169</ele>
        <time>2017-08-03T14:26:48Z</time>
      </trkpt>
      <trkpt lat="45.93522" lon="4.73308">
        <ele>169</ele>
        <time>2017-08-03T14:26:50Z</time>
      </trkpt>
      <trkpt lat="45.93523" lon="4.73313">
        <ele>169</ele>
        <time>2017-08-03T14:26:51Z</time>
      </trkpt>
      <trkpt lat="45.93524" lon="4.73325">
        <ele>169</ele>
        <time>2017-08-03T14:26:53Z</time>
      </trkpt>
      <trkpt lat="45.93525" lon="4.73332">
        <ele>169</ele>
        <time>2017-08-03T14:26:54Z</time>
      </trkpt>
      <trkpt lat="45.93526" lon="4.73339">
        <ele>169</ele>
        <time>2017-08-03T14:26:55Z</time>
      </trkpt>
      <trkpt lat="45.93528" lon="4.73346">
        <ele>169</ele>
        <time>2017-08-03T14:26:56Z</time>
      </trkpt>
      <trkpt lat="45.93528" lon="4.73353">
        <ele>169</ele>
        <time>2017-08-03T14:26:57Z</time>
      </trkpt>
      <trkpt lat="45.93529" lon="4.7336">
        <ele>169</ele>
        <time>2017-08-03T14:26:58Z</time>
      </trkpt>
      <trkpt lat="45.9353" lon="4.73366">
        <ele>169</ele>
        <time>2017-08-03T14:26:59Z</time>
      </trkpt>
      <trkpt lat="45.93531" lon="4.73373">
        <ele>169</ele>
        <time>2017-08-03T14:27:00Z</time>
      </trkpt>
      <trkpt lat="45.93533" lon="4.73384">
        <ele>169</ele>
        <time>2017-08-03T14:27:02Z</time>
      </trkpt>
      <trkpt lat="45.93534" lon="4.7339">
        <ele>169</ele>
        <time>2017-08-03T14:27:03Z</time>
      </trkpt>
      <trkpt lat="45.93536" lon="4.73401">
        <ele>169</ele>
        <time>2017-08-03T14:27:05Z</time>
      </trkpt>
      <trkpt lat="45.93537" lon="4.73407">
        <ele>169</ele>
        <time>2017-08-03T14:27:06Z</time>
      </trkpt>
      <trkpt lat="45.93539" lon="4.73418">
        <ele>169</ele>
        <time>2017-08-03T14:27:08Z</time>
      </trkpt>
      <trkpt lat="45.9354" lon="4.73424">
        <ele>169</ele>
        <time>2017-08-03T14:27:09Z</time>
      </trkpt>
      <trkpt lat="45.93544" lon="4.73434">
        <ele>169</ele>
        <time>2017-08-03T14:27:11Z</time>
      </trkpt>
      <trkpt lat="45.93546" lon="4.73439">
        <ele>169</ele>
        <time>2017-08-03T14:27:12Z</time>
      </trkpt>
      <trkpt lat="45.93549" lon="4.73449">
        <ele>169</ele>
        <time>2017-08-03T14:27:14Z</time>
      </trkpt>
      <trkpt lat="45.93551" lon="4.73454">
        <ele>169</ele>
        <time>2017-08-03T14:27:15Z</time>
      </trkpt>
      <trkpt lat="45.93553" lon="4.73465">
        <ele>169</ele>
        <time>2017-08-03T14:27:17Z</time>
      </trkpt>
      <trkpt lat="45.93555" lon="4.7347">
        <ele>169</ele>
        <time>2017-08-03T14:27:18Z</time>
      </trkpt>
      <trkpt lat="45.93559" lon="4.7348">
        <ele>169</ele>
        <time>2017-08-03T14:27:20Z</time>
      </trkpt>
      <trkpt lat="45.93561" lon="4.73485">
        <ele>169</ele>
        <time>2017-08-03T14:27:21Z</time>
      </trkpt>
      <trkpt lat="45.93565" lon="4.73496">
        <ele>169</ele>
        <time>2017-08-03T14:27:23Z</time>
      </trkpt>
      <trkpt lat="45.93566" lon="4.73501">
        <ele>168</ele>
        <time>2017-08-03T14:27:24Z</time>
      </trkpt>
      <trkpt lat="45.93569" lon="4.73511">
        <ele>168</ele>
        <time>2017-08-03T14:27:26Z</time>
      </trkpt>
      <trkpt lat="45.93571" lon="4.73517">
        <ele>168</ele>
        <time>2017-08-03T14:27:27Z</time>
      </trkpt>
      <trkpt lat="45.93572" lon="4.73523">
        <ele>168</ele>
        <time>2017-08-03T14:27:28Z</time>
      </trkpt>
      <trkpt lat="45.93573" lon="4.73529">
        <ele>168</ele>
        <time>2017-08-03T14:27:29Z</time>
      </trkpt>
      <trkpt lat="45.93575" lon="4.73541">
        <ele>168</ele>
        <time>2017-08-03T14:27:31Z</time>
      </trkpt>
      <trkpt lat="45.93576" lon="4.73547">
        <ele>168</ele>
        <time>2017-08-03T14:27:32Z</time>
      </trkpt>
      <trkpt lat="45.93578" lon="4.73558">
        <ele>168</ele>
        <time>2017-08-03T14:27:34Z</time>
      </trkpt>
      <trkpt lat="45.93579" lon="4.73564">
        <ele>168</ele>
        <time>2017-08-03T14:27:35Z</time>
      </trkpt>
      <trkpt lat="45.9358" lon="4.73574">
        <ele>168</ele>
        <time>2017-08-03T14:27:37Z</time>
      </trkpt>
      <trkpt lat="45.93581" lon="4.7358">
        <ele>168</ele>
        <time>2017-08-03T14:27:38Z</time>
      </trkpt>
      <trkpt lat="45.93582" lon="4.73592">
        <ele>168</ele>
        <time>2017-08-03T14:27:40Z</time>
      </trkpt>
      <trkpt lat="45.93582" lon="4.73598">
        <ele>168</ele>
        <time>2017-08-03T14:27:41Z</time>
      </trkpt>
      <trkpt lat="45.93583" lon="4.73605">
        <ele>168</ele>
        <time>2017-08-03T14:27:42Z</time>
      </trkpt>
      <trkpt lat="45.93583" lon="4.73611">
        <ele>168</ele>
        <time>2017-08-03T14:27:43Z</time>
      </trkpt>
      <trkpt lat="45.93583" lon="4.73623">
        <ele>168</ele>
        <time>2017-08-03T14:27:45Z</time>
      </trkpt>
      <trkpt lat="45.93584" lon="4.73628">
        <ele>168</ele>
        <time>2017-08-03T14:27:46Z</time>
      </trkpt>
      <trkpt lat="45.93584" lon="4.7364">
        <ele>168</ele>
        <time>2017-08-03T14:27:48Z</time>
      </trkpt>
      <trkpt lat="45.93584" lon="4.73647">
        <ele>168</ele>
        <time>2017-08-03T14:27:49Z</time>
      </trkpt>
      <trkpt lat="45.93585" lon="4.73654">
        <ele>168</ele>
        <time>2017-08-03T14:27:50Z</time>
      </trkpt>
      <trkpt lat="45.93586" lon="4.7366">
        <ele>168</ele>
        <time>2017-08-03T14:27:51Z</time>
      </trkpt>
      <trkpt lat="45.93587" lon="4.73667">
        <ele>168</ele>
        <time>2017-08-03T14:27:52Z</time>
      </trkpt>
      <trkpt lat="45.93587" lon="4.73673">
        <ele>168</ele>
        <time>2017-08-03T14:27:53Z</time>
      </trkpt>
      <trkpt lat="45.93588" lon="4.73686">
        <ele>169</ele>
        <time>2017-08-03T14:27:55Z</time>
      </trkpt>
      <trkpt lat="45.93588" lon="4.73692">
        <ele>169</ele>
        <time>2017-08-03T14:27:56Z</time>
      </trkpt>
      <trkpt lat="45.93587" lon="4.73703">
        <ele>169</ele>
        <time>2017-08-03T14:27:58Z</time>
      </trkpt>
      <trkpt lat="45.93587" lon="4.73709">
        <ele>169</ele>
        <time>2017-08-03T14:27:59Z</time>
      </trkpt>
      <trkpt lat="45.93591" lon="4.73718">
        <ele>169</ele>
        <time>2017-08-03T14:28:01Z</time>
      </trkpt>
      <trkpt lat="45.93593" lon="4.73722">
        <ele>169</ele>
        <time>2017-08-03T14:28:02Z</time>
      </trkpt>
      <trkpt lat="45.93598" lon="4.7373">
        <ele>169</ele>
        <time>2017-08-03T14:28:04Z</time>
      </trkpt>
      <trkpt lat="45.936" lon="4.73734">
        <ele>169</ele>
        <time>2017-08-03T14:28:05Z</time>
      </trkpt>
      <trkpt lat="45.93605" lon="4.73744">
        <ele>169</ele>
        <time>2017-08-03T14:28:08Z</time>
      </trkpt>
      <trkpt lat="45.93607" lon="4.73747">
        <ele>169</ele>
        <time>2017-08-03T14:28:09Z</time>
      </trkpt>
      <trkpt lat="45.9361" lon="4.73754">
        <ele>169</ele>
        <time>2017-08-03T14:28:11Z</time>
      </trkpt>
      <trkpt lat="45.93612" lon="4.73759">
        <ele>169</ele>
        <time>2017-08-03T14:28:12Z</time>
      </trkpt>
      <trkpt lat="45.93618" lon="4.73767">
        <ele>169</ele>
        <time>2017-08-03T14:28:14Z</time>
      </trkpt>
      <trkpt lat="45.93621" lon="4.73771">
        <ele>169</ele>
        <time>2017-08-03T14:28:15Z</time>
      </trkpt>
      <trkpt lat="45.93627" lon="4.73777">
        <ele>170</ele>
        <time>2017-08-03T14:28:17Z</time>
      </trkpt>
      <trkpt lat="45.93631" lon="4.7378">
        <ele>170</ele>
        <time>2017-08-03T14:28:18Z</time>
      </trkpt>
      <trkpt lat="45.93638" lon="4.73786">
        <ele>170</ele>
        <time>2017-08-03T14:28:20Z</time>
      </trkpt>
      <trkpt lat="45.9364" lon="4.73789">
        <ele>170</ele>
        <time>2017-08-03T14:28:21Z</time>
      </trkpt>
      <trkpt lat="45.93645" lon="4.73795">
        <ele>170</ele>
        <time>2017-08-03T14:28:23Z</time>
      </trkpt>
      <trkpt lat="45.93648" lon="4.73799">
        <ele>170</ele>
        <time>2017-08-03T14:28:24Z</time>
      </trkpt>
      <trkpt lat="45.93655" lon="4.73805">
        <ele>170</ele>
        <time>2017-08-03T14:28:26Z</time>
      </trkpt>
      <trkpt lat="45.93658" lon="4.73809">
        <ele>170</ele>
        <time>2017-08-03T14:28:27Z</time>
      </trkpt>
      <trkpt lat="45.93664" lon="4.73814">
        <ele>170</ele>
        <time>2017-08-03T14:28:29Z</time>
      </trkpt>
      <trkpt lat="45.93667" lon="4.73817">
        <ele>170</ele>
        <time>2017-08-03T14:28:30Z</time>
      </trkpt>
      <trkpt lat="45.93672" lon="4.73822">
        <ele>169</ele>
        <time>2017-08-03T14:28:32Z</time>
      </trkpt>
      <trkpt lat="45.93674" lon="4.73824">
        <ele>169</ele>
        <time>2017-08-03T14:28:33Z</time>
      </trkpt>
      <trkpt lat="45.93679" lon="4.7383">
        <ele>169</ele>
        <time>2017-08-03T14:28:35Z</time>
      </trkpt>
      <trkpt lat="45.93681" lon="4.73833">
        <ele>169</ele>
        <time>2017-08-03T14:28:36Z</time>
      </trkpt>
      <trkpt lat="45.93683" lon="4.73841">
        <ele>169</ele>
        <time>2017-08-03T14:28:38Z</time>
      </trkpt>
      <trkpt lat="45.93682" lon="4.73847">
        <ele>169</ele>
        <time>2017-08-03T14:28:39Z</time>
      </trkpt>
      <trkpt lat="45.93679" lon="4.73858">
        <ele>169</ele>
        <time>2017-08-03T14:28:42Z</time>
      </trkpt>
      <trkpt lat="45.93677" lon="4.73862">
        <ele>168</ele>
        <time>2017-08-03T14:28:43Z</time>
      </trkpt>
      <trkpt lat="45.93678" lon="4.73871">
        <ele>168</ele>
        <time>2017-08-03T14:28:45Z</time>
      </trkpt>
      <trkpt lat="45.93679" lon="4.73875">
        <ele>168</ele>
        <time>2017-08-03T14:28:46Z</time>
      </trkpt>
      <trkpt lat="45.93684" lon="4.73883">
        <ele>168</ele>
        <time>2017-08-03T14:28:49Z</time>
      </trkpt>
      <trkpt lat="45.93686" lon="4.73886">
        <ele>168</ele>
        <time>2017-08-03T14:28:50Z</time>
      </trkpt>
      <trkpt lat="45.93693" lon="4.73893">
        <ele>168</ele>
        <time>2017-08-03T14:28:53Z</time>
      </trkpt>
      <trkpt lat="45.93695" lon="4.73895">
        <ele>168</ele>
        <time>2017-08-03T14:28:54Z</time>
      </trkpt>
      <trkpt lat="45.93703" lon="4.73896">
        <ele>168</ele>
        <time>2017-08-03T14:28:57Z</time>
      </trkpt>
      <trkpt lat="45.93705" lon="4.73895">
        <ele>168</ele>
        <time>2017-08-03T14:28:58Z</time>
      </trkpt>
      <trkpt lat="45.9371" lon="4.73891">
        <ele>168</ele>
        <time>2017-08-03T14:29:17Z</time>
      </trkpt>
      <trkpt lat="45.9371" lon="4.7389">
        <ele>168</ele>
        <time>2017-08-03T14:29:18Z</time>
      </trkpt>
      <trkpt lat="45.9371" lon="4.73889">
        <ele>168</ele>
        <time>2017-08-03T14:41:37Z</time>
      </trkpt>
      <trkpt lat="45.93712" lon="4.73893">
        <ele>168</ele>
        <time>2017-08-03T14:41:38Z</time>
      </trkpt>
      <trkpt lat="45.93705" lon="4.73897">
        <ele>168</ele>
        <time>2017-08-03T14:42:16Z</time>
      </trkpt>
      <trkpt lat="45.93701" lon="4.73893">
        <ele>168</ele>
        <time>2017-08-03T14:42:17Z</time>
      </trkpt>
      <trkpt lat="45.93692" lon="4.73893">
        <ele>168</ele>
        <time>2017-08-03T14:42:24Z</time>
      </trkpt>
      <trkpt lat="45.93691" lon="4.73892">
        <ele>168</ele>
        <time>2017-08-03T14:42:25Z</time>
      </trkpt>
      <trkpt lat="45.93684" lon="4.73885">
        <ele>168</ele>
        <time>2017-08-03T14:42:29Z</time>
      </trkpt>
      <trkpt lat="45.93681" lon="4.73882">
        <ele>168</ele>
        <time>2017-08-03T14:42:30Z</time>
      </trkpt>
      <trkpt lat="45.93678" lon="4.73873">
        <ele>168</ele>
        <time>2017-08-03T14:42:33Z</time>
      </trkpt>
      <trkpt lat="45.93678" lon="4.73869">
        <ele>168</ele>
        <time>2017-08-03T14:42:34Z</time>
      </trkpt>
      <trkpt lat="45.93681" lon="4.73858">
        <ele>168</ele>
        <time>2017-08-03T14:42:37Z</time>
      </trkpt>
      <trkpt lat="45.93682" lon="4.73855">
        <ele>169</ele>
        <time>2017-08-03T14:42:38Z</time>
      </trkpt>
      <trkpt lat="45.93683" lon="4.73846">
        <ele>169</ele>
        <time>2017-08-03T14:42:41Z</time>
      </trkpt>
      <trkpt lat="45.93682" lon="4.73842">
        <ele>169</ele>
        <time>2017-08-03T14:42:42Z</time>
      </trkpt>
      <trkpt lat="45.93677" lon="4.73834">
        <ele>169</ele>
        <time>2017-08-03T14:42:45Z</time>
      </trkpt>
      <trkpt lat="45.93675" lon="4.73832">
        <ele>169</ele>
        <time>2017-08-03T14:42:46Z</time>
      </trkpt>
      <trkpt lat="45.93669" lon="4.73826">
        <ele>169</ele>
        <time>2017-08-03T14:42:48Z</time>
      </trkpt>
      <trkpt lat="45.93666" lon="4.73823">
        <ele>170</ele>
        <time>2017-08-03T14:42:49Z</time>
      </trkpt>
      <trkpt lat="45.9366" lon="4.73816">
        <ele>170</ele>
        <time>2017-08-03T14:42:51Z</time>
      </trkpt>
      <trkpt lat="45.93657" lon="4.73812">
        <ele>170</ele>
        <time>2017-08-03T14:42:52Z</time>
      </trkpt>
      <trkpt lat="45.93651" lon="4.73805">
        <ele>170</ele>
        <time>2017-08-03T14:42:54Z</time>
      </trkpt>
      <trkpt lat="45.93649" lon="4.73802">
        <ele>170</ele>
        <time>2017-08-03T14:42:55Z</time>
      </trkpt>
      <trkpt lat="45.93643" lon="4.73796">
        <ele>170</ele>
        <time>2017-08-03T14:42:58Z</time>
      </trkpt>
      <trkpt lat="45.93641" lon="4.73794">
        <ele>170</ele>
        <time>2017-08-03T14:42:59Z</time>
      </trkpt>
      <trkpt lat="45.93636" lon="4.73788">
        <ele>170</ele>
        <time>2017-08-03T14:43:01Z</time>
      </trkpt>
      <trkpt lat="45.93634" lon="4.73785">
        <ele>170</ele>
        <time>2017-08-03T14:43:02Z</time>
      </trkpt>
      <trkpt lat="45.93627" lon="4.73777">
        <ele>170</ele>
        <time>2017-08-03T14:43:05Z</time>
      </trkpt>
      <trkpt lat="45.93625" lon="4.73775">
        <ele>170</ele>
        <time>2017-08-03T14:43:06Z</time>
      </trkpt>
      <trkpt lat="45.93621" lon="4.7377">
        <ele>169</ele>
        <time>2017-08-03T14:43:08Z</time>
      </trkpt>
      <trkpt lat="45.93618" lon="4.73767">
        <ele>169</ele>
        <time>2017-08-03T14:43:09Z</time>
      </trkpt>
      <trkpt lat="45.93613" lon="4.73759">
        <ele>169</ele>
        <time>2017-08-03T14:43:12Z</time>
      </trkpt>
      <trkpt lat="45.93611" lon="4.73756">
        <ele>169</ele>
        <time>2017-08-03T14:43:13Z</time>
      </trkpt>
      <trkpt lat="45.93607" lon="4.73749">
        <ele>169</ele>
        <time>2017-08-03T14:43:15Z</time>
      </trkpt>
      <trkpt lat="45.93605" lon="4.73745">
        <ele>169</ele>
        <time>2017-08-03T14:43:16Z</time>
      </trkpt>
      <trkpt lat="45.936" lon="4.73736">
        <ele>169</ele>
        <time>2017-08-03T14:43:19Z</time>
      </trkpt>
      <trkpt lat="45.93598" lon="4.73732">
        <ele>169</ele>
        <time>2017-08-03T14:43:20Z</time>
      </trkpt>
      <trkpt lat="45.93593" lon="4.73725">
        <ele>169</ele>
        <time>2017-08-03T14:43:23Z</time>
      </trkpt>
      <trkpt lat="45.93592" lon="4.73721">
        <ele>169</ele>
        <time>2017-08-03T14:43:24Z</time>
      </trkpt>
      <trkpt lat="45.93585" lon="4.73714">
        <ele>169</ele>
        <time>2017-08-03T14:43:27Z</time>
      </trkpt>
      <trkpt lat="45.93582" lon="4.73715">
        <ele>169</ele>
        <time>2017-08-03T14:43:28Z</time>
      </trkpt>
      <trkpt lat="45.93576" lon="4.73719">
        <ele>169</ele>
        <time>2017-08-03T14:43:30Z</time>
      </trkpt>
      <trkpt lat="45.93574" lon="4.73722">
        <ele>169</ele>
        <time>2017-08-03T14:43:31Z</time>
      </trkpt>
      <trkpt lat="45.93568" lon="4.73729">
        <ele>169</ele>
        <time>2017-08-03T14:43:33Z</time>
      </trkpt>
      <trkpt lat="45.93565" lon="4.73732">
        <ele>169</ele>
        <time>2017-08-03T14:43:34Z</time>
      </trkpt>
      <trkpt lat="45.9356" lon="4.73739">
        <ele>169</ele>
        <time>2017-08-03T14:43:36Z</time>
      </trkpt>
      <trkpt lat="45.93557" lon="4.73742">
        <ele>169</ele>
        <time>2017-08-03T14:43:37Z</time>
      </trkpt>
      <trkpt lat="45.93552" lon="4.73748">
        <ele>169</ele>
        <time>2017-08-03T14:43:39Z</time>
      </trkpt>
      <trkpt lat="45.93549" lon="4.73751">
        <ele>169</ele>
        <time>2017-08-03T14:43:40Z</time>
      </trkpt>
      <trkpt lat="45.93543" lon="4.73758">
        <ele>169</ele>
        <time>2017-08-03T14:43:42Z</time>
      </trkpt>
      <trkpt lat="45.93539" lon="4.73762">
        <ele>169</ele>
        <time>2017-08-03T14:43:43Z</time>
      </trkpt>
      <trkpt lat="45.93535" lon="4.73766">
        <ele>169</ele>
        <time>2017-08-03T14:43:44Z</time>
      </trkpt>
      <trkpt lat="45.93531" lon="4.7377">
        <ele>169</ele>
        <time>2017-08-03T14:43:45Z</time>
      </trkpt>
      <trkpt lat="45.93527" lon="4.73774">
        <ele>169</ele>
        <time>2017-08-03T14:43:46Z</time>
      </trkpt>
      <trkpt lat="45.93523" lon="4.73778">
        <ele>169</ele>
        <time>2017-08-03T14:43:47Z</time>
      </trkpt>
      <trkpt lat="45.93516" lon="4.73785">
        <ele>169</ele>
        <time>2017-08-03T14:43:49Z</time>
      </trkpt>
      <trkpt lat="45.93513" lon="4.73789">
        <ele>169</ele>
        <time>2017-08-03T14:43:50Z</time>
      </trkpt>
      <trkpt lat="45.93506" lon="4.73795">
        <ele>169</ele>
        <time>2017-08-03T14:43:52Z</time>
      </trkpt>
      <trkpt lat="45.93502" lon="4.73799">
        <ele>169</ele>
        <time>2017-08-03T14:43:53Z</time>
      </trkpt>
      <trkpt lat="45.93498" lon="4.73802">
        <ele>169</ele>
        <time>2017-08-03T14:43:54Z</time>
      </trkpt>
      <trkpt lat="45.93493" lon="4.73805">
        <ele>169</ele>
        <time>2017-08-03T14:43:55Z</time>
      </trkpt>
      <trkpt lat="45.93485" lon="4.73809">
        <ele>169</ele>
        <time>2017-08-03T14:43:57Z</time>
      </trkpt>
      <trkpt lat="45.93482" lon="4.73811">
        <ele>169</ele>
        <time>2017-08-03T14:43:58Z</time>
      </trkpt>
      <trkpt lat="45.93475" lon="4.73815">
        <ele>169</ele>
        <time>2017-08-03T14:44:00Z</time>
      </trkpt>
      <trkpt lat="45.93472" lon="4.73816">
        <ele>169</ele>
        <time>2017-08-03T14:44:01Z</time>
      </trkpt>
      <trkpt lat="45.93464" lon="4.7382">
        <ele>169</ele>
        <time>2017-08-03T14:44:03Z</time>
      </trkpt>
      <trkpt lat="45.9346" lon="4.73823">
        <ele>169</ele>
        <time>2017-08-03T14:44:04Z</time>
      </trkpt>
      <trkpt lat="45.93452" lon="4.73826">
        <ele>169</ele>
        <time>2017-08-03T14:44:06Z</time>
      </trkpt>
      <trkpt lat="45.93448" lon="4.73828">
        <ele>169</ele>
        <time>2017-08-03T14:44:07Z</time>
      </trkpt>
      <trkpt lat="45.9344" lon="4.73832">
        <ele>169</ele>
        <time>2017-08-03T14:44:09Z</time>
      </trkpt>
      <trkpt lat="45.93437" lon="4.73833">
        <ele>169</ele>
        <time>2017-08-03T14:44:10Z</time>
      </trkpt>
      <trkpt lat="45.9343" lon="4.73837">
        <ele>169</ele>
        <time>2017-08-03T14:44:12Z</time>
      </trkpt>
      <trkpt lat="45.93427" lon="4.73838">
        <ele>169</ele>
        <time>2017-08-03T14:44:13Z</time>
      </trkpt>
      <trkpt lat="45.9342" lon="4.73842">
        <ele>169</ele>
        <time>2017-08-03T14:44:15Z</time>
      </trkpt>
      <trkpt lat="45.93416" lon="4.73843">
        <ele>169</ele>
        <time>2017-08-03T14:44:16Z</time>
      </trkpt>
      <trkpt lat="45.93409" lon="4.73847">
        <ele>169</ele>
        <time>2017-08-03T14:44:18Z</time>
      </trkpt>
      <trkpt lat="45.93404" lon="4.7385">
        <ele>169</ele>
        <time>2017-08-03T14:44:19Z</time>
      </trkpt>
      <trkpt lat="45.93396" lon="4.73855">
        <ele>169</ele>
        <time>2017-08-03T14:44:21Z</time>
      </trkpt>
      <trkpt lat="45.93392" lon="4.73858">
        <ele>169</ele>
        <time>2017-08-03T14:44:22Z</time>
      </trkpt>
      <trkpt lat="45.93386" lon="4.73863">
        <ele>169</ele>
        <time>2017-08-03T14:44:24Z</time>
      </trkpt>
      <trkpt lat="45.93383" lon="4.73866">
        <ele>169</ele>
        <time>2017-08-03T14:44:25Z</time>
      </trkpt>
      <trkpt lat="45.93376" lon="4.7387">
        <ele>169</ele>
        <time>2017-08-03T14:44:27Z</time>
      </trkpt>
      <trkpt lat="45.93373" lon="4.73872">
        <ele>169</ele>
        <time>2017-08-03T14:44:28Z</time>
      </trkpt>
      <trkpt lat="45.93366" lon="4.73878">
        <ele>168</ele>
        <time>2017-08-03T14:44:30Z</time>
      </trkpt>
      <trkpt lat="45.93362" lon="4.73882">
        <ele>168</ele>
        <time>2017-08-03T14:44:31Z</time>
      </trkpt>
      <trkpt lat="45.93355" lon="4.73889">
        <ele>168</ele>
        <time>2017-08-03T14:44:33Z</time>
      </trkpt>
      <trkpt lat="45.93352" lon="4.73893">
        <ele>168</ele>
        <time>2017-08-03T14:44:34Z</time>
      </trkpt>
      <trkpt lat="45.93347" lon="4.73901">
        <ele>168</ele>
        <time>2017-08-03T14:44:36Z</time>
      </trkpt>
      <trkpt lat="45.93345" lon="4.73906">
        <ele>168</ele>
        <time>2017-08-03T14:44:37Z</time>
      </trkpt>
      <trkpt lat="45.9334" lon="4.73916">
        <ele>168</ele>
        <time>2017-08-03T14:44:39Z</time>
      </trkpt>
      <trkpt lat="45.93337" lon="4.73921">
        <ele>168</ele>
        <time>2017-08-03T14:44:40Z</time>
      </trkpt>
      <trkpt lat="45.93334" lon="4.73926">
        <ele>168</ele>
        <time>2017-08-03T14:44:41Z</time>
      </trkpt>
      <trkpt lat="45.93331" lon="4.73931">
        <ele>168</ele>
        <time>2017-08-03T14:44:42Z</time>
      </trkpt>
      <trkpt lat="45.93325" lon="4.73941">
        <ele>168</ele>
        <time>2017-08-03T14:44:44Z</time>
      </trkpt>
      <trkpt lat="45.93323" lon="4.73946">
        <ele>168</ele>
        <time>2017-08-03T14:44:45Z</time>
      </trkpt>
      <trkpt lat="45.93319" lon="4.73954">
        <ele>168</ele>
        <time>2017-08-03T14:44:47Z</time>
      </trkpt>
      <trkpt lat="45.93317" lon="4.73958">
        <ele>168</ele>
        <time>2017-08-03T14:44:48Z</time>
      </trkpt>
      <trkpt lat="45.93312" lon="4.73967">
        <ele>168</ele>
        <time>2017-08-03T14:44:50Z</time>
      </trkpt>
      <trkpt lat="45.93309" lon="4.73972">
        <ele>168</ele>
        <time>2017-08-03T14:44:51Z</time>
      </trkpt>
      <trkpt lat="45.93304" lon="4.73982">
        <ele>168</ele>
        <time>2017-08-03T14:44:53Z</time>
      </trkpt>
      <trkpt lat="45.93302" lon="4.73987">
        <ele>168</ele>
        <time>2017-08-03T14:44:54Z</time>
      </trkpt>
      <trkpt lat="45.93298" lon="4.73996">
        <ele>168</ele>
        <time>2017-08-03T14:44:56Z</time>
      </trkpt>
      <trkpt lat="45.93295" lon="4.73999">
        <ele>168</ele>
        <time>2017-08-03T14:44:57Z</time>
      </trkpt>
      <trkpt lat="45.93291" lon="4.74007">
        <ele>168</ele>
        <time>2017-08-03T14:44:59Z</time>
      </trkpt>
      <trkpt lat="45.93289" lon="4.7401">
        <ele>168</ele>
        <time>2017-08-03T14:45:00Z</time>
      </trkpt>
      <trkpt lat="45.93284" lon="4.7402">
        <ele>168</ele>
        <time>2017-08-03T14:45:02Z</time>
      </trkpt>
      <trkpt lat="45.93282" lon="4.74025">
        <ele>168</ele>
        <time>2017-08-03T14:45:03Z</time>
      </trkpt>
      <trkpt lat="45.93278" lon="4.74034">
        <ele>168</ele>
        <time>2017-08-03T14:45:05Z</time>
      </trkpt>
      <trkpt lat="45.93276" lon="4.74037">
        <ele>168</ele>
        <time>2017-08-03T14:45:06Z</time>
      </trkpt>
      <trkpt lat="45.93272" lon="4.74045">
        <ele>168</ele>
        <time>2017-08-03T14:45:08Z</time>
      </trkpt>
      <trkpt lat="45.9327" lon="4.7405">
        <ele>168</ele>
        <time>2017-08-03T14:45:09Z</time>
      </trkpt>
      <trkpt lat="45.93265" lon="4.7406">
        <ele>168</ele>
        <time>2017-08-03T14:45:11Z</time>
      </trkpt>
      <trkpt lat="45.93262" lon="4.74065">
        <ele>167</ele>
        <time>2017-08-03T14:45:12Z</time>
      </trkpt>
      <trkpt lat="45.93257" lon="4.74074">
        <ele>167</ele>
        <time>2017-08-03T14:45:14Z</time>
      </trkpt>
      <trkpt lat="45.93255" lon="4.74078">
        <ele>167</ele>
        <time>2017-08-03T14:45:15Z</time>
      </trkpt>
      <trkpt lat="45.93251" lon="4.74086">
        <ele>167</ele>
        <time>2017-08-03T14:45:17Z</time>
      </trkpt>
      <trkpt lat="45.93249" lon="4.7409">
        <ele>167</ele>
        <time>2017-08-03T14:45:18Z</time>
      </trkpt>
      <trkpt lat="45.93244" lon="4.74099">
        <ele>167</ele>
        <time>2017-08-03T14:45:20Z</time>
      </trkpt>
      <trkpt lat="45.93242" lon="4.74102">
        <ele>167</ele>
        <time>2017-08-03T14:45:21Z</time>
      </trkpt>
      <trkpt lat="45.93237" lon="4.74107">
        <ele>167</ele>
        <time>2017-08-03T14:45:23Z</time>
      </trkpt>
      <trkpt lat="45.93234" lon="4.74109">
        <ele>167</ele>
        <time>2017-08-03T14:45:24Z</time>
      </trkpt>
      <trkpt lat="45.93227" lon="4.7411">
        <ele>167</ele>
        <time>2017-08-03T14:45:26Z</time>
      </trkpt>
      <trkpt lat="45.93223" lon="4.74109">
        <ele>167</ele>
        <time>2017-08-03T14:45:27Z</time>
      </trkpt>
      <trkpt lat="45.93215" lon="4.74106">
        <ele>167</ele>
        <time>2017-08-03T14:45:29Z</time>
      </trkpt>
      <trkpt lat="45.93211" lon="4.74103">
        <ele>167</ele>
        <time>2017-08-03T14:45:30Z</time>
      </trkpt>
      <trkpt lat="45.93207" lon="4.74099">
        <ele>167</ele>
        <time>2017-08-03T14:45:31Z</time>
      </trkpt>
      <trkpt lat="45.93203" lon="4.74096">
        <ele>167</ele>
        <time>2017-08-03T14:45:32Z</time>
      </trkpt>
      <trkpt lat="45.93198" lon="4.74092">
        <ele>167</ele>
        <time>2017-08-03T14:45:33Z</time>
      </trkpt>
      <trkpt lat="45.93194" lon="4.74089">
        <ele>167</ele>
        <time>2017-08-03T14:45:34Z</time>
      </trkpt>
      <trkpt lat="45.93187" lon="4.74083">
        <ele>168</ele>
        <time>2017-08-03T14:45:36Z</time>
      </trkpt>
      <trkpt lat="45.93184" lon="4.7408">
        <ele>168</ele>
        <time>2017-08-03T14:45:37Z</time>
      </trkpt>
      <trkpt lat="45.93177" lon="4.74073">
        <ele>168</ele>
        <time>2017-08-03T14:45:39Z</time>
      </trkpt>
      <trkpt lat="45.93173" lon="4.74069">
        <ele>168</ele>
        <time>2017-08-03T14:45:40Z</time>
      </trkpt>
      <trkpt lat="45.9317" lon="4.74066">
        <ele>168</ele>
        <time>2017-08-03T14:45:41Z</time>
      </trkpt>
      <trkpt lat="45.93166" lon="4.74062">
        <ele>168</ele>
        <time>2017-08-03T14:45:42Z</time>
      </trkpt>
      <trkpt lat="45.93162" lon="4.74058">
        <ele>168</ele>
        <time>2017-08-03T14:45:43Z</time>
      </trkpt>
      <trkpt lat="45.93158" lon="4.74054">
        <ele>168</ele>
        <time>2017-08-03T14:45:44Z</time>
      </trkpt>
      <trkpt lat="45.93154" lon="4.7405">
        <ele>168</ele>
        <time>2017-08-03T14:45:45Z</time>
      </trkpt>
      <trkpt lat="45.93149" lon="4.74046">
        <ele>168</ele>
        <time>2017-08-03T14:45:46Z</time>
      </trkpt>
      <trkpt lat="45.93145" lon="4.74043">
        <ele>168</ele>
        <time>2017-08-03T14:45:47Z</time>
      </trkpt>
      <trkpt lat="45.93141" lon="4.74039">
        <ele>168</ele>
        <time>2017-08-03T14:45:48Z</time>
      </trkpt>
      <trkpt lat="45.93137" lon="4.74036">
        <ele>168</ele>
        <time>2017-08-03T14:45:49Z</time>
      </trkpt>
      <trkpt lat="45.93133" lon="4.74033">
        <ele>168</ele>
        <time>2017-08-03T14:45:50Z</time>
      </trkpt>
      <trkpt lat="45.93125" lon="4.74029">
        <ele>168</ele>
        <time>2017-08-03T14:45:52Z</time>
      </trkpt>
      <trkpt lat="45.93121" lon="4.74027">
        <ele>168</ele>
        <time>2017-08-03T14:45:53Z</time>
      </trkpt>
      <trkpt lat="45.93112" lon="4.74024">
        <ele>168</ele>
        <time>2017-08-03T14:45:55Z</time>
      </trkpt>
      <trkpt lat="45.93108" lon="4.74022">
        <ele>168</ele>
        <time>2017-08-03T14:45:56Z</time>
      </trkpt>
      <trkpt lat="45.93104" lon="4.74021">
        <ele>168</ele>
        <time>2017-08-03T14:45:57Z</time>
      </trkpt>
      <trkpt lat="45.93099" lon="4.7402">
        <ele>168</ele>
        <time>2017-08-03T14:45:58Z</time>
      </trkpt>
      <trkpt lat="45.93094" lon="4.74019">
        <ele>168</ele>
        <time>2017-08-03T14:45:59Z</time>
      </trkpt>
      <trkpt lat="45.93089" lon="4.74017">
        <ele>168</ele>
        <time>2017-08-03T14:46:00Z</time>
      </trkpt>
      <trkpt lat="45.93083" lon="4.74017">
        <ele>169</ele>
        <time>2017-08-03T14:46:01Z</time>
      </trkpt>
      <trkpt lat="45.93078" lon="4.74016">
        <ele>169</ele>
        <time>2017-08-03T14:46:02Z</time>
      </trkpt>
      <trkpt lat="45.93073" lon="4.74014">
        <ele>169</ele>
        <time>2017-08-03T14:46:03Z</time>
      </trkpt>
      <trkpt lat="45.93068" lon="4.74013">
        <ele>169</ele>
        <time>2017-08-03T14:46:04Z</time>
      </trkpt>
      <trkpt lat="45.93063" lon="4.74012">
        <ele>169</ele>
        <time>2017-08-03T14:46:05Z</time>
      </trkpt>
      <trkpt lat="45.93059" lon="4.74011">
        <ele>169</ele>
        <time>2017-08-03T14:46:06Z</time>
      </trkpt>
      <trkpt lat="45.93054" lon="4.74008">
        <ele>169</ele>
        <time>2017-08-03T14:46:07Z</time>
      </trkpt>
      <trkpt lat="45.9305" lon="4.74007">
        <ele>169</ele>
        <time>2017-08-03T14:46:08Z</time>
      </trkpt>
      <trkpt lat="45.93041" lon="4.74004">
        <ele>169</ele>
        <time>2017-08-03T14:46:10Z</time>
      </trkpt>
      <trkpt lat="45.93037" lon="4.74002">
        <ele>169</ele>
        <time>2017-08-03T14:46:11Z</time>
      </trkpt>
      <trkpt lat="45.93029" lon="4.73999">
        <ele>169</ele>
        <time>2017-08-03T14:46:13Z</time>
      </trkpt>
      <trkpt lat="45.93024" lon="4.73999">
        <ele>169</ele>
        <time>2017-08-03T14:46:14Z</time>
      </trkpt>
      <trkpt lat="45.93016" lon="4.74">
        <ele>170</ele>
        <time>2017-08-03T14:46:16Z</time>
      </trkpt>
      <trkpt lat="45.93012" lon="4.74002">
        <ele>170</ele>
        <time>2017-08-03T14:46:17Z</time>
      </trkpt>
      <trkpt lat="45.93006" lon="4.7401">
        <ele>170</ele>
        <time>2017-08-03T14:46:19Z</time>
      </trkpt>
      <trkpt lat="45.93003" lon="4.74016">
        <ele>170</ele>
        <time>2017-08-03T14:46:20Z</time>
      </trkpt>
      <trkpt lat="45.93" lon="4.74022">
        <ele>170</ele>
        <time>2017-08-03T14:46:21Z</time>
      </trkpt>
      <trkpt lat="45.92999" lon="4.74029">
        <ele>171</ele>
        <time>2017-08-03T14:46:22Z</time>
      </trkpt>
      <trkpt lat="45.92998" lon="4.74036">
        <ele>171</ele>
        <time>2017-08-03T14:46:23Z</time>
      </trkpt>
      <trkpt lat="45.92997" lon="4.74044">
        <ele>171</ele>
        <time>2017-08-03T14:46:24Z</time>
      </trkpt>
      <trkpt lat="45.92997" lon="4.74051">
        <ele>171</ele>
        <time>2017-08-03T14:46:25Z</time>
      </trkpt>
      <trkpt lat="45.92997" lon="4.74058">
        <ele>171</ele>
        <time>2017-08-03T14:46:26Z</time>
      </trkpt>
      <trkpt lat="45.92997" lon="4.74066">
        <ele>171</ele>
        <time>2017-08-03T14:46:27Z</time>
      </trkpt>
      <trkpt lat="45.92997" lon="4.74073">
        <ele>171</ele>
        <time>2017-08-03T14:46:28Z</time>
      </trkpt>
      <trkpt lat="45.92997" lon="4.74081">
        <ele>171</ele>
        <time>2017-08-03T14:46:29Z</time>
      </trkpt>
      <trkpt lat="45.92997" lon="4.74088">
        <ele>171</ele>
        <time>2017-08-03T14:46:30Z</time>
      </trkpt>
      <trkpt lat="45.92996" lon="4.74095">
        <ele>171</ele>
        <time>2017-08-03T14:46:31Z</time>
      </trkpt>
      <trkpt lat="45.92996" lon="4.74101">
        <ele>171</ele>
        <time>2017-08-03T14:46:32Z</time>
      </trkpt>
      <trkpt lat="45.92993" lon="4.74113">
        <ele>171</ele>
        <time>2017-08-03T14:46:34Z</time>
      </trkpt>
      <trkpt lat="45.92991" lon="4.74118">
        <ele>171</ele>
        <time>2017-08-03T14:46:35Z</time>
      </trkpt>
      <trkpt lat="45.92988" lon="4.74128">
        <ele>171</ele>
        <time>2017-08-03T14:46:37Z</time>
      </trkpt>
      <trkpt lat="45.92987" lon="4.74133">
        <ele>171</ele>
        <time>2017-08-03T14:46:38Z</time>
      </trkpt>
      <trkpt lat="45.92984" lon="4.74143">
        <ele>171</ele>
        <time>2017-08-03T14:46:40Z</time>
      </trkpt>
      <trkpt lat="45.92983" lon="4.74147">
        <ele>170</ele>
        <time>2017-08-03T14:46:41Z</time>
      </trkpt>
      <trkpt lat="45.9298" lon="4.74156">
        <ele>170</ele>
        <time>2017-08-03T14:46:43Z</time>
      </trkpt>
      <trkpt lat="45.92979" lon="4.74161">
        <ele>170</ele>
        <time>2017-08-03T14:46:44Z</time>
      </trkpt>
      <trkpt lat="45.92977" lon="4.7417">
        <ele>170</ele>
        <time>2017-08-03T14:46:46Z</time>
      </trkpt>
      <trkpt lat="45.92975" lon="4.74174">
        <ele>170</ele>
        <time>2017-08-03T14:46:47Z</time>
      </trkpt>
      <trkpt lat="45.92973" lon="4.74184">
        <ele>170</ele>
        <time>2017-08-03T14:46:49Z</time>
      </trkpt>
      <trkpt lat="45.92971" lon="4.74188">
        <ele>170</ele>
        <time>2017-08-03T14:46:50Z</time>
      </trkpt>
      <trkpt lat="45.92967" lon="4.74196">
        <ele>170</ele>
        <time>2017-08-03T14:46:52Z</time>
      </trkpt>
      <trkpt lat="45.92964" lon="4.74199">
        <ele>170</ele>
        <time>2017-08-03T14:46:53Z</time>
      </trkpt>
      <trkpt lat="45.92956" lon="4.74202">
        <ele>170</ele>
        <time>2017-08-03T14:46:55Z</time>
      </trkpt>
      <trkpt lat="45.92952" lon="4.74202">
        <ele>170</ele>
        <time>2017-08-03T14:46:56Z</time>
      </trkpt>
      <trkpt lat="45.92946" lon="4.742">
        <ele>170</ele>
        <time>2017-08-03T14:46:58Z</time>
      </trkpt>
      <trkpt lat="45.92942" lon="4.74199">
        <ele>170</ele>
        <time>2017-08-03T14:46:59Z</time>
      </trkpt>
      <trkpt lat="45.92936" lon="4.74195">
        <ele>170</ele>
        <time>2017-08-03T14:47:01Z</time>
      </trkpt>
      <trkpt lat="45.92933" lon="4.74192">
        <ele>170</ele>
        <time>2017-08-03T14:47:02Z</time>
      </trkpt>
      <trkpt lat="45.92926" lon="4.74188">
        <ele>171</ele>
        <time>2017-08-03T14:47:04Z</time>
      </trkpt>
      <trkpt lat="45.92923" lon="4.74186">
        <ele>171</ele>
        <time>2017-08-03T14:47:05Z</time>
      </trkpt>
      <trkpt lat="45.92916" lon="4.74182">
        <ele>172</ele>
        <time>2017-08-03T14:47:08Z</time>
      </trkpt>
      <trkpt lat="45.92913" lon="4.74181">
        <ele>172</ele>
        <time>2017-08-03T14:47:09Z</time>
      </trkpt>
      <trkpt lat="45.92907" lon="4.74177">
        <ele>172</ele>
        <time>2017-08-03T14:47:11Z</time>
      </trkpt>
      <trkpt lat="45.92904" lon="4.74175">
        <ele>172</ele>
        <time>2017-08-03T14:47:12Z</time>
      </trkpt>
      <trkpt lat="45.92897" lon="4.74172">
        <ele>172</ele>
        <time>2017-08-03T14:47:14Z</time>
      </trkpt>
      <trkpt lat="45.92894" lon="4.7417">
        <ele>172</ele>
        <time>2017-08-03T14:47:15Z</time>
      </trkpt>
      <trkpt lat="45.92889" lon="4.74164">
        <ele>172</ele>
        <time>2017-08-03T14:47:17Z</time>
      </trkpt>
      <trkpt lat="45.92887" lon="4.7416">
        <ele>172</ele>
        <time>2017-08-03T14:47:18Z</time>
      </trkpt>
      <trkpt lat="45.92885" lon="4.74148">
        <ele>172</ele>
        <time>2017-08-03T14:47:20Z</time>
      </trkpt>
      <trkpt lat="45.92884" lon="4.74142">
        <ele>172</ele>
        <time>2017-08-03T14:47:21Z</time>
      </trkpt>
      <trkpt lat="45.92885" lon="4.74136">
        <ele>172</ele>
        <time>2017-08-03T14:47:22Z</time>
      </trkpt>
      <trkpt lat="45.92886" lon="4.74129">
        <ele>172</ele>
        <time>2017-08-03T14:47:23Z</time>
      </trkpt>
      <trkpt lat="45.92889" lon="4.74123">
        <ele>172</ele>
        <time>2017-08-03T14:47:24Z</time>
      </trkpt>
      <trkpt lat="45.92892" lon="4.74118">
        <ele>172</ele>
        <time>2017-08-03T14:47:25Z</time>
      </trkpt>
      <trkpt lat="45.92896" lon="4.74112">
        <ele>172</ele>
        <time>2017-08-03T14:47:26Z</time>
      </trkpt>
      <trkpt lat="45.92901" lon="4.74106">
        <ele>172</ele>
        <time>2017-08-03T14:47:27Z</time>
      </trkpt>
      <trkpt lat="45.92905" lon="4.74098">
        <ele>172</ele>
        <time>2017-08-03T14:47:28Z</time>
      </trkpt>
      <trkpt lat="45.92909" lon="4.74089">
        <ele>173</ele>
        <time>2017-08-03T14:47:29Z</time>
      </trkpt>
      <trkpt lat="45.92911" lon="4.74079">
        <ele>173</ele>
        <time>2017-08-03T14:47:30Z</time>
      </trkpt>
      <trkpt lat="45.92913" lon="4.74068">
        <ele>173</ele>
        <time>2017-08-03T14:47:31Z</time>
      </trkpt>
      <trkpt lat="45.92914" lon="4.74058">
        <ele>172</ele>
        <time>2017-08-03T14:47:32Z</time>
      </trkpt>
      <trkpt lat="45.92914" lon="4.74049">
        <ele>172</ele>
        <time>2017-08-03T14:47:33Z</time>
      </trkpt>
      <trkpt lat="45.92917" lon="4.74037">
        <ele>172</ele>
        <time>2017-08-03T14:47:35Z</time>
      </trkpt>
      <trkpt lat="45.92919" lon="4.74032">
        <ele>172</ele>
        <time>2017-08-03T14:47:36Z</time>
      </trkpt>
      <trkpt lat="45.92921" lon="4.74026">
        <ele>172</ele>
        <time>2017-08-03T14:47:37Z</time>
      </trkpt>
      <trkpt lat="45.92922" lon="4.7402">
        <ele>172</ele>
        <time>2017-08-03T14:47:38Z</time>
      </trkpt>
      <trkpt lat="45.92922" lon="4.74013">
        <ele>172</ele>
        <time>2017-08-03T14:47:39Z</time>
      </trkpt>
      <trkpt lat="45.92921" lon="4.74006">
        <ele>172</ele>
        <time>2017-08-03T14:47:40Z</time>
      </trkpt>
      <trkpt lat="45.9292" lon="4.73999">
        <ele>172</ele>
        <time>2017-08-03T14:47:41Z</time>
      </trkpt>
      <trkpt lat="45.92918" lon="4.73992">
        <ele>172</ele>
        <time>2017-08-03T14:47:42Z</time>
      </trkpt>
      <trkpt lat="45.92916" lon="4.73986">
        <ele>172</ele>
        <time>2017-08-03T14:47:43Z</time>
      </trkpt>
      <trkpt lat="45.92915" lon="4.7398">
        <ele>172</ele>
        <time>2017-08-03T14:47:44Z</time>
      </trkpt>
      <trkpt lat="45.92912" lon="4.73968">
        <ele>172</ele>
        <time>2017-08-03T14:47:46Z</time>
      </trkpt>
      <trkpt lat="45.9291" lon="4.73963">
        <ele>172</ele>
        <time>2017-08-03T14:47:47Z</time>
      </trkpt>
      <trkpt lat="45.92907" lon="4.73957">
        <ele>172</ele>
        <time>2017-08-03T14:47:48Z</time>
      </trkpt>
      <trkpt lat="45.92905" lon="4.73951">
        <ele>172</ele>
        <time>2017-08-03T14:47:49Z</time>
      </trkpt>
      <trkpt lat="45.929" lon="4.73941">
        <ele>172</ele>
        <time>2017-08-03T14:47:51Z</time>
      </trkpt>
      <trkpt lat="45.92898" lon="4.73936">
        <ele>172</ele>
        <time>2017-08-03T14:47:52Z</time>
      </trkpt>
      <trkpt lat="45.92894" lon="4.73927">
        <ele>172</ele>
        <time>2017-08-03T14:47:54Z</time>
      </trkpt>
      <trkpt lat="45.92893" lon="4.73922">
        <ele>172</ele>
        <time>2017-08-03T14:47:55Z</time>
      </trkpt>
      <trkpt lat="45.92889" lon="4.73911">
        <ele>173</ele>
        <time>2017-08-03T14:47:57Z</time>
      </trkpt>
      <trkpt lat="45.92888" lon="4.73905">
        <ele>173</ele>
        <time>2017-08-03T14:47:58Z</time>
      </trkpt>
      <trkpt lat="45.92885" lon="4.73893">
        <ele>173</ele>
        <time>2017-08-03T14:48:00Z</time>
      </trkpt>
      <trkpt lat="45.92884" lon="4.73887">
        <ele>173</ele>
        <time>2017-08-03T14:48:01Z</time>
      </trkpt>
      <trkpt lat="45.92882" lon="4.73882">
        <ele>173</ele>
        <time>2017-08-03T14:48:02Z</time>
      </trkpt>
      <trkpt lat="45.9288" lon="4.73875">
        <ele>173</ele>
        <time>2017-08-03T14:48:03Z</time>
      </trkpt>
      <trkpt lat="45.92878" lon="4.73868">
        <ele>173</ele>
        <time>2017-08-03T14:48:04Z</time>
      </trkpt>
      <trkpt lat="45.92876" lon="4.73861">
        <ele>173</ele>
        <time>2017-08-03T14:48:05Z</time>
      </trkpt>
      <trkpt lat="45.92875" lon="4.73853">
        <ele>173</ele>
        <time>2017-08-03T14:48:06Z</time>
      </trkpt>
      <trkpt lat="45.92874" lon="4.73846">
        <ele>173</ele>
        <time>2017-08-03T14:48:07Z</time>
      </trkpt>
      <trkpt lat="45.92872" lon="4.73838">
        <ele>173</ele>
        <time>2017-08-03T14:48:08Z</time>
      </trkpt>
      <trkpt lat="45.9287" lon="4.73831">
        <ele>173</ele>
        <time>2017-08-03T14:48:09Z</time>
      </trkpt>
      <trkpt lat="45.92868" lon="4.73825">
        <ele>173</ele>
        <time>2017-08-03T14:48:10Z</time>
      </trkpt>
      <trkpt lat="45.92865" lon="4.73818">
        <ele>173</ele>
        <time>2017-08-03T14:48:11Z</time>
      </trkpt>
      <trkpt lat="45.92863" lon="4.73812">
        <ele>173</ele>
        <time>2017-08-03T14:48:12Z</time>
      </trkpt>
      <trkpt lat="45.92861" lon="4.73807">
        <ele>173</ele>
        <time>2017-08-03T14:48:13Z</time>
      </trkpt>
      <trkpt lat="45.92856" lon="4.73797">
        <ele>173</ele>
        <time>2017-08-03T14:48:15Z</time>
      </trkpt>
      <trkpt lat="45.92854" lon="4.73793">
        <ele>173</ele>
        <time>2017-08-03T14:48:16Z</time>
      </trkpt>
      <trkpt lat="45.92848" lon="4.73787">
        <ele>173</ele>
        <time>2017-08-03T14:48:18Z</time>
      </trkpt>
      <trkpt lat="45.92844" lon="4.73784">
        <ele>173</ele>
        <time>2017-08-03T14:48:19Z</time>
      </trkpt>
      <trkpt lat="45.92836" lon="4.7378">
        <ele>173</ele>
        <time>2017-08-03T14:48:21Z</time>
      </trkpt>
      <trkpt lat="45.92832" lon="4.73777">
        <ele>173</ele>
        <time>2017-08-03T14:48:22Z</time>
      </trkpt>
      <trkpt lat="45.92827" lon="4.73774">
        <ele>173</ele>
        <time>2017-08-03T14:48:23Z</time>
      </trkpt>
      <trkpt lat="45.92823" lon="4.73771">
        <ele>173</ele>
        <time>2017-08-03T14:48:24Z</time>
      </trkpt>
      <trkpt lat="45.92818" lon="4.73768">
        <ele>173</ele>
        <time>2017-08-03T14:48:25Z</time>
      </trkpt>
      <trkpt lat="45.92813" lon="4.73765">
        <ele>173</ele>
        <time>2017-08-03T14:48:26Z</time>
      </trkpt>
      <trkpt lat="45.92808" lon="4.73762">
        <ele>173</ele>
        <time>2017-08-03T14:48:27Z</time>
      </trkpt>
      <trkpt lat="45.92803" lon="4.7376">
        <ele>173</ele>
        <time>2017-08-03T14:48:28Z</time>
      </trkpt>
      <trkpt lat="45.92798" lon="4.73758">
        <ele>173</ele>
        <time>2017-08-03T14:48:29Z</time>
      </trkpt>
      <trkpt lat="45.92794" lon="4.73756">
        <ele>173</ele>
        <time>2017-08-03T14:48:30Z</time>
      </trkpt>
      <trkpt lat="45.92787" lon="4.7375">
        <ele>172</ele>
        <time>2017-08-03T14:48:32Z</time>
      </trkpt>
      <trkpt lat="45.92785" lon="4.73745">
        <ele>172</ele>
        <time>2017-08-03T14:48:33Z</time>
      </trkpt>
      <trkpt lat="45.92781" lon="4.73737">
        <ele>172</ele>
        <time>2017-08-03T14:48:35Z</time>
      </trkpt>
      <trkpt lat="45.92778" lon="4.73732">
        <ele>172</ele>
        <time>2017-08-03T14:48:36Z</time>
      </trkpt>
      <trkpt lat="45.92771" lon="4.73728">
        <ele>172</ele>
        <time>2017-08-03T14:48:38Z</time>
      </trkpt>
      <trkpt lat="45.92767" lon="4.73726">
        <ele>172</ele>
        <time>2017-08-03T14:48:39Z</time>
      </trkpt>
      <trkpt lat="45.9276" lon="4.73724">
        <ele>172</ele>
        <time>2017-08-03T14:48:41Z</time>
      </trkpt>
      <trkpt lat="45.92756" lon="4.73723">
        <ele>172</ele>
        <time>2017-08-03T14:48:42Z</time>
      </trkpt>
      <trkpt lat="45.92748" lon="4.73721">
        <ele>173</ele>
        <time>2017-08-03T14:48:44Z</time>
      </trkpt>
      <trkpt lat="45.92743" lon="4.7372">
        <ele>173</ele>
        <time>2017-08-03T14:48:45Z</time>
      </trkpt>
      <trkpt lat="45.92738" lon="4.73719">
        <ele>173</ele>
        <time>2017-08-03T14:48:46Z</time>
      </trkpt>
      <trkpt lat="45.92733" lon="4.73719">
        <ele>173</ele>
        <time>2017-08-03T14:48:47Z</time>
      </trkpt>
      <trkpt lat="45.92728" lon="4.73718">
        <ele>173</ele>
        <time>2017-08-03T14:48:48Z</time>
      </trkpt>
      <trkpt lat="45.92723" lon="4.73716">
        <ele>173</ele>
        <time>2017-08-03T14:48:49Z</time>
      </trkpt>
      <trkpt lat="45.92718" lon="4.73715">
        <ele>173</ele>
        <time>2017-08-03T14:48:50Z</time>
      </trkpt>
      <trkpt lat="45.92714" lon="4.73714">
        <ele>173</ele>
        <time>2017-08-03T14:48:51Z</time>
      </trkpt>
      <trkpt lat="45.92709" lon="4.73713">
        <ele>173</ele>
        <time>2017-08-03T14:48:52Z</time>
      </trkpt>
      <trkpt lat="45.92704" lon="4.73712">
        <ele>173</ele>
        <time>2017-08-03T14:48:53Z</time>
      </trkpt>
      <trkpt lat="45.92696" lon="4.7371">
        <ele>173</ele>
        <time>2017-08-03T14:48:55Z</time>
      </trkpt>
      <trkpt lat="45.92692" lon="4.73709">
        <ele>173</ele>
        <time>2017-08-03T14:48:56Z</time>
      </trkpt>
      <trkpt lat="45.92683" lon="4.73706">
        <ele>173</ele>
        <time>2017-08-03T14:48:58Z</time>
      </trkpt>
      <trkpt lat="45.92678" lon="4.73705">
        <ele>173</ele>
        <time>2017-08-03T14:48:59Z</time>
      </trkpt>
      <trkpt lat="45.92673" lon="4.73702">
        <ele>174</ele>
        <time>2017-08-03T14:49:00Z</time>
      </trkpt>
      <trkpt lat="45.92668" lon="4.737">
        <ele>174</ele>
        <time>2017-08-03T14:49:01Z</time>
      </trkpt>
      <trkpt lat="45.92663" lon="4.73696">
        <ele>173</ele>
        <time>2017-08-03T14:49:02Z</time>
      </trkpt>
      <trkpt lat="45.92659" lon="4.73693">
        <ele>173</ele>
        <time>2017-08-03T14:49:03Z</time>
      </trkpt>
      <trkpt lat="45.92655" lon="4.73689">
        <ele>173</ele>
        <time>2017-08-03T14:49:04Z</time>
      </trkpt>
      <trkpt lat="45.92652" lon="4.73684">
        <ele>173</ele>
        <time>2017-08-03T14:49:05Z</time>
      </trkpt>
      <trkpt lat="45.92648" lon="4.73679">
        <ele>173</ele>
        <time>2017-08-03T14:49:06Z</time>
      </trkpt>
      <trkpt lat="45.92645" lon="4.73674">
        <ele>173</ele>
        <time>2017-08-03T14:49:07Z</time>
      </trkpt>
      <trkpt lat="45.92639" lon="4.73666">
        <ele>173</ele>
        <time>2017-08-03T14:49:09Z</time>
      </trkpt>
      <trkpt lat="45.92636" lon="4.7366">
        <ele>173</ele>
        <time>2017-08-03T14:49:10Z</time>
      </trkpt>
      <trkpt lat="45.92634" lon="4.73654">
        <ele>173</ele>
        <time>2017-08-03T14:49:11Z</time>
      </trkpt>
      <trkpt lat="45.92631" lon="4.73648">
        <ele>173</ele>
        <time>2017-08-03T14:49:12Z</time>
      </trkpt>
      <trkpt lat="45.92629" lon="4.73641">
        <ele>173</ele>
        <time>2017-08-03T14:49:13Z</time>
      </trkpt>
      <trkpt lat="45.92625" lon="4.73634">
        <ele>173</ele>
        <time>2017-08-03T14:49:14Z</time>
      </trkpt>
      <trkpt lat="45.92621" lon="4.73629">
        <ele>173</ele>
        <time>2017-08-03T14:49:15Z</time>
      </trkpt>
      <trkpt lat="45.92617" lon="4.73625">
        <ele>173</ele>
        <time>2017-08-03T14:49:16Z</time>
      </trkpt>
      <trkpt lat="45.92613" lon="4.73621">
        <ele>173</ele>
        <time>2017-08-03T14:49:17Z</time>
      </trkpt>
      <trkpt lat="45.92608" lon="4.73619">
        <ele>173</ele>
        <time>2017-08-03T14:49:18Z</time>
      </trkpt>
      <trkpt lat="45.92603" lon="4.73618">
        <ele>173</ele>
        <time>2017-08-03T14:49:19Z</time>
      </trkpt>
      <trkpt lat="45.92599" lon="4.73618">
        <ele>173</ele>
        <time>2017-08-03T14:49:20Z</time>
      </trkpt>
      <trkpt lat="45.92595" lon="4.73619">
        <ele>173</ele>
        <time>2017-08-03T14:49:21Z</time>
      </trkpt>
      <trkpt lat="45.9259" lon="4.7362">
        <ele>173</ele>
        <time>2017-08-03T14:49:22Z</time>
      </trkpt>
      <trkpt lat="45.92585" lon="4.7362">
        <ele>173</ele>
        <time>2017-08-03T14:49:23Z</time>
      </trkpt>
      <trkpt lat="45.92579" lon="4.73622">
        <ele>173</ele>
        <time>2017-08-03T14:49:24Z</time>
      </trkpt>
      <trkpt lat="45.92574" lon="4.73623">
        <ele>173</ele>
        <time>2017-08-03T14:49:25Z</time>
      </trkpt>
      <trkpt lat="45.92569" lon="4.73624">
        <ele>173</ele>
        <time>2017-08-03T14:49:26Z</time>
      </trkpt>
      <trkpt lat="45.92564" lon="4.73626">
        <ele>173</ele>
        <time>2017-08-03T14:49:27Z</time>
      </trkpt>
      <trkpt lat="45.92558" lon="4.73627">
        <ele>173</ele>
        <time>2017-08-03T14:49:28Z</time>
      </trkpt>
      <trkpt lat="45.92553" lon="4.73629">
        <ele>173</ele>
        <time>2017-08-03T14:49:29Z</time>
      </trkpt>
      <trkpt lat="45.92548" lon="4.7363">
        <ele>173</ele>
        <time>2017-08-03T14:49:30Z</time>
      </trkpt>
      <trkpt lat="45.92543" lon="4.73631">
        <ele>173</ele>
        <time>2017-08-03T14:49:31Z</time>
      </trkpt>
      <trkpt lat="45.92539" lon="4.73632">
        <ele>173</ele>
        <time>2017-08-03T14:49:32Z</time>
      </trkpt>
      <trkpt lat="45.9253" lon="4.73633">
        <ele>173</ele>
        <time>2017-08-03T14:49:34Z</time>
      </trkpt>
      <trkpt lat="45.92525" lon="4.73634">
        <ele>173</ele>
        <time>2017-08-03T14:49:35Z</time>
      </trkpt>
      <trkpt lat="45.92517" lon="4.73636">
        <ele>173</ele>
        <time>2017-08-03T14:49:37Z</time>
      </trkpt>
      <trkpt lat="45.92513" lon="4.73637">
        <ele>173</ele>
        <time>2017-08-03T14:49:38Z</time>
      </trkpt>
      <trkpt lat="45.92505" lon="4.73637">
        <ele>174</ele>
        <time>2017-08-03T14:49:40Z</time>
      </trkpt>
      <trkpt lat="45.92502" lon="4.73636">
        <ele>174</ele>
        <time>2017-08-03T14:49:41Z</time>
      </trkpt>
      <trkpt lat="45.92494" lon="4.73637">
        <ele>174</ele>
        <time>2017-08-03T14:49:43Z</time>
      </trkpt>
      <trkpt lat="45.9249" lon="4.73637">
        <ele>174</ele>
        <time>2017-08-03T14:49:44Z</time>
      </trkpt>
      <trkpt lat="45.92483" lon="4.73636">
        <ele>174</ele>
        <time>2017-08-03T14:49:46Z</time>
      </trkpt>
      <trkpt lat="45.92479" lon="4.73635">
        <ele>174</ele>
        <time>2017-08-03T14:49:47Z</time>
      </trkpt>
      <trkpt lat="45.92473" lon="4.73639">
        <ele>174</ele>
        <time>2017-08-03T14:49:49Z</time>
      </trkpt>
      <trkpt lat="45.9247" lon="4.73643">
        <ele>174</ele>
        <time>2017-08-03T14:49:50Z</time>
      </trkpt>
      <trkpt lat="45.92468" lon="4.73652">
        <ele>174</ele>
        <time>2017-08-03T14:49:52Z</time>
      </trkpt>
      <trkpt lat="45.92467" lon="4.73656">
        <ele>174</ele>
        <time>2017-08-03T14:49:53Z</time>
      </trkpt>
      <trkpt lat="45.92466" lon="4.73665">
        <ele>174</ele>
        <time>2017-08-03T14:49:55Z</time>
      </trkpt>
      <trkpt lat="45.92466" lon="4.7367">
        <ele>174</ele>
        <time>2017-08-03T14:49:56Z</time>
      </trkpt>
      <trkpt lat="45.92465" lon="4.7368">
        <ele>174</ele>
        <time>2017-08-03T14:49:58Z</time>
      </trkpt>
      <trkpt lat="45.92465" lon="4.73684">
        <ele>174</ele>
        <time>2017-08-03T14:49:59Z</time>
      </trkpt>
      <trkpt lat="45.92465" lon="4.73693">
        <ele>174</ele>
        <time>2017-08-03T14:50:01Z</time>
      </trkpt>
      <trkpt lat="45.92464" lon="4.73697">
        <ele>174</ele>
        <time>2017-08-03T14:50:02Z</time>
      </trkpt>
      <trkpt lat="45.92463" lon="4.73703">
        <ele>174</ele>
        <time>2017-08-03T14:50:04Z</time>
      </trkpt>
      <trkpt lat="45.92463" lon="4.73705">
        <ele>174</ele>
        <time>2017-08-03T14:50:05Z</time>
      </trkpt>
      <trkpt lat="45.92463" lon="4.73709">
        <ele>174</ele>
        <time>2017-08-03T14:50:25.803Z</time>
      </trkpt>
    </trkseg>
  </trk>
</gpx>